<?xml version="1.0" encoding="UTF-8" standalone="no" ?>
<gpx xmlns="http://www.topografix.com/GPX/1/1" xmlns:xsi="http://www.w3.org/2001/XMLSchema-instance" xsi:schemaLocation="http://www.topografix.com/GPX/1/1 http://www.topografix.com/GPX/1/1/gpx.xsd" version="1.1" creator="VisuGPX - https://www.visugpx.com">
  <metadata>
    <name>170322HR3ROBJeunes</name>
    <desc><![CDATA[excellente sortie avec un beau soleil]]></desc>
  </metadata>
  <trk>
    <name><![CDATA[170322HR3ROBJeunes]]></name>
    <trkseg>
      <trkpt lat="43.41582" lon="6.07039">
        <ele>216.80000305176</ele>
        <time>2017-03-22T13:04:03Z</time>
      </trkpt>
      <trkpt lat="43.41582" lon="6.07043">
        <ele>216.80000305176</ele>
        <time>2017-03-22T13:04:06Z</time>
      </trkpt>
      <trkpt lat="43.41582" lon="6.0705">
        <ele>216.80000305176</ele>
        <time>2017-03-22T13:04:13Z</time>
      </trkpt>
      <trkpt lat="43.41582" lon="6.07054">
        <ele>216.80000305176</ele>
        <time>2017-03-22T13:04:15Z</time>
      </trkpt>
      <trkpt lat="43.41582" lon="6.07057">
        <ele>216.60000610352</ele>
        <time>2017-03-22T13:04:16Z</time>
      </trkpt>
      <trkpt lat="43.41584" lon="6.07093">
        <ele>216.19999694824</ele>
        <time>2017-03-22T13:04:25Z</time>
      </trkpt>
      <trkpt lat="43.41584" lon="6.07097">
        <ele>216.19999694824</ele>
        <time>2017-03-22T13:04:26Z</time>
      </trkpt>
      <trkpt lat="43.41582" lon="6.07106">
        <ele>216.19999694824</ele>
        <time>2017-03-22T13:04:29Z</time>
      </trkpt>
      <trkpt lat="43.41581" lon="6.07108">
        <ele>216.19999694824</ele>
        <time>2017-03-22T13:04:30Z</time>
      </trkpt>
      <trkpt lat="43.41564" lon="6.0712">
        <ele>216.39999389648</ele>
        <time>2017-03-22T13:04:36Z</time>
      </trkpt>
      <trkpt lat="43.41551" lon="6.07117">
        <ele>216</ele>
        <time>2017-03-22T13:04:41Z</time>
      </trkpt>
      <trkpt lat="43.41548" lon="6.07101">
        <ele>215.60000610352</ele>
        <time>2017-03-22T13:04:46Z</time>
      </trkpt>
      <trkpt lat="43.41524" lon="6.07081">
        <ele>215.19999694824</ele>
        <time>2017-03-22T13:04:56Z</time>
      </trkpt>
      <trkpt lat="43.41519" lon="6.07082">
        <ele>215</ele>
        <time>2017-03-22T13:04:57Z</time>
      </trkpt>
      <trkpt lat="43.41502" lon="6.07086">
        <ele>214.60000610352</ele>
        <time>2017-03-22T13:05:01Z</time>
      </trkpt>
      <trkpt lat="43.41483" lon="6.07075">
        <ele>214</ele>
        <time>2017-03-22T13:05:06Z</time>
      </trkpt>
      <trkpt lat="43.4148" lon="6.07073">
        <ele>214</ele>
        <time>2017-03-22T13:05:07Z</time>
      </trkpt>
      <trkpt lat="43.41464" lon="6.07068">
        <ele>213.60000610352</ele>
        <time>2017-03-22T13:05:16Z</time>
      </trkpt>
      <trkpt lat="43.41444" lon="6.07112">
        <ele>213.39999389648</ele>
        <time>2017-03-22T13:05:26Z</time>
      </trkpt>
      <trkpt lat="43.41437" lon="6.07135">
        <ele>213</ele>
        <time>2017-03-22T13:05:30Z</time>
      </trkpt>
      <trkpt lat="43.41424" lon="6.07171">
        <ele>212.60000610352</ele>
        <time>2017-03-22T13:05:36Z</time>
      </trkpt>
      <trkpt lat="43.41415" lon="6.072">
        <ele>213</ele>
        <time>2017-03-22T13:05:41Z</time>
      </trkpt>
      <trkpt lat="43.41405" lon="6.07229">
        <ele>213.19999694824</ele>
        <time>2017-03-22T13:05:46Z</time>
      </trkpt>
      <trkpt lat="43.41397" lon="6.07255">
        <ele>212.80000305176</ele>
        <time>2017-03-22T13:05:50Z</time>
      </trkpt>
      <trkpt lat="43.41383" lon="6.07297">
        <ele>212.60000610352</ele>
        <time>2017-03-22T13:05:56Z</time>
      </trkpt>
      <trkpt lat="43.41378" lon="6.07318">
        <ele>212.80000305176</ele>
        <time>2017-03-22T13:05:59Z</time>
      </trkpt>
      <trkpt lat="43.41364" lon="6.07378">
        <ele>212</ele>
        <time>2017-03-22T13:06:07Z</time>
      </trkpt>
      <trkpt lat="43.41356" lon="6.07416">
        <ele>211.60000610352</ele>
        <time>2017-03-22T13:06:12Z</time>
      </trkpt>
      <trkpt lat="43.4135" lon="6.07446">
        <ele>210.60000610352</ele>
        <time>2017-03-22T13:06:16Z</time>
      </trkpt>
      <trkpt lat="43.41336" lon="6.0752">
        <ele>210.19999694824</ele>
        <time>2017-03-22T13:06:26Z</time>
      </trkpt>
      <trkpt lat="43.41327" lon="6.07558">
        <ele>209.80000305176</ele>
        <time>2017-03-22T13:06:31Z</time>
      </trkpt>
      <trkpt lat="43.41301" lon="6.07651">
        <ele>208.60000610352</ele>
        <time>2017-03-22T13:06:44Z</time>
      </trkpt>
      <trkpt lat="43.41296" lon="6.07665">
        <ele>208.60000610352</ele>
        <time>2017-03-22T13:06:46Z</time>
      </trkpt>
      <trkpt lat="43.41288" lon="6.07727">
        <ele>208.19999694824</ele>
        <time>2017-03-22T13:06:54Z</time>
      </trkpt>
      <trkpt lat="43.41289" lon="6.07744">
        <ele>208.19999694824</ele>
        <time>2017-03-22T13:06:56Z</time>
      </trkpt>
      <trkpt lat="43.41297" lon="6.07786">
        <ele>207.39999389648</ele>
        <time>2017-03-22T13:07:01Z</time>
      </trkpt>
      <trkpt lat="43.41309" lon="6.07827">
        <ele>207</ele>
        <time>2017-03-22T13:07:06Z</time>
      </trkpt>
      <trkpt lat="43.41327" lon="6.07895">
        <ele>207.60000610352</ele>
        <time>2017-03-22T13:07:16Z</time>
      </trkpt>
      <trkpt lat="43.41327" lon="6.07917">
        <ele>208.39999389648</ele>
        <time>2017-03-22T13:07:22Z</time>
      </trkpt>
      <trkpt lat="43.41331" lon="6.07925">
        <ele>208.39999389648</ele>
        <time>2017-03-22T13:07:24Z</time>
      </trkpt>
      <trkpt lat="43.4134" lon="6.07933">
        <ele>208.19999694824</ele>
        <time>2017-03-22T13:07:26Z</time>
      </trkpt>
      <trkpt lat="43.4135" lon="6.07942">
        <ele>208.19999694824</ele>
        <time>2017-03-22T13:07:28Z</time>
      </trkpt>
      <trkpt lat="43.41367" lon="6.07958">
        <ele>207.80000305176</ele>
        <time>2017-03-22T13:07:31Z</time>
      </trkpt>
      <trkpt lat="43.41382" lon="6.07978">
        <ele>207.19999694824</ele>
        <time>2017-03-22T13:07:34Z</time>
      </trkpt>
      <trkpt lat="43.41391" lon="6.07993">
        <ele>207</ele>
        <time>2017-03-22T13:07:36Z</time>
      </trkpt>
      <trkpt lat="43.41406" lon="6.08018">
        <ele>207</ele>
        <time>2017-03-22T13:07:40Z</time>
      </trkpt>
      <trkpt lat="43.4143" lon="6.08057">
        <ele>207.39999389648</ele>
        <time>2017-03-22T13:07:46Z</time>
      </trkpt>
      <trkpt lat="43.41465" lon="6.08116">
        <ele>207</ele>
        <time>2017-03-22T13:07:55Z</time>
      </trkpt>
      <trkpt lat="43.41468" lon="6.08122">
        <ele>207</ele>
        <time>2017-03-22T13:07:56Z</time>
      </trkpt>
      <trkpt lat="43.41503" lon="6.0818">
        <ele>207.60000610352</ele>
        <time>2017-03-22T13:08:06Z</time>
      </trkpt>
      <trkpt lat="43.41516" lon="6.08209">
        <ele>207.60000610352</ele>
        <time>2017-03-22T13:08:10Z</time>
      </trkpt>
      <trkpt lat="43.41532" lon="6.0824">
        <ele>207.19999694824</ele>
        <time>2017-03-22T13:08:14Z</time>
      </trkpt>
      <trkpt lat="43.41539" lon="6.08255">
        <ele>207</ele>
        <time>2017-03-22T13:08:16Z</time>
      </trkpt>
      <trkpt lat="43.41555" lon="6.08333">
        <ele>207</ele>
        <time>2017-03-22T13:08:26Z</time>
      </trkpt>
      <trkpt lat="43.4157" lon="6.0841">
        <ele>207.19999694824</ele>
        <time>2017-03-22T13:08:36Z</time>
      </trkpt>
      <trkpt lat="43.41581" lon="6.08488">
        <ele>207.19999694824</ele>
        <time>2017-03-22T13:08:46Z</time>
      </trkpt>
      <trkpt lat="43.41594" lon="6.08569">
        <ele>207.60000610352</ele>
        <time>2017-03-22T13:08:56Z</time>
      </trkpt>
      <trkpt lat="43.41606" lon="6.08644">
        <ele>207.19999694824</ele>
        <time>2017-03-22T13:09:05Z</time>
      </trkpt>
      <trkpt lat="43.41608" lon="6.08652">
        <ele>207</ele>
        <time>2017-03-22T13:09:06Z</time>
      </trkpt>
      <trkpt lat="43.41641" lon="6.08719">
        <ele>206.39999389648</ele>
        <time>2017-03-22T13:09:16Z</time>
      </trkpt>
      <trkpt lat="43.41676" lon="6.08785">
        <ele>206.39999389648</ele>
        <time>2017-03-22T13:09:26Z</time>
      </trkpt>
      <trkpt lat="43.4171" lon="6.08846">
        <ele>206.19999694824</ele>
        <time>2017-03-22T13:09:35Z</time>
      </trkpt>
      <trkpt lat="43.41714" lon="6.08852">
        <ele>206.19999694824</ele>
        <time>2017-03-22T13:09:36Z</time>
      </trkpt>
      <trkpt lat="43.41727" lon="6.08879">
        <ele>206.39999389648</ele>
        <time>2017-03-22T13:09:40Z</time>
      </trkpt>
      <trkpt lat="43.41732" lon="6.08902">
        <ele>206.39999389648</ele>
        <time>2017-03-22T13:09:43Z</time>
      </trkpt>
      <trkpt lat="43.41733" lon="6.08927">
        <ele>206.39999389648</ele>
        <time>2017-03-22T13:09:46Z</time>
      </trkpt>
      <trkpt lat="43.41718" lon="6.0907">
        <ele>206.39999389648</ele>
        <time>2017-03-22T13:10:04Z</time>
      </trkpt>
      <trkpt lat="43.41718" lon="6.09086">
        <ele>206.60000610352</ele>
        <time>2017-03-22T13:10:06Z</time>
      </trkpt>
      <trkpt lat="43.41718" lon="6.09164">
        <ele>205.60000610352</ele>
        <time>2017-03-22T13:10:16Z</time>
      </trkpt>
      <trkpt lat="43.41719" lon="6.09228">
        <ele>205.39999389648</ele>
        <time>2017-03-22T13:10:24Z</time>
      </trkpt>
      <trkpt lat="43.41719" lon="6.09244">
        <ele>205.19999694824</ele>
        <time>2017-03-22T13:10:26Z</time>
      </trkpt>
      <trkpt lat="43.41721" lon="6.09329">
        <ele>205.60000610352</ele>
        <time>2017-03-22T13:10:36Z</time>
      </trkpt>
      <trkpt lat="43.41735" lon="6.09403">
        <ele>205.60000610352</ele>
        <time>2017-03-22T13:10:45Z</time>
      </trkpt>
      <trkpt lat="43.41737" lon="6.09411">
        <ele>205.39999389648</ele>
        <time>2017-03-22T13:10:46Z</time>
      </trkpt>
      <trkpt lat="43.41755" lon="6.0949">
        <ele>205.60000610352</ele>
        <time>2017-03-22T13:10:56Z</time>
      </trkpt>
      <trkpt lat="43.41772" lon="6.09542">
        <ele>205.19999694824</ele>
        <time>2017-03-22T13:11:03Z</time>
      </trkpt>
      <trkpt lat="43.41782" lon="6.09564">
        <ele>205.60000610352</ele>
        <time>2017-03-22T13:11:06Z</time>
      </trkpt>
      <trkpt lat="43.41815" lon="6.09631">
        <ele>205.80000305176</ele>
        <time>2017-03-22T13:11:16Z</time>
      </trkpt>
      <trkpt lat="43.41829" lon="6.09646">
        <ele>206</ele>
        <time>2017-03-22T13:11:19Z</time>
      </trkpt>
      <trkpt lat="43.4184" lon="6.09652">
        <ele>206</ele>
        <time>2017-03-22T13:11:21Z</time>
      </trkpt>
      <trkpt lat="43.41869" lon="6.09657">
        <ele>206.39999389648</ele>
        <time>2017-03-22T13:11:26Z</time>
      </trkpt>
      <trkpt lat="43.41924" lon="6.09662">
        <ele>205.80000305176</ele>
        <time>2017-03-22T13:11:35Z</time>
      </trkpt>
      <trkpt lat="43.4193" lon="6.09662">
        <ele>205.80000305176</ele>
        <time>2017-03-22T13:11:36Z</time>
      </trkpt>
      <trkpt lat="43.41989" lon="6.09671">
        <ele>205.80000305176</ele>
        <time>2017-03-22T13:11:46Z</time>
      </trkpt>
      <trkpt lat="43.42009" lon="6.09673">
        <ele>206</ele>
        <time>2017-03-22T13:11:50Z</time>
      </trkpt>
      <trkpt lat="43.42041" lon="6.09695">
        <ele>206.19999694824</ele>
        <time>2017-03-22T13:11:56Z</time>
      </trkpt>
      <trkpt lat="43.42059" lon="6.09717">
        <ele>206.60000610352</ele>
        <time>2017-03-22T13:12:00Z</time>
      </trkpt>
      <trkpt lat="43.42067" lon="6.09729">
        <ele>206.60000610352</ele>
        <time>2017-03-22T13:12:02Z</time>
      </trkpt>
      <trkpt lat="43.42078" lon="6.09758">
        <ele>206.80000305176</ele>
        <time>2017-03-22T13:12:06Z</time>
      </trkpt>
      <trkpt lat="43.42088" lon="6.09811">
        <ele>206.80000305176</ele>
        <time>2017-03-22T13:12:13Z</time>
      </trkpt>
      <trkpt lat="43.42088" lon="6.09836">
        <ele>206.60000610352</ele>
        <time>2017-03-22T13:12:16Z</time>
      </trkpt>
      <trkpt lat="43.42088" lon="6.09853">
        <ele>206.39999389648</ele>
        <time>2017-03-22T13:12:18Z</time>
      </trkpt>
      <trkpt lat="43.42085" lon="6.09876">
        <ele>206.39999389648</ele>
        <time>2017-03-22T13:12:21Z</time>
      </trkpt>
      <trkpt lat="43.42074" lon="6.0991">
        <ele>206.39999389648</ele>
        <time>2017-03-22T13:12:26Z</time>
      </trkpt>
      <trkpt lat="43.42067" lon="6.0993">
        <ele>206.19999694824</ele>
        <time>2017-03-22T13:12:29Z</time>
      </trkpt>
      <trkpt lat="43.4206" lon="6.09952">
        <ele>206.60000610352</ele>
        <time>2017-03-22T13:12:32Z</time>
      </trkpt>
      <trkpt lat="43.42054" lon="6.09976">
        <ele>207</ele>
        <time>2017-03-22T13:12:35Z</time>
      </trkpt>
      <trkpt lat="43.42052" lon="6.09984">
        <ele>207</ele>
        <time>2017-03-22T13:12:36Z</time>
      </trkpt>
      <trkpt lat="43.42039" lon="6.10059">
        <ele>207</ele>
        <time>2017-03-22T13:12:45Z</time>
      </trkpt>
      <trkpt lat="43.42038" lon="6.10068">
        <ele>207</ele>
        <time>2017-03-22T13:12:46Z</time>
      </trkpt>
      <trkpt lat="43.42033" lon="6.10102">
        <ele>207.19999694824</ele>
        <time>2017-03-22T13:12:50Z</time>
      </trkpt>
      <trkpt lat="43.42025" lon="6.10153">
        <ele>206.60000610352</ele>
        <time>2017-03-22T13:12:56Z</time>
      </trkpt>
      <trkpt lat="43.42021" lon="6.10186">
        <ele>206.80000305176</ele>
        <time>2017-03-22T13:13:00Z</time>
      </trkpt>
      <trkpt lat="43.42015" lon="6.10238">
        <ele>205.80000305176</ele>
        <time>2017-03-22T13:13:06Z</time>
      </trkpt>
      <trkpt lat="43.4201" lon="6.10273">
        <ele>205.19999694824</ele>
        <time>2017-03-22T13:13:10Z</time>
      </trkpt>
      <trkpt lat="43.42006" lon="6.103">
        <ele>205.19999694824</ele>
        <time>2017-03-22T13:13:13Z</time>
      </trkpt>
      <trkpt lat="43.42002" lon="6.10328">
        <ele>205</ele>
        <time>2017-03-22T13:13:16Z</time>
      </trkpt>
      <trkpt lat="43.41996" lon="6.10372">
        <ele>204.80000305176</ele>
        <time>2017-03-22T13:13:21Z</time>
      </trkpt>
      <trkpt lat="43.4199" lon="6.10415">
        <ele>204.60000610352</ele>
        <time>2017-03-22T13:13:26Z</time>
      </trkpt>
      <trkpt lat="43.41985" lon="6.10497">
        <ele>204.19999694824</ele>
        <time>2017-03-22T13:13:35Z</time>
      </trkpt>
      <trkpt lat="43.41985" lon="6.10505">
        <ele>204.19999694824</ele>
        <time>2017-03-22T13:13:36Z</time>
      </trkpt>
      <trkpt lat="43.41968" lon="6.10583">
        <ele>203.39999389648</ele>
        <time>2017-03-22T13:13:45Z</time>
      </trkpt>
      <trkpt lat="43.41965" lon="6.10592">
        <ele>203.19999694824</ele>
        <time>2017-03-22T13:13:46Z</time>
      </trkpt>
      <trkpt lat="43.41942" lon="6.1066">
        <ele>202.60000610352</ele>
        <time>2017-03-22T13:13:54Z</time>
      </trkpt>
      <trkpt lat="43.41937" lon="6.10676">
        <ele>202.80000305176</ele>
        <time>2017-03-22T13:13:56Z</time>
      </trkpt>
      <trkpt lat="43.41916" lon="6.1074">
        <ele>202.60000610352</ele>
        <time>2017-03-22T13:14:04Z</time>
      </trkpt>
      <trkpt lat="43.41912" lon="6.10758">
        <ele>202.60000610352</ele>
        <time>2017-03-22T13:14:06Z</time>
      </trkpt>
      <trkpt lat="43.41909" lon="6.10777">
        <ele>202</ele>
        <time>2017-03-22T13:14:08Z</time>
      </trkpt>
      <trkpt lat="43.41902" lon="6.10848">
        <ele>201.80000305176</ele>
        <time>2017-03-22T13:14:16Z</time>
      </trkpt>
      <trkpt lat="43.41901" lon="6.1089">
        <ele>202</ele>
        <time>2017-03-22T13:14:21Z</time>
      </trkpt>
      <trkpt lat="43.41921" lon="6.10989">
        <ele>202.39999389648</ele>
        <time>2017-03-22T13:14:32Z</time>
      </trkpt>
      <trkpt lat="43.41922" lon="6.1102">
        <ele>201.80000305176</ele>
        <time>2017-03-22T13:14:35Z</time>
      </trkpt>
      <trkpt lat="43.41921" lon="6.1103">
        <ele>201.39999389648</ele>
        <time>2017-03-22T13:14:36Z</time>
      </trkpt>
      <trkpt lat="43.41919" lon="6.11051">
        <ele>201</ele>
        <time>2017-03-22T13:14:38Z</time>
      </trkpt>
      <trkpt lat="43.41916" lon="6.11118">
        <ele>200.39999389648</ele>
        <time>2017-03-22T13:14:45Z</time>
      </trkpt>
      <trkpt lat="43.41923" lon="6.11155">
        <ele>200</ele>
        <time>2017-03-22T13:14:49Z</time>
      </trkpt>
      <trkpt lat="43.41943" lon="6.112">
        <ele>200</ele>
        <time>2017-03-22T13:14:55Z</time>
      </trkpt>
      <trkpt lat="43.41946" lon="6.11207">
        <ele>200</ele>
        <time>2017-03-22T13:14:56Z</time>
      </trkpt>
      <trkpt lat="43.41954" lon="6.11221">
        <ele>200</ele>
        <time>2017-03-22T13:14:58Z</time>
      </trkpt>
      <trkpt lat="43.41993" lon="6.11272">
        <ele>199.80000305176</ele>
        <time>2017-03-22T13:15:06Z</time>
      </trkpt>
      <trkpt lat="43.42029" lon="6.11327">
        <ele>199.19999694824</ele>
        <time>2017-03-22T13:15:14Z</time>
      </trkpt>
      <trkpt lat="43.42037" lon="6.11342">
        <ele>199.39999389648</ele>
        <time>2017-03-22T13:15:16Z</time>
      </trkpt>
      <trkpt lat="43.42074" lon="6.11406">
        <ele>200</ele>
        <time>2017-03-22T13:15:25Z</time>
      </trkpt>
      <trkpt lat="43.42078" lon="6.11413">
        <ele>200</ele>
        <time>2017-03-22T13:15:26Z</time>
      </trkpt>
      <trkpt lat="43.42115" lon="6.11473">
        <ele>200.80000305176</ele>
        <time>2017-03-22T13:15:35Z</time>
      </trkpt>
      <trkpt lat="43.42119" lon="6.1148">
        <ele>201</ele>
        <time>2017-03-22T13:15:36Z</time>
      </trkpt>
      <trkpt lat="43.42135" lon="6.11508">
        <ele>201.19999694824</ele>
        <time>2017-03-22T13:15:40Z</time>
      </trkpt>
      <trkpt lat="43.42152" lon="6.11537">
        <ele>201.39999389648</ele>
        <time>2017-03-22T13:15:44Z</time>
      </trkpt>
      <trkpt lat="43.4216" lon="6.11552">
        <ele>201.39999389648</ele>
        <time>2017-03-22T13:15:46Z</time>
      </trkpt>
      <trkpt lat="43.42196" lon="6.11613">
        <ele>200.80000305176</ele>
        <time>2017-03-22T13:15:54Z</time>
      </trkpt>
      <trkpt lat="43.42204" lon="6.11627">
        <ele>200.80000305176</ele>
        <time>2017-03-22T13:15:56Z</time>
      </trkpt>
      <trkpt lat="43.42239" lon="6.11684">
        <ele>200.39999389648</ele>
        <time>2017-03-22T13:16:04Z</time>
      </trkpt>
      <trkpt lat="43.42249" lon="6.11697">
        <ele>200.60000610352</ele>
        <time>2017-03-22T13:16:06Z</time>
      </trkpt>
      <trkpt lat="43.42288" lon="6.11748">
        <ele>200.60000610352</ele>
        <time>2017-03-22T13:16:14Z</time>
      </trkpt>
      <trkpt lat="43.42298" lon="6.1176">
        <ele>200.80000305176</ele>
        <time>2017-03-22T13:16:16Z</time>
      </trkpt>
      <trkpt lat="43.4233" lon="6.11806">
        <ele>201.19999694824</ele>
        <time>2017-03-22T13:16:23Z</time>
      </trkpt>
      <trkpt lat="43.4234" lon="6.11829">
        <ele>201.60000610352</ele>
        <time>2017-03-22T13:16:26Z</time>
      </trkpt>
      <trkpt lat="43.42355" lon="6.11872">
        <ele>201.80000305176</ele>
        <time>2017-03-22T13:16:31Z</time>
      </trkpt>
      <trkpt lat="43.42366" lon="6.11919">
        <ele>200.80000305176</ele>
        <time>2017-03-22T13:16:36Z</time>
      </trkpt>
      <trkpt lat="43.42371" lon="6.11938">
        <ele>200.19999694824</ele>
        <time>2017-03-22T13:16:38Z</time>
      </trkpt>
      <trkpt lat="43.42376" lon="6.11957">
        <ele>199.80000305176</ele>
        <time>2017-03-22T13:16:40Z</time>
      </trkpt>
      <trkpt lat="43.42385" lon="6.11994">
        <ele>199</ele>
        <time>2017-03-22T13:16:44Z</time>
      </trkpt>
      <trkpt lat="43.4239" lon="6.12013">
        <ele>198.80000305176</ele>
        <time>2017-03-22T13:16:46Z</time>
      </trkpt>
      <trkpt lat="43.42401" lon="6.12047">
        <ele>198.80000305176</ele>
        <time>2017-03-22T13:16:50Z</time>
      </trkpt>
      <trkpt lat="43.42424" lon="6.12095">
        <ele>198.39999389648</ele>
        <time>2017-03-22T13:16:56Z</time>
      </trkpt>
      <trkpt lat="43.42455" lon="6.12137">
        <ele>197.60000610352</ele>
        <time>2017-03-22T13:17:02Z</time>
      </trkpt>
      <trkpt lat="43.42478" lon="6.12164">
        <ele>197.60000610352</ele>
        <time>2017-03-22T13:17:06Z</time>
      </trkpt>
      <trkpt lat="43.42508" lon="6.12229">
        <ele>197.60000610352</ele>
        <time>2017-03-22T13:17:14Z</time>
      </trkpt>
      <trkpt lat="43.42514" lon="6.12244">
        <ele>197.60000610352</ele>
        <time>2017-03-22T13:17:16Z</time>
      </trkpt>
      <trkpt lat="43.42548" lon="6.12325">
        <ele>197.60000610352</ele>
        <time>2017-03-22T13:17:26Z</time>
      </trkpt>
      <trkpt lat="43.42568" lon="6.1237">
        <ele>198</ele>
        <time>2017-03-22T13:17:32Z</time>
      </trkpt>
      <trkpt lat="43.42584" lon="6.12396">
        <ele>198.39999389648</ele>
        <time>2017-03-22T13:17:36Z</time>
      </trkpt>
      <trkpt lat="43.42607" lon="6.12428">
        <ele>198.19999694824</ele>
        <time>2017-03-22T13:17:41Z</time>
      </trkpt>
      <trkpt lat="43.4263" lon="6.1246">
        <ele>198.80000305176</ele>
        <time>2017-03-22T13:17:46Z</time>
      </trkpt>
      <trkpt lat="43.42647" lon="6.12476">
        <ele>198.80000305176</ele>
        <time>2017-03-22T13:17:49Z</time>
      </trkpt>
      <trkpt lat="43.4266" lon="6.12482">
        <ele>198.60000610352</ele>
        <time>2017-03-22T13:17:51Z</time>
      </trkpt>
      <trkpt lat="43.42697" lon="6.12485">
        <ele>197.80000305176</ele>
        <time>2017-03-22T13:17:56Z</time>
      </trkpt>
      <trkpt lat="43.42704" lon="6.12485">
        <ele>197.60000610352</ele>
        <time>2017-03-22T13:17:57Z</time>
      </trkpt>
      <trkpt lat="43.42732" lon="6.12484">
        <ele>197</ele>
        <time>2017-03-22T13:18:01Z</time>
      </trkpt>
      <trkpt lat="43.42746" lon="6.12482">
        <ele>196.60000610352</ele>
        <time>2017-03-22T13:18:03Z</time>
      </trkpt>
      <trkpt lat="43.42767" lon="6.12477">
        <ele>196.19999694824</ele>
        <time>2017-03-22T13:18:06Z</time>
      </trkpt>
      <trkpt lat="43.42786" lon="6.12467">
        <ele>196.39999389648</ele>
        <time>2017-03-22T13:18:09Z</time>
      </trkpt>
      <trkpt lat="43.42802" lon="6.12454">
        <ele>196.60000610352</ele>
        <time>2017-03-22T13:18:12Z</time>
      </trkpt>
      <trkpt lat="43.42811" lon="6.12442">
        <ele>196.60000610352</ele>
        <time>2017-03-22T13:18:14Z</time>
      </trkpt>
      <trkpt lat="43.42819" lon="6.1243">
        <ele>196.60000610352</ele>
        <time>2017-03-22T13:18:16Z</time>
      </trkpt>
      <trkpt lat="43.42836" lon="6.12404">
        <ele>196.80000305176</ele>
        <time>2017-03-22T13:18:20Z</time>
      </trkpt>
      <trkpt lat="43.42862" lon="6.12365">
        <ele>197.19999694824</ele>
        <time>2017-03-22T13:18:26Z</time>
      </trkpt>
      <trkpt lat="43.42882" lon="6.12343">
        <ele>197.39999389648</ele>
        <time>2017-03-22T13:18:30Z</time>
      </trkpt>
      <trkpt lat="43.42888" lon="6.12339">
        <ele>197.60000610352</ele>
        <time>2017-03-22T13:18:31Z</time>
      </trkpt>
      <trkpt lat="43.42915" lon="6.12327">
        <ele>197.60000610352</ele>
        <time>2017-03-22T13:18:35Z</time>
      </trkpt>
      <trkpt lat="43.42921" lon="6.12325">
        <ele>197.60000610352</ele>
        <time>2017-03-22T13:18:36Z</time>
      </trkpt>
      <trkpt lat="43.42947" lon="6.12324">
        <ele>197.80000305176</ele>
        <time>2017-03-22T13:18:40Z</time>
      </trkpt>
      <trkpt lat="43.42958" lon="6.1233">
        <ele>198.19999694824</ele>
        <time>2017-03-22T13:18:42Z</time>
      </trkpt>
      <trkpt lat="43.42967" lon="6.12341">
        <ele>198.39999389648</ele>
        <time>2017-03-22T13:18:44Z</time>
      </trkpt>
      <trkpt lat="43.42973" lon="6.12366">
        <ele>198.60000610352</ele>
        <time>2017-03-22T13:18:47Z</time>
      </trkpt>
      <trkpt lat="43.42981" lon="6.12401">
        <ele>198.60000610352</ele>
        <time>2017-03-22T13:18:51Z</time>
      </trkpt>
      <trkpt lat="43.42995" lon="6.12448">
        <ele>197.60000610352</ele>
        <time>2017-03-22T13:18:56Z</time>
      </trkpt>
      <trkpt lat="43.42997" lon="6.12459">
        <ele>197.19999694824</ele>
        <time>2017-03-22T13:18:57Z</time>
      </trkpt>
      <trkpt lat="43.43006" lon="6.12499">
        <ele>196.19999694824</ele>
        <time>2017-03-22T13:19:01Z</time>
      </trkpt>
      <trkpt lat="43.43011" lon="6.12528">
        <ele>195.80000305176</ele>
        <time>2017-03-22T13:19:04Z</time>
      </trkpt>
      <trkpt lat="43.43014" lon="6.12547">
        <ele>195.39999389648</ele>
        <time>2017-03-22T13:19:06Z</time>
      </trkpt>
      <trkpt lat="43.43017" lon="6.12568">
        <ele>195</ele>
        <time>2017-03-22T13:19:08Z</time>
      </trkpt>
      <trkpt lat="43.4302" lon="6.12619">
        <ele>194.19999694824</ele>
        <time>2017-03-22T13:19:13Z</time>
      </trkpt>
      <trkpt lat="43.43018" lon="6.12657">
        <ele>194</ele>
        <time>2017-03-22T13:19:17Z</time>
      </trkpt>
      <trkpt lat="43.43016" lon="6.12734">
        <ele>194</ele>
        <time>2017-03-22T13:19:25Z</time>
      </trkpt>
      <trkpt lat="43.43016" lon="6.12744">
        <ele>194.19999694824</ele>
        <time>2017-03-22T13:19:26Z</time>
      </trkpt>
      <trkpt lat="43.43018" lon="6.12818">
        <ele>194.19999694824</ele>
        <time>2017-03-22T13:19:34Z</time>
      </trkpt>
      <trkpt lat="43.43021" lon="6.12835">
        <ele>194.19999694824</ele>
        <time>2017-03-22T13:19:36Z</time>
      </trkpt>
      <trkpt lat="43.43044" lon="6.12928">
        <ele>193.80000305176</ele>
        <time>2017-03-22T13:19:46Z</time>
      </trkpt>
      <trkpt lat="43.43053" lon="6.12964">
        <ele>194</ele>
        <time>2017-03-22T13:19:50Z</time>
      </trkpt>
      <trkpt lat="43.43067" lon="6.13018">
        <ele>194</ele>
        <time>2017-03-22T13:19:56Z</time>
      </trkpt>
      <trkpt lat="43.43085" lon="6.13091">
        <ele>193.39999389648</ele>
        <time>2017-03-22T13:20:04Z</time>
      </trkpt>
      <trkpt lat="43.4309" lon="6.13109">
        <ele>193.19999694824</ele>
        <time>2017-03-22T13:20:06Z</time>
      </trkpt>
      <trkpt lat="43.43109" lon="6.13182">
        <ele>193.60000610352</ele>
        <time>2017-03-22T13:20:14Z</time>
      </trkpt>
      <trkpt lat="43.43114" lon="6.132">
        <ele>193.60000610352</ele>
        <time>2017-03-22T13:20:16Z</time>
      </trkpt>
      <trkpt lat="43.43126" lon="6.13272">
        <ele>194.19999694824</ele>
        <time>2017-03-22T13:20:25Z</time>
      </trkpt>
      <trkpt lat="43.43127" lon="6.13292">
        <ele>194</ele>
        <time>2017-03-22T13:20:28Z</time>
      </trkpt>
      <trkpt lat="43.4313" lon="6.13304">
        <ele>194</ele>
        <time>2017-03-22T13:20:30Z</time>
      </trkpt>
      <trkpt lat="43.43133" lon="6.13316">
        <ele>194.19999694824</ele>
        <time>2017-03-22T13:20:32Z</time>
      </trkpt>
      <trkpt lat="43.43132" lon="6.13329">
        <ele>194.39999389648</ele>
        <time>2017-03-22T13:20:34Z</time>
      </trkpt>
      <trkpt lat="43.43129" lon="6.13364">
        <ele>195</ele>
        <time>2017-03-22T13:20:39Z</time>
      </trkpt>
      <trkpt lat="43.43125" lon="6.134">
        <ele>195.80000305176</ele>
        <time>2017-03-22T13:20:44Z</time>
      </trkpt>
      <trkpt lat="43.43123" lon="6.13414">
        <ele>195.80000305176</ele>
        <time>2017-03-22T13:20:46Z</time>
      </trkpt>
      <trkpt lat="43.43118" lon="6.13477">
        <ele>197.19999694824</ele>
        <time>2017-03-22T13:20:55Z</time>
      </trkpt>
      <trkpt lat="43.43119" lon="6.13517">
        <ele>198.60000610352</ele>
        <time>2017-03-22T13:21:01Z</time>
      </trkpt>
      <trkpt lat="43.4313" lon="6.13547">
        <ele>199</ele>
        <time>2017-03-22T13:21:06Z</time>
      </trkpt>
      <trkpt lat="43.43143" lon="6.13569">
        <ele>199.39999389648</ele>
        <time>2017-03-22T13:21:10Z</time>
      </trkpt>
      <trkpt lat="43.43165" lon="6.13601">
        <ele>199.60000610352</ele>
        <time>2017-03-22T13:21:16Z</time>
      </trkpt>
      <trkpt lat="43.432" lon="6.13655">
        <ele>200.60000610352</ele>
        <time>2017-03-22T13:21:26Z</time>
      </trkpt>
      <trkpt lat="43.43224" lon="6.13691">
        <ele>201.39999389648</ele>
        <time>2017-03-22T13:21:33Z</time>
      </trkpt>
      <trkpt lat="43.43235" lon="6.13706">
        <ele>201.60000610352</ele>
        <time>2017-03-22T13:21:36Z</time>
      </trkpt>
      <trkpt lat="43.43248" lon="6.13726">
        <ele>202.60000610352</ele>
        <time>2017-03-22T13:21:40Z</time>
      </trkpt>
      <trkpt lat="43.43267" lon="6.13756">
        <ele>203.60000610352</ele>
        <time>2017-03-22T13:21:46Z</time>
      </trkpt>
      <trkpt lat="43.43297" lon="6.13804">
        <ele>205.39999389648</ele>
        <time>2017-03-22T13:21:56Z</time>
      </trkpt>
      <trkpt lat="43.43317" lon="6.13833">
        <ele>206.80000305176</ele>
        <time>2017-03-22T13:22:03Z</time>
      </trkpt>
      <trkpt lat="43.43325" lon="6.13846">
        <ele>207.80000305176</ele>
        <time>2017-03-22T13:22:06Z</time>
      </trkpt>
      <trkpt lat="43.43328" lon="6.1385">
        <ele>208</ele>
        <time>2017-03-22T13:22:07Z</time>
      </trkpt>
      <trkpt lat="43.43348" lon="6.13889">
        <ele>209</ele>
        <time>2017-03-22T13:22:16Z</time>
      </trkpt>
      <trkpt lat="43.43355" lon="6.13938">
        <ele>210.80000305176</ele>
        <time>2017-03-22T13:22:26Z</time>
      </trkpt>
      <trkpt lat="43.43356" lon="6.13956">
        <ele>211.39999389648</ele>
        <time>2017-03-22T13:22:30Z</time>
      </trkpt>
      <trkpt lat="43.43356" lon="6.13982">
        <ele>212.60000610352</ele>
        <time>2017-03-22T13:22:36Z</time>
      </trkpt>
      <trkpt lat="43.43356" lon="6.14007">
        <ele>213.60000610352</ele>
        <time>2017-03-22T13:22:42Z</time>
      </trkpt>
      <trkpt lat="43.43356" lon="6.14023">
        <ele>214.80000305176</ele>
        <time>2017-03-22T13:22:46Z</time>
      </trkpt>
      <trkpt lat="43.4336" lon="6.14071">
        <ele>215.19999694824</ele>
        <time>2017-03-22T13:22:56Z</time>
      </trkpt>
      <trkpt lat="43.43361" lon="6.14076">
        <ele>215.19999694824</ele>
        <time>2017-03-22T13:22:57Z</time>
      </trkpt>
      <trkpt lat="43.43369" lon="6.14098">
        <ele>215</ele>
        <time>2017-03-22T13:23:01Z</time>
      </trkpt>
      <trkpt lat="43.43375" lon="6.14117">
        <ele>214.60000610352</ele>
        <time>2017-03-22T13:23:04Z</time>
      </trkpt>
      <trkpt lat="43.43383" lon="6.14129">
        <ele>214.39999389648</ele>
        <time>2017-03-22T13:23:06Z</time>
      </trkpt>
      <trkpt lat="43.4339" lon="6.14139">
        <ele>214.19999694824</ele>
        <time>2017-03-22T13:23:08Z</time>
      </trkpt>
      <trkpt lat="43.43397" lon="6.14149">
        <ele>214.19999694824</ele>
        <time>2017-03-22T13:23:10Z</time>
      </trkpt>
      <trkpt lat="43.43407" lon="6.14163">
        <ele>214</ele>
        <time>2017-03-22T13:23:13Z</time>
      </trkpt>
      <trkpt lat="43.43415" lon="6.14169">
        <ele>213.80000305176</ele>
        <time>2017-03-22T13:23:15Z</time>
      </trkpt>
      <trkpt lat="43.4342" lon="6.1417">
        <ele>213.80000305176</ele>
        <time>2017-03-22T13:23:16Z</time>
      </trkpt>
      <trkpt lat="43.43442" lon="6.14173">
        <ele>214.80000305176</ele>
        <time>2017-03-22T13:23:22Z</time>
      </trkpt>
      <trkpt lat="43.43456" lon="6.14177">
        <ele>215.39999389648</ele>
        <time>2017-03-22T13:23:26Z</time>
      </trkpt>
      <trkpt lat="43.43465" lon="6.14182">
        <ele>216</ele>
        <time>2017-03-22T13:23:29Z</time>
      </trkpt>
      <trkpt lat="43.43477" lon="6.14183">
        <ele>216.80000305176</ele>
        <time>2017-03-22T13:23:33Z</time>
      </trkpt>
      <trkpt lat="43.43478" lon="6.1418">
        <ele>217.19999694824</ele>
        <time>2017-03-22T13:23:34Z</time>
      </trkpt>
      <trkpt lat="43.4348" lon="6.14174">
        <ele>217.80000305176</ele>
        <time>2017-03-22T13:23:36Z</time>
      </trkpt>
      <trkpt lat="43.4348" lon="6.14169">
        <ele>218.19999694824</ele>
        <time>2017-03-22T13:23:38Z</time>
      </trkpt>
      <trkpt lat="43.43482" lon="6.14152">
        <ele>219.39999389648</ele>
        <time>2017-03-22T13:23:44Z</time>
      </trkpt>
      <trkpt lat="43.4349" lon="6.14145">
        <ele>220.39999389648</ele>
        <time>2017-03-22T13:23:49Z</time>
      </trkpt>
      <trkpt lat="43.43496" lon="6.14143">
        <ele>221.39999389648</ele>
        <time>2017-03-22T13:23:52Z</time>
      </trkpt>
      <trkpt lat="43.43502" lon="6.14137">
        <ele>222.80000305176</ele>
        <time>2017-03-22T13:23:56Z</time>
      </trkpt>
      <trkpt lat="43.43504" lon="6.14135">
        <ele>223.39999389648</ele>
        <time>2017-03-22T13:23:58Z</time>
      </trkpt>
      <trkpt lat="43.43511" lon="6.14129">
        <ele>224.60000610352</ele>
        <time>2017-03-22T13:24:03Z</time>
      </trkpt>
      <trkpt lat="43.4352" lon="6.14118">
        <ele>225.80000305176</ele>
        <time>2017-03-22T13:24:11Z</time>
      </trkpt>
      <trkpt lat="43.43528" lon="6.14105">
        <ele>227.60000610352</ele>
        <time>2017-03-22T13:24:24Z</time>
      </trkpt>
      <trkpt lat="43.4353" lon="6.141">
        <ele>228</ele>
        <time>2017-03-22T13:24:29Z</time>
      </trkpt>
      <trkpt lat="43.43532" lon="6.14098">
        <ele>228.19999694824</ele>
        <time>2017-03-22T13:24:32Z</time>
      </trkpt>
      <trkpt lat="43.43535" lon="6.14094">
        <ele>228.39999389648</ele>
        <time>2017-03-22T13:24:36Z</time>
      </trkpt>
      <trkpt lat="43.43539" lon="6.14086">
        <ele>228.80000305176</ele>
        <time>2017-03-22T13:24:41Z</time>
      </trkpt>
      <trkpt lat="43.43541" lon="6.14082">
        <ele>228.80000305176</ele>
        <time>2017-03-22T13:24:43Z</time>
      </trkpt>
      <trkpt lat="43.43546" lon="6.14075">
        <ele>228.80000305176</ele>
        <time>2017-03-22T13:24:46Z</time>
      </trkpt>
      <trkpt lat="43.43551" lon="6.14067">
        <ele>228.39999389648</ele>
        <time>2017-03-22T13:24:49Z</time>
      </trkpt>
      <trkpt lat="43.43562" lon="6.14055">
        <ele>228</ele>
        <time>2017-03-22T13:24:53Z</time>
      </trkpt>
      <trkpt lat="43.43569" lon="6.14045">
        <ele>227.60000610352</ele>
        <time>2017-03-22T13:24:56Z</time>
      </trkpt>
      <trkpt lat="43.43579" lon="6.14027">
        <ele>228.39999389648</ele>
        <time>2017-03-22T13:25:02Z</time>
      </trkpt>
      <trkpt lat="43.43583" lon="6.14016">
        <ele>229</ele>
        <time>2017-03-22T13:25:06Z</time>
      </trkpt>
      <trkpt lat="43.43588" lon="6.14006">
        <ele>229.39999389648</ele>
        <time>2017-03-22T13:25:10Z</time>
      </trkpt>
      <trkpt lat="43.43592" lon="6.13998">
        <ele>230.19999694824</ele>
        <time>2017-03-22T13:25:13Z</time>
      </trkpt>
      <trkpt lat="43.43597" lon="6.1399">
        <ele>230.39999389648</ele>
        <time>2017-03-22T13:25:16Z</time>
      </trkpt>
      <trkpt lat="43.43601" lon="6.13981">
        <ele>231.19999694824</ele>
        <time>2017-03-22T13:25:19Z</time>
      </trkpt>
      <trkpt lat="43.43608" lon="6.13964">
        <ele>232.39999389648</ele>
        <time>2017-03-22T13:25:26Z</time>
      </trkpt>
      <trkpt lat="43.43613" lon="6.13957">
        <ele>232.80000305176</ele>
        <time>2017-03-22T13:25:29Z</time>
      </trkpt>
      <trkpt lat="43.43617" lon="6.1395">
        <ele>233.60000610352</ele>
        <time>2017-03-22T13:25:32Z</time>
      </trkpt>
      <trkpt lat="43.43621" lon="6.13944">
        <ele>234.19999694824</ele>
        <time>2017-03-22T13:25:35Z</time>
      </trkpt>
      <trkpt lat="43.43624" lon="6.13939">
        <ele>234.60000610352</ele>
        <time>2017-03-22T13:25:37Z</time>
      </trkpt>
      <trkpt lat="43.43631" lon="6.13928">
        <ele>235.39999389648</ele>
        <time>2017-03-22T13:25:42Z</time>
      </trkpt>
      <trkpt lat="43.43639" lon="6.13912">
        <ele>237</ele>
        <time>2017-03-22T13:25:49Z</time>
      </trkpt>
      <trkpt lat="43.43649" lon="6.13898">
        <ele>238</ele>
        <time>2017-03-22T13:25:56Z</time>
      </trkpt>
      <trkpt lat="43.43656" lon="6.13887">
        <ele>239</ele>
        <time>2017-03-22T13:26:02Z</time>
      </trkpt>
      <trkpt lat="43.43663" lon="6.13881">
        <ele>239.39999389648</ele>
        <time>2017-03-22T13:26:06Z</time>
      </trkpt>
      <trkpt lat="43.43675" lon="6.13866">
        <ele>240.19999694824</ele>
        <time>2017-03-22T13:26:14Z</time>
      </trkpt>
      <trkpt lat="43.43684" lon="6.13851">
        <ele>240.80000305176</ele>
        <time>2017-03-22T13:26:20Z</time>
      </trkpt>
      <trkpt lat="43.43695" lon="6.13836">
        <ele>241</ele>
        <time>2017-03-22T13:26:26Z</time>
      </trkpt>
      <trkpt lat="43.43708" lon="6.13817">
        <ele>240.80000305176</ele>
        <time>2017-03-22T13:26:32Z</time>
      </trkpt>
      <trkpt lat="43.43714" lon="6.13805">
        <ele>240.60000610352</ele>
        <time>2017-03-22T13:26:35Z</time>
      </trkpt>
      <trkpt lat="43.43716" lon="6.13801">
        <ele>240.39999389648</ele>
        <time>2017-03-22T13:26:36Z</time>
      </trkpt>
      <trkpt lat="43.43724" lon="6.13785">
        <ele>240</ele>
        <time>2017-03-22T13:26:40Z</time>
      </trkpt>
      <trkpt lat="43.4373" lon="6.13773">
        <ele>239.80000305176</ele>
        <time>2017-03-22T13:26:43Z</time>
      </trkpt>
      <trkpt lat="43.43738" lon="6.13761">
        <ele>239.60000610352</ele>
        <time>2017-03-22T13:26:46Z</time>
      </trkpt>
      <trkpt lat="43.4375" lon="6.13746">
        <ele>239.39999389648</ele>
        <time>2017-03-22T13:26:51Z</time>
      </trkpt>
      <trkpt lat="43.43757" lon="6.13728">
        <ele>240.19999694824</ele>
        <time>2017-03-22T13:26:56Z</time>
      </trkpt>
      <trkpt lat="43.4376" lon="6.13721">
        <ele>241.19999694824</ele>
        <time>2017-03-22T13:26:58Z</time>
      </trkpt>
      <trkpt lat="43.43762" lon="6.13715">
        <ele>242</ele>
        <time>2017-03-22T13:27:00Z</time>
      </trkpt>
      <trkpt lat="43.43771" lon="6.13695">
        <ele>242.80000305176</ele>
        <time>2017-03-22T13:27:06Z</time>
      </trkpt>
      <trkpt lat="43.43781" lon="6.13661">
        <ele>243.39999389648</ele>
        <time>2017-03-22T13:27:16Z</time>
      </trkpt>
      <trkpt lat="43.4379" lon="6.13628">
        <ele>244.19999694824</ele>
        <time>2017-03-22T13:27:25Z</time>
      </trkpt>
      <trkpt lat="43.43793" lon="6.13612">
        <ele>244.60000610352</ele>
        <time>2017-03-22T13:27:29Z</time>
      </trkpt>
      <trkpt lat="43.43805" lon="6.13586">
        <ele>244.80000305176</ele>
        <time>2017-03-22T13:27:36Z</time>
      </trkpt>
      <trkpt lat="43.43819" lon="6.13567">
        <ele>245.60000610352</ele>
        <time>2017-03-22T13:27:43Z</time>
      </trkpt>
      <trkpt lat="43.43822" lon="6.13556">
        <ele>246</ele>
        <time>2017-03-22T13:27:46Z</time>
      </trkpt>
      <trkpt lat="43.43827" lon="6.13532">
        <ele>246.80000305176</ele>
        <time>2017-03-22T13:27:52Z</time>
      </trkpt>
      <trkpt lat="43.4383" lon="6.13518">
        <ele>247.39999389648</ele>
        <time>2017-03-22T13:27:56Z</time>
      </trkpt>
      <trkpt lat="43.43831" lon="6.13511">
        <ele>248</ele>
        <time>2017-03-22T13:27:58Z</time>
      </trkpt>
      <trkpt lat="43.43833" lon="6.13494">
        <ele>249</ele>
        <time>2017-03-22T13:28:03Z</time>
      </trkpt>
      <trkpt lat="43.43835" lon="6.13483">
        <ele>250.19999694824</ele>
        <time>2017-03-22T13:28:07Z</time>
      </trkpt>
      <trkpt lat="43.43836" lon="6.13468">
        <ele>251</ele>
        <time>2017-03-22T13:28:12Z</time>
      </trkpt>
      <trkpt lat="43.43836" lon="6.13456">
        <ele>251.80000305176</ele>
        <time>2017-03-22T13:28:16Z</time>
      </trkpt>
      <trkpt lat="43.43837" lon="6.13445">
        <ele>252.60000610352</ele>
        <time>2017-03-22T13:28:19Z</time>
      </trkpt>
      <trkpt lat="43.43841" lon="6.13422">
        <ele>253.19999694824</ele>
        <time>2017-03-22T13:28:26Z</time>
      </trkpt>
      <trkpt lat="43.43844" lon="6.1341">
        <ele>253.60000610352</ele>
        <time>2017-03-22T13:28:30Z</time>
      </trkpt>
      <trkpt lat="43.4385" lon="6.13393">
        <ele>254.39999389648</ele>
        <time>2017-03-22T13:28:36Z</time>
      </trkpt>
      <trkpt lat="43.43856" lon="6.13364">
        <ele>255.19999694824</ele>
        <time>2017-03-22T13:28:46Z</time>
      </trkpt>
      <trkpt lat="43.43858" lon="6.13352">
        <ele>255.80000305176</ele>
        <time>2017-03-22T13:28:50Z</time>
      </trkpt>
      <trkpt lat="43.43859" lon="6.13323">
        <ele>256.79998779297</ele>
        <time>2017-03-22T13:28:59Z</time>
      </trkpt>
      <trkpt lat="43.43859" lon="6.13296">
        <ele>258</ele>
        <time>2017-03-22T13:29:07Z</time>
      </trkpt>
      <trkpt lat="43.43858" lon="6.13276">
        <ele>259</ele>
        <time>2017-03-22T13:29:13Z</time>
      </trkpt>
      <trkpt lat="43.43858" lon="6.13268">
        <ele>259.39999389648</ele>
        <time>2017-03-22T13:29:16Z</time>
      </trkpt>
      <trkpt lat="43.43863" lon="6.13233">
        <ele>261</ele>
        <time>2017-03-22T13:29:28Z</time>
      </trkpt>
      <trkpt lat="43.43863" lon="6.13215">
        <ele>262.20001220703</ele>
        <time>2017-03-22T13:29:35Z</time>
      </trkpt>
      <trkpt lat="43.43862" lon="6.13212">
        <ele>262.39999389648</ele>
        <time>2017-03-22T13:29:36Z</time>
      </trkpt>
      <trkpt lat="43.4386" lon="6.13186">
        <ele>263.20001220703</ele>
        <time>2017-03-22T13:29:46Z</time>
      </trkpt>
      <trkpt lat="43.43861" lon="6.13177">
        <ele>263.79998779297</ele>
        <time>2017-03-22T13:29:53Z</time>
      </trkpt>
      <trkpt lat="43.43861" lon="6.13177">
        <ele>264</ele>
        <time>2017-03-22T13:29:56Z</time>
      </trkpt>
      <trkpt lat="43.43861" lon="6.13177">
        <ele>264</ele>
        <time>2017-03-22T13:29:59Z</time>
      </trkpt>
      <trkpt lat="43.43861" lon="6.13176">
        <ele>264</ele>
        <time>2017-03-22T13:30:03Z</time>
      </trkpt>
      <trkpt lat="43.43861" lon="6.13176">
        <ele>263.79998779297</ele>
        <time>2017-03-22T13:30:06Z</time>
      </trkpt>
      <trkpt lat="43.43863" lon="6.13173">
        <ele>263.79998779297</ele>
        <time>2017-03-22T13:30:11Z</time>
      </trkpt>
      <trkpt lat="43.43863" lon="6.13167">
        <ele>263.60000610352</ele>
        <time>2017-03-22T13:30:13Z</time>
      </trkpt>
      <trkpt lat="43.43865" lon="6.13157">
        <ele>263.60000610352</ele>
        <time>2017-03-22T13:30:16Z</time>
      </trkpt>
      <trkpt lat="43.43877" lon="6.13122">
        <ele>263.79998779297</ele>
        <time>2017-03-22T13:30:25Z</time>
      </trkpt>
      <trkpt lat="43.43878" lon="6.13117">
        <ele>263.79998779297</ele>
        <time>2017-03-22T13:30:26Z</time>
      </trkpt>
      <trkpt lat="43.43881" lon="6.13106">
        <ele>263.60000610352</ele>
        <time>2017-03-22T13:30:28Z</time>
      </trkpt>
      <trkpt lat="43.43885" lon="6.13096">
        <ele>263.20001220703</ele>
        <time>2017-03-22T13:30:30Z</time>
      </trkpt>
      <trkpt lat="43.43891" lon="6.1309">
        <ele>263</ele>
        <time>2017-03-22T13:30:32Z</time>
      </trkpt>
      <trkpt lat="43.43904" lon="6.13092">
        <ele>263</ele>
        <time>2017-03-22T13:30:36Z</time>
      </trkpt>
      <trkpt lat="43.43909" lon="6.13098">
        <ele>263.60000610352</ele>
        <time>2017-03-22T13:30:39Z</time>
      </trkpt>
      <trkpt lat="43.43913" lon="6.13101">
        <ele>264.20001220703</ele>
        <time>2017-03-22T13:30:41Z</time>
      </trkpt>
      <trkpt lat="43.43915" lon="6.13102">
        <ele>264.20001220703</ele>
        <time>2017-03-22T13:30:42Z</time>
      </trkpt>
      <trkpt lat="43.43919" lon="6.13103">
        <ele>264.60000610352</ele>
        <time>2017-03-22T13:30:44Z</time>
      </trkpt>
      <trkpt lat="43.43923" lon="6.13102">
        <ele>265.20001220703</ele>
        <time>2017-03-22T13:30:46Z</time>
      </trkpt>
      <trkpt lat="43.4393" lon="6.13098">
        <ele>266</ele>
        <time>2017-03-22T13:30:50Z</time>
      </trkpt>
      <trkpt lat="43.43935" lon="6.13094">
        <ele>266.39999389648</ele>
        <time>2017-03-22T13:30:53Z</time>
      </trkpt>
      <trkpt lat="43.4394" lon="6.13091">
        <ele>266.79998779297</ele>
        <time>2017-03-22T13:30:56Z</time>
      </trkpt>
      <trkpt lat="43.43948" lon="6.13089">
        <ele>267.79998779297</ele>
        <time>2017-03-22T13:31:01Z</time>
      </trkpt>
      <trkpt lat="43.43951" lon="6.13088">
        <ele>268.20001220703</ele>
        <time>2017-03-22T13:31:03Z</time>
      </trkpt>
      <trkpt lat="43.43957" lon="6.1309">
        <ele>268.79998779297</ele>
        <time>2017-03-22T13:31:06Z</time>
      </trkpt>
      <trkpt lat="43.43975" lon="6.13099">
        <ele>269.20001220703</ele>
        <time>2017-03-22T13:31:16Z</time>
      </trkpt>
      <trkpt lat="43.43988" lon="6.13103">
        <ele>269.79998779297</ele>
        <time>2017-03-22T13:31:22Z</time>
      </trkpt>
      <trkpt lat="43.43996" lon="6.13104">
        <ele>270</ele>
        <time>2017-03-22T13:31:26Z</time>
      </trkpt>
      <trkpt lat="43.44015" lon="6.13107">
        <ele>270.79998779297</ele>
        <time>2017-03-22T13:31:36Z</time>
      </trkpt>
      <trkpt lat="43.44021" lon="6.1311">
        <ele>270.79998779297</ele>
        <time>2017-03-22T13:31:39Z</time>
      </trkpt>
      <trkpt lat="43.44036" lon="6.13114">
        <ele>271.60000610352</ele>
        <time>2017-03-22T13:31:46Z</time>
      </trkpt>
      <trkpt lat="43.44046" lon="6.13115">
        <ele>271.79998779297</ele>
        <time>2017-03-22T13:31:51Z</time>
      </trkpt>
      <trkpt lat="43.44057" lon="6.1311">
        <ele>272.60000610352</ele>
        <time>2017-03-22T13:31:56Z</time>
      </trkpt>
      <trkpt lat="43.44066" lon="6.13108">
        <ele>273</ele>
        <time>2017-03-22T13:32:00Z</time>
      </trkpt>
      <trkpt lat="43.44073" lon="6.13107">
        <ele>274.20001220703</ele>
        <time>2017-03-22T13:32:04Z</time>
      </trkpt>
      <trkpt lat="43.44077" lon="6.13106">
        <ele>274.79998779297</ele>
        <time>2017-03-22T13:32:06Z</time>
      </trkpt>
      <trkpt lat="43.44087" lon="6.13107">
        <ele>275.20001220703</ele>
        <time>2017-03-22T13:32:11Z</time>
      </trkpt>
      <trkpt lat="43.44097" lon="6.13113">
        <ele>276.20001220703</ele>
        <time>2017-03-22T13:32:16Z</time>
      </trkpt>
      <trkpt lat="43.441" lon="6.13116">
        <ele>276.60000610352</ele>
        <time>2017-03-22T13:32:18Z</time>
      </trkpt>
      <trkpt lat="43.44112" lon="6.13131">
        <ele>277.39999389648</ele>
        <time>2017-03-22T13:32:26Z</time>
      </trkpt>
      <trkpt lat="43.44124" lon="6.13153">
        <ele>277.79998779297</ele>
        <time>2017-03-22T13:32:36Z</time>
      </trkpt>
      <trkpt lat="43.44129" lon="6.13171">
        <ele>278.79998779297</ele>
        <time>2017-03-22T13:32:44Z</time>
      </trkpt>
      <trkpt lat="43.4413" lon="6.13177">
        <ele>278.79998779297</ele>
        <time>2017-03-22T13:32:46Z</time>
      </trkpt>
      <trkpt lat="43.44136" lon="6.13203">
        <ele>279.39999389648</ele>
        <time>2017-03-22T13:32:56Z</time>
      </trkpt>
      <trkpt lat="43.44137" lon="6.13211">
        <ele>279.79998779297</ele>
        <time>2017-03-22T13:32:59Z</time>
      </trkpt>
      <trkpt lat="43.44135" lon="6.13231">
        <ele>280.60000610352</ele>
        <time>2017-03-22T13:33:06Z</time>
      </trkpt>
      <trkpt lat="43.44134" lon="6.13237">
        <ele>281</ele>
        <time>2017-03-22T13:33:08Z</time>
      </trkpt>
      <trkpt lat="43.44134" lon="6.13249">
        <ele>282</ele>
        <time>2017-03-22T13:33:12Z</time>
      </trkpt>
      <trkpt lat="43.44136" lon="6.13268">
        <ele>283.20001220703</ele>
        <time>2017-03-22T13:33:19Z</time>
      </trkpt>
      <trkpt lat="43.44141" lon="6.13281">
        <ele>284.39999389648</ele>
        <time>2017-03-22T13:33:25Z</time>
      </trkpt>
      <trkpt lat="43.44141" lon="6.13283">
        <ele>284.60000610352</ele>
        <time>2017-03-22T13:33:26Z</time>
      </trkpt>
      <trkpt lat="43.4414" lon="6.133">
        <ele>285.39999389648</ele>
        <time>2017-03-22T13:33:33Z</time>
      </trkpt>
      <trkpt lat="43.44142" lon="6.13321">
        <ele>287.60000610352</ele>
        <time>2017-03-22T13:33:42Z</time>
      </trkpt>
      <trkpt lat="43.44147" lon="6.13354">
        <ele>290.20001220703</ele>
        <time>2017-03-22T13:33:56Z</time>
      </trkpt>
      <trkpt lat="43.44149" lon="6.13364">
        <ele>290.79998779297</ele>
        <time>2017-03-22T13:34:00Z</time>
      </trkpt>
      <trkpt lat="43.44152" lon="6.13382">
        <ele>291.20001220703</ele>
        <time>2017-03-22T13:34:06Z</time>
      </trkpt>
      <trkpt lat="43.44153" lon="6.13396">
        <ele>291.79998779297</ele>
        <time>2017-03-22T13:34:11Z</time>
      </trkpt>
      <trkpt lat="43.44156" lon="6.13418">
        <ele>292.79998779297</ele>
        <time>2017-03-22T13:34:19Z</time>
      </trkpt>
      <trkpt lat="43.44161" lon="6.13437">
        <ele>293.20001220703</ele>
        <time>2017-03-22T13:34:26Z</time>
      </trkpt>
      <trkpt lat="43.44161" lon="6.13449">
        <ele>294</ele>
        <time>2017-03-22T13:34:30Z</time>
      </trkpt>
      <trkpt lat="43.44162" lon="6.13466">
        <ele>294.79998779297</ele>
        <time>2017-03-22T13:34:36Z</time>
      </trkpt>
      <trkpt lat="43.44162" lon="6.13472">
        <ele>295</ele>
        <time>2017-03-22T13:34:38Z</time>
      </trkpt>
      <trkpt lat="43.4416" lon="6.13497">
        <ele>295.60000610352</ele>
        <time>2017-03-22T13:34:46Z</time>
      </trkpt>
      <trkpt lat="43.44158" lon="6.13522">
        <ele>295.79998779297</ele>
        <time>2017-03-22T13:34:54Z</time>
      </trkpt>
      <trkpt lat="43.44157" lon="6.13528">
        <ele>296</ele>
        <time>2017-03-22T13:34:56Z</time>
      </trkpt>
      <trkpt lat="43.44159" lon="6.13556">
        <ele>297.79998779297</ele>
        <time>2017-03-22T13:35:06Z</time>
      </trkpt>
      <trkpt lat="43.44159" lon="6.13561">
        <ele>298.20001220703</ele>
        <time>2017-03-22T13:35:08Z</time>
      </trkpt>
      <trkpt lat="43.44159" lon="6.13586">
        <ele>298.39999389648</ele>
        <time>2017-03-22T13:35:16Z</time>
      </trkpt>
      <trkpt lat="43.44154" lon="6.13619">
        <ele>300.39999389648</ele>
        <time>2017-03-22T13:35:28Z</time>
      </trkpt>
      <trkpt lat="43.44154" lon="6.13646">
        <ele>301.60000610352</ele>
        <time>2017-03-22T13:35:37Z</time>
      </trkpt>
      <trkpt lat="43.44153" lon="6.1367">
        <ele>302.79998779297</ele>
        <time>2017-03-22T13:35:46Z</time>
      </trkpt>
      <trkpt lat="43.44152" lon="6.13702">
        <ele>303.39999389648</ele>
        <time>2017-03-22T13:35:56Z</time>
      </trkpt>
      <trkpt lat="43.44152" lon="6.13718">
        <ele>304</ele>
        <time>2017-03-22T13:36:01Z</time>
      </trkpt>
      <trkpt lat="43.4415" lon="6.13736">
        <ele>305</ele>
        <time>2017-03-22T13:36:07Z</time>
      </trkpt>
      <trkpt lat="43.44147" lon="6.13761">
        <ele>305.79998779297</ele>
        <time>2017-03-22T13:36:16Z</time>
      </trkpt>
      <trkpt lat="43.44146" lon="6.13788">
        <ele>307.20001220703</ele>
        <time>2017-03-22T13:36:25Z</time>
      </trkpt>
      <trkpt lat="43.44146" lon="6.13815">
        <ele>308.39999389648</ele>
        <time>2017-03-22T13:36:34Z</time>
      </trkpt>
      <trkpt lat="43.44146" lon="6.13826">
        <ele>309.39999389648</ele>
        <time>2017-03-22T13:36:38Z</time>
      </trkpt>
      <trkpt lat="43.44148" lon="6.1385">
        <ele>310.79998779297</ele>
        <time>2017-03-22T13:36:46Z</time>
      </trkpt>
      <trkpt lat="43.44147" lon="6.13877">
        <ele>312</ele>
        <time>2017-03-22T13:36:56Z</time>
      </trkpt>
      <trkpt lat="43.44147" lon="6.13907">
        <ele>314</ele>
        <time>2017-03-22T13:37:07Z</time>
      </trkpt>
      <trkpt lat="43.44147" lon="6.13931">
        <ele>314.79998779297</ele>
        <time>2017-03-22T13:37:16Z</time>
      </trkpt>
      <trkpt lat="43.44146" lon="6.13938">
        <ele>315</ele>
        <time>2017-03-22T13:37:18Z</time>
      </trkpt>
      <trkpt lat="43.44146" lon="6.13962">
        <ele>315.39999389648</ele>
        <time>2017-03-22T13:37:26Z</time>
      </trkpt>
      <trkpt lat="43.44146" lon="6.13979">
        <ele>316</ele>
        <time>2017-03-22T13:37:32Z</time>
      </trkpt>
      <trkpt lat="43.44146" lon="6.1399">
        <ele>316.60000610352</ele>
        <time>2017-03-22T13:37:36Z</time>
      </trkpt>
      <trkpt lat="43.44151" lon="6.1402">
        <ele>318.20001220703</ele>
        <time>2017-03-22T13:37:46Z</time>
      </trkpt>
      <trkpt lat="43.44153" lon="6.14039">
        <ele>319.60000610352</ele>
        <time>2017-03-22T13:37:53Z</time>
      </trkpt>
      <trkpt lat="43.44154" lon="6.14061">
        <ele>320.60000610352</ele>
        <time>2017-03-22T13:38:00Z</time>
      </trkpt>
      <trkpt lat="43.44154" lon="6.14085">
        <ele>322</ele>
        <time>2017-03-22T13:38:08Z</time>
      </trkpt>
      <trkpt lat="43.44154" lon="6.14106">
        <ele>323</ele>
        <time>2017-03-22T13:38:15Z</time>
      </trkpt>
      <trkpt lat="43.44154" lon="6.14108">
        <ele>323.20001220703</ele>
        <time>2017-03-22T13:38:16Z</time>
      </trkpt>
      <trkpt lat="43.44155" lon="6.14123">
        <ele>323.79998779297</ele>
        <time>2017-03-22T13:38:23Z</time>
      </trkpt>
      <trkpt lat="43.44155" lon="6.14128">
        <ele>324</ele>
        <time>2017-03-22T13:38:26Z</time>
      </trkpt>
      <trkpt lat="43.44155" lon="6.14128">
        <ele>324.39999389648</ele>
        <time>2017-03-22T13:38:30Z</time>
      </trkpt>
      <trkpt lat="43.44155" lon="6.14128">
        <ele>324.60000610352</ele>
        <time>2017-03-22T13:38:33Z</time>
      </trkpt>
      <trkpt lat="43.44155" lon="6.14127">
        <ele>325</ele>
        <time>2017-03-22T13:38:39Z</time>
      </trkpt>
      <trkpt lat="43.44155" lon="6.14126">
        <ele>325.20001220703</ele>
        <time>2017-03-22T13:38:54Z</time>
      </trkpt>
      <trkpt lat="43.44154" lon="6.14126">
        <ele>325</ele>
        <time>2017-03-22T13:39:01Z</time>
      </trkpt>
      <trkpt lat="43.44154" lon="6.14126">
        <ele>325</ele>
        <time>2017-03-22T13:39:06Z</time>
      </trkpt>
      <trkpt lat="43.44154" lon="6.14126">
        <ele>325</ele>
        <time>2017-03-22T13:39:11Z</time>
      </trkpt>
      <trkpt lat="43.44154" lon="6.14126">
        <ele>324.79998779297</ele>
        <time>2017-03-22T13:39:16Z</time>
      </trkpt>
      <trkpt lat="43.44154" lon="6.14126">
        <ele>325</ele>
        <time>2017-03-22T13:40:00Z</time>
      </trkpt>
      <trkpt lat="43.44154" lon="6.14126">
        <ele>325</ele>
        <time>2017-03-22T13:40:16Z</time>
      </trkpt>
      <trkpt lat="43.44154" lon="6.14126">
        <ele>325</ele>
        <time>2017-03-22T13:40:26Z</time>
      </trkpt>
      <trkpt lat="43.44154" lon="6.14127">
        <ele>325</ele>
        <time>2017-03-22T13:40:36Z</time>
      </trkpt>
      <trkpt lat="43.44154" lon="6.1413">
        <ele>324.79998779297</ele>
        <time>2017-03-22T13:40:38Z</time>
      </trkpt>
      <trkpt lat="43.44156" lon="6.1414">
        <ele>325</ele>
        <time>2017-03-22T13:40:41Z</time>
      </trkpt>
      <trkpt lat="43.44156" lon="6.14164">
        <ele>325</ele>
        <time>2017-03-22T13:40:46Z</time>
      </trkpt>
      <trkpt lat="43.44149" lon="6.14215">
        <ele>323.79998779297</ele>
        <time>2017-03-22T13:40:53Z</time>
      </trkpt>
      <trkpt lat="43.44145" lon="6.14241">
        <ele>322.60000610352</ele>
        <time>2017-03-22T13:40:56Z</time>
      </trkpt>
      <trkpt lat="43.44143" lon="6.14279">
        <ele>321.60000610352</ele>
        <time>2017-03-22T13:41:00Z</time>
      </trkpt>
      <trkpt lat="43.44147" lon="6.14311">
        <ele>320.60000610352</ele>
        <time>2017-03-22T13:41:03Z</time>
      </trkpt>
      <trkpt lat="43.44153" lon="6.14332">
        <ele>319.39999389648</ele>
        <time>2017-03-22T13:41:05Z</time>
      </trkpt>
      <trkpt lat="43.44157" lon="6.14343">
        <ele>318.60000610352</ele>
        <time>2017-03-22T13:41:06Z</time>
      </trkpt>
      <trkpt lat="43.44161" lon="6.14354">
        <ele>317.79998779297</ele>
        <time>2017-03-22T13:41:07Z</time>
      </trkpt>
      <trkpt lat="43.44166" lon="6.14365">
        <ele>316.60000610352</ele>
        <time>2017-03-22T13:41:08Z</time>
      </trkpt>
      <trkpt lat="43.44171" lon="6.14376">
        <ele>315.60000610352</ele>
        <time>2017-03-22T13:41:09Z</time>
      </trkpt>
      <trkpt lat="43.4418" lon="6.14398">
        <ele>314</ele>
        <time>2017-03-22T13:41:11Z</time>
      </trkpt>
      <trkpt lat="43.44185" lon="6.14409">
        <ele>312.20001220703</ele>
        <time>2017-03-22T13:41:12Z</time>
      </trkpt>
      <trkpt lat="43.44193" lon="6.14432">
        <ele>310.20001220703</ele>
        <time>2017-03-22T13:41:14Z</time>
      </trkpt>
      <trkpt lat="43.44197" lon="6.14444">
        <ele>309.39999389648</ele>
        <time>2017-03-22T13:41:15Z</time>
      </trkpt>
      <trkpt lat="43.442" lon="6.14455">
        <ele>308.39999389648</ele>
        <time>2017-03-22T13:41:16Z</time>
      </trkpt>
      <trkpt lat="43.44209" lon="6.14479">
        <ele>307</ele>
        <time>2017-03-22T13:41:18Z</time>
      </trkpt>
      <trkpt lat="43.4422" lon="6.14503">
        <ele>305.60000610352</ele>
        <time>2017-03-22T13:41:20Z</time>
      </trkpt>
      <trkpt lat="43.44232" lon="6.14526">
        <ele>304</ele>
        <time>2017-03-22T13:41:22Z</time>
      </trkpt>
      <trkpt lat="43.44238" lon="6.14538">
        <ele>303.20001220703</ele>
        <time>2017-03-22T13:41:23Z</time>
      </trkpt>
      <trkpt lat="43.44242" lon="6.14551">
        <ele>302.60000610352</ele>
        <time>2017-03-22T13:41:24Z</time>
      </trkpt>
      <trkpt lat="43.44248" lon="6.14578">
        <ele>301.20001220703</ele>
        <time>2017-03-22T13:41:26Z</time>
      </trkpt>
      <trkpt lat="43.44256" lon="6.14604">
        <ele>299.60000610352</ele>
        <time>2017-03-22T13:41:28Z</time>
      </trkpt>
      <trkpt lat="43.44265" lon="6.14629">
        <ele>298.39999389648</ele>
        <time>2017-03-22T13:41:30Z</time>
      </trkpt>
      <trkpt lat="43.44277" lon="6.14651">
        <ele>296.79998779297</ele>
        <time>2017-03-22T13:41:32Z</time>
      </trkpt>
      <trkpt lat="43.44288" lon="6.14674">
        <ele>295.39999389648</ele>
        <time>2017-03-22T13:41:34Z</time>
      </trkpt>
      <trkpt lat="43.44299" lon="6.14699">
        <ele>294.79998779297</ele>
        <time>2017-03-22T13:41:36Z</time>
      </trkpt>
      <trkpt lat="43.44304" lon="6.14712">
        <ele>294.39999389648</ele>
        <time>2017-03-22T13:41:37Z</time>
      </trkpt>
      <trkpt lat="43.44311" lon="6.14725">
        <ele>294</ele>
        <time>2017-03-22T13:41:38Z</time>
      </trkpt>
      <trkpt lat="43.44317" lon="6.14737">
        <ele>293.20001220703</ele>
        <time>2017-03-22T13:41:39Z</time>
      </trkpt>
      <trkpt lat="43.44331" lon="6.14759">
        <ele>292</ele>
        <time>2017-03-22T13:41:41Z</time>
      </trkpt>
      <trkpt lat="43.44336" lon="6.14771">
        <ele>291.39999389648</ele>
        <time>2017-03-22T13:41:42Z</time>
      </trkpt>
      <trkpt lat="43.44339" lon="6.14782">
        <ele>290.79998779297</ele>
        <time>2017-03-22T13:41:43Z</time>
      </trkpt>
      <trkpt lat="43.44341" lon="6.14795">
        <ele>290</ele>
        <time>2017-03-22T13:41:44Z</time>
      </trkpt>
      <trkpt lat="43.44343" lon="6.14808">
        <ele>289.39999389648</ele>
        <time>2017-03-22T13:41:45Z</time>
      </trkpt>
      <trkpt lat="43.44345" lon="6.14821">
        <ele>288.79998779297</ele>
        <time>2017-03-22T13:41:46Z</time>
      </trkpt>
      <trkpt lat="43.44351" lon="6.1486">
        <ele>288.20001220703</ele>
        <time>2017-03-22T13:41:49Z</time>
      </trkpt>
      <trkpt lat="43.4436" lon="6.14919">
        <ele>287.20001220703</ele>
        <time>2017-03-22T13:41:54Z</time>
      </trkpt>
      <trkpt lat="43.44361" lon="6.14941">
        <ele>286.39999389648</ele>
        <time>2017-03-22T13:41:56Z</time>
      </trkpt>
      <trkpt lat="43.44359" lon="6.14951">
        <ele>285.79998779297</ele>
        <time>2017-03-22T13:41:57Z</time>
      </trkpt>
      <trkpt lat="43.44353" lon="6.14968">
        <ele>284.60000610352</ele>
        <time>2017-03-22T13:41:59Z</time>
      </trkpt>
      <trkpt lat="43.44347" lon="6.14986">
        <ele>283.60000610352</ele>
        <time>2017-03-22T13:42:01Z</time>
      </trkpt>
      <trkpt lat="43.4434" lon="6.15002">
        <ele>282.20001220703</ele>
        <time>2017-03-22T13:42:03Z</time>
      </trkpt>
      <trkpt lat="43.44337" lon="6.15016">
        <ele>281.79998779297</ele>
        <time>2017-03-22T13:42:05Z</time>
      </trkpt>
      <trkpt lat="43.44336" lon="6.15021">
        <ele>281.39999389648</ele>
        <time>2017-03-22T13:42:06Z</time>
      </trkpt>
      <trkpt lat="43.44337" lon="6.15024">
        <ele>281.20001220703</ele>
        <time>2017-03-22T13:42:07Z</time>
      </trkpt>
      <trkpt lat="43.44338" lon="6.15026">
        <ele>281</ele>
        <time>2017-03-22T13:42:08Z</time>
      </trkpt>
      <trkpt lat="43.4434" lon="6.15027">
        <ele>281</ele>
        <time>2017-03-22T13:42:12Z</time>
      </trkpt>
      <trkpt lat="43.44341" lon="6.15028">
        <ele>281.20001220703</ele>
        <time>2017-03-22T13:42:16Z</time>
      </trkpt>
      <trkpt lat="43.44348" lon="6.15029">
        <ele>281</ele>
        <time>2017-03-22T13:42:20Z</time>
      </trkpt>
      <trkpt lat="43.44354" lon="6.15025">
        <ele>280.60000610352</ele>
        <time>2017-03-22T13:42:26Z</time>
      </trkpt>
      <trkpt lat="43.44363" lon="6.15012">
        <ele>281.79998779297</ele>
        <time>2017-03-22T13:42:36Z</time>
      </trkpt>
      <trkpt lat="43.44368" lon="6.15006">
        <ele>282</ele>
        <time>2017-03-22T13:42:40Z</time>
      </trkpt>
      <trkpt lat="43.44374" lon="6.15">
        <ele>283.20001220703</ele>
        <time>2017-03-22T13:42:45Z</time>
      </trkpt>
      <trkpt lat="43.44382" lon="6.14993">
        <ele>284.20001220703</ele>
        <time>2017-03-22T13:42:51Z</time>
      </trkpt>
      <trkpt lat="43.44387" lon="6.14988">
        <ele>285</ele>
        <time>2017-03-22T13:42:55Z</time>
      </trkpt>
      <trkpt lat="43.44396" lon="6.1498">
        <ele>286.39999389648</ele>
        <time>2017-03-22T13:43:01Z</time>
      </trkpt>
      <trkpt lat="43.44408" lon="6.14971">
        <ele>289</ele>
        <time>2017-03-22T13:43:09Z</time>
      </trkpt>
      <trkpt lat="43.44413" lon="6.14967">
        <ele>289.79998779297</ele>
        <time>2017-03-22T13:43:13Z</time>
      </trkpt>
      <trkpt lat="43.44418" lon="6.14964">
        <ele>290.20001220703</ele>
        <time>2017-03-22T13:43:16Z</time>
      </trkpt>
      <trkpt lat="43.44428" lon="6.14955">
        <ele>291.20001220703</ele>
        <time>2017-03-22T13:43:24Z</time>
      </trkpt>
      <trkpt lat="43.44432" lon="6.14952">
        <ele>292.20001220703</ele>
        <time>2017-03-22T13:43:27Z</time>
      </trkpt>
      <trkpt lat="43.44453" lon="6.14934">
        <ele>295.20001220703</ele>
        <time>2017-03-22T13:43:46Z</time>
      </trkpt>
      <trkpt lat="43.4446" lon="6.14929">
        <ele>296.39999389648</ele>
        <time>2017-03-22T13:43:52Z</time>
      </trkpt>
      <trkpt lat="43.44464" lon="6.14925">
        <ele>296.79998779297</ele>
        <time>2017-03-22T13:43:56Z</time>
      </trkpt>
      <trkpt lat="43.44468" lon="6.14921">
        <ele>297.39999389648</ele>
        <time>2017-03-22T13:44:01Z</time>
      </trkpt>
      <trkpt lat="43.44472" lon="6.14916">
        <ele>298</ele>
        <time>2017-03-22T13:44:06Z</time>
      </trkpt>
      <trkpt lat="43.44475" lon="6.14912">
        <ele>298.20001220703</ele>
        <time>2017-03-22T13:44:11Z</time>
      </trkpt>
      <trkpt lat="43.44477" lon="6.14911">
        <ele>298.20001220703</ele>
        <time>2017-03-22T13:44:15Z</time>
      </trkpt>
      <trkpt lat="43.44477" lon="6.14911">
        <ele>298.20001220703</ele>
        <time>2017-03-22T13:44:16Z</time>
      </trkpt>
      <trkpt lat="43.44477" lon="6.14911">
        <ele>298.60000610352</ele>
        <time>2017-03-22T13:44:20Z</time>
      </trkpt>
      <trkpt lat="43.44477" lon="6.14911">
        <ele>298.79998779297</ele>
        <time>2017-03-22T13:44:22Z</time>
      </trkpt>
      <trkpt lat="43.44477" lon="6.14912">
        <ele>299</ele>
        <time>2017-03-22T13:44:26Z</time>
      </trkpt>
      <trkpt lat="43.44477" lon="6.14913">
        <ele>298.79998779297</ele>
        <time>2017-03-22T13:44:32Z</time>
      </trkpt>
      <trkpt lat="43.44476" lon="6.14915">
        <ele>298.79998779297</ele>
        <time>2017-03-22T13:44:35Z</time>
      </trkpt>
      <trkpt lat="43.44476" lon="6.14916">
        <ele>298.79998779297</ele>
        <time>2017-03-22T13:44:36Z</time>
      </trkpt>
      <trkpt lat="43.44476" lon="6.14917">
        <ele>298.60000610352</ele>
        <time>2017-03-22T13:44:41Z</time>
      </trkpt>
      <trkpt lat="43.44476" lon="6.14917">
        <ele>298.79998779297</ele>
        <time>2017-03-22T13:44:46Z</time>
      </trkpt>
      <trkpt lat="43.44476" lon="6.14919">
        <ele>298.79998779297</ele>
        <time>2017-03-22T13:45:16Z</time>
      </trkpt>
      <trkpt lat="43.44476" lon="6.14918">
        <ele>298.79998779297</ele>
        <time>2017-03-22T13:45:20Z</time>
      </trkpt>
      <trkpt lat="43.44476" lon="6.14918">
        <ele>298.60000610352</ele>
        <time>2017-03-22T13:45:26Z</time>
      </trkpt>
      <trkpt lat="43.44476" lon="6.14917">
        <ele>298.39999389648</ele>
        <time>2017-03-22T13:45:36Z</time>
      </trkpt>
      <trkpt lat="43.44476" lon="6.14917">
        <ele>298.39999389648</ele>
        <time>2017-03-22T13:45:46Z</time>
      </trkpt>
      <trkpt lat="43.44476" lon="6.14917">
        <ele>298.60000610352</ele>
        <time>2017-03-22T13:45:56Z</time>
      </trkpt>
      <trkpt lat="43.44477" lon="6.14916">
        <ele>298.60000610352</ele>
        <time>2017-03-22T13:46:16Z</time>
      </trkpt>
      <trkpt lat="43.44476" lon="6.14916">
        <ele>298</ele>
        <time>2017-03-22T13:46:36Z</time>
      </trkpt>
      <trkpt lat="43.44477" lon="6.14915">
        <ele>297.60000610352</ele>
        <time>2017-03-22T13:47:06Z</time>
      </trkpt>
      <trkpt lat="43.44476" lon="6.14914">
        <ele>297.39999389648</ele>
        <time>2017-03-22T13:47:12Z</time>
      </trkpt>
      <trkpt lat="43.44476" lon="6.14913">
        <ele>297.20001220703</ele>
        <time>2017-03-22T13:47:32Z</time>
      </trkpt>
      <trkpt lat="43.44476" lon="6.14913">
        <ele>297.20001220703</ele>
        <time>2017-03-22T13:47:36Z</time>
      </trkpt>
      <trkpt lat="43.44476" lon="6.1491">
        <ele>297.20001220703</ele>
        <time>2017-03-22T13:47:46Z</time>
      </trkpt>
      <trkpt lat="43.4448" lon="6.14906">
        <ele>297.39999389648</ele>
        <time>2017-03-22T13:47:57Z</time>
      </trkpt>
      <trkpt lat="43.44503" lon="6.1489">
        <ele>296.20001220703</ele>
        <time>2017-03-22T13:48:05Z</time>
      </trkpt>
      <trkpt lat="43.44507" lon="6.14889">
        <ele>295.39999389648</ele>
        <time>2017-03-22T13:48:06Z</time>
      </trkpt>
      <trkpt lat="43.44511" lon="6.14888">
        <ele>294.79998779297</ele>
        <time>2017-03-22T13:48:07Z</time>
      </trkpt>
      <trkpt lat="43.44518" lon="6.14887">
        <ele>293.60000610352</ele>
        <time>2017-03-22T13:48:09Z</time>
      </trkpt>
      <trkpt lat="43.44521" lon="6.14889">
        <ele>293.20001220703</ele>
        <time>2017-03-22T13:48:10Z</time>
      </trkpt>
      <trkpt lat="43.44527" lon="6.14896">
        <ele>292.20001220703</ele>
        <time>2017-03-22T13:48:12Z</time>
      </trkpt>
      <trkpt lat="43.44534" lon="6.14926">
        <ele>289.20001220703</ele>
        <time>2017-03-22T13:48:16Z</time>
      </trkpt>
      <trkpt lat="43.44539" lon="6.14945">
        <ele>287.39999389648</ele>
        <time>2017-03-22T13:48:18Z</time>
      </trkpt>
      <trkpt lat="43.44548" lon="6.14962">
        <ele>286</ele>
        <time>2017-03-22T13:48:20Z</time>
      </trkpt>
      <trkpt lat="43.4456" lon="6.14973">
        <ele>285.20001220703</ele>
        <time>2017-03-22T13:48:22Z</time>
      </trkpt>
      <trkpt lat="43.44567" lon="6.14975">
        <ele>284.60000610352</ele>
        <time>2017-03-22T13:48:23Z</time>
      </trkpt>
      <trkpt lat="43.44573" lon="6.14974">
        <ele>284.20001220703</ele>
        <time>2017-03-22T13:48:24Z</time>
      </trkpt>
      <trkpt lat="43.4458" lon="6.14972">
        <ele>283.39999389648</ele>
        <time>2017-03-22T13:48:25Z</time>
      </trkpt>
      <trkpt lat="43.44586" lon="6.14968">
        <ele>282.79998779297</ele>
        <time>2017-03-22T13:48:26Z</time>
      </trkpt>
      <trkpt lat="43.4462" lon="6.1494">
        <ele>281.60000610352</ele>
        <time>2017-03-22T13:48:32Z</time>
      </trkpt>
      <trkpt lat="43.44633" lon="6.14934">
        <ele>281.39999389648</ele>
        <time>2017-03-22T13:48:34Z</time>
      </trkpt>
      <trkpt lat="43.44646" lon="6.14935">
        <ele>281.20001220703</ele>
        <time>2017-03-22T13:48:36Z</time>
      </trkpt>
      <trkpt lat="43.44657" lon="6.1494">
        <ele>280.39999389648</ele>
        <time>2017-03-22T13:48:38Z</time>
      </trkpt>
      <trkpt lat="43.44661" lon="6.14945">
        <ele>279</ele>
        <time>2017-03-22T13:48:39Z</time>
      </trkpt>
      <trkpt lat="43.44665" lon="6.14951">
        <ele>279</ele>
        <time>2017-03-22T13:48:40Z</time>
      </trkpt>
      <trkpt lat="43.44681" lon="6.14979">
        <ele>278.39999389648</ele>
        <time>2017-03-22T13:48:44Z</time>
      </trkpt>
      <trkpt lat="43.44691" lon="6.14995">
        <ele>278.20001220703</ele>
        <time>2017-03-22T13:48:46Z</time>
      </trkpt>
      <trkpt lat="43.44695" lon="6.15003">
        <ele>278</ele>
        <time>2017-03-22T13:48:47Z</time>
      </trkpt>
      <trkpt lat="43.44705" lon="6.15019">
        <ele>277.60000610352</ele>
        <time>2017-03-22T13:48:49Z</time>
      </trkpt>
      <trkpt lat="43.44714" lon="6.15037">
        <ele>277.60000610352</ele>
        <time>2017-03-22T13:48:51Z</time>
      </trkpt>
      <trkpt lat="43.44725" lon="6.15053">
        <ele>277.60000610352</ele>
        <time>2017-03-22T13:48:53Z</time>
      </trkpt>
      <trkpt lat="43.4473" lon="6.1506">
        <ele>277.79998779297</ele>
        <time>2017-03-22T13:48:54Z</time>
      </trkpt>
      <trkpt lat="43.4474" lon="6.15076">
        <ele>277.79998779297</ele>
        <time>2017-03-22T13:48:56Z</time>
      </trkpt>
      <trkpt lat="43.44744" lon="6.15084">
        <ele>278</ele>
        <time>2017-03-22T13:48:57Z</time>
      </trkpt>
      <trkpt lat="43.44755" lon="6.15109">
        <ele>278.39999389648</ele>
        <time>2017-03-22T13:49:00Z</time>
      </trkpt>
      <trkpt lat="43.44766" lon="6.15132">
        <ele>279</ele>
        <time>2017-03-22T13:49:03Z</time>
      </trkpt>
      <trkpt lat="43.44777" lon="6.15153">
        <ele>279.79998779297</ele>
        <time>2017-03-22T13:49:06Z</time>
      </trkpt>
      <trkpt lat="43.44785" lon="6.15166">
        <ele>280.20001220703</ele>
        <time>2017-03-22T13:49:08Z</time>
      </trkpt>
      <trkpt lat="43.44796" lon="6.15192">
        <ele>281.20001220703</ele>
        <time>2017-03-22T13:49:12Z</time>
      </trkpt>
      <trkpt lat="43.44798" lon="6.15199">
        <ele>281.39999389648</ele>
        <time>2017-03-22T13:49:13Z</time>
      </trkpt>
      <trkpt lat="43.44805" lon="6.15217">
        <ele>282.20001220703</ele>
        <time>2017-03-22T13:49:16Z</time>
      </trkpt>
      <trkpt lat="43.44808" lon="6.15228">
        <ele>282.60000610352</ele>
        <time>2017-03-22T13:49:18Z</time>
      </trkpt>
      <trkpt lat="43.44817" lon="6.15253">
        <ele>283.60000610352</ele>
        <time>2017-03-22T13:49:23Z</time>
      </trkpt>
      <trkpt lat="43.44826" lon="6.15271">
        <ele>284.60000610352</ele>
        <time>2017-03-22T13:49:27Z</time>
      </trkpt>
      <trkpt lat="43.44837" lon="6.15309">
        <ele>285.60000610352</ele>
        <time>2017-03-22T13:49:36Z</time>
      </trkpt>
      <trkpt lat="43.44838" lon="6.15312">
        <ele>285.79998779297</ele>
        <time>2017-03-22T13:49:37Z</time>
      </trkpt>
      <trkpt lat="43.44844" lon="6.15344">
        <ele>287.79998779297</ele>
        <time>2017-03-22T13:49:46Z</time>
      </trkpt>
      <trkpt lat="43.44845" lon="6.15346">
        <ele>287.79998779297</ele>
        <time>2017-03-22T13:49:47Z</time>
      </trkpt>
      <trkpt lat="43.44852" lon="6.15365">
        <ele>289</ele>
        <time>2017-03-22T13:49:54Z</time>
      </trkpt>
      <trkpt lat="43.44855" lon="6.15372">
        <ele>289.20001220703</ele>
        <time>2017-03-22T13:49:56Z</time>
      </trkpt>
      <trkpt lat="43.44867" lon="6.15399">
        <ele>289.60000610352</ele>
        <time>2017-03-22T13:50:05Z</time>
      </trkpt>
      <trkpt lat="43.44869" lon="6.15406">
        <ele>290</ele>
        <time>2017-03-22T13:50:07Z</time>
      </trkpt>
      <trkpt lat="43.44878" lon="6.15432">
        <ele>291.20001220703</ele>
        <time>2017-03-22T13:50:17Z</time>
      </trkpt>
      <trkpt lat="43.44886" lon="6.15451">
        <ele>292.20001220703</ele>
        <time>2017-03-22T13:50:26Z</time>
      </trkpt>
      <trkpt lat="43.44891" lon="6.15459">
        <ele>293.20001220703</ele>
        <time>2017-03-22T13:50:32Z</time>
      </trkpt>
      <trkpt lat="43.44894" lon="6.15465">
        <ele>293.39999389648</ele>
        <time>2017-03-22T13:50:36Z</time>
      </trkpt>
      <trkpt lat="43.44897" lon="6.15472">
        <ele>293.60000610352</ele>
        <time>2017-03-22T13:50:42Z</time>
      </trkpt>
      <trkpt lat="43.44897" lon="6.15475">
        <ele>293.39999389648</ele>
        <time>2017-03-22T13:50:46Z</time>
      </trkpt>
      <trkpt lat="43.44898" lon="6.15475">
        <ele>293.39999389648</ele>
        <time>2017-03-22T13:50:49Z</time>
      </trkpt>
      <trkpt lat="43.44898" lon="6.15475">
        <ele>293.39999389648</ele>
        <time>2017-03-22T13:50:54Z</time>
      </trkpt>
      <trkpt lat="43.44898" lon="6.15475">
        <ele>293.20001220703</ele>
        <time>2017-03-22T13:50:56Z</time>
      </trkpt>
      <trkpt lat="43.44897" lon="6.15478">
        <ele>293</ele>
        <time>2017-03-22T13:50:58Z</time>
      </trkpt>
      <trkpt lat="43.44889" lon="6.15486">
        <ele>292.60000610352</ele>
        <time>2017-03-22T13:51:03Z</time>
      </trkpt>
      <trkpt lat="43.44888" lon="6.15495">
        <ele>292.39999389648</ele>
        <time>2017-03-22T13:51:05Z</time>
      </trkpt>
      <trkpt lat="43.44888" lon="6.155">
        <ele>292.20001220703</ele>
        <time>2017-03-22T13:51:06Z</time>
      </trkpt>
      <trkpt lat="43.44888" lon="6.15504">
        <ele>291.79998779297</ele>
        <time>2017-03-22T13:51:07Z</time>
      </trkpt>
      <trkpt lat="43.44886" lon="6.15526">
        <ele>291</ele>
        <time>2017-03-22T13:51:11Z</time>
      </trkpt>
      <trkpt lat="43.44888" lon="6.15546">
        <ele>289.79998779297</ele>
        <time>2017-03-22T13:51:14Z</time>
      </trkpt>
      <trkpt lat="43.44889" lon="6.15556">
        <ele>289.20001220703</ele>
        <time>2017-03-22T13:51:16Z</time>
      </trkpt>
      <trkpt lat="43.44888" lon="6.1556">
        <ele>288.60000610352</ele>
        <time>2017-03-22T13:51:17Z</time>
      </trkpt>
      <trkpt lat="43.44886" lon="6.15565">
        <ele>288</ele>
        <time>2017-03-22T13:51:18Z</time>
      </trkpt>
      <trkpt lat="43.44882" lon="6.15578">
        <ele>287.60000610352</ele>
        <time>2017-03-22T13:51:20Z</time>
      </trkpt>
      <trkpt lat="43.44881" lon="6.15584">
        <ele>287.39999389648</ele>
        <time>2017-03-22T13:51:21Z</time>
      </trkpt>
      <trkpt lat="43.44881" lon="6.15599">
        <ele>286.60000610352</ele>
        <time>2017-03-22T13:51:23Z</time>
      </trkpt>
      <trkpt lat="43.4488" lon="6.15607">
        <ele>286</ele>
        <time>2017-03-22T13:51:24Z</time>
      </trkpt>
      <trkpt lat="43.44878" lon="6.15622">
        <ele>284.20001220703</ele>
        <time>2017-03-22T13:51:26Z</time>
      </trkpt>
      <trkpt lat="43.44878" lon="6.1563">
        <ele>283.20001220703</ele>
        <time>2017-03-22T13:51:27Z</time>
      </trkpt>
      <trkpt lat="43.44878" lon="6.15643">
        <ele>281.39999389648</ele>
        <time>2017-03-22T13:51:29Z</time>
      </trkpt>
      <trkpt lat="43.44875" lon="6.15655">
        <ele>280.20001220703</ele>
        <time>2017-03-22T13:51:31Z</time>
      </trkpt>
      <trkpt lat="43.44871" lon="6.15665">
        <ele>279.39999389648</ele>
        <time>2017-03-22T13:51:33Z</time>
      </trkpt>
      <trkpt lat="43.44869" lon="6.15671">
        <ele>279</ele>
        <time>2017-03-22T13:51:34Z</time>
      </trkpt>
      <trkpt lat="43.44865" lon="6.15685">
        <ele>278.60000610352</ele>
        <time>2017-03-22T13:51:36Z</time>
      </trkpt>
      <trkpt lat="43.44864" lon="6.15693">
        <ele>278.39999389648</ele>
        <time>2017-03-22T13:51:37Z</time>
      </trkpt>
      <trkpt lat="43.44863" lon="6.15701">
        <ele>278</ele>
        <time>2017-03-22T13:51:38Z</time>
      </trkpt>
      <trkpt lat="43.44862" lon="6.15708">
        <ele>277.79998779297</ele>
        <time>2017-03-22T13:51:39Z</time>
      </trkpt>
      <trkpt lat="43.44857" lon="6.15722">
        <ele>277.60000610352</ele>
        <time>2017-03-22T13:51:41Z</time>
      </trkpt>
      <trkpt lat="43.4485" lon="6.15732">
        <ele>277.39999389648</ele>
        <time>2017-03-22T13:51:43Z</time>
      </trkpt>
      <trkpt lat="43.44845" lon="6.15741">
        <ele>277.79998779297</ele>
        <time>2017-03-22T13:51:45Z</time>
      </trkpt>
      <trkpt lat="43.44843" lon="6.15745">
        <ele>278.39999389648</ele>
        <time>2017-03-22T13:51:46Z</time>
      </trkpt>
      <trkpt lat="43.44836" lon="6.15762">
        <ele>278.60000610352</ele>
        <time>2017-03-22T13:51:49Z</time>
      </trkpt>
      <trkpt lat="43.44836" lon="6.15775">
        <ele>278</ele>
        <time>2017-03-22T13:51:51Z</time>
      </trkpt>
      <trkpt lat="43.4484" lon="6.15787">
        <ele>276.79998779297</ele>
        <time>2017-03-22T13:51:53Z</time>
      </trkpt>
      <trkpt lat="43.44841" lon="6.15794">
        <ele>275.39999389648</ele>
        <time>2017-03-22T13:51:55Z</time>
      </trkpt>
      <trkpt lat="43.4484" lon="6.15795">
        <ele>274.79998779297</ele>
        <time>2017-03-22T13:51:56Z</time>
      </trkpt>
      <trkpt lat="43.44839" lon="6.15796">
        <ele>274.20001220703</ele>
        <time>2017-03-22T13:51:57Z</time>
      </trkpt>
      <trkpt lat="43.44836" lon="6.15799">
        <ele>273.79998779297</ele>
        <time>2017-03-22T13:52:00Z</time>
      </trkpt>
      <trkpt lat="43.44831" lon="6.15799">
        <ele>274.60000610352</ele>
        <time>2017-03-22T13:52:04Z</time>
      </trkpt>
      <trkpt lat="43.44828" lon="6.15799">
        <ele>275.39999389648</ele>
        <time>2017-03-22T13:52:06Z</time>
      </trkpt>
      <trkpt lat="43.44823" lon="6.15804">
        <ele>276.39999389648</ele>
        <time>2017-03-22T13:52:10Z</time>
      </trkpt>
      <trkpt lat="43.44815" lon="6.15809">
        <ele>277.39999389648</ele>
        <time>2017-03-22T13:52:16Z</time>
      </trkpt>
      <trkpt lat="43.44814" lon="6.15809">
        <ele>277.60000610352</ele>
        <time>2017-03-22T13:52:17Z</time>
      </trkpt>
      <trkpt lat="43.4481" lon="6.15808">
        <ele>278.60000610352</ele>
        <time>2017-03-22T13:52:20Z</time>
      </trkpt>
      <trkpt lat="43.44807" lon="6.15807">
        <ele>279</ele>
        <time>2017-03-22T13:52:22Z</time>
      </trkpt>
      <trkpt lat="43.44806" lon="6.15805">
        <ele>279.60000610352</ele>
        <time>2017-03-22T13:52:25Z</time>
      </trkpt>
      <trkpt lat="43.44806" lon="6.15805">
        <ele>279.79998779297</ele>
        <time>2017-03-22T13:52:26Z</time>
      </trkpt>
      <trkpt lat="43.44804" lon="6.15805">
        <ele>280.79998779297</ele>
        <time>2017-03-22T13:52:34Z</time>
      </trkpt>
      <trkpt lat="43.44803" lon="6.15805">
        <ele>281</ele>
        <time>2017-03-22T13:52:36Z</time>
      </trkpt>
      <trkpt lat="43.44803" lon="6.15806">
        <ele>281.39999389648</ele>
        <time>2017-03-22T13:52:39Z</time>
      </trkpt>
      <trkpt lat="43.44803" lon="6.15806">
        <ele>281.39999389648</ele>
        <time>2017-03-22T13:52:46Z</time>
      </trkpt>
      <trkpt lat="43.44803" lon="6.15806">
        <ele>281.39999389648</ele>
        <time>2017-03-22T13:52:55Z</time>
      </trkpt>
      <trkpt lat="43.448" lon="6.15808">
        <ele>281.79998779297</ele>
        <time>2017-03-22T13:52:59Z</time>
      </trkpt>
      <trkpt lat="43.44798" lon="6.15809">
        <ele>282.79998779297</ele>
        <time>2017-03-22T13:53:03Z</time>
      </trkpt>
      <trkpt lat="43.44796" lon="6.15811">
        <ele>283.39999389648</ele>
        <time>2017-03-22T13:53:06Z</time>
      </trkpt>
      <trkpt lat="43.44793" lon="6.15814">
        <ele>284</ele>
        <time>2017-03-22T13:53:10Z</time>
      </trkpt>
      <trkpt lat="43.44791" lon="6.15816">
        <ele>284.39999389648</ele>
        <time>2017-03-22T13:53:16Z</time>
      </trkpt>
      <trkpt lat="43.44786" lon="6.1583">
        <ele>284.39999389648</ele>
        <time>2017-03-22T13:53:26Z</time>
      </trkpt>
      <trkpt lat="43.44779" lon="6.15859">
        <ele>285</ele>
        <time>2017-03-22T13:53:36Z</time>
      </trkpt>
      <trkpt lat="43.44773" lon="6.15871">
        <ele>284.79998779297</ele>
        <time>2017-03-22T13:53:39Z</time>
      </trkpt>
      <trkpt lat="43.44765" lon="6.1589">
        <ele>283.60000610352</ele>
        <time>2017-03-22T13:53:42Z</time>
      </trkpt>
      <trkpt lat="43.44762" lon="6.15904">
        <ele>281.60000610352</ele>
        <time>2017-03-22T13:53:44Z</time>
      </trkpt>
      <trkpt lat="43.44762" lon="6.1592">
        <ele>279.79998779297</ele>
        <time>2017-03-22T13:53:46Z</time>
      </trkpt>
      <trkpt lat="43.44764" lon="6.15938">
        <ele>278.60000610352</ele>
        <time>2017-03-22T13:53:48Z</time>
      </trkpt>
      <trkpt lat="43.44767" lon="6.15956">
        <ele>277.60000610352</ele>
        <time>2017-03-22T13:53:50Z</time>
      </trkpt>
      <trkpt lat="43.44771" lon="6.15972">
        <ele>277.20001220703</ele>
        <time>2017-03-22T13:53:52Z</time>
      </trkpt>
      <trkpt lat="43.44773" lon="6.15991">
        <ele>277.20001220703</ele>
        <time>2017-03-22T13:53:55Z</time>
      </trkpt>
      <trkpt lat="43.44774" lon="6.15996">
        <ele>277.20001220703</ele>
        <time>2017-03-22T13:53:56Z</time>
      </trkpt>
      <trkpt lat="43.44777" lon="6.16014">
        <ele>278</ele>
        <time>2017-03-22T13:54:00Z</time>
      </trkpt>
      <trkpt lat="43.44786" lon="6.16046">
        <ele>279</ele>
        <time>2017-03-22T13:54:06Z</time>
      </trkpt>
      <trkpt lat="43.44787" lon="6.16057">
        <ele>279</ele>
        <time>2017-03-22T13:54:08Z</time>
      </trkpt>
      <trkpt lat="43.44785" lon="6.16078">
        <ele>279.79998779297</ele>
        <time>2017-03-22T13:54:12Z</time>
      </trkpt>
      <trkpt lat="43.44785" lon="6.16101">
        <ele>279.79998779297</ele>
        <time>2017-03-22T13:54:16Z</time>
      </trkpt>
      <trkpt lat="43.4478" lon="6.16114">
        <ele>280</ele>
        <time>2017-03-22T13:54:21Z</time>
      </trkpt>
      <trkpt lat="43.44777" lon="6.16125">
        <ele>280.39999389648</ele>
        <time>2017-03-22T13:54:26Z</time>
      </trkpt>
      <trkpt lat="43.44776" lon="6.16147">
        <ele>278.60000610352</ele>
        <time>2017-03-22T13:54:31Z</time>
      </trkpt>
      <trkpt lat="43.44776" lon="6.16156">
        <ele>276.79998779297</ele>
        <time>2017-03-22T13:54:33Z</time>
      </trkpt>
      <trkpt lat="43.44773" lon="6.16171">
        <ele>274.79998779297</ele>
        <time>2017-03-22T13:54:36Z</time>
      </trkpt>
      <trkpt lat="43.44771" lon="6.16185">
        <ele>274</ele>
        <time>2017-03-22T13:54:38Z</time>
      </trkpt>
      <trkpt lat="43.44772" lon="6.16202">
        <ele>272.79998779297</ele>
        <time>2017-03-22T13:54:40Z</time>
      </trkpt>
      <trkpt lat="43.44774" lon="6.1622">
        <ele>271</ele>
        <time>2017-03-22T13:54:42Z</time>
      </trkpt>
      <trkpt lat="43.44775" lon="6.1623">
        <ele>270</ele>
        <time>2017-03-22T13:54:43Z</time>
      </trkpt>
      <trkpt lat="43.44777" lon="6.16239">
        <ele>269.39999389648</ele>
        <time>2017-03-22T13:54:44Z</time>
      </trkpt>
      <trkpt lat="43.4478" lon="6.16258">
        <ele>268.39999389648</ele>
        <time>2017-03-22T13:54:46Z</time>
      </trkpt>
      <trkpt lat="43.44781" lon="6.16268">
        <ele>267.20001220703</ele>
        <time>2017-03-22T13:54:47Z</time>
      </trkpt>
      <trkpt lat="43.44781" lon="6.16277">
        <ele>265.60000610352</ele>
        <time>2017-03-22T13:54:48Z</time>
      </trkpt>
      <trkpt lat="43.44782" lon="6.16294">
        <ele>263</ele>
        <time>2017-03-22T13:54:50Z</time>
      </trkpt>
      <trkpt lat="43.44786" lon="6.16309">
        <ele>261.60000610352</ele>
        <time>2017-03-22T13:54:52Z</time>
      </trkpt>
      <trkpt lat="43.44787" lon="6.16318">
        <ele>261</ele>
        <time>2017-03-22T13:54:53Z</time>
      </trkpt>
      <trkpt lat="43.44788" lon="6.16326">
        <ele>260.39999389648</ele>
        <time>2017-03-22T13:54:54Z</time>
      </trkpt>
      <trkpt lat="43.44787" lon="6.16342">
        <ele>258.79998779297</ele>
        <time>2017-03-22T13:54:56Z</time>
      </trkpt>
      <trkpt lat="43.44782" lon="6.16358">
        <ele>257.79998779297</ele>
        <time>2017-03-22T13:54:58Z</time>
      </trkpt>
      <trkpt lat="43.44778" lon="6.16374">
        <ele>256.79998779297</ele>
        <time>2017-03-22T13:55:00Z</time>
      </trkpt>
      <trkpt lat="43.44776" lon="6.16382">
        <ele>256.60000610352</ele>
        <time>2017-03-22T13:55:01Z</time>
      </trkpt>
      <trkpt lat="43.44774" lon="6.16389">
        <ele>256.39999389648</ele>
        <time>2017-03-22T13:55:02Z</time>
      </trkpt>
      <trkpt lat="43.44772" lon="6.16403">
        <ele>256.20001220703</ele>
        <time>2017-03-22T13:55:04Z</time>
      </trkpt>
      <trkpt lat="43.44772" lon="6.16418">
        <ele>256.20001220703</ele>
        <time>2017-03-22T13:55:06Z</time>
      </trkpt>
      <trkpt lat="43.4477" lon="6.16443">
        <ele>255.19999694824</ele>
        <time>2017-03-22T13:55:09Z</time>
      </trkpt>
      <trkpt lat="43.44768" lon="6.16458">
        <ele>254.19999694824</ele>
        <time>2017-03-22T13:55:11Z</time>
      </trkpt>
      <trkpt lat="43.44768" lon="6.16465">
        <ele>254</ele>
        <time>2017-03-22T13:55:12Z</time>
      </trkpt>
      <trkpt lat="43.44766" lon="6.16479">
        <ele>254.19999694824</ele>
        <time>2017-03-22T13:55:14Z</time>
      </trkpt>
      <trkpt lat="43.44763" lon="6.16493">
        <ele>254.39999389648</ele>
        <time>2017-03-22T13:55:16Z</time>
      </trkpt>
      <trkpt lat="43.44761" lon="6.16506">
        <ele>254.39999389648</ele>
        <time>2017-03-22T13:55:18Z</time>
      </trkpt>
      <trkpt lat="43.44761" lon="6.16523">
        <ele>254.60000610352</ele>
        <time>2017-03-22T13:55:21Z</time>
      </trkpt>
      <trkpt lat="43.44761" lon="6.16541">
        <ele>254.60000610352</ele>
        <time>2017-03-22T13:55:24Z</time>
      </trkpt>
      <trkpt lat="43.44765" lon="6.16551">
        <ele>254.39999389648</ele>
        <time>2017-03-22T13:55:26Z</time>
      </trkpt>
      <trkpt lat="43.44768" lon="6.16555">
        <ele>254.39999389648</ele>
        <time>2017-03-22T13:55:27Z</time>
      </trkpt>
      <trkpt lat="43.44779" lon="6.16562">
        <ele>252.80000305176</ele>
        <time>2017-03-22T13:55:30Z</time>
      </trkpt>
      <trkpt lat="43.44789" lon="6.16565">
        <ele>250.39999389648</ele>
        <time>2017-03-22T13:55:32Z</time>
      </trkpt>
      <trkpt lat="43.44793" lon="6.16567">
        <ele>249</ele>
        <time>2017-03-22T13:55:33Z</time>
      </trkpt>
      <trkpt lat="43.44796" lon="6.16568">
        <ele>248.39999389648</ele>
        <time>2017-03-22T13:55:34Z</time>
      </trkpt>
      <trkpt lat="43.44799" lon="6.16572">
        <ele>247.80000305176</ele>
        <time>2017-03-22T13:55:35Z</time>
      </trkpt>
      <trkpt lat="43.44802" lon="6.16577">
        <ele>247.19999694824</ele>
        <time>2017-03-22T13:55:36Z</time>
      </trkpt>
      <trkpt lat="43.44804" lon="6.16589">
        <ele>246.19999694824</ele>
        <time>2017-03-22T13:55:38Z</time>
      </trkpt>
      <trkpt lat="43.44806" lon="6.166">
        <ele>245.60000610352</ele>
        <time>2017-03-22T13:55:40Z</time>
      </trkpt>
      <trkpt lat="43.44808" lon="6.16605">
        <ele>245.19999694824</ele>
        <time>2017-03-22T13:55:41Z</time>
      </trkpt>
      <trkpt lat="43.44814" lon="6.16616">
        <ele>244.60000610352</ele>
        <time>2017-03-22T13:55:44Z</time>
      </trkpt>
      <trkpt lat="43.44816" lon="6.1662">
        <ele>244.19999694824</ele>
        <time>2017-03-22T13:55:46Z</time>
      </trkpt>
      <trkpt lat="43.44817" lon="6.16626">
        <ele>244.60000610352</ele>
        <time>2017-03-22T13:55:49Z</time>
      </trkpt>
      <trkpt lat="43.44817" lon="6.16636">
        <ele>246.80000305176</ele>
        <time>2017-03-22T13:55:53Z</time>
      </trkpt>
      <trkpt lat="43.44819" lon="6.16645">
        <ele>248</ele>
        <time>2017-03-22T13:55:57Z</time>
      </trkpt>
      <trkpt lat="43.44818" lon="6.16651">
        <ele>249.39999389648</ele>
        <time>2017-03-22T13:56:00Z</time>
      </trkpt>
      <trkpt lat="43.44819" lon="6.16654">
        <ele>250</ele>
        <time>2017-03-22T13:56:02Z</time>
      </trkpt>
      <trkpt lat="43.44819" lon="6.16658">
        <ele>250.60000610352</ele>
        <time>2017-03-22T13:56:04Z</time>
      </trkpt>
      <trkpt lat="43.44818" lon="6.16662">
        <ele>251.39999389648</ele>
        <time>2017-03-22T13:56:06Z</time>
      </trkpt>
      <trkpt lat="43.44819" lon="6.16663">
        <ele>251.80000305176</ele>
        <time>2017-03-22T13:56:07Z</time>
      </trkpt>
      <trkpt lat="43.44819" lon="6.16668">
        <ele>252.60000610352</ele>
        <time>2017-03-22T13:56:10Z</time>
      </trkpt>
      <trkpt lat="43.4482" lon="6.16681">
        <ele>254.39999389648</ele>
        <time>2017-03-22T13:56:18Z</time>
      </trkpt>
      <trkpt lat="43.44822" lon="6.16687">
        <ele>255</ele>
        <time>2017-03-22T13:56:22Z</time>
      </trkpt>
      <trkpt lat="43.44825" lon="6.16693">
        <ele>255.39999389648</ele>
        <time>2017-03-22T13:56:26Z</time>
      </trkpt>
      <trkpt lat="43.44828" lon="6.16697">
        <ele>255.60000610352</ele>
        <time>2017-03-22T13:56:30Z</time>
      </trkpt>
      <trkpt lat="43.44834" lon="6.16703">
        <ele>255.39999389648</ele>
        <time>2017-03-22T13:56:36Z</time>
      </trkpt>
      <trkpt lat="43.44836" lon="6.16706">
        <ele>255.39999389648</ele>
        <time>2017-03-22T13:56:38Z</time>
      </trkpt>
      <trkpt lat="43.44838" lon="6.16715">
        <ele>255</ele>
        <time>2017-03-22T13:56:41Z</time>
      </trkpt>
      <trkpt lat="43.4484" lon="6.16729">
        <ele>254.39999389648</ele>
        <time>2017-03-22T13:56:44Z</time>
      </trkpt>
      <trkpt lat="43.44843" lon="6.1674">
        <ele>254.19999694824</ele>
        <time>2017-03-22T13:56:46Z</time>
      </trkpt>
      <trkpt lat="43.44844" lon="6.16747">
        <ele>254</ele>
        <time>2017-03-22T13:56:47Z</time>
      </trkpt>
      <trkpt lat="43.44845" lon="6.16753">
        <ele>253.60000610352</ele>
        <time>2017-03-22T13:56:48Z</time>
      </trkpt>
      <trkpt lat="43.44846" lon="6.16768">
        <ele>253</ele>
        <time>2017-03-22T13:56:50Z</time>
      </trkpt>
      <trkpt lat="43.44847" lon="6.16786">
        <ele>252</ele>
        <time>2017-03-22T13:56:52Z</time>
      </trkpt>
      <trkpt lat="43.44847" lon="6.16795">
        <ele>251.60000610352</ele>
        <time>2017-03-22T13:56:53Z</time>
      </trkpt>
      <trkpt lat="43.44847" lon="6.16813">
        <ele>249.80000305176</ele>
        <time>2017-03-22T13:56:55Z</time>
      </trkpt>
      <trkpt lat="43.44845" lon="6.16823">
        <ele>248.80000305176</ele>
        <time>2017-03-22T13:56:56Z</time>
      </trkpt>
      <trkpt lat="43.44842" lon="6.16842">
        <ele>247.60000610352</ele>
        <time>2017-03-22T13:56:58Z</time>
      </trkpt>
      <trkpt lat="43.44843" lon="6.16862">
        <ele>246.39999389648</ele>
        <time>2017-03-22T13:57:00Z</time>
      </trkpt>
      <trkpt lat="43.44843" lon="6.16877">
        <ele>245.19999694824</ele>
        <time>2017-03-22T13:57:02Z</time>
      </trkpt>
      <trkpt lat="43.44836" lon="6.16891">
        <ele>244.19999694824</ele>
        <time>2017-03-22T13:57:05Z</time>
      </trkpt>
      <trkpt lat="43.44834" lon="6.16896">
        <ele>244</ele>
        <time>2017-03-22T13:57:06Z</time>
      </trkpt>
      <trkpt lat="43.44825" lon="6.1691">
        <ele>244</ele>
        <time>2017-03-22T13:57:11Z</time>
      </trkpt>
      <trkpt lat="43.4482" lon="6.16915">
        <ele>245.39999389648</ele>
        <time>2017-03-22T13:57:14Z</time>
      </trkpt>
      <trkpt lat="43.44816" lon="6.16919">
        <ele>245.80000305176</ele>
        <time>2017-03-22T13:57:16Z</time>
      </trkpt>
      <trkpt lat="43.4481" lon="6.16924">
        <ele>246.39999389648</ele>
        <time>2017-03-22T13:57:19Z</time>
      </trkpt>
      <trkpt lat="43.44802" lon="6.16928">
        <ele>247.60000610352</ele>
        <time>2017-03-22T13:57:23Z</time>
      </trkpt>
      <trkpt lat="43.44796" lon="6.16931">
        <ele>248.19999694824</ele>
        <time>2017-03-22T13:57:26Z</time>
      </trkpt>
      <trkpt lat="43.44792" lon="6.16934">
        <ele>248.80000305176</ele>
        <time>2017-03-22T13:57:28Z</time>
      </trkpt>
      <trkpt lat="43.4478" lon="6.16949">
        <ele>250</ele>
        <time>2017-03-22T13:57:36Z</time>
      </trkpt>
      <trkpt lat="43.44774" lon="6.16955">
        <ele>250.60000610352</ele>
        <time>2017-03-22T13:57:41Z</time>
      </trkpt>
      <trkpt lat="43.44775" lon="6.16956">
        <ele>252</ele>
        <time>2017-03-22T13:57:50Z</time>
      </trkpt>
      <trkpt lat="43.44774" lon="6.16956">
        <ele>251.80000305176</ele>
        <time>2017-03-22T13:57:52Z</time>
      </trkpt>
      <trkpt lat="43.44772" lon="6.16959">
        <ele>251.39999389648</ele>
        <time>2017-03-22T13:57:55Z</time>
      </trkpt>
      <trkpt lat="43.4477" lon="6.16961">
        <ele>251</ele>
        <time>2017-03-22T13:57:56Z</time>
      </trkpt>
      <trkpt lat="43.44769" lon="6.16963">
        <ele>250.60000610352</ele>
        <time>2017-03-22T13:57:57Z</time>
      </trkpt>
      <trkpt lat="43.44762" lon="6.1697">
        <ele>250</ele>
        <time>2017-03-22T13:58:01Z</time>
      </trkpt>
      <trkpt lat="43.44759" lon="6.16973">
        <ele>250</ele>
        <time>2017-03-22T13:58:03Z</time>
      </trkpt>
      <trkpt lat="43.44757" lon="6.16976">
        <ele>250</ele>
        <time>2017-03-22T13:58:05Z</time>
      </trkpt>
      <trkpt lat="43.44753" lon="6.16981">
        <ele>250.19999694824</ele>
        <time>2017-03-22T13:58:08Z</time>
      </trkpt>
      <trkpt lat="43.44751" lon="6.16984">
        <ele>250.19999694824</ele>
        <time>2017-03-22T13:58:10Z</time>
      </trkpt>
      <trkpt lat="43.44752" lon="6.16991">
        <ele>250.19999694824</ele>
        <time>2017-03-22T13:58:13Z</time>
      </trkpt>
      <trkpt lat="43.44751" lon="6.16999">
        <ele>250</ele>
        <time>2017-03-22T13:58:15Z</time>
      </trkpt>
      <trkpt lat="43.44751" lon="6.17004">
        <ele>249.80000305176</ele>
        <time>2017-03-22T13:58:16Z</time>
      </trkpt>
      <trkpt lat="43.44748" lon="6.17027">
        <ele>248.80000305176</ele>
        <time>2017-03-22T13:58:20Z</time>
      </trkpt>
      <trkpt lat="43.44747" lon="6.17038">
        <ele>248</ele>
        <time>2017-03-22T13:58:22Z</time>
      </trkpt>
      <trkpt lat="43.44745" lon="6.1705">
        <ele>247.60000610352</ele>
        <time>2017-03-22T13:58:24Z</time>
      </trkpt>
      <trkpt lat="43.44743" lon="6.1706">
        <ele>246.80000305176</ele>
        <time>2017-03-22T13:58:26Z</time>
      </trkpt>
      <trkpt lat="43.44741" lon="6.17064">
        <ele>246.39999389648</ele>
        <time>2017-03-22T13:58:27Z</time>
      </trkpt>
      <trkpt lat="43.44736" lon="6.17069">
        <ele>246.39999389648</ele>
        <time>2017-03-22T13:58:29Z</time>
      </trkpt>
      <trkpt lat="43.4473" lon="6.17071">
        <ele>246.80000305176</ele>
        <time>2017-03-22T13:58:32Z</time>
      </trkpt>
      <trkpt lat="43.44727" lon="6.17073">
        <ele>247</ele>
        <time>2017-03-22T13:58:34Z</time>
      </trkpt>
      <trkpt lat="43.44724" lon="6.17075">
        <ele>247.19999694824</ele>
        <time>2017-03-22T13:58:36Z</time>
      </trkpt>
      <trkpt lat="43.44722" lon="6.17078">
        <ele>247.60000610352</ele>
        <time>2017-03-22T13:58:38Z</time>
      </trkpt>
      <trkpt lat="43.44716" lon="6.17099">
        <ele>248.19999694824</ele>
        <time>2017-03-22T13:58:46Z</time>
      </trkpt>
      <trkpt lat="43.44715" lon="6.17105">
        <ele>248.19999694824</ele>
        <time>2017-03-22T13:58:48Z</time>
      </trkpt>
      <trkpt lat="43.44716" lon="6.17127">
        <ele>247.80000305176</ele>
        <time>2017-03-22T13:58:55Z</time>
      </trkpt>
      <trkpt lat="43.4471" lon="6.17146">
        <ele>248.19999694824</ele>
        <time>2017-03-22T13:59:02Z</time>
      </trkpt>
      <trkpt lat="43.44707" lon="6.17158">
        <ele>248.60000610352</ele>
        <time>2017-03-22T13:59:06Z</time>
      </trkpt>
      <trkpt lat="43.44703" lon="6.17184">
        <ele>248.19999694824</ele>
        <time>2017-03-22T13:59:13Z</time>
      </trkpt>
      <trkpt lat="43.44701" lon="6.17193">
        <ele>248</ele>
        <time>2017-03-22T13:59:15Z</time>
      </trkpt>
      <trkpt lat="43.447" lon="6.17199">
        <ele>247.80000305176</ele>
        <time>2017-03-22T13:59:16Z</time>
      </trkpt>
      <trkpt lat="43.447" lon="6.17206">
        <ele>247.80000305176</ele>
        <time>2017-03-22T13:59:17Z</time>
      </trkpt>
      <trkpt lat="43.447" lon="6.17211">
        <ele>247.60000610352</ele>
        <time>2017-03-22T13:59:18Z</time>
      </trkpt>
      <trkpt lat="43.44699" lon="6.17223">
        <ele>247.60000610352</ele>
        <time>2017-03-22T13:59:21Z</time>
      </trkpt>
      <trkpt lat="43.44698" lon="6.17242">
        <ele>248.60000610352</ele>
        <time>2017-03-22T13:59:26Z</time>
      </trkpt>
      <trkpt lat="43.44695" lon="6.17283">
        <ele>248.19999694824</ele>
        <time>2017-03-22T13:59:35Z</time>
      </trkpt>
      <trkpt lat="43.44694" lon="6.17288">
        <ele>248.19999694824</ele>
        <time>2017-03-22T13:59:36Z</time>
      </trkpt>
      <trkpt lat="43.44693" lon="6.17306">
        <ele>247.60000610352</ele>
        <time>2017-03-22T13:59:39Z</time>
      </trkpt>
      <trkpt lat="43.44695" lon="6.17323">
        <ele>246.80000305176</ele>
        <time>2017-03-22T13:59:42Z</time>
      </trkpt>
      <trkpt lat="43.44699" lon="6.17333">
        <ele>246.39999389648</ele>
        <time>2017-03-22T13:59:44Z</time>
      </trkpt>
      <trkpt lat="43.44703" lon="6.1734">
        <ele>245.19999694824</ele>
        <time>2017-03-22T13:59:46Z</time>
      </trkpt>
      <trkpt lat="43.44709" lon="6.17346">
        <ele>243.60000610352</ele>
        <time>2017-03-22T13:59:48Z</time>
      </trkpt>
      <trkpt lat="43.44714" lon="6.17359">
        <ele>242.39999389648</ele>
        <time>2017-03-22T13:59:50Z</time>
      </trkpt>
      <trkpt lat="43.44722" lon="6.17369">
        <ele>241.19999694824</ele>
        <time>2017-03-22T13:59:52Z</time>
      </trkpt>
      <trkpt lat="43.44731" lon="6.17371">
        <ele>239.80000305176</ele>
        <time>2017-03-22T13:59:54Z</time>
      </trkpt>
      <trkpt lat="43.4474" lon="6.17372">
        <ele>238.60000610352</ele>
        <time>2017-03-22T13:59:56Z</time>
      </trkpt>
      <trkpt lat="43.44748" lon="6.17374">
        <ele>237.19999694824</ele>
        <time>2017-03-22T13:59:58Z</time>
      </trkpt>
      <trkpt lat="43.44752" lon="6.17374">
        <ele>236.39999389648</ele>
        <time>2017-03-22T13:59:59Z</time>
      </trkpt>
      <trkpt lat="43.44756" lon="6.17374">
        <ele>236</ele>
        <time>2017-03-22T14:00:00Z</time>
      </trkpt>
      <trkpt lat="43.44761" lon="6.17375">
        <ele>235.60000610352</ele>
        <time>2017-03-22T14:00:01Z</time>
      </trkpt>
      <trkpt lat="43.44771" lon="6.17377">
        <ele>235</ele>
        <time>2017-03-22T14:00:03Z</time>
      </trkpt>
      <trkpt lat="43.44788" lon="6.17373">
        <ele>233.39999389648</ele>
        <time>2017-03-22T14:00:06Z</time>
      </trkpt>
      <trkpt lat="43.44796" lon="6.17373">
        <ele>232</ele>
        <time>2017-03-22T14:00:08Z</time>
      </trkpt>
      <trkpt lat="43.44799" lon="6.17374">
        <ele>231.60000610352</ele>
        <time>2017-03-22T14:00:09Z</time>
      </trkpt>
      <trkpt lat="43.44804" lon="6.17379">
        <ele>230.80000305176</ele>
        <time>2017-03-22T14:00:11Z</time>
      </trkpt>
      <trkpt lat="43.44805" lon="6.17382">
        <ele>230.60000610352</ele>
        <time>2017-03-22T14:00:12Z</time>
      </trkpt>
      <trkpt lat="43.44806" lon="6.17389">
        <ele>230.80000305176</ele>
        <time>2017-03-22T14:00:14Z</time>
      </trkpt>
      <trkpt lat="43.44806" lon="6.17399">
        <ele>231.19999694824</ele>
        <time>2017-03-22T14:00:16Z</time>
      </trkpt>
      <trkpt lat="43.44807" lon="6.17409">
        <ele>231.60000610352</ele>
        <time>2017-03-22T14:00:19Z</time>
      </trkpt>
      <trkpt lat="43.4481" lon="6.1741">
        <ele>231.80000305176</ele>
        <time>2017-03-22T14:00:21Z</time>
      </trkpt>
      <trkpt lat="43.44817" lon="6.17404">
        <ele>231.80000305176</ele>
        <time>2017-03-22T14:00:24Z</time>
      </trkpt>
      <trkpt lat="43.4482" lon="6.17403">
        <ele>231.80000305176</ele>
        <time>2017-03-22T14:00:25Z</time>
      </trkpt>
      <trkpt lat="43.44824" lon="6.17404">
        <ele>231.60000610352</ele>
        <time>2017-03-22T14:00:26Z</time>
      </trkpt>
      <trkpt lat="43.44827" lon="6.17406">
        <ele>230.80000305176</ele>
        <time>2017-03-22T14:00:27Z</time>
      </trkpt>
      <trkpt lat="43.44831" lon="6.1741">
        <ele>229</ele>
        <time>2017-03-22T14:00:29Z</time>
      </trkpt>
      <trkpt lat="43.44832" lon="6.17413">
        <ele>227.60000610352</ele>
        <time>2017-03-22T14:00:31Z</time>
      </trkpt>
      <trkpt lat="43.44832" lon="6.17413">
        <ele>226.80000305176</ele>
        <time>2017-03-22T14:00:46Z</time>
      </trkpt>
      <trkpt lat="43.44832" lon="6.17413">
        <ele>227</ele>
        <time>2017-03-22T14:00:51Z</time>
      </trkpt>
      <trkpt lat="43.44832" lon="6.17414">
        <ele>227</ele>
        <time>2017-03-22T14:00:52Z</time>
      </trkpt>
      <trkpt lat="43.44834" lon="6.17422">
        <ele>226.80000305176</ele>
        <time>2017-03-22T14:00:55Z</time>
      </trkpt>
      <trkpt lat="43.44835" lon="6.17426">
        <ele>226.80000305176</ele>
        <time>2017-03-22T14:00:56Z</time>
      </trkpt>
      <trkpt lat="43.44837" lon="6.17435">
        <ele>226.39999389648</ele>
        <time>2017-03-22T14:00:58Z</time>
      </trkpt>
      <trkpt lat="43.44841" lon="6.17444">
        <ele>226.19999694824</ele>
        <time>2017-03-22T14:01:00Z</time>
      </trkpt>
      <trkpt lat="43.44847" lon="6.17451">
        <ele>225.80000305176</ele>
        <time>2017-03-22T14:01:02Z</time>
      </trkpt>
      <trkpt lat="43.44855" lon="6.17457">
        <ele>225</ele>
        <time>2017-03-22T14:01:04Z</time>
      </trkpt>
      <trkpt lat="43.44862" lon="6.17465">
        <ele>224.19999694824</ele>
        <time>2017-03-22T14:01:06Z</time>
      </trkpt>
      <trkpt lat="43.44867" lon="6.17468">
        <ele>224</ele>
        <time>2017-03-22T14:01:08Z</time>
      </trkpt>
      <trkpt lat="43.44879" lon="6.17445">
        <ele>222.80000305176</ele>
        <time>2017-03-22T14:01:14Z</time>
      </trkpt>
      <trkpt lat="43.44882" lon="6.1744">
        <ele>222.39999389648</ele>
        <time>2017-03-22T14:01:15Z</time>
      </trkpt>
      <trkpt lat="43.44886" lon="6.17435">
        <ele>221.80000305176</ele>
        <time>2017-03-22T14:01:16Z</time>
      </trkpt>
      <trkpt lat="43.44891" lon="6.17432">
        <ele>221.19999694824</ele>
        <time>2017-03-22T14:01:17Z</time>
      </trkpt>
      <trkpt lat="43.44896" lon="6.17429">
        <ele>220.60000610352</ele>
        <time>2017-03-22T14:01:18Z</time>
      </trkpt>
      <trkpt lat="43.44901" lon="6.17425">
        <ele>220.39999389648</ele>
        <time>2017-03-22T14:01:19Z</time>
      </trkpt>
      <trkpt lat="43.4491" lon="6.17416">
        <ele>219.80000305176</ele>
        <time>2017-03-22T14:01:21Z</time>
      </trkpt>
      <trkpt lat="43.44921" lon="6.17415">
        <ele>219.39999389648</ele>
        <time>2017-03-22T14:01:23Z</time>
      </trkpt>
      <trkpt lat="43.44935" lon="6.17426">
        <ele>219.60000610352</ele>
        <time>2017-03-22T14:01:26Z</time>
      </trkpt>
      <trkpt lat="43.44962" lon="6.17437">
        <ele>218.60000610352</ele>
        <time>2017-03-22T14:01:31Z</time>
      </trkpt>
      <trkpt lat="43.44973" lon="6.17443">
        <ele>217.60000610352</ele>
        <time>2017-03-22T14:01:33Z</time>
      </trkpt>
      <trkpt lat="43.44978" lon="6.17446">
        <ele>217.39999389648</ele>
        <time>2017-03-22T14:01:34Z</time>
      </trkpt>
      <trkpt lat="43.44988" lon="6.17453">
        <ele>217.60000610352</ele>
        <time>2017-03-22T14:01:36Z</time>
      </trkpt>
      <trkpt lat="43.44992" lon="6.17455">
        <ele>218</ele>
        <time>2017-03-22T14:01:37Z</time>
      </trkpt>
      <trkpt lat="43.45" lon="6.17458">
        <ele>218.60000610352</ele>
        <time>2017-03-22T14:01:39Z</time>
      </trkpt>
      <trkpt lat="43.45015" lon="6.17461">
        <ele>219.19999694824</ele>
        <time>2017-03-22T14:01:42Z</time>
      </trkpt>
      <trkpt lat="43.45034" lon="6.17459">
        <ele>217.60000610352</ele>
        <time>2017-03-22T14:01:45Z</time>
      </trkpt>
      <trkpt lat="43.45041" lon="6.1746">
        <ele>217.19999694824</ele>
        <time>2017-03-22T14:01:46Z</time>
      </trkpt>
      <trkpt lat="43.45049" lon="6.17463">
        <ele>216.80000305176</ele>
        <time>2017-03-22T14:01:47Z</time>
      </trkpt>
      <trkpt lat="43.4506" lon="6.17472">
        <ele>216.19999694824</ele>
        <time>2017-03-22T14:01:49Z</time>
      </trkpt>
      <trkpt lat="43.45082" lon="6.17492">
        <ele>213.39999389648</ele>
        <time>2017-03-22T14:01:53Z</time>
      </trkpt>
      <trkpt lat="43.45089" lon="6.17505">
        <ele>213</ele>
        <time>2017-03-22T14:01:55Z</time>
      </trkpt>
      <trkpt lat="43.45091" lon="6.17513">
        <ele>212.80000305176</ele>
        <time>2017-03-22T14:01:56Z</time>
      </trkpt>
      <trkpt lat="43.45095" lon="6.17526">
        <ele>212.60000610352</ele>
        <time>2017-03-22T14:01:58Z</time>
      </trkpt>
      <trkpt lat="43.45098" lon="6.17533">
        <ele>212.39999389648</ele>
        <time>2017-03-22T14:01:59Z</time>
      </trkpt>
      <trkpt lat="43.4511" lon="6.17563">
        <ele>211.39999389648</ele>
        <time>2017-03-22T14:02:03Z</time>
      </trkpt>
      <trkpt lat="43.45119" lon="6.17582">
        <ele>209.39999389648</ele>
        <time>2017-03-22T14:02:05Z</time>
      </trkpt>
      <trkpt lat="43.45124" lon="6.17592">
        <ele>208.39999389648</ele>
        <time>2017-03-22T14:02:06Z</time>
      </trkpt>
      <trkpt lat="43.45129" lon="6.17601">
        <ele>208</ele>
        <time>2017-03-22T14:02:07Z</time>
      </trkpt>
      <trkpt lat="43.45145" lon="6.17626">
        <ele>207.39999389648</ele>
        <time>2017-03-22T14:02:10Z</time>
      </trkpt>
      <trkpt lat="43.45161" lon="6.17648">
        <ele>206.60000610352</ele>
        <time>2017-03-22T14:02:13Z</time>
      </trkpt>
      <trkpt lat="43.45168" lon="6.17663">
        <ele>206</ele>
        <time>2017-03-22T14:02:15Z</time>
      </trkpt>
      <trkpt lat="43.45169" lon="6.17671">
        <ele>205.60000610352</ele>
        <time>2017-03-22T14:02:16Z</time>
      </trkpt>
      <trkpt lat="43.45171" lon="6.17684">
        <ele>205</ele>
        <time>2017-03-22T14:02:18Z</time>
      </trkpt>
      <trkpt lat="43.45175" lon="6.17692">
        <ele>204.19999694824</ele>
        <time>2017-03-22T14:02:20Z</time>
      </trkpt>
      <trkpt lat="43.45179" lon="6.17699">
        <ele>204</ele>
        <time>2017-03-22T14:02:23Z</time>
      </trkpt>
      <trkpt lat="43.45178" lon="6.17706">
        <ele>204.19999694824</ele>
        <time>2017-03-22T14:02:26Z</time>
      </trkpt>
      <trkpt lat="43.4516" lon="6.17732">
        <ele>204.60000610352</ele>
        <time>2017-03-22T14:02:36Z</time>
      </trkpt>
      <trkpt lat="43.45147" lon="6.17758">
        <ele>205.39999389648</ele>
        <time>2017-03-22T14:02:43Z</time>
      </trkpt>
      <trkpt lat="43.45142" lon="6.17769">
        <ele>205.60000610352</ele>
        <time>2017-03-22T14:02:46Z</time>
      </trkpt>
      <trkpt lat="43.45134" lon="6.17794">
        <ele>206.39999389648</ele>
        <time>2017-03-22T14:02:53Z</time>
      </trkpt>
      <trkpt lat="43.4513" lon="6.17805">
        <ele>206.60000610352</ele>
        <time>2017-03-22T14:02:56Z</time>
      </trkpt>
      <trkpt lat="43.45124" lon="6.17818">
        <ele>207.19999694824</ele>
        <time>2017-03-22T14:03:00Z</time>
      </trkpt>
      <trkpt lat="43.45122" lon="6.17824">
        <ele>207.39999389648</ele>
        <time>2017-03-22T14:03:02Z</time>
      </trkpt>
      <trkpt lat="43.45118" lon="6.17835">
        <ele>208.60000610352</ele>
        <time>2017-03-22T14:03:06Z</time>
      </trkpt>
      <trkpt lat="43.45113" lon="6.1785">
        <ele>209.60000610352</ele>
        <time>2017-03-22T14:03:11Z</time>
      </trkpt>
      <trkpt lat="43.45112" lon="6.17854">
        <ele>209.80000305176</ele>
        <time>2017-03-22T14:03:12Z</time>
      </trkpt>
      <trkpt lat="43.45111" lon="6.17869">
        <ele>210</ele>
        <time>2017-03-22T14:03:16Z</time>
      </trkpt>
      <trkpt lat="43.45108" lon="6.17907">
        <ele>210.39999389648</ele>
        <time>2017-03-22T14:03:26Z</time>
      </trkpt>
      <trkpt lat="43.45108" lon="6.1793">
        <ele>210.80000305176</ele>
        <time>2017-03-22T14:03:32Z</time>
      </trkpt>
      <trkpt lat="43.45108" lon="6.17943">
        <ele>211.19999694824</ele>
        <time>2017-03-22T14:03:36Z</time>
      </trkpt>
      <trkpt lat="43.45113" lon="6.17955">
        <ele>211.80000305176</ele>
        <time>2017-03-22T14:03:41Z</time>
      </trkpt>
      <trkpt lat="43.4512" lon="6.17965">
        <ele>212.60000610352</ele>
        <time>2017-03-22T14:03:46Z</time>
      </trkpt>
      <trkpt lat="43.45123" lon="6.17969">
        <ele>212.80000305176</ele>
        <time>2017-03-22T14:03:48Z</time>
      </trkpt>
      <trkpt lat="43.45126" lon="6.17974">
        <ele>212.80000305176</ele>
        <time>2017-03-22T14:03:51Z</time>
      </trkpt>
      <trkpt lat="43.45131" lon="6.17979">
        <ele>213.19999694824</ele>
        <time>2017-03-22T14:03:55Z</time>
      </trkpt>
      <trkpt lat="43.45132" lon="6.1798">
        <ele>213.39999389648</ele>
        <time>2017-03-22T14:03:56Z</time>
      </trkpt>
      <trkpt lat="43.45135" lon="6.17984">
        <ele>213.80000305176</ele>
        <time>2017-03-22T14:03:59Z</time>
      </trkpt>
      <trkpt lat="43.45141" lon="6.1799">
        <ele>215</ele>
        <time>2017-03-22T14:04:04Z</time>
      </trkpt>
      <trkpt lat="43.45143" lon="6.17993">
        <ele>215.60000610352</ele>
        <time>2017-03-22T14:04:06Z</time>
      </trkpt>
      <trkpt lat="43.45145" lon="6.17994">
        <ele>216</ele>
        <time>2017-03-22T14:04:07Z</time>
      </trkpt>
      <trkpt lat="43.45148" lon="6.17997">
        <ele>216.80000305176</ele>
        <time>2017-03-22T14:04:11Z</time>
      </trkpt>
      <trkpt lat="43.45153" lon="6.18004">
        <ele>217.39999389648</ele>
        <time>2017-03-22T14:04:16Z</time>
      </trkpt>
      <trkpt lat="43.45161" lon="6.18007">
        <ele>218.39999389648</ele>
        <time>2017-03-22T14:04:23Z</time>
      </trkpt>
      <trkpt lat="43.45164" lon="6.18007">
        <ele>219.39999389648</ele>
        <time>2017-03-22T14:04:26Z</time>
      </trkpt>
      <trkpt lat="43.45166" lon="6.18007">
        <ele>219.60000610352</ele>
        <time>2017-03-22T14:04:27Z</time>
      </trkpt>
      <trkpt lat="43.45177" lon="6.18008">
        <ele>220.39999389648</ele>
        <time>2017-03-22T14:04:36Z</time>
      </trkpt>
      <trkpt lat="43.4518" lon="6.18008">
        <ele>220.60000610352</ele>
        <time>2017-03-22T14:04:38Z</time>
      </trkpt>
      <trkpt lat="43.45189" lon="6.18009">
        <ele>221.80000305176</ele>
        <time>2017-03-22T14:04:46Z</time>
      </trkpt>
      <trkpt lat="43.45197" lon="6.1801">
        <ele>222.80000305176</ele>
        <time>2017-03-22T14:04:52Z</time>
      </trkpt>
      <trkpt lat="43.45198" lon="6.18012">
        <ele>223.19999694824</ele>
        <time>2017-03-22T14:04:56Z</time>
      </trkpt>
      <trkpt lat="43.45199" lon="6.18014">
        <ele>222.80000305176</ele>
        <time>2017-03-22T14:05:03Z</time>
      </trkpt>
      <trkpt lat="43.45199" lon="6.18014">
        <ele>222.80000305176</ele>
        <time>2017-03-22T14:05:06Z</time>
      </trkpt>
      <trkpt lat="43.45201" lon="6.18015">
        <ele>223</ele>
        <time>2017-03-22T14:05:16Z</time>
      </trkpt>
      <trkpt lat="43.45206" lon="6.18014">
        <ele>223.19999694824</ele>
        <time>2017-03-22T14:05:19Z</time>
      </trkpt>
      <trkpt lat="43.45213" lon="6.18019">
        <ele>224</ele>
        <time>2017-03-22T14:05:25Z</time>
      </trkpt>
      <trkpt lat="43.45225" lon="6.18032">
        <ele>225</ele>
        <time>2017-03-22T14:05:36Z</time>
      </trkpt>
      <trkpt lat="43.45229" lon="6.18039">
        <ele>226.19999694824</ele>
        <time>2017-03-22T14:05:41Z</time>
      </trkpt>
      <trkpt lat="43.4523" lon="6.18047">
        <ele>227</ele>
        <time>2017-03-22T14:05:46Z</time>
      </trkpt>
      <trkpt lat="43.4523" lon="6.18048">
        <ele>227.19999694824</ele>
        <time>2017-03-22T14:05:47Z</time>
      </trkpt>
      <trkpt lat="43.45229" lon="6.18063">
        <ele>228.19999694824</ele>
        <time>2017-03-22T14:05:55Z</time>
      </trkpt>
      <trkpt lat="43.45226" lon="6.18069">
        <ele>229.39999389648</ele>
        <time>2017-03-22T14:05:59Z</time>
      </trkpt>
      <trkpt lat="43.45222" lon="6.18078">
        <ele>230.39999389648</ele>
        <time>2017-03-22T14:06:05Z</time>
      </trkpt>
      <trkpt lat="43.45221" lon="6.18086">
        <ele>231.39999389648</ele>
        <time>2017-03-22T14:06:10Z</time>
      </trkpt>
      <trkpt lat="43.4522" lon="6.18107">
        <ele>233.80000305176</ele>
        <time>2017-03-22T14:06:22Z</time>
      </trkpt>
      <trkpt lat="43.45219" lon="6.18113">
        <ele>234.19999694824</ele>
        <time>2017-03-22T14:06:26Z</time>
      </trkpt>
      <trkpt lat="43.45218" lon="6.18119">
        <ele>234.80000305176</ele>
        <time>2017-03-22T14:06:30Z</time>
      </trkpt>
      <trkpt lat="43.45217" lon="6.18126">
        <ele>236</ele>
        <time>2017-03-22T14:06:35Z</time>
      </trkpt>
      <trkpt lat="43.45219" lon="6.18136">
        <ele>237</ele>
        <time>2017-03-22T14:06:41Z</time>
      </trkpt>
      <trkpt lat="43.45219" lon="6.18145">
        <ele>237.60000610352</ele>
        <time>2017-03-22T14:06:46Z</time>
      </trkpt>
      <trkpt lat="43.45221" lon="6.1815">
        <ele>238.19999694824</ele>
        <time>2017-03-22T14:06:49Z</time>
      </trkpt>
      <trkpt lat="43.4523" lon="6.18176">
        <ele>239</ele>
        <time>2017-03-22T14:07:03Z</time>
      </trkpt>
      <trkpt lat="43.45231" lon="6.18184">
        <ele>238.80000305176</ele>
        <time>2017-03-22T14:07:06Z</time>
      </trkpt>
      <trkpt lat="43.4523" lon="6.18195">
        <ele>238.60000610352</ele>
        <time>2017-03-22T14:07:10Z</time>
      </trkpt>
      <trkpt lat="43.45231" lon="6.18198">
        <ele>238.19999694824</ele>
        <time>2017-03-22T14:07:13Z</time>
      </trkpt>
      <trkpt lat="43.45231" lon="6.18199">
        <ele>238.19999694824</ele>
        <time>2017-03-22T14:07:16Z</time>
      </trkpt>
      <trkpt lat="43.4523" lon="6.18199">
        <ele>238.60000610352</ele>
        <time>2017-03-22T14:07:19Z</time>
      </trkpt>
      <trkpt lat="43.4523" lon="6.18199">
        <ele>239</ele>
        <time>2017-03-22T14:07:24Z</time>
      </trkpt>
      <trkpt lat="43.4523" lon="6.18199">
        <ele>239</ele>
        <time>2017-03-22T14:07:26Z</time>
      </trkpt>
      <trkpt lat="43.4523" lon="6.18199">
        <ele>238.60000610352</ele>
        <time>2017-03-22T14:07:36Z</time>
      </trkpt>
      <trkpt lat="43.4523" lon="6.18199">
        <ele>237.80000305176</ele>
        <time>2017-03-22T14:07:40Z</time>
      </trkpt>
      <trkpt lat="43.4523" lon="6.18199">
        <ele>237.80000305176</ele>
        <time>2017-03-22T14:07:46Z</time>
      </trkpt>
      <trkpt lat="43.4523" lon="6.18199">
        <ele>237.60000610352</ele>
        <time>2017-03-22T14:08:26Z</time>
      </trkpt>
      <trkpt lat="43.4523" lon="6.18201">
        <ele>237.60000610352</ele>
        <time>2017-03-22T14:08:36Z</time>
      </trkpt>
      <trkpt lat="43.45231" lon="6.18205">
        <ele>237.39999389648</ele>
        <time>2017-03-22T14:08:38Z</time>
      </trkpt>
      <trkpt lat="43.45233" lon="6.18212">
        <ele>237.39999389648</ele>
        <time>2017-03-22T14:08:40Z</time>
      </trkpt>
      <trkpt lat="43.45236" lon="6.1822">
        <ele>237</ele>
        <time>2017-03-22T14:08:42Z</time>
      </trkpt>
      <trkpt lat="43.45243" lon="6.18239">
        <ele>235.80000305176</ele>
        <time>2017-03-22T14:08:46Z</time>
      </trkpt>
      <trkpt lat="43.45245" lon="6.18244">
        <ele>235.60000610352</ele>
        <time>2017-03-22T14:08:47Z</time>
      </trkpt>
      <trkpt lat="43.45253" lon="6.18259">
        <ele>234.60000610352</ele>
        <time>2017-03-22T14:08:50Z</time>
      </trkpt>
      <trkpt lat="43.45259" lon="6.18267">
        <ele>234</ele>
        <time>2017-03-22T14:08:52Z</time>
      </trkpt>
      <trkpt lat="43.45266" lon="6.18273">
        <ele>233.39999389648</ele>
        <time>2017-03-22T14:08:54Z</time>
      </trkpt>
      <trkpt lat="43.45267" lon="6.18277">
        <ele>232.80000305176</ele>
        <time>2017-03-22T14:08:56Z</time>
      </trkpt>
      <trkpt lat="43.45269" lon="6.18279">
        <ele>232.19999694824</ele>
        <time>2017-03-22T14:08:58Z</time>
      </trkpt>
      <trkpt lat="43.45269" lon="6.1828">
        <ele>231.80000305176</ele>
        <time>2017-03-22T14:09:01Z</time>
      </trkpt>
      <trkpt lat="43.45269" lon="6.1828">
        <ele>231.60000610352</ele>
        <time>2017-03-22T14:09:16Z</time>
      </trkpt>
      <trkpt lat="43.45269" lon="6.1828">
        <ele>231.60000610352</ele>
        <time>2017-03-22T14:09:24Z</time>
      </trkpt>
      <trkpt lat="43.45272" lon="6.18283">
        <ele>231.60000610352</ele>
        <time>2017-03-22T14:09:26Z</time>
      </trkpt>
      <trkpt lat="43.45274" lon="6.18285">
        <ele>231.60000610352</ele>
        <time>2017-03-22T14:09:27Z</time>
      </trkpt>
      <trkpt lat="43.45279" lon="6.18293">
        <ele>231.19999694824</ele>
        <time>2017-03-22T14:09:30Z</time>
      </trkpt>
      <trkpt lat="43.45281" lon="6.18293">
        <ele>230.80000305176</ele>
        <time>2017-03-22T14:09:31Z</time>
      </trkpt>
      <trkpt lat="43.45286" lon="6.18294">
        <ele>230</ele>
        <time>2017-03-22T14:09:34Z</time>
      </trkpt>
      <trkpt lat="43.45292" lon="6.18298">
        <ele>230</ele>
        <time>2017-03-22T14:09:36Z</time>
      </trkpt>
      <trkpt lat="43.45295" lon="6.18307">
        <ele>229.60000610352</ele>
        <time>2017-03-22T14:09:39Z</time>
      </trkpt>
      <trkpt lat="43.45294" lon="6.18314">
        <ele>229.60000610352</ele>
        <time>2017-03-22T14:09:42Z</time>
      </trkpt>
      <trkpt lat="43.45291" lon="6.18319">
        <ele>229.80000305176</ele>
        <time>2017-03-22T14:09:46Z</time>
      </trkpt>
      <trkpt lat="43.45287" lon="6.18329">
        <ele>230.39999389648</ele>
        <time>2017-03-22T14:09:51Z</time>
      </trkpt>
      <trkpt lat="43.45284" lon="6.18344">
        <ele>231</ele>
        <time>2017-03-22T14:09:56Z</time>
      </trkpt>
      <trkpt lat="43.45283" lon="6.18349">
        <ele>231.39999389648</ele>
        <time>2017-03-22T14:09:58Z</time>
      </trkpt>
      <trkpt lat="43.45281" lon="6.18355">
        <ele>231.80000305176</ele>
        <time>2017-03-22T14:10:00Z</time>
      </trkpt>
      <trkpt lat="43.4528" lon="6.18363">
        <ele>232.19999694824</ele>
        <time>2017-03-22T14:10:03Z</time>
      </trkpt>
      <trkpt lat="43.45278" lon="6.18378">
        <ele>233</ele>
        <time>2017-03-22T14:10:08Z</time>
      </trkpt>
      <trkpt lat="43.45273" lon="6.18388">
        <ele>233.39999389648</ele>
        <time>2017-03-22T14:10:12Z</time>
      </trkpt>
      <trkpt lat="43.45269" lon="6.18399">
        <ele>233.60000610352</ele>
        <time>2017-03-22T14:10:16Z</time>
      </trkpt>
      <trkpt lat="43.45268" lon="6.18412">
        <ele>234.60000610352</ele>
        <time>2017-03-22T14:10:20Z</time>
      </trkpt>
      <trkpt lat="43.45268" lon="6.18414">
        <ele>234.80000305176</ele>
        <time>2017-03-22T14:10:21Z</time>
      </trkpt>
      <trkpt lat="43.45267" lon="6.18422">
        <ele>235.60000610352</ele>
        <time>2017-03-22T14:10:24Z</time>
      </trkpt>
      <trkpt lat="43.45263" lon="6.18448">
        <ele>236.80000305176</ele>
        <time>2017-03-22T14:10:34Z</time>
      </trkpt>
      <trkpt lat="43.45262" lon="6.18453">
        <ele>236.80000305176</ele>
        <time>2017-03-22T14:10:36Z</time>
      </trkpt>
      <trkpt lat="43.45261" lon="6.18465">
        <ele>237.80000305176</ele>
        <time>2017-03-22T14:10:41Z</time>
      </trkpt>
      <trkpt lat="43.45261" lon="6.18478">
        <ele>238.39999389648</ele>
        <time>2017-03-22T14:10:46Z</time>
      </trkpt>
      <trkpt lat="43.4526" lon="6.18487">
        <ele>238.80000305176</ele>
        <time>2017-03-22T14:10:50Z</time>
      </trkpt>
      <trkpt lat="43.45259" lon="6.18502">
        <ele>239</ele>
        <time>2017-03-22T14:10:56Z</time>
      </trkpt>
      <trkpt lat="43.45261" lon="6.18514">
        <ele>240.19999694824</ele>
        <time>2017-03-22T14:11:02Z</time>
      </trkpt>
      <trkpt lat="43.4526" lon="6.18523">
        <ele>241</ele>
        <time>2017-03-22T14:11:06Z</time>
      </trkpt>
      <trkpt lat="43.45258" lon="6.18545">
        <ele>241.80000305176</ele>
        <time>2017-03-22T14:11:14Z</time>
      </trkpt>
      <trkpt lat="43.45259" lon="6.1855">
        <ele>241.80000305176</ele>
        <time>2017-03-22T14:11:16Z</time>
      </trkpt>
      <trkpt lat="43.45262" lon="6.18557">
        <ele>242.19999694824</ele>
        <time>2017-03-22T14:11:19Z</time>
      </trkpt>
      <trkpt lat="43.45264" lon="6.18564">
        <ele>243.39999389648</ele>
        <time>2017-03-22T14:11:23Z</time>
      </trkpt>
      <trkpt lat="43.45265" lon="6.18571">
        <ele>243.80000305176</ele>
        <time>2017-03-22T14:11:26Z</time>
      </trkpt>
      <trkpt lat="43.45264" lon="6.1858">
        <ele>244.19999694824</ele>
        <time>2017-03-22T14:11:29Z</time>
      </trkpt>
      <trkpt lat="43.45264" lon="6.18582">
        <ele>244.39999389648</ele>
        <time>2017-03-22T14:11:30Z</time>
      </trkpt>
      <trkpt lat="43.45267" lon="6.18594">
        <ele>245.39999389648</ele>
        <time>2017-03-22T14:11:36Z</time>
      </trkpt>
      <trkpt lat="43.45269" lon="6.18612">
        <ele>246.39999389648</ele>
        <time>2017-03-22T14:11:44Z</time>
      </trkpt>
      <trkpt lat="43.45269" lon="6.18616">
        <ele>246.80000305176</ele>
        <time>2017-03-22T14:11:46Z</time>
      </trkpt>
      <trkpt lat="43.45271" lon="6.18626">
        <ele>247.60000610352</ele>
        <time>2017-03-22T14:11:51Z</time>
      </trkpt>
      <trkpt lat="43.45274" lon="6.18638">
        <ele>248.60000610352</ele>
        <time>2017-03-22T14:11:58Z</time>
      </trkpt>
      <trkpt lat="43.45276" lon="6.18651">
        <ele>249</ele>
        <time>2017-03-22T14:12:04Z</time>
      </trkpt>
      <trkpt lat="43.45276" lon="6.18655">
        <ele>249.19999694824</ele>
        <time>2017-03-22T14:12:06Z</time>
      </trkpt>
      <trkpt lat="43.45277" lon="6.18658">
        <ele>249.60000610352</ele>
        <time>2017-03-22T14:12:08Z</time>
      </trkpt>
      <trkpt lat="43.45279" lon="6.18663">
        <ele>250.60000610352</ele>
        <time>2017-03-22T14:12:15Z</time>
      </trkpt>
      <trkpt lat="43.45279" lon="6.18663">
        <ele>250.60000610352</ele>
        <time>2017-03-22T14:12:19Z</time>
      </trkpt>
      <trkpt lat="43.4528" lon="6.18663">
        <ele>250.80000305176</ele>
        <time>2017-03-22T14:12:26Z</time>
      </trkpt>
      <trkpt lat="43.4528" lon="6.18668">
        <ele>250.60000610352</ele>
        <time>2017-03-22T14:12:36Z</time>
      </trkpt>
      <trkpt lat="43.45281" lon="6.18673">
        <ele>250.60000610352</ele>
        <time>2017-03-22T14:12:40Z</time>
      </trkpt>
      <trkpt lat="43.45282" lon="6.18679">
        <ele>251</ele>
        <time>2017-03-22T14:12:43Z</time>
      </trkpt>
      <trkpt lat="43.45283" lon="6.18685">
        <ele>251</ele>
        <time>2017-03-22T14:12:46Z</time>
      </trkpt>
      <trkpt lat="43.45284" lon="6.18692">
        <ele>251.60000610352</ele>
        <time>2017-03-22T14:12:49Z</time>
      </trkpt>
      <trkpt lat="43.45287" lon="6.18704">
        <ele>252.80000305176</ele>
        <time>2017-03-22T14:12:56Z</time>
      </trkpt>
      <trkpt lat="43.45287" lon="6.18719">
        <ele>253.80000305176</ele>
        <time>2017-03-22T14:13:03Z</time>
      </trkpt>
      <trkpt lat="43.45287" lon="6.18725">
        <ele>254</ele>
        <time>2017-03-22T14:13:06Z</time>
      </trkpt>
      <trkpt lat="43.45287" lon="6.18729">
        <ele>254</ele>
        <time>2017-03-22T14:13:08Z</time>
      </trkpt>
      <trkpt lat="43.45281" lon="6.18749">
        <ele>254.60000610352</ele>
        <time>2017-03-22T14:13:16Z</time>
      </trkpt>
      <trkpt lat="43.45282" lon="6.18764">
        <ele>254.80000305176</ele>
        <time>2017-03-22T14:13:21Z</time>
      </trkpt>
      <trkpt lat="43.45284" lon="6.18781">
        <ele>254.60000610352</ele>
        <time>2017-03-22T14:13:25Z</time>
      </trkpt>
      <trkpt lat="43.45285" lon="6.18787">
        <ele>254.60000610352</ele>
        <time>2017-03-22T14:13:26Z</time>
      </trkpt>
      <trkpt lat="43.45289" lon="6.1881">
        <ele>253.39999389648</ele>
        <time>2017-03-22T14:13:29Z</time>
      </trkpt>
      <trkpt lat="43.45296" lon="6.18826">
        <ele>252</ele>
        <time>2017-03-22T14:13:31Z</time>
      </trkpt>
      <trkpt lat="43.45302" lon="6.18841">
        <ele>250.19999694824</ele>
        <time>2017-03-22T14:13:33Z</time>
      </trkpt>
      <trkpt lat="43.45306" lon="6.18859">
        <ele>249.19999694824</ele>
        <time>2017-03-22T14:13:36Z</time>
      </trkpt>
      <trkpt lat="43.45305" lon="6.18867">
        <ele>248.80000305176</ele>
        <time>2017-03-22T14:13:38Z</time>
      </trkpt>
      <trkpt lat="43.45301" lon="6.18877">
        <ele>249.60000610352</ele>
        <time>2017-03-22T14:13:46Z</time>
      </trkpt>
      <trkpt lat="43.45301" lon="6.18879">
        <ele>249.80000305176</ele>
        <time>2017-03-22T14:13:47Z</time>
      </trkpt>
      <trkpt lat="43.45302" lon="6.18881">
        <ele>250</ele>
        <time>2017-03-22T14:13:49Z</time>
      </trkpt>
      <trkpt lat="43.45302" lon="6.18888">
        <ele>250</ele>
        <time>2017-03-22T14:13:52Z</time>
      </trkpt>
      <trkpt lat="43.45303" lon="6.18895">
        <ele>250.19999694824</ele>
        <time>2017-03-22T14:13:55Z</time>
      </trkpt>
      <trkpt lat="43.45303" lon="6.18898">
        <ele>250.19999694824</ele>
        <time>2017-03-22T14:13:56Z</time>
      </trkpt>
      <trkpt lat="43.45311" lon="6.18934">
        <ele>249.19999694824</ele>
        <time>2017-03-22T14:14:05Z</time>
      </trkpt>
      <trkpt lat="43.45313" lon="6.18939">
        <ele>249.19999694824</ele>
        <time>2017-03-22T14:14:06Z</time>
      </trkpt>
      <trkpt lat="43.45314" lon="6.18945">
        <ele>249</ele>
        <time>2017-03-22T14:14:07Z</time>
      </trkpt>
      <trkpt lat="43.45317" lon="6.18967">
        <ele>248</ele>
        <time>2017-03-22T14:14:11Z</time>
      </trkpt>
      <trkpt lat="43.45323" lon="6.18992">
        <ele>247.19999694824</ele>
        <time>2017-03-22T14:14:16Z</time>
      </trkpt>
      <trkpt lat="43.45324" lon="6.18998">
        <ele>246.60000610352</ele>
        <time>2017-03-22T14:14:17Z</time>
      </trkpt>
      <trkpt lat="43.45326" lon="6.19009">
        <ele>245.80000305176</ele>
        <time>2017-03-22T14:14:19Z</time>
      </trkpt>
      <trkpt lat="43.45327" lon="6.19015">
        <ele>245.19999694824</ele>
        <time>2017-03-22T14:14:20Z</time>
      </trkpt>
      <trkpt lat="43.45335" lon="6.19042">
        <ele>244</ele>
        <time>2017-03-22T14:14:25Z</time>
      </trkpt>
      <trkpt lat="43.45337" lon="6.19048">
        <ele>243.80000305176</ele>
        <time>2017-03-22T14:14:26Z</time>
      </trkpt>
      <trkpt lat="43.45338" lon="6.19058">
        <ele>243</ele>
        <time>2017-03-22T14:14:28Z</time>
      </trkpt>
      <trkpt lat="43.4534" lon="6.19061">
        <ele>242.39999389648</ele>
        <time>2017-03-22T14:14:29Z</time>
      </trkpt>
      <trkpt lat="43.45343" lon="6.19063">
        <ele>241.60000610352</ele>
        <time>2017-03-22T14:14:30Z</time>
      </trkpt>
      <trkpt lat="43.4535" lon="6.19068">
        <ele>240</ele>
        <time>2017-03-22T14:14:32Z</time>
      </trkpt>
      <trkpt lat="43.45362" lon="6.19082">
        <ele>237.19999694824</ele>
        <time>2017-03-22T14:14:36Z</time>
      </trkpt>
      <trkpt lat="43.45366" lon="6.19087">
        <ele>236.39999389648</ele>
        <time>2017-03-22T14:14:37Z</time>
      </trkpt>
      <trkpt lat="43.45369" lon="6.19092">
        <ele>235.60000610352</ele>
        <time>2017-03-22T14:14:38Z</time>
      </trkpt>
      <trkpt lat="43.4538" lon="6.19106">
        <ele>234.19999694824</ele>
        <time>2017-03-22T14:14:41Z</time>
      </trkpt>
      <trkpt lat="43.45387" lon="6.19115">
        <ele>232.80000305176</ele>
        <time>2017-03-22T14:14:43Z</time>
      </trkpt>
      <trkpt lat="43.45395" lon="6.19123">
        <ele>231</ele>
        <time>2017-03-22T14:14:46Z</time>
      </trkpt>
      <trkpt lat="43.45397" lon="6.19126">
        <ele>230.60000610352</ele>
        <time>2017-03-22T14:14:47Z</time>
      </trkpt>
      <trkpt lat="43.454" lon="6.19133">
        <ele>229.19999694824</ele>
        <time>2017-03-22T14:14:49Z</time>
      </trkpt>
      <trkpt lat="43.45404" lon="6.19142">
        <ele>229</ele>
        <time>2017-03-22T14:14:56Z</time>
      </trkpt>
      <trkpt lat="43.45404" lon="6.19142">
        <ele>229</ele>
        <time>2017-03-22T14:15:16Z</time>
      </trkpt>
      <trkpt lat="43.45404" lon="6.19142">
        <ele>229</ele>
        <time>2017-03-22T14:15:26Z</time>
      </trkpt>
      <trkpt lat="43.45406" lon="6.19143">
        <ele>228.80000305176</ele>
        <time>2017-03-22T14:15:28Z</time>
      </trkpt>
      <trkpt lat="43.45413" lon="6.19141">
        <ele>228.39999389648</ele>
        <time>2017-03-22T14:15:31Z</time>
      </trkpt>
      <trkpt lat="43.45415" lon="6.1914">
        <ele>228.19999694824</ele>
        <time>2017-03-22T14:15:32Z</time>
      </trkpt>
      <trkpt lat="43.45426" lon="6.19137">
        <ele>228.39999389648</ele>
        <time>2017-03-22T14:15:36Z</time>
      </trkpt>
      <trkpt lat="43.45434" lon="6.19135">
        <ele>229.39999389648</ele>
        <time>2017-03-22T14:15:39Z</time>
      </trkpt>
      <trkpt lat="43.4546" lon="6.1913">
        <ele>229.60000610352</ele>
        <time>2017-03-22T14:15:46Z</time>
      </trkpt>
      <trkpt lat="43.4547" lon="6.19133">
        <ele>228.19999694824</ele>
        <time>2017-03-22T14:15:49Z</time>
      </trkpt>
      <trkpt lat="43.45497" lon="6.19127">
        <ele>224.39999389648</ele>
        <time>2017-03-22T14:15:56Z</time>
      </trkpt>
      <trkpt lat="43.45504" lon="6.19125">
        <ele>224</ele>
        <time>2017-03-22T14:15:58Z</time>
      </trkpt>
      <trkpt lat="43.45518" lon="6.19124">
        <ele>222.80000305176</ele>
        <time>2017-03-22T14:16:02Z</time>
      </trkpt>
      <trkpt lat="43.45533" lon="6.19116">
        <ele>220.39999389648</ele>
        <time>2017-03-22T14:16:06Z</time>
      </trkpt>
      <trkpt lat="43.45543" lon="6.19109">
        <ele>219.19999694824</ele>
        <time>2017-03-22T14:16:09Z</time>
      </trkpt>
      <trkpt lat="43.45553" lon="6.19099">
        <ele>218.19999694824</ele>
        <time>2017-03-22T14:16:13Z</time>
      </trkpt>
      <trkpt lat="43.45554" lon="6.19095">
        <ele>218</ele>
        <time>2017-03-22T14:16:14Z</time>
      </trkpt>
      <trkpt lat="43.45554" lon="6.1909">
        <ele>218</ele>
        <time>2017-03-22T14:16:15Z</time>
      </trkpt>
      <trkpt lat="43.45557" lon="6.19086">
        <ele>217.39999389648</ele>
        <time>2017-03-22T14:16:16Z</time>
      </trkpt>
      <trkpt lat="43.45564" lon="6.19082">
        <ele>217</ele>
        <time>2017-03-22T14:16:18Z</time>
      </trkpt>
      <trkpt lat="43.45591" lon="6.19076">
        <ele>216.60000610352</ele>
        <time>2017-03-22T14:16:25Z</time>
      </trkpt>
      <trkpt lat="43.45595" lon="6.19075">
        <ele>216.39999389648</ele>
        <time>2017-03-22T14:16:26Z</time>
      </trkpt>
      <trkpt lat="43.45635" lon="6.19074">
        <ele>217.19999694824</ele>
        <time>2017-03-22T14:16:35Z</time>
      </trkpt>
      <trkpt lat="43.45639" lon="6.19074">
        <ele>217.39999389648</ele>
        <time>2017-03-22T14:16:36Z</time>
      </trkpt>
      <trkpt lat="43.45648" lon="6.19077">
        <ele>218.19999694824</ele>
        <time>2017-03-22T14:16:39Z</time>
      </trkpt>
      <trkpt lat="43.45672" lon="6.19082">
        <ele>218.60000610352</ele>
        <time>2017-03-22T14:16:46Z</time>
      </trkpt>
      <trkpt lat="43.45704" lon="6.19086">
        <ele>217.60000610352</ele>
        <time>2017-03-22T14:16:52Z</time>
      </trkpt>
      <trkpt lat="43.45715" lon="6.19088">
        <ele>216.80000305176</ele>
        <time>2017-03-22T14:16:54Z</time>
      </trkpt>
      <trkpt lat="43.45726" lon="6.19089">
        <ele>216.60000610352</ele>
        <time>2017-03-22T14:16:56Z</time>
      </trkpt>
      <trkpt lat="43.45771" lon="6.1909">
        <ele>216.80000305176</ele>
        <time>2017-03-22T14:17:06Z</time>
      </trkpt>
      <trkpt lat="43.45776" lon="6.1909">
        <ele>218</ele>
        <time>2017-03-22T14:17:08Z</time>
      </trkpt>
      <trkpt lat="43.45782" lon="6.19088">
        <ele>219.19999694824</ele>
        <time>2017-03-22T14:17:11Z</time>
      </trkpt>
      <trkpt lat="43.45788" lon="6.19087">
        <ele>220</ele>
        <time>2017-03-22T14:17:14Z</time>
      </trkpt>
      <trkpt lat="43.45793" lon="6.19087">
        <ele>220.60000610352</ele>
        <time>2017-03-22T14:17:17Z</time>
      </trkpt>
      <trkpt lat="43.45796" lon="6.19087">
        <ele>221</ele>
        <time>2017-03-22T14:17:19Z</time>
      </trkpt>
      <trkpt lat="43.45805" lon="6.19087">
        <ele>222.80000305176</ele>
        <time>2017-03-22T14:17:25Z</time>
      </trkpt>
      <trkpt lat="43.45807" lon="6.19087">
        <ele>223</ele>
        <time>2017-03-22T14:17:26Z</time>
      </trkpt>
      <trkpt lat="43.45811" lon="6.19088">
        <ele>224</ele>
        <time>2017-03-22T14:17:30Z</time>
      </trkpt>
      <trkpt lat="43.45817" lon="6.19088">
        <ele>225</ele>
        <time>2017-03-22T14:17:35Z</time>
      </trkpt>
      <trkpt lat="43.45818" lon="6.19088">
        <ele>225.39999389648</ele>
        <time>2017-03-22T14:17:36Z</time>
      </trkpt>
      <trkpt lat="43.45821" lon="6.19089">
        <ele>226.19999694824</ele>
        <time>2017-03-22T14:17:39Z</time>
      </trkpt>
      <trkpt lat="43.45826" lon="6.1909">
        <ele>227.19999694824</ele>
        <time>2017-03-22T14:17:45Z</time>
      </trkpt>
      <trkpt lat="43.45827" lon="6.19091">
        <ele>227.39999389648</ele>
        <time>2017-03-22T14:17:46Z</time>
      </trkpt>
      <trkpt lat="43.45835" lon="6.19093">
        <ele>228.19999694824</ele>
        <time>2017-03-22T14:17:55Z</time>
      </trkpt>
      <trkpt lat="43.45837" lon="6.19093">
        <ele>228.19999694824</ele>
        <time>2017-03-22T14:17:56Z</time>
      </trkpt>
      <trkpt lat="43.45837" lon="6.19093">
        <ele>228.39999389648</ele>
        <time>2017-03-22T14:17:57Z</time>
      </trkpt>
      <trkpt lat="43.45838" lon="6.19094">
        <ele>228.60000610352</ele>
        <time>2017-03-22T14:18:02Z</time>
      </trkpt>
      <trkpt lat="43.45838" lon="6.19094">
        <ele>229.19999694824</ele>
        <time>2017-03-22T14:18:12Z</time>
      </trkpt>
      <trkpt lat="43.45838" lon="6.19094">
        <ele>229</ele>
        <time>2017-03-22T14:19:06Z</time>
      </trkpt>
      <trkpt lat="43.45838" lon="6.19094">
        <ele>229</ele>
        <time>2017-03-22T14:19:19Z</time>
      </trkpt>
      <trkpt lat="43.45838" lon="6.19095">
        <ele>229</ele>
        <time>2017-03-22T14:19:43Z</time>
      </trkpt>
      <trkpt lat="43.45837" lon="6.19099">
        <ele>228.80000305176</ele>
        <time>2017-03-22T14:19:45Z</time>
      </trkpt>
      <trkpt lat="43.45835" lon="6.19102">
        <ele>228.19999694824</ele>
        <time>2017-03-22T14:19:46Z</time>
      </trkpt>
      <trkpt lat="43.45832" lon="6.19114">
        <ele>228.39999389648</ele>
        <time>2017-03-22T14:19:50Z</time>
      </trkpt>
      <trkpt lat="43.45829" lon="6.19131">
        <ele>228.39999389648</ele>
        <time>2017-03-22T14:19:56Z</time>
      </trkpt>
      <trkpt lat="43.45824" lon="6.19147">
        <ele>229.39999389648</ele>
        <time>2017-03-22T14:20:04Z</time>
      </trkpt>
      <trkpt lat="43.45823" lon="6.19151">
        <ele>229.80000305176</ele>
        <time>2017-03-22T14:20:06Z</time>
      </trkpt>
      <trkpt lat="43.45823" lon="6.19153">
        <ele>230</ele>
        <time>2017-03-22T14:20:07Z</time>
      </trkpt>
      <trkpt lat="43.45822" lon="6.19159">
        <ele>230.19999694824</ele>
        <time>2017-03-22T14:20:10Z</time>
      </trkpt>
      <trkpt lat="43.4582" lon="6.19166">
        <ele>230.39999389648</ele>
        <time>2017-03-22T14:20:13Z</time>
      </trkpt>
      <trkpt lat="43.45817" lon="6.19171">
        <ele>230.39999389648</ele>
        <time>2017-03-22T14:20:16Z</time>
      </trkpt>
      <trkpt lat="43.45816" lon="6.19174">
        <ele>230.60000610352</ele>
        <time>2017-03-22T14:20:17Z</time>
      </trkpt>
      <trkpt lat="43.45809" lon="6.19185">
        <ele>231.19999694824</ele>
        <time>2017-03-22T14:20:23Z</time>
      </trkpt>
      <trkpt lat="43.45806" lon="6.19191">
        <ele>231.60000610352</ele>
        <time>2017-03-22T14:20:26Z</time>
      </trkpt>
      <trkpt lat="43.458" lon="6.19202">
        <ele>232.80000305176</ele>
        <time>2017-03-22T14:20:33Z</time>
      </trkpt>
      <trkpt lat="43.45798" lon="6.19206">
        <ele>233.39999389648</ele>
        <time>2017-03-22T14:20:36Z</time>
      </trkpt>
      <trkpt lat="43.45797" lon="6.19209">
        <ele>234</ele>
        <time>2017-03-22T14:20:38Z</time>
      </trkpt>
      <trkpt lat="43.45791" lon="6.19215">
        <ele>235</ele>
        <time>2017-03-22T14:20:43Z</time>
      </trkpt>
      <trkpt lat="43.45788" lon="6.19218">
        <ele>235.60000610352</ele>
        <time>2017-03-22T14:20:46Z</time>
      </trkpt>
      <trkpt lat="43.45784" lon="6.19223">
        <ele>236.19999694824</ele>
        <time>2017-03-22T14:20:50Z</time>
      </trkpt>
      <trkpt lat="43.45778" lon="6.19228">
        <ele>237.39999389648</ele>
        <time>2017-03-22T14:20:56Z</time>
      </trkpt>
      <trkpt lat="43.45773" lon="6.19233">
        <ele>238.39999389648</ele>
        <time>2017-03-22T14:21:01Z</time>
      </trkpt>
      <trkpt lat="43.4577" lon="6.1924">
        <ele>238.80000305176</ele>
        <time>2017-03-22T14:21:06Z</time>
      </trkpt>
      <trkpt lat="43.45769" lon="6.19243">
        <ele>239</ele>
        <time>2017-03-22T14:21:08Z</time>
      </trkpt>
      <trkpt lat="43.45767" lon="6.19248">
        <ele>239.39999389648</ele>
        <time>2017-03-22T14:21:11Z</time>
      </trkpt>
      <trkpt lat="43.45766" lon="6.19256">
        <ele>239.80000305176</ele>
        <time>2017-03-22T14:21:16Z</time>
      </trkpt>
      <trkpt lat="43.45767" lon="6.19263">
        <ele>240.39999389648</ele>
        <time>2017-03-22T14:21:20Z</time>
      </trkpt>
      <trkpt lat="43.4577" lon="6.19276">
        <ele>241.39999389648</ele>
        <time>2017-03-22T14:21:28Z</time>
      </trkpt>
      <trkpt lat="43.45762" lon="6.19287">
        <ele>242.39999389648</ele>
        <time>2017-03-22T14:21:36Z</time>
      </trkpt>
      <trkpt lat="43.4576" lon="6.19289">
        <ele>242.39999389648</ele>
        <time>2017-03-22T14:21:38Z</time>
      </trkpt>
      <trkpt lat="43.45755" lon="6.19299">
        <ele>243.60000610352</ele>
        <time>2017-03-22T14:21:46Z</time>
      </trkpt>
      <trkpt lat="43.45751" lon="6.19307">
        <ele>244.80000305176</ele>
        <time>2017-03-22T14:21:52Z</time>
      </trkpt>
      <trkpt lat="43.45749" lon="6.19312">
        <ele>245.39999389648</ele>
        <time>2017-03-22T14:21:56Z</time>
      </trkpt>
      <trkpt lat="43.45748" lon="6.19315">
        <ele>245.80000305176</ele>
        <time>2017-03-22T14:21:58Z</time>
      </trkpt>
      <trkpt lat="43.45746" lon="6.19323">
        <ele>247</ele>
        <time>2017-03-22T14:22:03Z</time>
      </trkpt>
      <trkpt lat="43.45745" lon="6.19327">
        <ele>247.60000610352</ele>
        <time>2017-03-22T14:22:06Z</time>
      </trkpt>
      <trkpt lat="43.45744" lon="6.19331">
        <ele>248.19999694824</ele>
        <time>2017-03-22T14:22:09Z</time>
      </trkpt>
      <trkpt lat="43.45742" lon="6.19337">
        <ele>248.80000305176</ele>
        <time>2017-03-22T14:22:14Z</time>
      </trkpt>
      <trkpt lat="43.45741" lon="6.1934">
        <ele>249.39999389648</ele>
        <time>2017-03-22T14:22:16Z</time>
      </trkpt>
      <trkpt lat="43.45741" lon="6.19347">
        <ele>250.39999389648</ele>
        <time>2017-03-22T14:22:21Z</time>
      </trkpt>
      <trkpt lat="43.45743" lon="6.19355">
        <ele>251</ele>
        <time>2017-03-22T14:22:26Z</time>
      </trkpt>
      <trkpt lat="43.45743" lon="6.19358">
        <ele>251.19999694824</ele>
        <time>2017-03-22T14:22:27Z</time>
      </trkpt>
      <trkpt lat="43.45745" lon="6.19363">
        <ele>251</ele>
        <time>2017-03-22T14:22:30Z</time>
      </trkpt>
      <trkpt lat="43.45747" lon="6.19368">
        <ele>250.80000305176</ele>
        <time>2017-03-22T14:22:33Z</time>
      </trkpt>
      <trkpt lat="43.45749" lon="6.19371">
        <ele>250.60000610352</ele>
        <time>2017-03-22T14:22:36Z</time>
      </trkpt>
      <trkpt lat="43.4575" lon="6.19372">
        <ele>250.60000610352</ele>
        <time>2017-03-22T14:22:40Z</time>
      </trkpt>
      <trkpt lat="43.4575" lon="6.19372">
        <ele>250.80000305176</ele>
        <time>2017-03-22T14:22:43Z</time>
      </trkpt>
      <trkpt lat="43.4575" lon="6.19372">
        <ele>250.80000305176</ele>
        <time>2017-03-22T14:22:46Z</time>
      </trkpt>
      <trkpt lat="43.4575" lon="6.19372">
        <ele>250.39999389648</ele>
        <time>2017-03-22T14:23:00Z</time>
      </trkpt>
      <trkpt lat="43.4575" lon="6.19372">
        <ele>250.60000610352</ele>
        <time>2017-03-22T14:23:06Z</time>
      </trkpt>
      <trkpt lat="43.4575" lon="6.19372">
        <ele>250.39999389648</ele>
        <time>2017-03-22T14:23:14Z</time>
      </trkpt>
      <trkpt lat="43.4575" lon="6.19372">
        <ele>250.39999389648</ele>
        <time>2017-03-22T14:23:16Z</time>
      </trkpt>
      <trkpt lat="43.45752" lon="6.19377">
        <ele>250.19999694824</ele>
        <time>2017-03-22T14:23:22Z</time>
      </trkpt>
      <trkpt lat="43.4576" lon="6.19391">
        <ele>249.60000610352</ele>
        <time>2017-03-22T14:23:26Z</time>
      </trkpt>
      <trkpt lat="43.45763" lon="6.19395">
        <ele>249.39999389648</ele>
        <time>2017-03-22T14:23:27Z</time>
      </trkpt>
      <trkpt lat="43.45768" lon="6.19404">
        <ele>248.80000305176</ele>
        <time>2017-03-22T14:23:29Z</time>
      </trkpt>
      <trkpt lat="43.45771" lon="6.19409">
        <ele>248.39999389648</ele>
        <time>2017-03-22T14:23:30Z</time>
      </trkpt>
      <trkpt lat="43.45778" lon="6.1942">
        <ele>247.19999694824</ele>
        <time>2017-03-22T14:23:32Z</time>
      </trkpt>
      <trkpt lat="43.4579" lon="6.19431">
        <ele>245.80000305176</ele>
        <time>2017-03-22T14:23:35Z</time>
      </trkpt>
      <trkpt lat="43.45794" lon="6.19434">
        <ele>245.39999389648</ele>
        <time>2017-03-22T14:23:36Z</time>
      </trkpt>
      <trkpt lat="43.45798" lon="6.19439">
        <ele>244.60000610352</ele>
        <time>2017-03-22T14:23:37Z</time>
      </trkpt>
      <trkpt lat="43.45805" lon="6.19451">
        <ele>243.19999694824</ele>
        <time>2017-03-22T14:23:39Z</time>
      </trkpt>
      <trkpt lat="43.45809" lon="6.19457">
        <ele>242.80000305176</ele>
        <time>2017-03-22T14:23:40Z</time>
      </trkpt>
      <trkpt lat="43.45819" lon="6.19469">
        <ele>241.39999389648</ele>
        <time>2017-03-22T14:23:42Z</time>
      </trkpt>
      <trkpt lat="43.45824" lon="6.19474">
        <ele>240.19999694824</ele>
        <time>2017-03-22T14:23:43Z</time>
      </trkpt>
      <trkpt lat="43.45829" lon="6.1948">
        <ele>239</ele>
        <time>2017-03-22T14:23:44Z</time>
      </trkpt>
      <trkpt lat="43.45834" lon="6.19487">
        <ele>237.60000610352</ele>
        <time>2017-03-22T14:23:45Z</time>
      </trkpt>
      <trkpt lat="43.45842" lon="6.19502">
        <ele>235.60000610352</ele>
        <time>2017-03-22T14:23:47Z</time>
      </trkpt>
      <trkpt lat="43.45851" lon="6.19517">
        <ele>234.19999694824</ele>
        <time>2017-03-22T14:23:49Z</time>
      </trkpt>
      <trkpt lat="43.45855" lon="6.19524">
        <ele>233</ele>
        <time>2017-03-22T14:23:50Z</time>
      </trkpt>
      <trkpt lat="43.4586" lon="6.19531">
        <ele>232</ele>
        <time>2017-03-22T14:23:51Z</time>
      </trkpt>
      <trkpt lat="43.45865" lon="6.19539">
        <ele>230.60000610352</ele>
        <time>2017-03-22T14:23:52Z</time>
      </trkpt>
      <trkpt lat="43.45877" lon="6.19554">
        <ele>229</ele>
        <time>2017-03-22T14:23:54Z</time>
      </trkpt>
      <trkpt lat="43.45882" lon="6.19561">
        <ele>227.80000305176</ele>
        <time>2017-03-22T14:23:55Z</time>
      </trkpt>
      <trkpt lat="43.45887" lon="6.19567">
        <ele>226.60000610352</ele>
        <time>2017-03-22T14:23:56Z</time>
      </trkpt>
      <trkpt lat="43.459" lon="6.19587">
        <ele>224</ele>
        <time>2017-03-22T14:23:59Z</time>
      </trkpt>
      <trkpt lat="43.45907" lon="6.196">
        <ele>222.60000610352</ele>
        <time>2017-03-22T14:24:01Z</time>
      </trkpt>
      <trkpt lat="43.45913" lon="6.19613">
        <ele>222</ele>
        <time>2017-03-22T14:24:03Z</time>
      </trkpt>
      <trkpt lat="43.45922" lon="6.1962">
        <ele>221.60000610352</ele>
        <time>2017-03-22T14:24:05Z</time>
      </trkpt>
      <trkpt lat="43.45927" lon="6.19623">
        <ele>221</ele>
        <time>2017-03-22T14:24:06Z</time>
      </trkpt>
      <trkpt lat="43.45932" lon="6.19626">
        <ele>220.39999389648</ele>
        <time>2017-03-22T14:24:07Z</time>
      </trkpt>
      <trkpt lat="43.45941" lon="6.19636">
        <ele>218.60000610352</ele>
        <time>2017-03-22T14:24:09Z</time>
      </trkpt>
      <trkpt lat="43.4595" lon="6.19649">
        <ele>217.39999389648</ele>
        <time>2017-03-22T14:24:11Z</time>
      </trkpt>
      <trkpt lat="43.45963" lon="6.19668">
        <ele>216.19999694824</ele>
        <time>2017-03-22T14:24:14Z</time>
      </trkpt>
      <trkpt lat="43.4597" lon="6.19682">
        <ele>215</ele>
        <time>2017-03-22T14:24:16Z</time>
      </trkpt>
      <trkpt lat="43.45975" lon="6.19699">
        <ele>213</ele>
        <time>2017-03-22T14:24:18Z</time>
      </trkpt>
      <trkpt lat="43.45979" lon="6.19708">
        <ele>211.60000610352</ele>
        <time>2017-03-22T14:24:19Z</time>
      </trkpt>
      <trkpt lat="43.45981" lon="6.19716">
        <ele>210.60000610352</ele>
        <time>2017-03-22T14:24:20Z</time>
      </trkpt>
      <trkpt lat="43.45986" lon="6.19733">
        <ele>209.39999389648</ele>
        <time>2017-03-22T14:24:22Z</time>
      </trkpt>
      <trkpt lat="43.45991" lon="6.19747">
        <ele>207.60000610352</ele>
        <time>2017-03-22T14:24:24Z</time>
      </trkpt>
      <trkpt lat="43.45996" lon="6.19759">
        <ele>206</ele>
        <time>2017-03-22T14:24:26Z</time>
      </trkpt>
      <trkpt lat="43.45999" lon="6.19766">
        <ele>205.19999694824</ele>
        <time>2017-03-22T14:24:27Z</time>
      </trkpt>
      <trkpt lat="43.46001" lon="6.19774">
        <ele>204.39999389648</ele>
        <time>2017-03-22T14:24:28Z</time>
      </trkpt>
      <trkpt lat="43.46006" lon="6.1979">
        <ele>202.19999694824</ele>
        <time>2017-03-22T14:24:30Z</time>
      </trkpt>
      <trkpt lat="43.46008" lon="6.19798">
        <ele>200.80000305176</ele>
        <time>2017-03-22T14:24:31Z</time>
      </trkpt>
      <trkpt lat="43.46009" lon="6.19806">
        <ele>199.39999389648</ele>
        <time>2017-03-22T14:24:32Z</time>
      </trkpt>
      <trkpt lat="43.4601" lon="6.19813">
        <ele>198.19999694824</ele>
        <time>2017-03-22T14:24:33Z</time>
      </trkpt>
      <trkpt lat="43.46009" lon="6.1982">
        <ele>197.19999694824</ele>
        <time>2017-03-22T14:24:34Z</time>
      </trkpt>
      <trkpt lat="43.46008" lon="6.19827">
        <ele>196.60000610352</ele>
        <time>2017-03-22T14:24:35Z</time>
      </trkpt>
      <trkpt lat="43.46008" lon="6.19834">
        <ele>196</ele>
        <time>2017-03-22T14:24:36Z</time>
      </trkpt>
      <trkpt lat="43.46007" lon="6.19841">
        <ele>195.39999389648</ele>
        <time>2017-03-22T14:24:37Z</time>
      </trkpt>
      <trkpt lat="43.46006" lon="6.1985">
        <ele>193.80000305176</ele>
        <time>2017-03-22T14:24:39Z</time>
      </trkpt>
      <trkpt lat="43.46006" lon="6.19852">
        <ele>192.60000610352</ele>
        <time>2017-03-22T14:24:41Z</time>
      </trkpt>
      <trkpt lat="43.46006" lon="6.19854">
        <ele>191.80000305176</ele>
        <time>2017-03-22T14:24:46Z</time>
      </trkpt>
      <trkpt lat="43.46006" lon="6.19854">
        <ele>191.39999389648</ele>
        <time>2017-03-22T14:24:56Z</time>
      </trkpt>
      <trkpt lat="43.46006" lon="6.19854">
        <ele>191.19999694824</ele>
        <time>2017-03-22T14:25:16Z</time>
      </trkpt>
      <trkpt lat="43.46008" lon="6.19853">
        <ele>191.19999694824</ele>
        <time>2017-03-22T14:25:23Z</time>
      </trkpt>
      <trkpt lat="43.46008" lon="6.1985">
        <ele>191</ele>
        <time>2017-03-22T14:25:25Z</time>
      </trkpt>
      <trkpt lat="43.46008" lon="6.19849">
        <ele>191</ele>
        <time>2017-03-22T14:25:26Z</time>
      </trkpt>
      <trkpt lat="43.46009" lon="6.1984">
        <ele>190.80000305176</ele>
        <time>2017-03-22T14:25:32Z</time>
      </trkpt>
      <trkpt lat="43.4601" lon="6.19833">
        <ele>190.60000610352</ele>
        <time>2017-03-22T14:25:36Z</time>
      </trkpt>
      <trkpt lat="43.46012" lon="6.19827">
        <ele>190.60000610352</ele>
        <time>2017-03-22T14:25:38Z</time>
      </trkpt>
      <trkpt lat="43.46022" lon="6.19796">
        <ele>189.80000305176</ele>
        <time>2017-03-22T14:25:46Z</time>
      </trkpt>
      <trkpt lat="43.46027" lon="6.19784">
        <ele>189.19999694824</ele>
        <time>2017-03-22T14:25:48Z</time>
      </trkpt>
      <trkpt lat="43.46035" lon="6.19761">
        <ele>188</ele>
        <time>2017-03-22T14:25:51Z</time>
      </trkpt>
      <trkpt lat="43.46042" lon="6.19735">
        <ele>186</ele>
        <time>2017-03-22T14:25:54Z</time>
      </trkpt>
      <trkpt lat="43.46049" lon="6.19716">
        <ele>184.60000610352</ele>
        <time>2017-03-22T14:25:56Z</time>
      </trkpt>
      <trkpt lat="43.46056" lon="6.19696">
        <ele>183.19999694824</ele>
        <time>2017-03-22T14:25:58Z</time>
      </trkpt>
      <trkpt lat="43.46067" lon="6.19669">
        <ele>182</ele>
        <time>2017-03-22T14:26:01Z</time>
      </trkpt>
      <trkpt lat="43.46082" lon="6.19634">
        <ele>180.39999389648</ele>
        <time>2017-03-22T14:26:06Z</time>
      </trkpt>
      <trkpt lat="43.46087" lon="6.19613">
        <ele>179.60000610352</ele>
        <time>2017-03-22T14:26:09Z</time>
      </trkpt>
      <trkpt lat="43.46088" lon="6.19602">
        <ele>177.60000610352</ele>
        <time>2017-03-22T14:26:11Z</time>
      </trkpt>
      <trkpt lat="43.4609" lon="6.19591">
        <ele>176.39999389648</ele>
        <time>2017-03-22T14:26:13Z</time>
      </trkpt>
      <trkpt lat="43.46093" lon="6.19575">
        <ele>175.39999389648</ele>
        <time>2017-03-22T14:26:16Z</time>
      </trkpt>
      <trkpt lat="43.46093" lon="6.19569">
        <ele>174.19999694824</ele>
        <time>2017-03-22T14:26:19Z</time>
      </trkpt>
      <trkpt lat="43.46093" lon="6.19568">
        <ele>173.80000305176</ele>
        <time>2017-03-22T14:26:21Z</time>
      </trkpt>
      <trkpt lat="43.46093" lon="6.19567">
        <ele>173.60000610352</ele>
        <time>2017-03-22T14:26:23Z</time>
      </trkpt>
      <trkpt lat="43.46093" lon="6.19567">
        <ele>173.60000610352</ele>
        <time>2017-03-22T14:26:26Z</time>
      </trkpt>
      <trkpt lat="43.46093" lon="6.19567">
        <ele>173.60000610352</ele>
        <time>2017-03-22T14:26:27Z</time>
      </trkpt>
      <trkpt lat="43.46098" lon="6.1956">
        <ele>173.19999694824</ele>
        <time>2017-03-22T14:26:31Z</time>
      </trkpt>
      <trkpt lat="43.46104" lon="6.1955">
        <ele>172.60000610352</ele>
        <time>2017-03-22T14:26:34Z</time>
      </trkpt>
      <trkpt lat="43.4611" lon="6.19544">
        <ele>172.19999694824</ele>
        <time>2017-03-22T14:26:36Z</time>
      </trkpt>
      <trkpt lat="43.46119" lon="6.19538">
        <ele>172.19999694824</ele>
        <time>2017-03-22T14:26:39Z</time>
      </trkpt>
      <trkpt lat="43.46123" lon="6.19531">
        <ele>171.60000610352</ele>
        <time>2017-03-22T14:26:41Z</time>
      </trkpt>
      <trkpt lat="43.46133" lon="6.19524">
        <ele>171.19999694824</ele>
        <time>2017-03-22T14:26:45Z</time>
      </trkpt>
      <trkpt lat="43.46136" lon="6.19522">
        <ele>171.19999694824</ele>
        <time>2017-03-22T14:26:46Z</time>
      </trkpt>
      <trkpt lat="43.46141" lon="6.19518">
        <ele>170.80000305176</ele>
        <time>2017-03-22T14:26:49Z</time>
      </trkpt>
      <trkpt lat="43.46146" lon="6.19514">
        <ele>170</ele>
        <time>2017-03-22T14:26:52Z</time>
      </trkpt>
      <trkpt lat="43.46153" lon="6.19507">
        <ele>169.80000305176</ele>
        <time>2017-03-22T14:26:56Z</time>
      </trkpt>
      <trkpt lat="43.46157" lon="6.19503">
        <ele>169.39999389648</ele>
        <time>2017-03-22T14:26:58Z</time>
      </trkpt>
      <trkpt lat="43.46161" lon="6.19501">
        <ele>169</ele>
        <time>2017-03-22T14:27:01Z</time>
      </trkpt>
      <trkpt lat="43.46162" lon="6.19501">
        <ele>168.39999389648</ele>
        <time>2017-03-22T14:27:06Z</time>
      </trkpt>
      <trkpt lat="43.46166" lon="6.195">
        <ele>168</ele>
        <time>2017-03-22T14:27:15Z</time>
      </trkpt>
      <trkpt lat="43.46166" lon="6.195">
        <ele>167.80000305176</ele>
        <time>2017-03-22T14:27:16Z</time>
      </trkpt>
      <trkpt lat="43.46179" lon="6.19498">
        <ele>167.39999389648</ele>
        <time>2017-03-22T14:27:22Z</time>
      </trkpt>
      <trkpt lat="43.46184" lon="6.19495">
        <ele>167</ele>
        <time>2017-03-22T14:27:25Z</time>
      </trkpt>
      <trkpt lat="43.46185" lon="6.19495">
        <ele>166.80000305176</ele>
        <time>2017-03-22T14:27:26Z</time>
      </trkpt>
      <trkpt lat="43.4619" lon="6.19496">
        <ele>166</ele>
        <time>2017-03-22T14:27:29Z</time>
      </trkpt>
      <trkpt lat="43.46198" lon="6.19494">
        <ele>165.19999694824</ele>
        <time>2017-03-22T14:27:35Z</time>
      </trkpt>
      <trkpt lat="43.46199" lon="6.19493">
        <ele>165.39999389648</ele>
        <time>2017-03-22T14:27:36Z</time>
      </trkpt>
      <trkpt lat="43.46208" lon="6.1947">
        <ele>165</ele>
        <time>2017-03-22T14:27:46Z</time>
      </trkpt>
      <trkpt lat="43.46208" lon="6.19467">
        <ele>164.80000305176</ele>
        <time>2017-03-22T14:27:47Z</time>
      </trkpt>
      <trkpt lat="43.46217" lon="6.19442">
        <ele>164.80000305176</ele>
        <time>2017-03-22T14:27:55Z</time>
      </trkpt>
      <trkpt lat="43.46224" lon="6.19431">
        <ele>163.60000610352</ele>
        <time>2017-03-22T14:28:00Z</time>
      </trkpt>
      <trkpt lat="43.46226" lon="6.1943">
        <ele>163.39999389648</ele>
        <time>2017-03-22T14:28:01Z</time>
      </trkpt>
      <trkpt lat="43.46239" lon="6.19428">
        <ele>162.80000305176</ele>
        <time>2017-03-22T14:28:06Z</time>
      </trkpt>
      <trkpt lat="43.46241" lon="6.19428">
        <ele>162.39999389648</ele>
        <time>2017-03-22T14:28:07Z</time>
      </trkpt>
      <trkpt lat="43.46249" lon="6.19424">
        <ele>161.19999694824</ele>
        <time>2017-03-22T14:28:11Z</time>
      </trkpt>
      <trkpt lat="43.4626" lon="6.19416">
        <ele>160.80000305176</ele>
        <time>2017-03-22T14:28:16Z</time>
      </trkpt>
      <trkpt lat="43.46266" lon="6.19411">
        <ele>160.60000610352</ele>
        <time>2017-03-22T14:28:19Z</time>
      </trkpt>
      <trkpt lat="43.46271" lon="6.19404">
        <ele>160</ele>
        <time>2017-03-22T14:28:23Z</time>
      </trkpt>
      <trkpt lat="43.46274" lon="6.19403">
        <ele>159.39999389648</ele>
        <time>2017-03-22T14:28:26Z</time>
      </trkpt>
      <trkpt lat="43.46275" lon="6.19402">
        <ele>159</ele>
        <time>2017-03-22T14:28:27Z</time>
      </trkpt>
      <trkpt lat="43.46279" lon="6.194">
        <ele>158.80000305176</ele>
        <time>2017-03-22T14:28:29Z</time>
      </trkpt>
      <trkpt lat="43.46282" lon="6.19398">
        <ele>158.60000610352</ele>
        <time>2017-03-22T14:28:31Z</time>
      </trkpt>
      <trkpt lat="43.46291" lon="6.19392">
        <ele>157.80000305176</ele>
        <time>2017-03-22T14:28:35Z</time>
      </trkpt>
      <trkpt lat="43.46294" lon="6.1939">
        <ele>157.80000305176</ele>
        <time>2017-03-22T14:28:36Z</time>
      </trkpt>
      <trkpt lat="43.46296" lon="6.19388">
        <ele>157.60000610352</ele>
        <time>2017-03-22T14:28:37Z</time>
      </trkpt>
      <trkpt lat="43.46299" lon="6.19387">
        <ele>156.60000610352</ele>
        <time>2017-03-22T14:28:40Z</time>
      </trkpt>
      <trkpt lat="43.46299" lon="6.19387">
        <ele>156</ele>
        <time>2017-03-22T14:28:46Z</time>
      </trkpt>
      <trkpt lat="43.46299" lon="6.19387">
        <ele>156</ele>
        <time>2017-03-22T14:28:51Z</time>
      </trkpt>
      <trkpt lat="43.46299" lon="6.19386">
        <ele>156</ele>
        <time>2017-03-22T14:28:56Z</time>
      </trkpt>
      <trkpt lat="43.46299" lon="6.19387">
        <ele>155.80000305176</ele>
        <time>2017-03-22T14:29:06Z</time>
      </trkpt>
      <trkpt lat="43.463" lon="6.19387">
        <ele>155.80000305176</ele>
        <time>2017-03-22T14:29:16Z</time>
      </trkpt>
      <trkpt lat="43.463" lon="6.19387">
        <ele>155.80000305176</ele>
        <time>2017-03-22T14:29:26Z</time>
      </trkpt>
      <trkpt lat="43.46299" lon="6.19388">
        <ele>155.60000610352</ele>
        <time>2017-03-22T14:29:46Z</time>
      </trkpt>
      <trkpt lat="43.463" lon="6.19389">
        <ele>155.19999694824</ele>
        <time>2017-03-22T14:29:56Z</time>
      </trkpt>
      <trkpt lat="43.463" lon="6.19389">
        <ele>155.39999389648</ele>
        <time>2017-03-22T14:30:02Z</time>
      </trkpt>
      <trkpt lat="43.46301" lon="6.19388">
        <ele>155</ele>
        <time>2017-03-22T14:30:06Z</time>
      </trkpt>
      <trkpt lat="43.46301" lon="6.19388">
        <ele>155</ele>
        <time>2017-03-22T14:30:08Z</time>
      </trkpt>
      <trkpt lat="43.46301" lon="6.19388">
        <ele>155</ele>
        <time>2017-03-22T14:30:09Z</time>
      </trkpt>
      <trkpt lat="43.46304" lon="6.19388">
        <ele>154.80000305176</ele>
        <time>2017-03-22T14:30:11Z</time>
      </trkpt>
      <trkpt lat="43.46309" lon="6.19389">
        <ele>154.60000610352</ele>
        <time>2017-03-22T14:30:14Z</time>
      </trkpt>
      <trkpt lat="43.46315" lon="6.19392">
        <ele>154.80000305176</ele>
        <time>2017-03-22T14:30:18Z</time>
      </trkpt>
      <trkpt lat="43.4633" lon="6.19396">
        <ele>155</ele>
        <time>2017-03-22T14:30:26Z</time>
      </trkpt>
      <trkpt lat="43.4635" lon="6.19385">
        <ele>155.39999389648</ele>
        <time>2017-03-22T14:30:36Z</time>
      </trkpt>
      <trkpt lat="43.46366" lon="6.19364">
        <ele>155.60000610352</ele>
        <time>2017-03-22T14:30:43Z</time>
      </trkpt>
      <trkpt lat="43.46368" lon="6.19362">
        <ele>155.60000610352</ele>
        <time>2017-03-22T14:30:44Z</time>
      </trkpt>
      <trkpt lat="43.46373" lon="6.19363">
        <ele>155.60000610352</ele>
        <time>2017-03-22T14:30:46Z</time>
      </trkpt>
      <trkpt lat="43.4638" lon="6.19375">
        <ele>155.39999389648</ele>
        <time>2017-03-22T14:30:50Z</time>
      </trkpt>
      <trkpt lat="43.46385" lon="6.19392">
        <ele>155.39999389648</ele>
        <time>2017-03-22T14:30:54Z</time>
      </trkpt>
      <trkpt lat="43.46388" lon="6.19401">
        <ele>155.39999389648</ele>
        <time>2017-03-22T14:30:56Z</time>
      </trkpt>
      <trkpt lat="43.46398" lon="6.19425">
        <ele>155</ele>
        <time>2017-03-22T14:31:02Z</time>
      </trkpt>
      <trkpt lat="43.464" lon="6.19432">
        <ele>155.39999389648</ele>
        <time>2017-03-22T14:31:06Z</time>
      </trkpt>
      <trkpt lat="43.464" lon="6.19436">
        <ele>155.19999694824</ele>
        <time>2017-03-22T14:31:13Z</time>
      </trkpt>
      <trkpt lat="43.46402" lon="6.19442">
        <ele>155.19999694824</ele>
        <time>2017-03-22T14:31:15Z</time>
      </trkpt>
      <trkpt lat="43.46403" lon="6.19445">
        <ele>155.19999694824</ele>
        <time>2017-03-22T14:31:16Z</time>
      </trkpt>
      <trkpt lat="43.46405" lon="6.19456">
        <ele>155.39999389648</ele>
        <time>2017-03-22T14:31:20Z</time>
      </trkpt>
      <trkpt lat="43.4641" lon="6.19477">
        <ele>155.60000610352</ele>
        <time>2017-03-22T14:31:26Z</time>
      </trkpt>
      <trkpt lat="43.46415" lon="6.19521">
        <ele>155.39999389648</ele>
        <time>2017-03-22T14:31:36Z</time>
      </trkpt>
      <trkpt lat="43.46409" lon="6.19557">
        <ele>154.80000305176</ele>
        <time>2017-03-22T14:31:46Z</time>
      </trkpt>
      <trkpt lat="43.46408" lon="6.1956">
        <ele>155.19999694824</ele>
        <time>2017-03-22T14:31:48Z</time>
      </trkpt>
      <trkpt lat="43.46411" lon="6.19568">
        <ele>155.80000305176</ele>
        <time>2017-03-22T14:31:52Z</time>
      </trkpt>
      <trkpt lat="43.4641" lon="6.19581">
        <ele>155.60000610352</ele>
        <time>2017-03-22T14:31:56Z</time>
      </trkpt>
      <trkpt lat="43.46411" lon="6.19597">
        <ele>155.19999694824</ele>
        <time>2017-03-22T14:32:00Z</time>
      </trkpt>
      <trkpt lat="43.46408" lon="6.19622">
        <ele>155.19999694824</ele>
        <time>2017-03-22T14:32:06Z</time>
      </trkpt>
      <trkpt lat="43.46407" lon="6.1963">
        <ele>155.60000610352</ele>
        <time>2017-03-22T14:32:14Z</time>
      </trkpt>
      <trkpt lat="43.46407" lon="6.19632">
        <ele>155.60000610352</ele>
        <time>2017-03-22T14:32:16Z</time>
      </trkpt>
      <trkpt lat="43.46407" lon="6.19636">
        <ele>155.60000610352</ele>
        <time>2017-03-22T14:32:18Z</time>
      </trkpt>
      <trkpt lat="43.46407" lon="6.19641">
        <ele>155.60000610352</ele>
        <time>2017-03-22T14:32:20Z</time>
      </trkpt>
      <trkpt lat="43.46404" lon="6.19648">
        <ele>156.39999389648</ele>
        <time>2017-03-22T14:32:26Z</time>
      </trkpt>
      <trkpt lat="43.46404" lon="6.19648">
        <ele>156.60000610352</ele>
        <time>2017-03-22T14:32:27Z</time>
      </trkpt>
      <trkpt lat="43.46404" lon="6.19649">
        <ele>157</ele>
        <time>2017-03-22T14:32:31Z</time>
      </trkpt>
      <trkpt lat="43.46404" lon="6.19649">
        <ele>157</ele>
        <time>2017-03-22T14:32:36Z</time>
      </trkpt>
      <trkpt lat="43.46404" lon="6.19649">
        <ele>156.80000305176</ele>
        <time>2017-03-22T14:32:46Z</time>
      </trkpt>
      <trkpt lat="43.46404" lon="6.19653">
        <ele>155.80000305176</ele>
        <time>2017-03-22T14:33:06Z</time>
      </trkpt>
      <trkpt lat="43.46403" lon="6.19654">
        <ele>155.60000610352</ele>
        <time>2017-03-22T14:33:09Z</time>
      </trkpt>
      <trkpt lat="43.46403" lon="6.19654">
        <ele>155.60000610352</ele>
        <time>2017-03-22T14:33:12Z</time>
      </trkpt>
      <trkpt lat="43.46398" lon="6.19654">
        <ele>154.80000305176</ele>
        <time>2017-03-22T14:33:26Z</time>
      </trkpt>
      <trkpt lat="43.46399" lon="6.19653">
        <ele>154.60000610352</ele>
        <time>2017-03-22T14:33:36Z</time>
      </trkpt>
      <trkpt lat="43.46399" lon="6.19653">
        <ele>154.60000610352</ele>
        <time>2017-03-22T14:33:46Z</time>
      </trkpt>
      <trkpt lat="43.46399" lon="6.19656">
        <ele>154.60000610352</ele>
        <time>2017-03-22T14:33:55Z</time>
      </trkpt>
      <trkpt lat="43.464" lon="6.19655">
        <ele>154.60000610352</ele>
        <time>2017-03-22T14:33:56Z</time>
      </trkpt>
      <trkpt lat="43.46399" lon="6.19655">
        <ele>154.39999389648</ele>
        <time>2017-03-22T14:34:01Z</time>
      </trkpt>
      <trkpt lat="43.46399" lon="6.19655">
        <ele>154.39999389648</ele>
        <time>2017-03-22T14:34:04Z</time>
      </trkpt>
      <trkpt lat="43.46399" lon="6.19655">
        <ele>154.19999694824</ele>
        <time>2017-03-22T14:34:06Z</time>
      </trkpt>
      <trkpt lat="43.46398" lon="6.19654">
        <ele>154</ele>
        <time>2017-03-22T14:34:10Z</time>
      </trkpt>
      <trkpt lat="43.46399" lon="6.19655">
        <ele>154.19999694824</ele>
        <time>2017-03-22T14:34:16Z</time>
      </trkpt>
      <trkpt lat="43.46399" lon="6.19655">
        <ele>154.19999694824</ele>
        <time>2017-03-22T14:34:18Z</time>
      </trkpt>
      <trkpt lat="43.46399" lon="6.19655">
        <ele>154.19999694824</ele>
        <time>2017-03-22T14:34:22Z</time>
      </trkpt>
      <trkpt lat="43.46399" lon="6.19655">
        <ele>154.19999694824</ele>
        <time>2017-03-22T14:34:26Z</time>
      </trkpt>
      <trkpt lat="43.464" lon="6.19656">
        <ele>154.39999389648</ele>
        <time>2017-03-22T14:34:36Z</time>
      </trkpt>
      <trkpt lat="43.464" lon="6.19656">
        <ele>154.39999389648</ele>
        <time>2017-03-22T14:34:39Z</time>
      </trkpt>
      <trkpt lat="43.46399" lon="6.19658">
        <ele>154.19999694824</ele>
        <time>2017-03-22T14:34:46Z</time>
      </trkpt>
      <trkpt lat="43.46402" lon="6.19657">
        <ele>154</ele>
        <time>2017-03-22T14:34:51Z</time>
      </trkpt>
      <trkpt lat="43.46406" lon="6.19655">
        <ele>154.19999694824</ele>
        <time>2017-03-22T14:34:56Z</time>
      </trkpt>
      <trkpt lat="43.46406" lon="6.19656">
        <ele>154.19999694824</ele>
        <time>2017-03-22T14:35:00Z</time>
      </trkpt>
      <trkpt lat="43.46406" lon="6.19656">
        <ele>154.19999694824</ele>
        <time>2017-03-22T14:35:06Z</time>
      </trkpt>
      <trkpt lat="43.46405" lon="6.19657">
        <ele>154.19999694824</ele>
        <time>2017-03-22T14:35:16Z</time>
      </trkpt>
      <trkpt lat="43.46409" lon="6.19658">
        <ele>154.19999694824</ele>
        <time>2017-03-22T14:35:21Z</time>
      </trkpt>
      <trkpt lat="43.46409" lon="6.19659">
        <ele>154.19999694824</ele>
        <time>2017-03-22T14:35:26Z</time>
      </trkpt>
      <trkpt lat="43.46408" lon="6.19658">
        <ele>154.19999694824</ele>
        <time>2017-03-22T14:35:29Z</time>
      </trkpt>
      <trkpt lat="43.46407" lon="6.19657">
        <ele>154.60000610352</ele>
        <time>2017-03-22T14:35:36Z</time>
      </trkpt>
      <trkpt lat="43.46406" lon="6.1966">
        <ele>154.60000610352</ele>
        <time>2017-03-22T14:35:46Z</time>
      </trkpt>
      <trkpt lat="43.46406" lon="6.1966">
        <ele>154.60000610352</ele>
        <time>2017-03-22T14:35:56Z</time>
      </trkpt>
      <trkpt lat="43.46405" lon="6.1966">
        <ele>154.60000610352</ele>
        <time>2017-03-22T14:36:06Z</time>
      </trkpt>
      <trkpt lat="43.46398" lon="6.19657">
        <ele>154.60000610352</ele>
        <time>2017-03-22T14:36:16Z</time>
      </trkpt>
      <trkpt lat="43.46399" lon="6.19654">
        <ele>154.60000610352</ele>
        <time>2017-03-22T14:36:26Z</time>
      </trkpt>
      <trkpt lat="43.46399" lon="6.19653">
        <ele>154.60000610352</ele>
        <time>2017-03-22T14:36:28Z</time>
      </trkpt>
      <trkpt lat="43.46399" lon="6.19653">
        <ele>154.60000610352</ele>
        <time>2017-03-22T14:36:36Z</time>
      </trkpt>
      <trkpt lat="43.46399" lon="6.19656">
        <ele>154.60000610352</ele>
        <time>2017-03-22T14:36:46Z</time>
      </trkpt>
      <trkpt lat="43.464" lon="6.19662">
        <ele>154.60000610352</ele>
        <time>2017-03-22T14:36:52Z</time>
      </trkpt>
      <trkpt lat="43.46401" lon="6.19667">
        <ele>152.60000610352</ele>
        <time>2017-03-22T14:36:54Z</time>
      </trkpt>
      <trkpt lat="43.46404" lon="6.19672">
        <ele>153.60000610352</ele>
        <time>2017-03-22T14:36:56Z</time>
      </trkpt>
      <trkpt lat="43.46409" lon="6.19685">
        <ele>153.60000610352</ele>
        <time>2017-03-22T14:37:00Z</time>
      </trkpt>
      <trkpt lat="43.4642" lon="6.19706">
        <ele>154</ele>
        <time>2017-03-22T14:37:06Z</time>
      </trkpt>
      <trkpt lat="43.46421" lon="6.19714">
        <ele>154</ele>
        <time>2017-03-22T14:37:08Z</time>
      </trkpt>
      <trkpt lat="43.46431" lon="6.19746">
        <ele>154.19999694824</ele>
        <time>2017-03-22T14:37:16Z</time>
      </trkpt>
      <trkpt lat="43.46445" lon="6.19781">
        <ele>154.39999389648</ele>
        <time>2017-03-22T14:37:25Z</time>
      </trkpt>
      <trkpt lat="43.46449" lon="6.1979">
        <ele>154.60000610352</ele>
        <time>2017-03-22T14:37:27Z</time>
      </trkpt>
      <trkpt lat="43.46464" lon="6.19834">
        <ele>154.80000305176</ele>
        <time>2017-03-22T14:37:36Z</time>
      </trkpt>
      <trkpt lat="43.46474" lon="6.1988">
        <ele>155.19999694824</ele>
        <time>2017-03-22T14:37:46Z</time>
      </trkpt>
      <trkpt lat="43.46496" lon="6.1991">
        <ele>155.19999694824</ele>
        <time>2017-03-22T14:37:56Z</time>
      </trkpt>
      <trkpt lat="43.46517" lon="6.19951">
        <ele>154.80000305176</ele>
        <time>2017-03-22T14:38:06Z</time>
      </trkpt>
      <trkpt lat="43.46537" lon="6.19988">
        <ele>155.19999694824</ele>
        <time>2017-03-22T14:38:16Z</time>
      </trkpt>
      <trkpt lat="43.46547" lon="6.20007">
        <ele>155.19999694824</ele>
        <time>2017-03-22T14:38:22Z</time>
      </trkpt>
      <trkpt lat="43.46555" lon="6.20018">
        <ele>155.19999694824</ele>
        <time>2017-03-22T14:38:26Z</time>
      </trkpt>
      <trkpt lat="43.4658" lon="6.20034">
        <ele>155</ele>
        <time>2017-03-22T14:38:36Z</time>
      </trkpt>
      <trkpt lat="43.4659" lon="6.20048">
        <ele>155.19999694824</ele>
        <time>2017-03-22T14:38:42Z</time>
      </trkpt>
      <trkpt lat="43.46595" lon="6.20054">
        <ele>155.19999694824</ele>
        <time>2017-03-22T14:38:45Z</time>
      </trkpt>
      <trkpt lat="43.46596" lon="6.20054">
        <ele>155.39999389648</ele>
        <time>2017-03-22T14:38:46Z</time>
      </trkpt>
      <trkpt lat="43.46624" lon="6.20058">
        <ele>154.80000305176</ele>
        <time>2017-03-22T14:38:56Z</time>
      </trkpt>
      <trkpt lat="43.46644" lon="6.20069">
        <ele>155.19999694824</ele>
        <time>2017-03-22T14:39:02Z</time>
      </trkpt>
      <trkpt lat="43.46651" lon="6.20083">
        <ele>155.19999694824</ele>
        <time>2017-03-22T14:39:06Z</time>
      </trkpt>
      <trkpt lat="43.4666" lon="6.20114">
        <ele>155.39999389648</ele>
        <time>2017-03-22T14:39:14Z</time>
      </trkpt>
      <trkpt lat="43.46666" lon="6.20118">
        <ele>155.19999694824</ele>
        <time>2017-03-22T14:39:16Z</time>
      </trkpt>
      <trkpt lat="43.46696" lon="6.20131">
        <ele>155</ele>
        <time>2017-03-22T14:39:26Z</time>
      </trkpt>
      <trkpt lat="43.46716" lon="6.20126">
        <ele>155.60000610352</ele>
        <time>2017-03-22T14:39:36Z</time>
      </trkpt>
      <trkpt lat="43.46716" lon="6.20126">
        <ele>155.80000305176</ele>
        <time>2017-03-22T14:39:37Z</time>
      </trkpt>
      <trkpt lat="43.46726" lon="6.20128">
        <ele>155.60000610352</ele>
        <time>2017-03-22T14:39:45Z</time>
      </trkpt>
      <trkpt lat="43.46733" lon="6.20131">
        <ele>155.60000610352</ele>
        <time>2017-03-22T14:39:48Z</time>
      </trkpt>
      <trkpt lat="43.46738" lon="6.2016">
        <ele>155.60000610352</ele>
        <time>2017-03-22T14:39:56Z</time>
      </trkpt>
      <trkpt lat="43.46732" lon="6.20189">
        <ele>155.39999389648</ele>
        <time>2017-03-22T14:40:03Z</time>
      </trkpt>
      <trkpt lat="43.46728" lon="6.20193">
        <ele>155.60000610352</ele>
        <time>2017-03-22T14:40:06Z</time>
      </trkpt>
      <trkpt lat="43.46726" lon="6.20195">
        <ele>155.60000610352</ele>
        <time>2017-03-22T14:40:07Z</time>
      </trkpt>
      <trkpt lat="43.46713" lon="6.20231">
        <ele>155.39999389648</ele>
        <time>2017-03-22T14:40:16Z</time>
      </trkpt>
      <trkpt lat="43.46726" lon="6.20271">
        <ele>155.39999389648</ele>
        <time>2017-03-22T14:40:26Z</time>
      </trkpt>
      <trkpt lat="43.46745" lon="6.20307">
        <ele>155.39999389648</ele>
        <time>2017-03-22T14:40:36Z</time>
      </trkpt>
      <trkpt lat="43.46759" lon="6.20355">
        <ele>155.60000610352</ele>
        <time>2017-03-22T14:40:46Z</time>
      </trkpt>
      <trkpt lat="43.46772" lon="6.20397">
        <ele>156</ele>
        <time>2017-03-22T14:40:55Z</time>
      </trkpt>
      <trkpt lat="43.46773" lon="6.204">
        <ele>156</ele>
        <time>2017-03-22T14:40:56Z</time>
      </trkpt>
      <trkpt lat="43.46774" lon="6.20406">
        <ele>157</ele>
        <time>2017-03-22T14:40:58Z</time>
      </trkpt>
      <trkpt lat="43.46775" lon="6.20421">
        <ele>157.80000305176</ele>
        <time>2017-03-22T14:41:02Z</time>
      </trkpt>
      <trkpt lat="43.46782" lon="6.20429">
        <ele>157.39999389648</ele>
        <time>2017-03-22T14:41:06Z</time>
      </trkpt>
      <trkpt lat="43.46792" lon="6.20451">
        <ele>156</ele>
        <time>2017-03-22T14:41:11Z</time>
      </trkpt>
      <trkpt lat="43.46793" lon="6.20456">
        <ele>155.80000305176</ele>
        <time>2017-03-22T14:41:12Z</time>
      </trkpt>
      <trkpt lat="43.46789" lon="6.20473">
        <ele>155.60000610352</ele>
        <time>2017-03-22T14:41:16Z</time>
      </trkpt>
      <trkpt lat="43.46778" lon="6.20522">
        <ele>155.80000305176</ele>
        <time>2017-03-22T14:41:26Z</time>
      </trkpt>
      <trkpt lat="43.46759" lon="6.20561">
        <ele>155.60000610352</ele>
        <time>2017-03-22T14:41:36Z</time>
      </trkpt>
      <trkpt lat="43.46746" lon="6.20591">
        <ele>155.80000305176</ele>
        <time>2017-03-22T14:41:45Z</time>
      </trkpt>
      <trkpt lat="43.46743" lon="6.20594">
        <ele>155.60000610352</ele>
        <time>2017-03-22T14:41:46Z</time>
      </trkpt>
      <trkpt lat="43.46736" lon="6.20602">
        <ele>155.39999389648</ele>
        <time>2017-03-22T14:41:49Z</time>
      </trkpt>
      <trkpt lat="43.46731" lon="6.20612">
        <ele>156</ele>
        <time>2017-03-22T14:41:56Z</time>
      </trkpt>
      <trkpt lat="43.46731" lon="6.20612">
        <ele>156</ele>
        <time>2017-03-22T14:42:16Z</time>
      </trkpt>
      <trkpt lat="43.4673" lon="6.20612">
        <ele>155</ele>
        <time>2017-03-22T14:45:03Z</time>
      </trkpt>
      <trkpt lat="43.46727" lon="6.20614">
        <ele>155.19999694824</ele>
        <time>2017-03-22T14:45:06Z</time>
      </trkpt>
      <trkpt lat="43.46717" lon="6.20621">
        <ele>155.39999389648</ele>
        <time>2017-03-22T14:45:16Z</time>
      </trkpt>
      <trkpt lat="43.46705" lon="6.20631">
        <ele>156</ele>
        <time>2017-03-22T14:45:21Z</time>
      </trkpt>
      <trkpt lat="43.46698" lon="6.2064">
        <ele>156.19999694824</ele>
        <time>2017-03-22T14:45:24Z</time>
      </trkpt>
      <trkpt lat="43.46696" lon="6.20643">
        <ele>156.19999694824</ele>
        <time>2017-03-22T14:45:25Z</time>
      </trkpt>
      <trkpt lat="43.46693" lon="6.20646">
        <ele>156.19999694824</ele>
        <time>2017-03-22T14:45:26Z</time>
      </trkpt>
      <trkpt lat="43.46675" lon="6.20676">
        <ele>155.19999694824</ele>
        <time>2017-03-22T14:45:36Z</time>
      </trkpt>
      <trkpt lat="43.46677" lon="6.20717">
        <ele>155.19999694824</ele>
        <time>2017-03-22T14:45:46Z</time>
      </trkpt>
      <trkpt lat="43.46673" lon="6.20731">
        <ele>155.39999389648</ele>
        <time>2017-03-22T14:45:56Z</time>
      </trkpt>
      <trkpt lat="43.46673" lon="6.20731">
        <ele>155.39999389648</ele>
        <time>2017-03-22T14:46:01Z</time>
      </trkpt>
      <trkpt lat="43.46669" lon="6.20733">
        <ele>156</ele>
        <time>2017-03-22T14:46:06Z</time>
      </trkpt>
      <trkpt lat="43.46662" lon="6.20732">
        <ele>156</ele>
        <time>2017-03-22T14:46:12Z</time>
      </trkpt>
      <trkpt lat="43.46656" lon="6.20727">
        <ele>156.19999694824</ele>
        <time>2017-03-22T14:46:16Z</time>
      </trkpt>
      <trkpt lat="43.46648" lon="6.20723">
        <ele>157</ele>
        <time>2017-03-22T14:46:21Z</time>
      </trkpt>
      <trkpt lat="43.46643" lon="6.20721">
        <ele>157.39999389648</ele>
        <time>2017-03-22T14:46:26Z</time>
      </trkpt>
      <trkpt lat="43.46642" lon="6.20719">
        <ele>158</ele>
        <time>2017-03-22T14:46:33Z</time>
      </trkpt>
      <trkpt lat="43.46641" lon="6.2072">
        <ele>158.80000305176</ele>
        <time>2017-03-22T14:46:36Z</time>
      </trkpt>
      <trkpt lat="43.4664" lon="6.2072">
        <ele>159.19999694824</ele>
        <time>2017-03-22T14:46:38Z</time>
      </trkpt>
      <trkpt lat="43.46635" lon="6.20719">
        <ele>160.19999694824</ele>
        <time>2017-03-22T14:46:45Z</time>
      </trkpt>
      <trkpt lat="43.46634" lon="6.20719">
        <ele>160.19999694824</ele>
        <time>2017-03-22T14:46:46Z</time>
      </trkpt>
      <trkpt lat="43.4663" lon="6.2072">
        <ele>160.39999389648</ele>
        <time>2017-03-22T14:46:52Z</time>
      </trkpt>
      <trkpt lat="43.46627" lon="6.20722">
        <ele>160.39999389648</ele>
        <time>2017-03-22T14:46:55Z</time>
      </trkpt>
      <trkpt lat="43.46626" lon="6.20723">
        <ele>160.19999694824</ele>
        <time>2017-03-22T14:46:56Z</time>
      </trkpt>
      <trkpt lat="43.46623" lon="6.20722">
        <ele>160.19999694824</ele>
        <time>2017-03-22T14:46:59Z</time>
      </trkpt>
      <trkpt lat="43.46624" lon="6.20716">
        <ele>161.39999389648</ele>
        <time>2017-03-22T14:47:03Z</time>
      </trkpt>
      <trkpt lat="43.46625" lon="6.2071">
        <ele>162.60000610352</ele>
        <time>2017-03-22T14:47:07Z</time>
      </trkpt>
      <trkpt lat="43.46623" lon="6.20707">
        <ele>163</ele>
        <time>2017-03-22T14:47:09Z</time>
      </trkpt>
      <trkpt lat="43.46618" lon="6.20703">
        <ele>163.60000610352</ele>
        <time>2017-03-22T14:47:14Z</time>
      </trkpt>
      <trkpt lat="43.46617" lon="6.20701">
        <ele>163.80000305176</ele>
        <time>2017-03-22T14:47:16Z</time>
      </trkpt>
      <trkpt lat="43.46617" lon="6.20694">
        <ele>164.80000305176</ele>
        <time>2017-03-22T14:47:21Z</time>
      </trkpt>
      <trkpt lat="43.4662" lon="6.20685">
        <ele>165.60000610352</ele>
        <time>2017-03-22T14:47:26Z</time>
      </trkpt>
      <trkpt lat="43.46621" lon="6.2068">
        <ele>166</ele>
        <time>2017-03-22T14:47:29Z</time>
      </trkpt>
      <trkpt lat="43.46616" lon="6.20672">
        <ele>166.80000305176</ele>
        <time>2017-03-22T14:47:35Z</time>
      </trkpt>
      <trkpt lat="43.46616" lon="6.20672">
        <ele>166.80000305176</ele>
        <time>2017-03-22T14:47:36Z</time>
      </trkpt>
      <trkpt lat="43.46616" lon="6.20672">
        <ele>167</ele>
        <time>2017-03-22T14:47:37Z</time>
      </trkpt>
      <trkpt lat="43.46617" lon="6.20671">
        <ele>167.60000610352</ele>
        <time>2017-03-22T14:47:42Z</time>
      </trkpt>
      <trkpt lat="43.46619" lon="6.20671">
        <ele>167.19999694824</ele>
        <time>2017-03-22T14:47:46Z</time>
      </trkpt>
      <trkpt lat="43.46619" lon="6.20671">
        <ele>167</ele>
        <time>2017-03-22T14:47:48Z</time>
      </trkpt>
      <trkpt lat="43.46618" lon="6.20671">
        <ele>167</ele>
        <time>2017-03-22T14:47:54Z</time>
      </trkpt>
      <trkpt lat="43.46618" lon="6.20671">
        <ele>167</ele>
        <time>2017-03-22T14:47:56Z</time>
      </trkpt>
      <trkpt lat="43.46615" lon="6.20671">
        <ele>167</ele>
        <time>2017-03-22T14:47:59Z</time>
      </trkpt>
      <trkpt lat="43.46611" lon="6.20673">
        <ele>167</ele>
        <time>2017-03-22T14:48:02Z</time>
      </trkpt>
      <trkpt lat="43.46605" lon="6.20676">
        <ele>167</ele>
        <time>2017-03-22T14:48:06Z</time>
      </trkpt>
      <trkpt lat="43.466" lon="6.20679">
        <ele>166.80000305176</ele>
        <time>2017-03-22T14:48:09Z</time>
      </trkpt>
      <trkpt lat="43.46594" lon="6.20683">
        <ele>166.80000305176</ele>
        <time>2017-03-22T14:48:12Z</time>
      </trkpt>
      <trkpt lat="43.46586" lon="6.20692">
        <ele>167</ele>
        <time>2017-03-22T14:48:16Z</time>
      </trkpt>
      <trkpt lat="43.46566" lon="6.20713">
        <ele>167.19999694824</ele>
        <time>2017-03-22T14:48:26Z</time>
      </trkpt>
      <trkpt lat="43.46562" lon="6.20716">
        <ele>167.60000610352</ele>
        <time>2017-03-22T14:48:28Z</time>
      </trkpt>
      <trkpt lat="43.46553" lon="6.20719">
        <ele>168.19999694824</ele>
        <time>2017-03-22T14:48:31Z</time>
      </trkpt>
      <trkpt lat="43.4654" lon="6.20723">
        <ele>168.80000305176</ele>
        <time>2017-03-22T14:48:36Z</time>
      </trkpt>
      <trkpt lat="43.46531" lon="6.20725">
        <ele>169.19999694824</ele>
        <time>2017-03-22T14:48:39Z</time>
      </trkpt>
      <trkpt lat="43.46511" lon="6.20726">
        <ele>170</ele>
        <time>2017-03-22T14:48:46Z</time>
      </trkpt>
      <trkpt lat="43.46505" lon="6.20729">
        <ele>170.19999694824</ele>
        <time>2017-03-22T14:48:48Z</time>
      </trkpt>
      <trkpt lat="43.46496" lon="6.20751">
        <ele>171</ele>
        <time>2017-03-22T14:48:55Z</time>
      </trkpt>
      <trkpt lat="43.46495" lon="6.20758">
        <ele>171.39999389648</ele>
        <time>2017-03-22T14:48:57Z</time>
      </trkpt>
      <trkpt lat="43.46494" lon="6.20771">
        <ele>172.39999389648</ele>
        <time>2017-03-22T14:49:01Z</time>
      </trkpt>
      <trkpt lat="43.46484" lon="6.2079">
        <ele>173.60000610352</ele>
        <time>2017-03-22T14:49:07Z</time>
      </trkpt>
      <trkpt lat="43.46464" lon="6.20836">
        <ele>173</ele>
        <time>2017-03-22T14:49:18Z</time>
      </trkpt>
      <trkpt lat="43.46455" lon="6.20853">
        <ele>172.60000610352</ele>
        <time>2017-03-22T14:49:22Z</time>
      </trkpt>
      <trkpt lat="43.46442" lon="6.20864">
        <ele>172.60000610352</ele>
        <time>2017-03-22T14:49:26Z</time>
      </trkpt>
      <trkpt lat="43.46429" lon="6.20875">
        <ele>172.80000305176</ele>
        <time>2017-03-22T14:49:30Z</time>
      </trkpt>
      <trkpt lat="43.46415" lon="6.20882">
        <ele>172.19999694824</ele>
        <time>2017-03-22T14:49:33Z</time>
      </trkpt>
      <trkpt lat="43.46405" lon="6.20889">
        <ele>171.60000610352</ele>
        <time>2017-03-22T14:49:35Z</time>
      </trkpt>
      <trkpt lat="43.464" lon="6.20894">
        <ele>171.39999389648</ele>
        <time>2017-03-22T14:49:36Z</time>
      </trkpt>
      <trkpt lat="43.46387" lon="6.20905">
        <ele>170.60000610352</ele>
        <time>2017-03-22T14:49:39Z</time>
      </trkpt>
      <trkpt lat="43.46383" lon="6.20909">
        <ele>170.39999389648</ele>
        <time>2017-03-22T14:49:40Z</time>
      </trkpt>
      <trkpt lat="43.46375" lon="6.2091">
        <ele>170.19999694824</ele>
        <time>2017-03-22T14:49:42Z</time>
      </trkpt>
      <trkpt lat="43.46363" lon="6.20906">
        <ele>170.80000305176</ele>
        <time>2017-03-22T14:49:46Z</time>
      </trkpt>
      <trkpt lat="43.46353" lon="6.20901">
        <ele>171.19999694824</ele>
        <time>2017-03-22T14:49:49Z</time>
      </trkpt>
      <trkpt lat="43.46325" lon="6.20891">
        <ele>172</ele>
        <time>2017-03-22T14:49:56Z</time>
      </trkpt>
      <trkpt lat="43.46305" lon="6.20891">
        <ele>171.39999389648</ele>
        <time>2017-03-22T14:50:00Z</time>
      </trkpt>
      <trkpt lat="43.46274" lon="6.20892">
        <ele>170.39999389648</ele>
        <time>2017-03-22T14:50:06Z</time>
      </trkpt>
      <trkpt lat="43.46231" lon="6.20887">
        <ele>170.39999389648</ele>
        <time>2017-03-22T14:50:16Z</time>
      </trkpt>
      <trkpt lat="43.46216" lon="6.20883">
        <ele>170.39999389648</ele>
        <time>2017-03-22T14:50:20Z</time>
      </trkpt>
      <trkpt lat="43.46196" lon="6.20885">
        <ele>171.19999694824</ele>
        <time>2017-03-22T14:50:26Z</time>
      </trkpt>
      <trkpt lat="43.46175" lon="6.20886">
        <ele>171.80000305176</ele>
        <time>2017-03-22T14:50:32Z</time>
      </trkpt>
      <trkpt lat="43.46169" lon="6.20884">
        <ele>172.39999389648</ele>
        <time>2017-03-22T14:50:34Z</time>
      </trkpt>
      <trkpt lat="43.46165" lon="6.20881">
        <ele>172.80000305176</ele>
        <time>2017-03-22T14:50:35Z</time>
      </trkpt>
      <trkpt lat="43.46162" lon="6.20874">
        <ele>173.60000610352</ele>
        <time>2017-03-22T14:50:37Z</time>
      </trkpt>
      <trkpt lat="43.4616" lon="6.20868">
        <ele>174</ele>
        <time>2017-03-22T14:50:39Z</time>
      </trkpt>
      <trkpt lat="43.46152" lon="6.20842">
        <ele>173.19999694824</ele>
        <time>2017-03-22T14:50:46Z</time>
      </trkpt>
      <trkpt lat="43.46149" lon="6.20833">
        <ele>172.60000610352</ele>
        <time>2017-03-22T14:50:48Z</time>
      </trkpt>
      <trkpt lat="43.46143" lon="6.20816">
        <ele>171.39999389648</ele>
        <time>2017-03-22T14:50:52Z</time>
      </trkpt>
      <trkpt lat="43.46139" lon="6.208">
        <ele>171.39999389648</ele>
        <time>2017-03-22T14:50:56Z</time>
      </trkpt>
      <trkpt lat="43.46128" lon="6.2076">
        <ele>170.60000610352</ele>
        <time>2017-03-22T14:51:03Z</time>
      </trkpt>
      <trkpt lat="43.46125" lon="6.20754">
        <ele>170.19999694824</ele>
        <time>2017-03-22T14:51:04Z</time>
      </trkpt>
      <trkpt lat="43.46119" lon="6.20742">
        <ele>169.39999389648</ele>
        <time>2017-03-22T14:51:06Z</time>
      </trkpt>
      <trkpt lat="43.46116" lon="6.20735">
        <ele>169</ele>
        <time>2017-03-22T14:51:07Z</time>
      </trkpt>
      <trkpt lat="43.46113" lon="6.20729">
        <ele>168.80000305176</ele>
        <time>2017-03-22T14:51:08Z</time>
      </trkpt>
      <trkpt lat="43.46092" lon="6.20688">
        <ele>168.80000305176</ele>
        <time>2017-03-22T14:51:16Z</time>
      </trkpt>
      <trkpt lat="43.46067" lon="6.20652">
        <ele>169.60000610352</ele>
        <time>2017-03-22T14:51:24Z</time>
      </trkpt>
      <trkpt lat="43.46059" lon="6.20641">
        <ele>169.80000305176</ele>
        <time>2017-03-22T14:51:26Z</time>
      </trkpt>
      <trkpt lat="43.46045" lon="6.20622">
        <ele>170</ele>
        <time>2017-03-22T14:51:30Z</time>
      </trkpt>
      <trkpt lat="43.46019" lon="6.20599">
        <ele>169.80000305176</ele>
        <time>2017-03-22T14:51:36Z</time>
      </trkpt>
      <trkpt lat="43.45984" lon="6.20575">
        <ele>169.60000610352</ele>
        <time>2017-03-22T14:51:43Z</time>
      </trkpt>
      <trkpt lat="43.45969" lon="6.20566">
        <ele>169.39999389648</ele>
        <time>2017-03-22T14:51:46Z</time>
      </trkpt>
      <trkpt lat="43.45964" lon="6.20563">
        <ele>169.39999389648</ele>
        <time>2017-03-22T14:51:47Z</time>
      </trkpt>
      <trkpt lat="43.45932" lon="6.20552">
        <ele>170</ele>
        <time>2017-03-22T14:51:53Z</time>
      </trkpt>
      <trkpt lat="43.45916" lon="6.20548">
        <ele>170.19999694824</ele>
        <time>2017-03-22T14:51:56Z</time>
      </trkpt>
      <trkpt lat="43.45895" lon="6.20545">
        <ele>169.80000305176</ele>
        <time>2017-03-22T14:52:00Z</time>
      </trkpt>
      <trkpt lat="43.45864" lon="6.20546">
        <ele>169.60000610352</ele>
        <time>2017-03-22T14:52:06Z</time>
      </trkpt>
      <trkpt lat="43.45837" lon="6.20549">
        <ele>170</ele>
        <time>2017-03-22T14:52:11Z</time>
      </trkpt>
      <trkpt lat="43.45812" lon="6.20553">
        <ele>170</ele>
        <time>2017-03-22T14:52:16Z</time>
      </trkpt>
      <trkpt lat="43.45798" lon="6.20557">
        <ele>170</ele>
        <time>2017-03-22T14:52:19Z</time>
      </trkpt>
      <trkpt lat="43.45764" lon="6.20562">
        <ele>170.60000610352</ele>
        <time>2017-03-22T14:52:26Z</time>
      </trkpt>
      <trkpt lat="43.45754" lon="6.20564">
        <ele>170.60000610352</ele>
        <time>2017-03-22T14:52:28Z</time>
      </trkpt>
      <trkpt lat="43.45713" lon="6.20576">
        <ele>171</ele>
        <time>2017-03-22T14:52:36Z</time>
      </trkpt>
      <trkpt lat="43.45685" lon="6.20585">
        <ele>171.39999389648</ele>
        <time>2017-03-22T14:52:41Z</time>
      </trkpt>
      <trkpt lat="43.45658" lon="6.20592">
        <ele>171.19999694824</ele>
        <time>2017-03-22T14:52:46Z</time>
      </trkpt>
      <trkpt lat="43.45653" lon="6.20594">
        <ele>171</ele>
        <time>2017-03-22T14:52:47Z</time>
      </trkpt>
      <trkpt lat="43.45612" lon="6.20639">
        <ele>171</ele>
        <time>2017-03-22T14:52:56Z</time>
      </trkpt>
      <trkpt lat="43.4558" lon="6.20669">
        <ele>171</ele>
        <time>2017-03-22T14:53:03Z</time>
      </trkpt>
      <trkpt lat="43.45571" lon="6.20675">
        <ele>171.19999694824</ele>
        <time>2017-03-22T14:53:05Z</time>
      </trkpt>
      <trkpt lat="43.45567" lon="6.20677">
        <ele>171.39999389648</ele>
        <time>2017-03-22T14:53:06Z</time>
      </trkpt>
      <trkpt lat="43.45538" lon="6.20695">
        <ele>172</ele>
        <time>2017-03-22T14:53:12Z</time>
      </trkpt>
      <trkpt lat="43.45521" lon="6.20713">
        <ele>171.60000610352</ele>
        <time>2017-03-22T14:53:16Z</time>
      </trkpt>
      <trkpt lat="43.45494" lon="6.20754">
        <ele>171.39999389648</ele>
        <time>2017-03-22T14:53:23Z</time>
      </trkpt>
      <trkpt lat="43.45486" lon="6.20762">
        <ele>171.80000305176</ele>
        <time>2017-03-22T14:53:25Z</time>
      </trkpt>
      <trkpt lat="43.45473" lon="6.20773">
        <ele>171.80000305176</ele>
        <time>2017-03-22T14:53:28Z</time>
      </trkpt>
      <trkpt lat="43.45461" lon="6.20782">
        <ele>171.60000610352</ele>
        <time>2017-03-22T14:53:31Z</time>
      </trkpt>
      <trkpt lat="43.45441" lon="6.20795">
        <ele>171.80000305176</ele>
        <time>2017-03-22T14:53:36Z</time>
      </trkpt>
      <trkpt lat="43.45428" lon="6.20802">
        <ele>172.19999694824</ele>
        <time>2017-03-22T14:53:39Z</time>
      </trkpt>
      <trkpt lat="43.45412" lon="6.20804">
        <ele>172.39999389648</ele>
        <time>2017-03-22T14:53:43Z</time>
      </trkpt>
      <trkpt lat="43.45404" lon="6.20802">
        <ele>172.39999389648</ele>
        <time>2017-03-22T14:53:45Z</time>
      </trkpt>
      <trkpt lat="43.454" lon="6.20799">
        <ele>172.60000610352</ele>
        <time>2017-03-22T14:53:46Z</time>
      </trkpt>
      <trkpt lat="43.45387" lon="6.20787">
        <ele>172.60000610352</ele>
        <time>2017-03-22T14:53:50Z</time>
      </trkpt>
      <trkpt lat="43.45365" lon="6.20764">
        <ele>172.80000305176</ele>
        <time>2017-03-22T14:53:56Z</time>
      </trkpt>
      <trkpt lat="43.45329" lon="6.20726">
        <ele>172.80000305176</ele>
        <time>2017-03-22T14:54:06Z</time>
      </trkpt>
      <trkpt lat="43.45326" lon="6.20721">
        <ele>172.80000305176</ele>
        <time>2017-03-22T14:54:07Z</time>
      </trkpt>
      <trkpt lat="43.45318" lon="6.20712">
        <ele>173</ele>
        <time>2017-03-22T14:54:09Z</time>
      </trkpt>
      <trkpt lat="43.45294" lon="6.20685">
        <ele>172.80000305176</ele>
        <time>2017-03-22T14:54:16Z</time>
      </trkpt>
      <trkpt lat="43.45271" lon="6.20649">
        <ele>172.80000305176</ele>
        <time>2017-03-22T14:54:23Z</time>
      </trkpt>
      <trkpt lat="43.45264" lon="6.20633">
        <ele>172.60000610352</ele>
        <time>2017-03-22T14:54:26Z</time>
      </trkpt>
      <trkpt lat="43.45242" lon="6.20584">
        <ele>172</ele>
        <time>2017-03-22T14:54:36Z</time>
      </trkpt>
      <trkpt lat="43.45229" lon="6.20567">
        <ele>171.39999389648</ele>
        <time>2017-03-22T14:54:40Z</time>
      </trkpt>
      <trkpt lat="43.45221" lon="6.20558">
        <ele>171.39999389648</ele>
        <time>2017-03-22T14:54:42Z</time>
      </trkpt>
      <trkpt lat="43.4521" lon="6.2055">
        <ele>171.39999389648</ele>
        <time>2017-03-22T14:54:44Z</time>
      </trkpt>
      <trkpt lat="43.45205" lon="6.20546">
        <ele>171.19999694824</ele>
        <time>2017-03-22T14:54:45Z</time>
      </trkpt>
      <trkpt lat="43.45201" lon="6.2054">
        <ele>171.19999694824</ele>
        <time>2017-03-22T14:54:46Z</time>
      </trkpt>
      <trkpt lat="43.45189" lon="6.20524">
        <ele>170.60000610352</ele>
        <time>2017-03-22T14:54:49Z</time>
      </trkpt>
      <trkpt lat="43.45177" lon="6.20508">
        <ele>170.39999389648</ele>
        <time>2017-03-22T14:54:53Z</time>
      </trkpt>
      <trkpt lat="43.45171" lon="6.20497">
        <ele>170.80000305176</ele>
        <time>2017-03-22T14:54:56Z</time>
      </trkpt>
      <trkpt lat="43.45156" lon="6.20469">
        <ele>171.80000305176</ele>
        <time>2017-03-22T14:55:04Z</time>
      </trkpt>
      <trkpt lat="43.45153" lon="6.20464">
        <ele>171.60000610352</ele>
        <time>2017-03-22T14:55:06Z</time>
      </trkpt>
      <trkpt lat="43.45136" lon="6.2043">
        <ele>171</ele>
        <time>2017-03-22T14:55:16Z</time>
      </trkpt>
      <trkpt lat="43.45121" lon="6.20404">
        <ele>171</ele>
        <time>2017-03-22T14:55:23Z</time>
      </trkpt>
      <trkpt lat="43.45117" lon="6.2039">
        <ele>170.80000305176</ele>
        <time>2017-03-22T14:55:26Z</time>
      </trkpt>
      <trkpt lat="43.45114" lon="6.20375">
        <ele>170.19999694824</ele>
        <time>2017-03-22T14:55:29Z</time>
      </trkpt>
      <trkpt lat="43.4512" lon="6.20341">
        <ele>169.39999389648</ele>
        <time>2017-03-22T14:55:36Z</time>
      </trkpt>
      <trkpt lat="43.45125" lon="6.20315">
        <ele>169</ele>
        <time>2017-03-22T14:55:41Z</time>
      </trkpt>
      <trkpt lat="43.45131" lon="6.20291">
        <ele>168.39999389648</ele>
        <time>2017-03-22T14:55:46Z</time>
      </trkpt>
      <trkpt lat="43.45136" lon="6.20274">
        <ele>168.80000305176</ele>
        <time>2017-03-22T14:55:49Z</time>
      </trkpt>
      <trkpt lat="43.45145" lon="6.20236">
        <ele>170</ele>
        <time>2017-03-22T14:55:56Z</time>
      </trkpt>
      <trkpt lat="43.45149" lon="6.20189">
        <ele>168.39999389648</ele>
        <time>2017-03-22T14:56:05Z</time>
      </trkpt>
      <trkpt lat="43.4515" lon="6.20183">
        <ele>168.19999694824</ele>
        <time>2017-03-22T14:56:06Z</time>
      </trkpt>
      <trkpt lat="43.45149" lon="6.20147">
        <ele>169.39999389648</ele>
        <time>2017-03-22T14:56:12Z</time>
      </trkpt>
      <trkpt lat="43.45151" lon="6.20121">
        <ele>169.19999694824</ele>
        <time>2017-03-22T14:56:16Z</time>
      </trkpt>
      <trkpt lat="43.45158" lon="6.20074">
        <ele>169.80000305176</ele>
        <time>2017-03-22T14:56:24Z</time>
      </trkpt>
      <trkpt lat="43.45158" lon="6.20061">
        <ele>170</ele>
        <time>2017-03-22T14:56:26Z</time>
      </trkpt>
      <trkpt lat="43.45157" lon="6.2001">
        <ele>170</ele>
        <time>2017-03-22T14:56:34Z</time>
      </trkpt>
      <trkpt lat="43.45158" lon="6.19998">
        <ele>170.19999694824</ele>
        <time>2017-03-22T14:56:36Z</time>
      </trkpt>
      <trkpt lat="43.45157" lon="6.19977">
        <ele>171.39999389648</ele>
        <time>2017-03-22T14:56:40Z</time>
      </trkpt>
      <trkpt lat="43.45152" lon="6.19937">
        <ele>171</ele>
        <time>2017-03-22T14:56:46Z</time>
      </trkpt>
      <trkpt lat="43.45151" lon="6.19923">
        <ele>170</ele>
        <time>2017-03-22T14:56:48Z</time>
      </trkpt>
      <trkpt lat="43.45145" lon="6.19867">
        <ele>169.60000610352</ele>
        <time>2017-03-22T14:56:56Z</time>
      </trkpt>
      <trkpt lat="43.45144" lon="6.19844">
        <ele>170.19999694824</ele>
        <time>2017-03-22T14:57:00Z</time>
      </trkpt>
      <trkpt lat="43.4514" lon="6.19812">
        <ele>170.80000305176</ele>
        <time>2017-03-22T14:57:06Z</time>
      </trkpt>
      <trkpt lat="43.45118" lon="6.19758">
        <ele>170</ele>
        <time>2017-03-22T14:57:16Z</time>
      </trkpt>
      <trkpt lat="43.45108" lon="6.19739">
        <ele>170.19999694824</ele>
        <time>2017-03-22T14:57:20Z</time>
      </trkpt>
      <trkpt lat="43.45088" lon="6.19719">
        <ele>171.19999694824</ele>
        <time>2017-03-22T14:57:26Z</time>
      </trkpt>
      <trkpt lat="43.45047" lon="6.19693">
        <ele>171</ele>
        <time>2017-03-22T14:57:36Z</time>
      </trkpt>
      <trkpt lat="43.45026" lon="6.1968">
        <ele>170.60000610352</ele>
        <time>2017-03-22T14:57:41Z</time>
      </trkpt>
      <trkpt lat="43.45015" lon="6.19667">
        <ele>170.80000305176</ele>
        <time>2017-03-22T14:57:44Z</time>
      </trkpt>
      <trkpt lat="43.45007" lon="6.1966">
        <ele>170.39999389648</ele>
        <time>2017-03-22T14:57:46Z</time>
      </trkpt>
      <trkpt lat="43.4497" lon="6.19625">
        <ele>170.60000610352</ele>
        <time>2017-03-22T14:57:56Z</time>
      </trkpt>
      <trkpt lat="43.44934" lon="6.19594">
        <ele>171</ele>
        <time>2017-03-22T14:58:06Z</time>
      </trkpt>
      <trkpt lat="43.44909" lon="6.19553">
        <ele>171.39999389648</ele>
        <time>2017-03-22T14:58:16Z</time>
      </trkpt>
      <trkpt lat="43.44886" lon="6.19505">
        <ele>170.39999389648</ele>
        <time>2017-03-22T14:58:26Z</time>
      </trkpt>
      <trkpt lat="43.4487" lon="6.19464">
        <ele>170</ele>
        <time>2017-03-22T14:58:34Z</time>
      </trkpt>
      <trkpt lat="43.44865" lon="6.19455">
        <ele>169.80000305176</ele>
        <time>2017-03-22T14:58:36Z</time>
      </trkpt>
      <trkpt lat="43.4485" lon="6.19408">
        <ele>171</ele>
        <time>2017-03-22T14:58:49Z</time>
      </trkpt>
      <trkpt lat="43.44846" lon="6.19399">
        <ele>171.80000305176</ele>
        <time>2017-03-22T14:58:52Z</time>
      </trkpt>
      <trkpt lat="43.44844" lon="6.19396">
        <ele>172.19999694824</ele>
        <time>2017-03-22T14:58:53Z</time>
      </trkpt>
      <trkpt lat="43.44839" lon="6.19388">
        <ele>172.80000305176</ele>
        <time>2017-03-22T14:58:56Z</time>
      </trkpt>
      <trkpt lat="43.44833" lon="6.19378">
        <ele>173.19999694824</ele>
        <time>2017-03-22T14:59:00Z</time>
      </trkpt>
      <trkpt lat="43.44829" lon="6.19371">
        <ele>173.39999389648</ele>
        <time>2017-03-22T14:59:04Z</time>
      </trkpt>
      <trkpt lat="43.44826" lon="6.19368">
        <ele>173.39999389648</ele>
        <time>2017-03-22T14:59:06Z</time>
      </trkpt>
      <trkpt lat="43.44824" lon="6.19365">
        <ele>173.60000610352</ele>
        <time>2017-03-22T14:59:12Z</time>
      </trkpt>
      <trkpt lat="43.44824" lon="6.19365">
        <ele>173.60000610352</ele>
        <time>2017-03-22T14:59:21Z</time>
      </trkpt>
      <trkpt lat="43.44824" lon="6.19365">
        <ele>173.60000610352</ele>
        <time>2017-03-22T14:59:53Z</time>
      </trkpt>
      <trkpt lat="43.44823" lon="6.19361">
        <ele>173.39999389648</ele>
        <time>2017-03-22T14:59:56Z</time>
      </trkpt>
      <trkpt lat="43.44823" lon="6.19355">
        <ele>173.39999389648</ele>
        <time>2017-03-22T14:59:58Z</time>
      </trkpt>
      <trkpt lat="43.44823" lon="6.19346">
        <ele>173.80000305176</ele>
        <time>2017-03-22T15:00:01Z</time>
      </trkpt>
      <trkpt lat="43.44823" lon="6.19334">
        <ele>174.39999389648</ele>
        <time>2017-03-22T15:00:05Z</time>
      </trkpt>
      <trkpt lat="43.44824" lon="6.19332">
        <ele>174.60000610352</ele>
        <time>2017-03-22T15:00:06Z</time>
      </trkpt>
      <trkpt lat="43.44825" lon="6.19323">
        <ele>174.80000305176</ele>
        <time>2017-03-22T15:00:10Z</time>
      </trkpt>
      <trkpt lat="43.44826" lon="6.19315">
        <ele>175.39999389648</ele>
        <time>2017-03-22T15:00:14Z</time>
      </trkpt>
      <trkpt lat="43.44827" lon="6.19315">
        <ele>176</ele>
        <time>2017-03-22T15:00:16Z</time>
      </trkpt>
      <trkpt lat="43.44827" lon="6.19313">
        <ele>176.39999389648</ele>
        <time>2017-03-22T15:00:26Z</time>
      </trkpt>
      <trkpt lat="43.44824" lon="6.1931">
        <ele>176.39999389648</ele>
        <time>2017-03-22T15:00:35Z</time>
      </trkpt>
      <trkpt lat="43.44823" lon="6.19309">
        <ele>176.39999389648</ele>
        <time>2017-03-22T15:00:36Z</time>
      </trkpt>
      <trkpt lat="43.44822" lon="6.19302">
        <ele>176.60000610352</ele>
        <time>2017-03-22T15:00:39Z</time>
      </trkpt>
      <trkpt lat="43.4482" lon="6.19289">
        <ele>176.19999694824</ele>
        <time>2017-03-22T15:00:44Z</time>
      </trkpt>
      <trkpt lat="43.44819" lon="6.19283">
        <ele>176.39999389648</ele>
        <time>2017-03-22T15:00:46Z</time>
      </trkpt>
      <trkpt lat="43.44819" lon="6.19277">
        <ele>176.80000305176</ele>
        <time>2017-03-22T15:00:48Z</time>
      </trkpt>
      <trkpt lat="43.44821" lon="6.19263">
        <ele>177.39999389648</ele>
        <time>2017-03-22T15:00:53Z</time>
      </trkpt>
      <trkpt lat="43.44822" lon="6.19257">
        <ele>177.60000610352</ele>
        <time>2017-03-22T15:00:56Z</time>
      </trkpt>
      <trkpt lat="43.44822" lon="6.19252">
        <ele>178</ele>
        <time>2017-03-22T15:00:58Z</time>
      </trkpt>
      <trkpt lat="43.44825" lon="6.19236">
        <ele>178.39999389648</ele>
        <time>2017-03-22T15:01:03Z</time>
      </trkpt>
      <trkpt lat="43.44827" lon="6.19231">
        <ele>178.60000610352</ele>
        <time>2017-03-22T15:01:06Z</time>
      </trkpt>
      <trkpt lat="43.44827" lon="6.19227">
        <ele>179.19999694824</ele>
        <time>2017-03-22T15:01:16Z</time>
      </trkpt>
      <trkpt lat="43.44828" lon="6.19224">
        <ele>179.60000610352</ele>
        <time>2017-03-22T15:01:23Z</time>
      </trkpt>
      <trkpt lat="43.44829" lon="6.19223">
        <ele>179.60000610352</ele>
        <time>2017-03-22T15:01:26Z</time>
      </trkpt>
      <trkpt lat="43.44831" lon="6.19219">
        <ele>179.80000305176</ele>
        <time>2017-03-22T15:01:30Z</time>
      </trkpt>
      <trkpt lat="43.44833" lon="6.19208">
        <ele>179.80000305176</ele>
        <time>2017-03-22T15:01:36Z</time>
      </trkpt>
      <trkpt lat="43.4484" lon="6.19183">
        <ele>179.80000305176</ele>
        <time>2017-03-22T15:01:46Z</time>
      </trkpt>
      <trkpt lat="43.44844" lon="6.19171">
        <ele>180.39999389648</ele>
        <time>2017-03-22T15:01:50Z</time>
      </trkpt>
      <trkpt lat="43.44845" lon="6.19167">
        <ele>180.60000610352</ele>
        <time>2017-03-22T15:01:52Z</time>
      </trkpt>
      <trkpt lat="43.44846" lon="6.19167">
        <ele>180.60000610352</ele>
        <time>2017-03-22T15:01:54Z</time>
      </trkpt>
      <trkpt lat="43.44846" lon="6.19167">
        <ele>180.60000610352</ele>
        <time>2017-03-22T15:01:56Z</time>
      </trkpt>
      <trkpt lat="43.44847" lon="6.19164">
        <ele>181.19999694824</ele>
        <time>2017-03-22T15:02:08Z</time>
      </trkpt>
      <trkpt lat="43.44847" lon="6.19163">
        <ele>181.19999694824</ele>
        <time>2017-03-22T15:02:12Z</time>
      </trkpt>
      <trkpt lat="43.44847" lon="6.19162">
        <ele>181.39999389648</ele>
        <time>2017-03-22T15:02:16Z</time>
      </trkpt>
      <trkpt lat="43.44847" lon="6.19162">
        <ele>181.39999389648</ele>
        <time>2017-03-22T15:02:21Z</time>
      </trkpt>
      <trkpt lat="43.44848" lon="6.1916">
        <ele>181.60000610352</ele>
        <time>2017-03-22T15:02:26Z</time>
      </trkpt>
      <trkpt lat="43.44849" lon="6.19156">
        <ele>181.60000610352</ele>
        <time>2017-03-22T15:02:28Z</time>
      </trkpt>
      <trkpt lat="43.44855" lon="6.19136">
        <ele>182.39999389648</ele>
        <time>2017-03-22T15:02:36Z</time>
      </trkpt>
      <trkpt lat="43.44855" lon="6.19124">
        <ele>182.60000610352</ele>
        <time>2017-03-22T15:02:41Z</time>
      </trkpt>
      <trkpt lat="43.44854" lon="6.19112">
        <ele>183.39999389648</ele>
        <time>2017-03-22T15:02:46Z</time>
      </trkpt>
      <trkpt lat="43.44852" lon="6.19103">
        <ele>184.19999694824</ele>
        <time>2017-03-22T15:02:51Z</time>
      </trkpt>
      <trkpt lat="43.44849" lon="6.19095">
        <ele>184.39999389648</ele>
        <time>2017-03-22T15:02:56Z</time>
      </trkpt>
      <trkpt lat="43.44849" lon="6.19089">
        <ele>184.80000305176</ele>
        <time>2017-03-22T15:02:59Z</time>
      </trkpt>
      <trkpt lat="43.44847" lon="6.19081">
        <ele>185.80000305176</ele>
        <time>2017-03-22T15:03:03Z</time>
      </trkpt>
      <trkpt lat="43.44847" lon="6.19075">
        <ele>186</ele>
        <time>2017-03-22T15:03:06Z</time>
      </trkpt>
      <trkpt lat="43.44847" lon="6.19064">
        <ele>187</ele>
        <time>2017-03-22T15:03:11Z</time>
      </trkpt>
      <trkpt lat="43.44846" lon="6.19054">
        <ele>188</ele>
        <time>2017-03-22T15:03:16Z</time>
      </trkpt>
      <trkpt lat="43.44846" lon="6.19042">
        <ele>189</ele>
        <time>2017-03-22T15:03:22Z</time>
      </trkpt>
      <trkpt lat="43.44846" lon="6.1904">
        <ele>189.19999694824</ele>
        <time>2017-03-22T15:03:23Z</time>
      </trkpt>
      <trkpt lat="43.44844" lon="6.19036">
        <ele>189.60000610352</ele>
        <time>2017-03-22T15:03:26Z</time>
      </trkpt>
      <trkpt lat="43.44844" lon="6.19034">
        <ele>189.60000610352</ele>
        <time>2017-03-22T15:03:27Z</time>
      </trkpt>
      <trkpt lat="43.44845" lon="6.19029">
        <ele>189.80000305176</ele>
        <time>2017-03-22T15:03:30Z</time>
      </trkpt>
      <trkpt lat="43.44846" lon="6.19025">
        <ele>190.19999694824</ele>
        <time>2017-03-22T15:03:32Z</time>
      </trkpt>
      <trkpt lat="43.44849" lon="6.19018">
        <ele>190.60000610352</ele>
        <time>2017-03-22T15:03:36Z</time>
      </trkpt>
      <trkpt lat="43.4485" lon="6.1901">
        <ele>192.60000610352</ele>
        <time>2017-03-22T15:03:41Z</time>
      </trkpt>
      <trkpt lat="43.44851" lon="6.19">
        <ele>193</ele>
        <time>2017-03-22T15:03:46Z</time>
      </trkpt>
      <trkpt lat="43.44852" lon="6.18993">
        <ele>193.60000610352</ele>
        <time>2017-03-22T15:03:50Z</time>
      </trkpt>
      <trkpt lat="43.44853" lon="6.1899">
        <ele>194.60000610352</ele>
        <time>2017-03-22T15:03:55Z</time>
      </trkpt>
      <trkpt lat="43.44853" lon="6.1899">
        <ele>194.60000610352</ele>
        <time>2017-03-22T15:03:56Z</time>
      </trkpt>
      <trkpt lat="43.44853" lon="6.1899">
        <ele>194.60000610352</ele>
        <time>2017-03-22T15:04:00Z</time>
      </trkpt>
      <trkpt lat="43.44853" lon="6.18989">
        <ele>194.80000305176</ele>
        <time>2017-03-22T15:04:04Z</time>
      </trkpt>
      <trkpt lat="43.44854" lon="6.18988">
        <ele>194.80000305176</ele>
        <time>2017-03-22T15:04:06Z</time>
      </trkpt>
      <trkpt lat="43.44857" lon="6.18981">
        <ele>194.60000610352</ele>
        <time>2017-03-22T15:04:12Z</time>
      </trkpt>
      <trkpt lat="43.4486" lon="6.18973">
        <ele>195.19999694824</ele>
        <time>2017-03-22T15:04:16Z</time>
      </trkpt>
      <trkpt lat="43.44862" lon="6.18969">
        <ele>195.39999389648</ele>
        <time>2017-03-22T15:04:18Z</time>
      </trkpt>
      <trkpt lat="43.44864" lon="6.18966">
        <ele>195.80000305176</ele>
        <time>2017-03-22T15:04:20Z</time>
      </trkpt>
      <trkpt lat="43.44867" lon="6.18954">
        <ele>196</ele>
        <time>2017-03-22T15:04:26Z</time>
      </trkpt>
      <trkpt lat="43.44873" lon="6.18944">
        <ele>196.80000305176</ele>
        <time>2017-03-22T15:04:32Z</time>
      </trkpt>
      <trkpt lat="43.44876" lon="6.18935">
        <ele>197.80000305176</ele>
        <time>2017-03-22T15:04:37Z</time>
      </trkpt>
      <trkpt lat="43.44883" lon="6.18916">
        <ele>199</ele>
        <time>2017-03-22T15:04:47Z</time>
      </trkpt>
      <trkpt lat="43.44888" lon="6.18907">
        <ele>199.39999389648</ele>
        <time>2017-03-22T15:04:52Z</time>
      </trkpt>
      <trkpt lat="43.44891" lon="6.18901">
        <ele>200.19999694824</ele>
        <time>2017-03-22T15:04:56Z</time>
      </trkpt>
      <trkpt lat="43.44897" lon="6.18882">
        <ele>201.60000610352</ele>
        <time>2017-03-22T15:05:06Z</time>
      </trkpt>
      <trkpt lat="43.449" lon="6.18874">
        <ele>202.19999694824</ele>
        <time>2017-03-22T15:05:11Z</time>
      </trkpt>
      <trkpt lat="43.44907" lon="6.1886">
        <ele>203.19999694824</ele>
        <time>2017-03-22T15:05:19Z</time>
      </trkpt>
      <trkpt lat="43.44912" lon="6.1885">
        <ele>204.39999389648</ele>
        <time>2017-03-22T15:05:25Z</time>
      </trkpt>
      <trkpt lat="43.44913" lon="6.18847">
        <ele>204.39999389648</ele>
        <time>2017-03-22T15:05:27Z</time>
      </trkpt>
      <trkpt lat="43.44926" lon="6.1883">
        <ele>206.60000610352</ele>
        <time>2017-03-22T15:05:39Z</time>
      </trkpt>
      <trkpt lat="43.4493" lon="6.18822">
        <ele>207.80000305176</ele>
        <time>2017-03-22T15:05:45Z</time>
      </trkpt>
      <trkpt lat="43.4493" lon="6.1882">
        <ele>208</ele>
        <time>2017-03-22T15:05:46Z</time>
      </trkpt>
      <trkpt lat="43.44931" lon="6.18811">
        <ele>208.80000305176</ele>
        <time>2017-03-22T15:05:51Z</time>
      </trkpt>
      <trkpt lat="43.44932" lon="6.18802">
        <ele>209.80000305176</ele>
        <time>2017-03-22T15:05:56Z</time>
      </trkpt>
      <trkpt lat="43.44933" lon="6.188">
        <ele>210</ele>
        <time>2017-03-22T15:05:57Z</time>
      </trkpt>
      <trkpt lat="43.44931" lon="6.18794">
        <ele>210.80000305176</ele>
        <time>2017-03-22T15:06:02Z</time>
      </trkpt>
      <trkpt lat="43.44931" lon="6.18794">
        <ele>211.19999694824</ele>
        <time>2017-03-22T15:06:06Z</time>
      </trkpt>
      <trkpt lat="43.44932" lon="6.18793">
        <ele>211.19999694824</ele>
        <time>2017-03-22T15:06:10Z</time>
      </trkpt>
      <trkpt lat="43.44933" lon="6.1879">
        <ele>211.39999389648</ele>
        <time>2017-03-22T15:06:14Z</time>
      </trkpt>
      <trkpt lat="43.44933" lon="6.18789">
        <ele>211.80000305176</ele>
        <time>2017-03-22T15:06:16Z</time>
      </trkpt>
      <trkpt lat="43.44933" lon="6.18786">
        <ele>212.19999694824</ele>
        <time>2017-03-22T15:06:21Z</time>
      </trkpt>
      <trkpt lat="43.44933" lon="6.18784">
        <ele>212.19999694824</ele>
        <time>2017-03-22T15:06:26Z</time>
      </trkpt>
      <trkpt lat="43.44933" lon="6.18783">
        <ele>212.39999389648</ele>
        <time>2017-03-22T15:06:31Z</time>
      </trkpt>
      <trkpt lat="43.44933" lon="6.18783">
        <ele>212.39999389648</ele>
        <time>2017-03-22T15:06:33Z</time>
      </trkpt>
      <trkpt lat="43.44933" lon="6.18783">
        <ele>212.39999389648</ele>
        <time>2017-03-22T15:06:36Z</time>
      </trkpt>
      <trkpt lat="43.44934" lon="6.18783">
        <ele>212.19999694824</ele>
        <time>2017-03-22T15:06:48Z</time>
      </trkpt>
      <trkpt lat="43.44934" lon="6.18783">
        <ele>212.19999694824</ele>
        <time>2017-03-22T15:06:53Z</time>
      </trkpt>
      <trkpt lat="43.44934" lon="6.18782">
        <ele>212.19999694824</ele>
        <time>2017-03-22T15:06:54Z</time>
      </trkpt>
      <trkpt lat="43.44935" lon="6.18778">
        <ele>212.19999694824</ele>
        <time>2017-03-22T15:06:56Z</time>
      </trkpt>
      <trkpt lat="43.44936" lon="6.18771">
        <ele>212.80000305176</ele>
        <time>2017-03-22T15:07:00Z</time>
      </trkpt>
      <trkpt lat="43.44936" lon="6.18769">
        <ele>213</ele>
        <time>2017-03-22T15:07:01Z</time>
      </trkpt>
      <trkpt lat="43.44938" lon="6.18764">
        <ele>213.80000305176</ele>
        <time>2017-03-22T15:07:03Z</time>
      </trkpt>
      <trkpt lat="43.44939" lon="6.18758">
        <ele>214.39999389648</ele>
        <time>2017-03-22T15:07:06Z</time>
      </trkpt>
      <trkpt lat="43.44944" lon="6.18747">
        <ele>216.60000610352</ele>
        <time>2017-03-22T15:07:11Z</time>
      </trkpt>
      <trkpt lat="43.44946" lon="6.18739">
        <ele>217.60000610352</ele>
        <time>2017-03-22T15:07:15Z</time>
      </trkpt>
      <trkpt lat="43.4495" lon="6.18734">
        <ele>218.60000610352</ele>
        <time>2017-03-22T15:07:19Z</time>
      </trkpt>
      <trkpt lat="43.44951" lon="6.18731">
        <ele>219</ele>
        <time>2017-03-22T15:07:21Z</time>
      </trkpt>
      <trkpt lat="43.44952" lon="6.1873">
        <ele>219.19999694824</ele>
        <time>2017-03-22T15:07:22Z</time>
      </trkpt>
      <trkpt lat="43.44955" lon="6.18727">
        <ele>220.19999694824</ele>
        <time>2017-03-22T15:07:25Z</time>
      </trkpt>
      <trkpt lat="43.44955" lon="6.18726">
        <ele>220.39999389648</ele>
        <time>2017-03-22T15:07:26Z</time>
      </trkpt>
      <trkpt lat="43.44961" lon="6.18715">
        <ele>221.39999389648</ele>
        <time>2017-03-22T15:07:35Z</time>
      </trkpt>
      <trkpt lat="43.44962" lon="6.18714">
        <ele>221.60000610352</ele>
        <time>2017-03-22T15:07:36Z</time>
      </trkpt>
      <trkpt lat="43.44968" lon="6.18708">
        <ele>222.19999694824</ele>
        <time>2017-03-22T15:07:42Z</time>
      </trkpt>
      <trkpt lat="43.4497" lon="6.18705">
        <ele>222.39999389648</ele>
        <time>2017-03-22T15:07:44Z</time>
      </trkpt>
      <trkpt lat="43.44973" lon="6.18698">
        <ele>222.80000305176</ele>
        <time>2017-03-22T15:07:49Z</time>
      </trkpt>
      <trkpt lat="43.44975" lon="6.18694">
        <ele>223</ele>
        <time>2017-03-22T15:07:52Z</time>
      </trkpt>
      <trkpt lat="43.44979" lon="6.18688">
        <ele>223</ele>
        <time>2017-03-22T15:07:56Z</time>
      </trkpt>
      <trkpt lat="43.44979" lon="6.18687">
        <ele>223.39999389648</ele>
        <time>2017-03-22T15:07:57Z</time>
      </trkpt>
      <trkpt lat="43.44978" lon="6.18685">
        <ele>224.39999389648</ele>
        <time>2017-03-22T15:08:04Z</time>
      </trkpt>
      <trkpt lat="43.44978" lon="6.18685">
        <ele>224.39999389648</ele>
        <time>2017-03-22T15:08:06Z</time>
      </trkpt>
      <trkpt lat="43.44978" lon="6.18684">
        <ele>224.19999694824</ele>
        <time>2017-03-22T15:08:16Z</time>
      </trkpt>
      <trkpt lat="43.44978" lon="6.18684">
        <ele>224.60000610352</ele>
        <time>2017-03-22T15:08:23Z</time>
      </trkpt>
      <trkpt lat="43.44979" lon="6.18684">
        <ele>225.19999694824</ele>
        <time>2017-03-22T15:08:32Z</time>
      </trkpt>
      <trkpt lat="43.44978" lon="6.18683">
        <ele>225.39999389648</ele>
        <time>2017-03-22T15:08:35Z</time>
      </trkpt>
      <trkpt lat="43.44978" lon="6.18683">
        <ele>225.39999389648</ele>
        <time>2017-03-22T15:08:36Z</time>
      </trkpt>
      <trkpt lat="43.44977" lon="6.18678">
        <ele>225.19999694824</ele>
        <time>2017-03-22T15:08:46Z</time>
      </trkpt>
      <trkpt lat="43.44977" lon="6.18675">
        <ele>225.80000305176</ele>
        <time>2017-03-22T15:08:56Z</time>
      </trkpt>
      <trkpt lat="43.44977" lon="6.18673">
        <ele>226.39999389648</ele>
        <time>2017-03-22T15:09:02Z</time>
      </trkpt>
      <trkpt lat="43.44977" lon="6.18673">
        <ele>227</ele>
        <time>2017-03-22T15:09:06Z</time>
      </trkpt>
      <trkpt lat="43.44978" lon="6.18672">
        <ele>227</ele>
        <time>2017-03-22T15:09:12Z</time>
      </trkpt>
      <trkpt lat="43.44978" lon="6.18672">
        <ele>227</ele>
        <time>2017-03-22T15:09:16Z</time>
      </trkpt>
      <trkpt lat="43.44977" lon="6.18671">
        <ele>227.19999694824</ele>
        <time>2017-03-22T15:09:23Z</time>
      </trkpt>
      <trkpt lat="43.44977" lon="6.18671">
        <ele>227.19999694824</ele>
        <time>2017-03-22T15:09:26Z</time>
      </trkpt>
      <trkpt lat="43.44977" lon="6.18671">
        <ele>227.39999389648</ele>
        <time>2017-03-22T15:09:35Z</time>
      </trkpt>
      <trkpt lat="43.44978" lon="6.18671">
        <ele>227.80000305176</ele>
        <time>2017-03-22T15:09:46Z</time>
      </trkpt>
      <trkpt lat="43.44982" lon="6.18666">
        <ele>228.19999694824</ele>
        <time>2017-03-22T15:09:56Z</time>
      </trkpt>
      <trkpt lat="43.44984" lon="6.18666">
        <ele>228.19999694824</ele>
        <time>2017-03-22T15:10:01Z</time>
      </trkpt>
      <trkpt lat="43.44984" lon="6.18666">
        <ele>228.19999694824</ele>
        <time>2017-03-22T15:10:02Z</time>
      </trkpt>
      <trkpt lat="43.44984" lon="6.18666">
        <ele>228</ele>
        <time>2017-03-22T15:10:06Z</time>
      </trkpt>
      <trkpt lat="43.44984" lon="6.18666">
        <ele>228</ele>
        <time>2017-03-22T15:10:09Z</time>
      </trkpt>
      <trkpt lat="43.44984" lon="6.18666">
        <ele>228</ele>
        <time>2017-03-22T15:10:15Z</time>
      </trkpt>
      <trkpt lat="43.44984" lon="6.18666">
        <ele>228</ele>
        <time>2017-03-22T15:10:16Z</time>
      </trkpt>
      <trkpt lat="43.44984" lon="6.18664">
        <ele>227.80000305176</ele>
        <time>2017-03-22T15:10:33Z</time>
      </trkpt>
      <trkpt lat="43.44984" lon="6.18663">
        <ele>227.80000305176</ele>
        <time>2017-03-22T15:10:36Z</time>
      </trkpt>
      <trkpt lat="43.44983" lon="6.18656">
        <ele>227.80000305176</ele>
        <time>2017-03-22T15:10:39Z</time>
      </trkpt>
      <trkpt lat="43.44982" lon="6.18642">
        <ele>227.60000610352</ele>
        <time>2017-03-22T15:10:45Z</time>
      </trkpt>
      <trkpt lat="43.44982" lon="6.1864">
        <ele>227.60000610352</ele>
        <time>2017-03-22T15:10:46Z</time>
      </trkpt>
      <trkpt lat="43.4498" lon="6.18627">
        <ele>228.60000610352</ele>
        <time>2017-03-22T15:10:51Z</time>
      </trkpt>
      <trkpt lat="43.44977" lon="6.1861">
        <ele>229.80000305176</ele>
        <time>2017-03-22T15:10:57Z</time>
      </trkpt>
      <trkpt lat="43.44976" lon="6.18601">
        <ele>230.19999694824</ele>
        <time>2017-03-22T15:11:00Z</time>
      </trkpt>
      <trkpt lat="43.44975" lon="6.18596">
        <ele>230.80000305176</ele>
        <time>2017-03-22T15:11:02Z</time>
      </trkpt>
      <trkpt lat="43.44973" lon="6.18591">
        <ele>231.19999694824</ele>
        <time>2017-03-22T15:11:04Z</time>
      </trkpt>
      <trkpt lat="43.44973" lon="6.18585">
        <ele>231.39999389648</ele>
        <time>2017-03-22T15:11:06Z</time>
      </trkpt>
      <trkpt lat="43.44973" lon="6.18551">
        <ele>231</ele>
        <time>2017-03-22T15:11:16Z</time>
      </trkpt>
      <trkpt lat="43.44976" lon="6.18525">
        <ele>229.80000305176</ele>
        <time>2017-03-22T15:11:21Z</time>
      </trkpt>
      <trkpt lat="43.44978" lon="6.18507">
        <ele>229.19999694824</ele>
        <time>2017-03-22T15:11:24Z</time>
      </trkpt>
      <trkpt lat="43.44979" lon="6.18494">
        <ele>229</ele>
        <time>2017-03-22T15:11:26Z</time>
      </trkpt>
      <trkpt lat="43.44981" lon="6.18479">
        <ele>228.60000610352</ele>
        <time>2017-03-22T15:11:28Z</time>
      </trkpt>
      <trkpt lat="43.44984" lon="6.18452">
        <ele>227</ele>
        <time>2017-03-22T15:11:31Z</time>
      </trkpt>
      <trkpt lat="43.44988" lon="6.18431">
        <ele>225.19999694824</ele>
        <time>2017-03-22T15:11:33Z</time>
      </trkpt>
      <trkpt lat="43.44991" lon="6.1841">
        <ele>224</ele>
        <time>2017-03-22T15:11:35Z</time>
      </trkpt>
      <trkpt lat="43.44994" lon="6.18399">
        <ele>223.19999694824</ele>
        <time>2017-03-22T15:11:36Z</time>
      </trkpt>
      <trkpt lat="43.44997" lon="6.18388">
        <ele>222.80000305176</ele>
        <time>2017-03-22T15:11:37Z</time>
      </trkpt>
      <trkpt lat="43.45008" lon="6.18359">
        <ele>222.19999694824</ele>
        <time>2017-03-22T15:11:40Z</time>
      </trkpt>
      <trkpt lat="43.45016" lon="6.18339">
        <ele>221.80000305176</ele>
        <time>2017-03-22T15:11:42Z</time>
      </trkpt>
      <trkpt lat="43.45019" lon="6.18328">
        <ele>221.39999389648</ele>
        <time>2017-03-22T15:11:43Z</time>
      </trkpt>
      <trkpt lat="43.45027" lon="6.18268">
        <ele>219.19999694824</ele>
        <time>2017-03-22T15:11:48Z</time>
      </trkpt>
      <trkpt lat="43.45031" lon="6.18243">
        <ele>217.80000305176</ele>
        <time>2017-03-22T15:11:50Z</time>
      </trkpt>
      <trkpt lat="43.45039" lon="6.18218">
        <ele>216.39999389648</ele>
        <time>2017-03-22T15:11:52Z</time>
      </trkpt>
      <trkpt lat="43.45044" lon="6.18206">
        <ele>215.39999389648</ele>
        <time>2017-03-22T15:11:53Z</time>
      </trkpt>
      <trkpt lat="43.45049" lon="6.18194">
        <ele>214.60000610352</ele>
        <time>2017-03-22T15:11:54Z</time>
      </trkpt>
      <trkpt lat="43.45058" lon="6.18169">
        <ele>213.39999389648</ele>
        <time>2017-03-22T15:11:56Z</time>
      </trkpt>
      <trkpt lat="43.45067" lon="6.18146">
        <ele>212.80000305176</ele>
        <time>2017-03-22T15:11:58Z</time>
      </trkpt>
      <trkpt lat="43.45087" lon="6.18089">
        <ele>210.80000305176</ele>
        <time>2017-03-22T15:12:03Z</time>
      </trkpt>
      <trkpt lat="43.45097" lon="6.18056">
        <ele>210.19999694824</ele>
        <time>2017-03-22T15:12:06Z</time>
      </trkpt>
      <trkpt lat="43.45102" lon="6.18035">
        <ele>209.39999389648</ele>
        <time>2017-03-22T15:12:08Z</time>
      </trkpt>
      <trkpt lat="43.45107" lon="6.18003">
        <ele>208.19999694824</ele>
        <time>2017-03-22T15:12:11Z</time>
      </trkpt>
      <trkpt lat="43.4511" lon="6.1796">
        <ele>207.19999694824</ele>
        <time>2017-03-22T15:12:15Z</time>
      </trkpt>
      <trkpt lat="43.4511" lon="6.17949">
        <ele>207</ele>
        <time>2017-03-22T15:12:16Z</time>
      </trkpt>
      <trkpt lat="43.4511" lon="6.17906">
        <ele>206</ele>
        <time>2017-03-22T15:12:20Z</time>
      </trkpt>
      <trkpt lat="43.45113" lon="6.17863">
        <ele>204.80000305176</ele>
        <time>2017-03-22T15:12:24Z</time>
      </trkpt>
      <trkpt lat="43.45115" lon="6.17853">
        <ele>204.80000305176</ele>
        <time>2017-03-22T15:12:25Z</time>
      </trkpt>
      <trkpt lat="43.45117" lon="6.17843">
        <ele>204.60000610352</ele>
        <time>2017-03-22T15:12:26Z</time>
      </trkpt>
      <trkpt lat="43.4512" lon="6.17833">
        <ele>204.19999694824</ele>
        <time>2017-03-22T15:12:27Z</time>
      </trkpt>
      <trkpt lat="43.45128" lon="6.17815">
        <ele>203.39999389648</ele>
        <time>2017-03-22T15:12:29Z</time>
      </trkpt>
      <trkpt lat="43.45139" lon="6.17784">
        <ele>202</ele>
        <time>2017-03-22T15:12:32Z</time>
      </trkpt>
      <trkpt lat="43.45147" lon="6.17763">
        <ele>201</ele>
        <time>2017-03-22T15:12:34Z</time>
      </trkpt>
      <trkpt lat="43.45157" lon="6.17744">
        <ele>200</ele>
        <time>2017-03-22T15:12:36Z</time>
      </trkpt>
      <trkpt lat="43.45162" lon="6.17736">
        <ele>199.60000610352</ele>
        <time>2017-03-22T15:12:37Z</time>
      </trkpt>
      <trkpt lat="43.45179" lon="6.17707">
        <ele>199.39999389648</ele>
        <time>2017-03-22T15:12:41Z</time>
      </trkpt>
      <trkpt lat="43.4518" lon="6.17695">
        <ele>199.60000610352</ele>
        <time>2017-03-22T15:12:43Z</time>
      </trkpt>
      <trkpt lat="43.45173" lon="6.17684">
        <ele>200</ele>
        <time>2017-03-22T15:12:46Z</time>
      </trkpt>
      <trkpt lat="43.45169" lon="6.17673">
        <ele>200</ele>
        <time>2017-03-22T15:12:49Z</time>
      </trkpt>
      <trkpt lat="43.45168" lon="6.17666">
        <ele>200.60000610352</ele>
        <time>2017-03-22T15:12:51Z</time>
      </trkpt>
      <trkpt lat="43.45167" lon="6.17662">
        <ele>200.80000305176</ele>
        <time>2017-03-22T15:12:52Z</time>
      </trkpt>
      <trkpt lat="43.45166" lon="6.17659">
        <ele>200.80000305176</ele>
        <time>2017-03-22T15:12:53Z</time>
      </trkpt>
      <trkpt lat="43.45163" lon="6.17653">
        <ele>201.39999389648</ele>
        <time>2017-03-22T15:12:55Z</time>
      </trkpt>
      <trkpt lat="43.45161" lon="6.1765">
        <ele>202</ele>
        <time>2017-03-22T15:12:56Z</time>
      </trkpt>
      <trkpt lat="43.45157" lon="6.17644">
        <ele>202.19999694824</ele>
        <time>2017-03-22T15:12:58Z</time>
      </trkpt>
      <trkpt lat="43.45148" lon="6.17631">
        <ele>202.19999694824</ele>
        <time>2017-03-22T15:13:02Z</time>
      </trkpt>
      <trkpt lat="43.45139" lon="6.1762">
        <ele>202.39999389648</ele>
        <time>2017-03-22T15:13:06Z</time>
      </trkpt>
      <trkpt lat="43.45126" lon="6.17598">
        <ele>203.19999694824</ele>
        <time>2017-03-22T15:13:13Z</time>
      </trkpt>
      <trkpt lat="43.45121" lon="6.17588">
        <ele>203.39999389648</ele>
        <time>2017-03-22T15:13:16Z</time>
      </trkpt>
      <trkpt lat="43.45112" lon="6.17571">
        <ele>204.39999389648</ele>
        <time>2017-03-22T15:13:22Z</time>
      </trkpt>
      <trkpt lat="43.45108" lon="6.1756">
        <ele>205.39999389648</ele>
        <time>2017-03-22T15:13:26Z</time>
      </trkpt>
      <trkpt lat="43.45106" lon="6.17553">
        <ele>206.80000305176</ele>
        <time>2017-03-22T15:13:29Z</time>
      </trkpt>
      <trkpt lat="43.45103" lon="6.17546">
        <ele>207.19999694824</ele>
        <time>2017-03-22T15:13:32Z</time>
      </trkpt>
      <trkpt lat="43.45098" lon="6.17536">
        <ele>207.60000610352</ele>
        <time>2017-03-22T15:13:36Z</time>
      </trkpt>
      <trkpt lat="43.45094" lon="6.17522">
        <ele>208.80000305176</ele>
        <time>2017-03-22T15:13:43Z</time>
      </trkpt>
      <trkpt lat="43.45092" lon="6.17514">
        <ele>209</ele>
        <time>2017-03-22T15:13:46Z</time>
      </trkpt>
      <trkpt lat="43.45089" lon="6.17505">
        <ele>209</ele>
        <time>2017-03-22T15:13:49Z</time>
      </trkpt>
      <trkpt lat="43.45081" lon="6.17494">
        <ele>208.60000610352</ele>
        <time>2017-03-22T15:13:53Z</time>
      </trkpt>
      <trkpt lat="43.45075" lon="6.17489">
        <ele>208.80000305176</ele>
        <time>2017-03-22T15:13:56Z</time>
      </trkpt>
      <trkpt lat="43.45057" lon="6.17471">
        <ele>210</ele>
        <time>2017-03-22T15:14:07Z</time>
      </trkpt>
      <trkpt lat="43.4504" lon="6.17465">
        <ele>210.80000305176</ele>
        <time>2017-03-22T15:14:16Z</time>
      </trkpt>
      <trkpt lat="43.45038" lon="6.17465">
        <ele>211</ele>
        <time>2017-03-22T15:14:17Z</time>
      </trkpt>
      <trkpt lat="43.45029" lon="6.17466">
        <ele>212</ele>
        <time>2017-03-22T15:14:22Z</time>
      </trkpt>
      <trkpt lat="43.45019" lon="6.17465">
        <ele>213</ele>
        <time>2017-03-22T15:14:28Z</time>
      </trkpt>
      <trkpt lat="43.45009" lon="6.17462">
        <ele>214</ele>
        <time>2017-03-22T15:14:34Z</time>
      </trkpt>
      <trkpt lat="43.45007" lon="6.17461">
        <ele>214.39999389648</ele>
        <time>2017-03-22T15:14:36Z</time>
      </trkpt>
      <trkpt lat="43.44994" lon="6.17457">
        <ele>215</ele>
        <time>2017-03-22T15:14:45Z</time>
      </trkpt>
      <trkpt lat="43.44991" lon="6.17456">
        <ele>215</ele>
        <time>2017-03-22T15:14:46Z</time>
      </trkpt>
      <trkpt lat="43.44985" lon="6.17453">
        <ele>214.60000610352</ele>
        <time>2017-03-22T15:14:48Z</time>
      </trkpt>
      <trkpt lat="43.44977" lon="6.17447">
        <ele>214</ele>
        <time>2017-03-22T15:14:50Z</time>
      </trkpt>
      <trkpt lat="43.44965" lon="6.17443">
        <ele>213.39999389648</ele>
        <time>2017-03-22T15:14:53Z</time>
      </trkpt>
      <trkpt lat="43.44955" lon="6.17439">
        <ele>213.39999389648</ele>
        <time>2017-03-22T15:14:56Z</time>
      </trkpt>
      <trkpt lat="43.44941" lon="6.17433">
        <ele>213.80000305176</ele>
        <time>2017-03-22T15:15:02Z</time>
      </trkpt>
      <trkpt lat="43.44931" lon="6.17427">
        <ele>214.19999694824</ele>
        <time>2017-03-22T15:15:06Z</time>
      </trkpt>
      <trkpt lat="43.44918" lon="6.17419">
        <ele>214.19999694824</ele>
        <time>2017-03-22T15:15:12Z</time>
      </trkpt>
      <trkpt lat="43.44911" lon="6.17424">
        <ele>214.60000610352</ele>
        <time>2017-03-22T15:15:16Z</time>
      </trkpt>
      <trkpt lat="43.44906" lon="6.17429">
        <ele>215</ele>
        <time>2017-03-22T15:15:19Z</time>
      </trkpt>
      <trkpt lat="43.44894" lon="6.17437">
        <ele>215.80000305176</ele>
        <time>2017-03-22T15:15:25Z</time>
      </trkpt>
      <trkpt lat="43.44888" lon="6.17439">
        <ele>216.19999694824</ele>
        <time>2017-03-22T15:15:28Z</time>
      </trkpt>
      <trkpt lat="43.44876" lon="6.17454">
        <ele>216.60000610352</ele>
        <time>2017-03-22T15:15:36Z</time>
      </trkpt>
      <trkpt lat="43.44873" lon="6.17461">
        <ele>217.19999694824</ele>
        <time>2017-03-22T15:15:39Z</time>
      </trkpt>
      <trkpt lat="43.44869" lon="6.17472">
        <ele>218.19999694824</ele>
        <time>2017-03-22T15:15:44Z</time>
      </trkpt>
      <trkpt lat="43.44867" lon="6.17476">
        <ele>218.39999389648</ele>
        <time>2017-03-22T15:15:46Z</time>
      </trkpt>
      <trkpt lat="43.4486" lon="6.1749">
        <ele>219.39999389648</ele>
        <time>2017-03-22T15:15:53Z</time>
      </trkpt>
      <trkpt lat="43.44854" lon="6.17489">
        <ele>220</ele>
        <time>2017-03-22T15:15:56Z</time>
      </trkpt>
      <trkpt lat="43.4485" lon="6.17484">
        <ele>220.39999389648</ele>
        <time>2017-03-22T15:15:59Z</time>
      </trkpt>
      <trkpt lat="43.44842" lon="6.1747">
        <ele>221</ele>
        <time>2017-03-22T15:16:06Z</time>
      </trkpt>
      <trkpt lat="43.4484" lon="6.17451">
        <ele>221.39999389648</ele>
        <time>2017-03-22T15:16:12Z</time>
      </trkpt>
      <trkpt lat="43.44839" lon="6.17443">
        <ele>221.60000610352</ele>
        <time>2017-03-22T15:16:14Z</time>
      </trkpt>
      <trkpt lat="43.44838" lon="6.17436">
        <ele>221.60000610352</ele>
        <time>2017-03-22T15:16:16Z</time>
      </trkpt>
      <trkpt lat="43.44831" lon="6.17407">
        <ele>222.19999694824</ele>
        <time>2017-03-22T15:16:26Z</time>
      </trkpt>
      <trkpt lat="43.4483" lon="6.17401">
        <ele>222.60000610352</ele>
        <time>2017-03-22T15:16:28Z</time>
      </trkpt>
      <trkpt lat="43.44822" lon="6.17381">
        <ele>223.60000610352</ele>
        <time>2017-03-22T15:16:36Z</time>
      </trkpt>
      <trkpt lat="43.44816" lon="6.17374">
        <ele>224.60000610352</ele>
        <time>2017-03-22T15:16:41Z</time>
      </trkpt>
      <trkpt lat="43.4481" lon="6.17368">
        <ele>224.80000305176</ele>
        <time>2017-03-22T15:16:46Z</time>
      </trkpt>
      <trkpt lat="43.4481" lon="6.17367">
        <ele>224.80000305176</ele>
        <time>2017-03-22T15:16:47Z</time>
      </trkpt>
      <trkpt lat="43.44807" lon="6.17365">
        <ele>225.19999694824</ele>
        <time>2017-03-22T15:16:52Z</time>
      </trkpt>
      <trkpt lat="43.44808" lon="6.17365">
        <ele>225.19999694824</ele>
        <time>2017-03-22T15:16:56Z</time>
      </trkpt>
      <trkpt lat="43.44808" lon="6.17365">
        <ele>225</ele>
        <time>2017-03-22T15:17:06Z</time>
      </trkpt>
      <trkpt lat="43.44808" lon="6.17365">
        <ele>224.39999389648</ele>
        <time>2017-03-22T15:19:06Z</time>
      </trkpt>
      <trkpt lat="43.44807" lon="6.17365">
        <ele>224.19999694824</ele>
        <time>2017-03-22T15:19:10Z</time>
      </trkpt>
      <trkpt lat="43.44806" lon="6.17357">
        <ele>223.60000610352</ele>
        <time>2017-03-22T15:19:14Z</time>
      </trkpt>
      <trkpt lat="43.44806" lon="6.17353">
        <ele>223.60000610352</ele>
        <time>2017-03-22T15:19:15Z</time>
      </trkpt>
      <trkpt lat="43.44806" lon="6.17349">
        <ele>223.39999389648</ele>
        <time>2017-03-22T15:19:16Z</time>
      </trkpt>
      <trkpt lat="43.44806" lon="6.17337">
        <ele>223.39999389648</ele>
        <time>2017-03-22T15:19:19Z</time>
      </trkpt>
      <trkpt lat="43.4481" lon="6.17313">
        <ele>224</ele>
        <time>2017-03-22T15:19:26Z</time>
      </trkpt>
      <trkpt lat="43.44806" lon="6.17293">
        <ele>224.39999389648</ele>
        <time>2017-03-22T15:19:32Z</time>
      </trkpt>
      <trkpt lat="43.44799" lon="6.17284">
        <ele>224.80000305176</ele>
        <time>2017-03-22T15:19:36Z</time>
      </trkpt>
      <trkpt lat="43.44797" lon="6.17275">
        <ele>225.60000610352</ele>
        <time>2017-03-22T15:19:39Z</time>
      </trkpt>
      <trkpt lat="43.44794" lon="6.17264">
        <ele>226.19999694824</ele>
        <time>2017-03-22T15:19:43Z</time>
      </trkpt>
      <trkpt lat="43.44793" lon="6.17257">
        <ele>227.19999694824</ele>
        <time>2017-03-22T15:19:46Z</time>
      </trkpt>
      <trkpt lat="43.44787" lon="6.17244">
        <ele>229</ele>
        <time>2017-03-22T15:19:52Z</time>
      </trkpt>
      <trkpt lat="43.44783" lon="6.17237">
        <ele>229.80000305176</ele>
        <time>2017-03-22T15:19:56Z</time>
      </trkpt>
      <trkpt lat="43.44779" lon="6.17233">
        <ele>230.39999389648</ele>
        <time>2017-03-22T15:19:59Z</time>
      </trkpt>
      <trkpt lat="43.44771" lon="6.17231">
        <ele>231.60000610352</ele>
        <time>2017-03-22T15:20:05Z</time>
      </trkpt>
      <trkpt lat="43.44769" lon="6.1723">
        <ele>231.80000305176</ele>
        <time>2017-03-22T15:20:06Z</time>
      </trkpt>
      <trkpt lat="43.4476" lon="6.17232">
        <ele>232.60000610352</ele>
        <time>2017-03-22T15:20:13Z</time>
      </trkpt>
      <trkpt lat="43.44757" lon="6.17231">
        <ele>232.80000305176</ele>
        <time>2017-03-22T15:20:16Z</time>
      </trkpt>
      <trkpt lat="43.44751" lon="6.17221">
        <ele>233.60000610352</ele>
        <time>2017-03-22T15:20:23Z</time>
      </trkpt>
      <trkpt lat="43.4475" lon="6.17215">
        <ele>234</ele>
        <time>2017-03-22T15:20:26Z</time>
      </trkpt>
      <trkpt lat="43.4475" lon="6.17208">
        <ele>234.60000610352</ele>
        <time>2017-03-22T15:20:30Z</time>
      </trkpt>
      <trkpt lat="43.44751" lon="6.17195">
        <ele>235</ele>
        <time>2017-03-22T15:20:36Z</time>
      </trkpt>
      <trkpt lat="43.44751" lon="6.1719">
        <ele>235</ele>
        <time>2017-03-22T15:20:38Z</time>
      </trkpt>
      <trkpt lat="43.44754" lon="6.17159">
        <ele>234.80000305176</ele>
        <time>2017-03-22T15:20:46Z</time>
      </trkpt>
      <trkpt lat="43.44759" lon="6.17133">
        <ele>234.39999389648</ele>
        <time>2017-03-22T15:20:52Z</time>
      </trkpt>
      <trkpt lat="43.44762" lon="6.1712">
        <ele>234.60000610352</ele>
        <time>2017-03-22T15:20:56Z</time>
      </trkpt>
      <trkpt lat="43.44754" lon="6.17102">
        <ele>235.80000305176</ele>
        <time>2017-03-22T15:21:06Z</time>
      </trkpt>
      <trkpt lat="43.44751" lon="6.17096">
        <ele>236.80000305176</ele>
        <time>2017-03-22T15:21:09Z</time>
      </trkpt>
      <trkpt lat="43.44749" lon="6.17089">
        <ele>237.60000610352</ele>
        <time>2017-03-22T15:21:12Z</time>
      </trkpt>
      <trkpt lat="43.44748" lon="6.17084">
        <ele>238</ele>
        <time>2017-03-22T15:21:14Z</time>
      </trkpt>
      <trkpt lat="43.44749" lon="6.1708">
        <ele>238.60000610352</ele>
        <time>2017-03-22T15:21:16Z</time>
      </trkpt>
      <trkpt lat="43.44749" lon="6.17076">
        <ele>239.19999694824</ele>
        <time>2017-03-22T15:21:18Z</time>
      </trkpt>
      <trkpt lat="43.44749" lon="6.17067">
        <ele>240.39999389648</ele>
        <time>2017-03-22T15:21:22Z</time>
      </trkpt>
      <trkpt lat="43.4475" lon="6.17058">
        <ele>240.80000305176</ele>
        <time>2017-03-22T15:21:26Z</time>
      </trkpt>
      <trkpt lat="43.44754" lon="6.1704">
        <ele>241.39999389648</ele>
        <time>2017-03-22T15:21:34Z</time>
      </trkpt>
      <trkpt lat="43.44754" lon="6.17036">
        <ele>241.60000610352</ele>
        <time>2017-03-22T15:21:36Z</time>
      </trkpt>
      <trkpt lat="43.44755" lon="6.17025">
        <ele>242.60000610352</ele>
        <time>2017-03-22T15:21:42Z</time>
      </trkpt>
      <trkpt lat="43.44755" lon="6.17016">
        <ele>243</ele>
        <time>2017-03-22T15:21:46Z</time>
      </trkpt>
      <trkpt lat="43.44757" lon="6.16996">
        <ele>243.60000610352</ele>
        <time>2017-03-22T15:21:56Z</time>
      </trkpt>
      <trkpt lat="43.44757" lon="6.16992">
        <ele>243.60000610352</ele>
        <time>2017-03-22T15:21:58Z</time>
      </trkpt>
      <trkpt lat="43.44757" lon="6.1699">
        <ele>243.80000305176</ele>
        <time>2017-03-22T15:21:59Z</time>
      </trkpt>
      <trkpt lat="43.44762" lon="6.1698">
        <ele>244.19999694824</ele>
        <time>2017-03-22T15:22:05Z</time>
      </trkpt>
      <trkpt lat="43.44766" lon="6.16975">
        <ele>244.39999389648</ele>
        <time>2017-03-22T15:22:10Z</time>
      </trkpt>
      <trkpt lat="43.44766" lon="6.16975">
        <ele>244.39999389648</ele>
        <time>2017-03-22T15:22:15Z</time>
      </trkpt>
      <trkpt lat="43.44766" lon="6.16975">
        <ele>244.60000610352</ele>
        <time>2017-03-22T15:22:19Z</time>
      </trkpt>
      <trkpt lat="43.44766" lon="6.16975">
        <ele>244.60000610352</ele>
        <time>2017-03-22T15:22:26Z</time>
      </trkpt>
      <trkpt lat="43.44769" lon="6.16971">
        <ele>244.39999389648</ele>
        <time>2017-03-22T15:22:31Z</time>
      </trkpt>
      <trkpt lat="43.44772" lon="6.16967">
        <ele>244.39999389648</ele>
        <time>2017-03-22T15:22:33Z</time>
      </trkpt>
      <trkpt lat="43.44775" lon="6.16962">
        <ele>244.39999389648</ele>
        <time>2017-03-22T15:22:36Z</time>
      </trkpt>
      <trkpt lat="43.4479" lon="6.16943">
        <ele>244.19999694824</ele>
        <time>2017-03-22T15:22:43Z</time>
      </trkpt>
      <trkpt lat="43.44796" lon="6.16938">
        <ele>243.80000305176</ele>
        <time>2017-03-22T15:22:45Z</time>
      </trkpt>
      <trkpt lat="43.448" lon="6.16935">
        <ele>243.80000305176</ele>
        <time>2017-03-22T15:22:46Z</time>
      </trkpt>
      <trkpt lat="43.44814" lon="6.16928">
        <ele>242.39999389648</ele>
        <time>2017-03-22T15:22:49Z</time>
      </trkpt>
      <trkpt lat="43.44825" lon="6.16918">
        <ele>241.39999389648</ele>
        <time>2017-03-22T15:22:52Z</time>
      </trkpt>
      <trkpt lat="43.44834" lon="6.16909">
        <ele>240.19999694824</ele>
        <time>2017-03-22T15:22:54Z</time>
      </trkpt>
      <trkpt lat="43.44838" lon="6.16902">
        <ele>239.60000610352</ele>
        <time>2017-03-22T15:22:55Z</time>
      </trkpt>
      <trkpt lat="43.44841" lon="6.16895">
        <ele>239</ele>
        <time>2017-03-22T15:22:56Z</time>
      </trkpt>
      <trkpt lat="43.44845" lon="6.16883">
        <ele>238.19999694824</ele>
        <time>2017-03-22T15:22:58Z</time>
      </trkpt>
      <trkpt lat="43.44841" lon="6.16849">
        <ele>240</ele>
        <time>2017-03-22T15:23:05Z</time>
      </trkpt>
      <trkpt lat="43.44841" lon="6.16845">
        <ele>240.19999694824</ele>
        <time>2017-03-22T15:23:06Z</time>
      </trkpt>
      <trkpt lat="43.44842" lon="6.16837">
        <ele>240.80000305176</ele>
        <time>2017-03-22T15:23:08Z</time>
      </trkpt>
      <trkpt lat="43.44844" lon="6.1683">
        <ele>241</ele>
        <time>2017-03-22T15:23:10Z</time>
      </trkpt>
      <trkpt lat="43.44845" lon="6.16823">
        <ele>241.60000610352</ele>
        <time>2017-03-22T15:23:12Z</time>
      </trkpt>
      <trkpt lat="43.44847" lon="6.16813">
        <ele>242.19999694824</ele>
        <time>2017-03-22T15:23:15Z</time>
      </trkpt>
      <trkpt lat="43.44847" lon="6.1681">
        <ele>242.39999389648</ele>
        <time>2017-03-22T15:23:16Z</time>
      </trkpt>
      <trkpt lat="43.44848" lon="6.16798">
        <ele>243.60000610352</ele>
        <time>2017-03-22T15:23:20Z</time>
      </trkpt>
      <trkpt lat="43.44846" lon="6.16778">
        <ele>244.60000610352</ele>
        <time>2017-03-22T15:23:27Z</time>
      </trkpt>
      <trkpt lat="43.44846" lon="6.16758">
        <ele>245.39999389648</ele>
        <time>2017-03-22T15:23:34Z</time>
      </trkpt>
      <trkpt lat="43.44845" lon="6.16753">
        <ele>245.80000305176</ele>
        <time>2017-03-22T15:23:36Z</time>
      </trkpt>
      <trkpt lat="43.44842" lon="6.16741">
        <ele>247</ele>
        <time>2017-03-22T15:23:42Z</time>
      </trkpt>
      <trkpt lat="43.44839" lon="6.16733">
        <ele>248</ele>
        <time>2017-03-22T15:23:46Z</time>
      </trkpt>
      <trkpt lat="43.44839" lon="6.16722">
        <ele>248.19999694824</ele>
        <time>2017-03-22T15:23:51Z</time>
      </trkpt>
      <trkpt lat="43.44835" lon="6.1671">
        <ele>249.19999694824</ele>
        <time>2017-03-22T15:23:57Z</time>
      </trkpt>
      <trkpt lat="43.44828" lon="6.16695">
        <ele>249.80000305176</ele>
        <time>2017-03-22T15:24:06Z</time>
      </trkpt>
      <trkpt lat="43.44823" lon="6.16681">
        <ele>249.80000305176</ele>
        <time>2017-03-22T15:24:11Z</time>
      </trkpt>
      <trkpt lat="43.44819" lon="6.16661">
        <ele>248</ele>
        <time>2017-03-22T15:24:15Z</time>
      </trkpt>
      <trkpt lat="43.44818" lon="6.16656">
        <ele>247</ele>
        <time>2017-03-22T15:24:16Z</time>
      </trkpt>
      <trkpt lat="43.44818" lon="6.1665">
        <ele>245.80000305176</ele>
        <time>2017-03-22T15:24:17Z</time>
      </trkpt>
      <trkpt lat="43.44817" lon="6.16644">
        <ele>244.39999389648</ele>
        <time>2017-03-22T15:24:18Z</time>
      </trkpt>
      <trkpt lat="43.44815" lon="6.16638">
        <ele>243.19999694824</ele>
        <time>2017-03-22T15:24:19Z</time>
      </trkpt>
      <trkpt lat="43.44815" lon="6.16632">
        <ele>242.19999694824</ele>
        <time>2017-03-22T15:24:20Z</time>
      </trkpt>
      <trkpt lat="43.44814" lon="6.16628">
        <ele>241.19999694824</ele>
        <time>2017-03-22T15:24:21Z</time>
      </trkpt>
      <trkpt lat="43.4481" lon="6.16619">
        <ele>240</ele>
        <time>2017-03-22T15:24:23Z</time>
      </trkpt>
      <trkpt lat="43.44807" lon="6.16603">
        <ele>238.80000305176</ele>
        <time>2017-03-22T15:24:27Z</time>
      </trkpt>
      <trkpt lat="43.44807" lon="6.166">
        <ele>238.80000305176</ele>
        <time>2017-03-22T15:24:28Z</time>
      </trkpt>
      <trkpt lat="43.44802" lon="6.16587">
        <ele>239.19999694824</ele>
        <time>2017-03-22T15:24:32Z</time>
      </trkpt>
      <trkpt lat="43.44798" lon="6.16582">
        <ele>240.19999694824</ele>
        <time>2017-03-22T15:24:34Z</time>
      </trkpt>
      <trkpt lat="43.44794" lon="6.16581">
        <ele>241.19999694824</ele>
        <time>2017-03-22T15:24:36Z</time>
      </trkpt>
      <trkpt lat="43.4479" lon="6.1658">
        <ele>242</ele>
        <time>2017-03-22T15:24:40Z</time>
      </trkpt>
      <trkpt lat="43.44788" lon="6.16578">
        <ele>242.19999694824</ele>
        <time>2017-03-22T15:24:42Z</time>
      </trkpt>
      <trkpt lat="43.44783" lon="6.16576">
        <ele>242.80000305176</ele>
        <time>2017-03-22T15:24:46Z</time>
      </trkpt>
      <trkpt lat="43.4478" lon="6.16574">
        <ele>243.60000610352</ele>
        <time>2017-03-22T15:24:49Z</time>
      </trkpt>
      <trkpt lat="43.44778" lon="6.16571">
        <ele>244.60000610352</ele>
        <time>2017-03-22T15:24:53Z</time>
      </trkpt>
      <trkpt lat="43.44778" lon="6.16571">
        <ele>244.60000610352</ele>
        <time>2017-03-22T15:24:54Z</time>
      </trkpt>
      <trkpt lat="43.44778" lon="6.16571">
        <ele>245.39999389648</ele>
        <time>2017-03-22T15:25:01Z</time>
      </trkpt>
      <trkpt lat="43.44778" lon="6.16571">
        <ele>245.39999389648</ele>
        <time>2017-03-22T15:25:09Z</time>
      </trkpt>
      <trkpt lat="43.44778" lon="6.16571">
        <ele>245.80000305176</ele>
        <time>2017-03-22T15:25:12Z</time>
      </trkpt>
      <trkpt lat="43.44777" lon="6.1657">
        <ele>246.19999694824</ele>
        <time>2017-03-22T15:25:16Z</time>
      </trkpt>
      <trkpt lat="43.44777" lon="6.1657">
        <ele>246.60000610352</ele>
        <time>2017-03-22T15:25:20Z</time>
      </trkpt>
      <trkpt lat="43.44777" lon="6.16569">
        <ele>246.39999389648</ele>
        <time>2017-03-22T15:25:24Z</time>
      </trkpt>
      <trkpt lat="43.44777" lon="6.16569">
        <ele>246.19999694824</ele>
        <time>2017-03-22T15:25:31Z</time>
      </trkpt>
      <trkpt lat="43.44777" lon="6.16569">
        <ele>246.19999694824</ele>
        <time>2017-03-22T15:25:36Z</time>
      </trkpt>
      <trkpt lat="43.44773" lon="6.16565">
        <ele>246.19999694824</ele>
        <time>2017-03-22T15:25:41Z</time>
      </trkpt>
      <trkpt lat="43.44771" lon="6.16562">
        <ele>246.80000305176</ele>
        <time>2017-03-22T15:25:43Z</time>
      </trkpt>
      <trkpt lat="43.44768" lon="6.16556">
        <ele>247.60000610352</ele>
        <time>2017-03-22T15:25:46Z</time>
      </trkpt>
      <trkpt lat="43.44767" lon="6.16546">
        <ele>248</ele>
        <time>2017-03-22T15:25:51Z</time>
      </trkpt>
      <trkpt lat="43.44766" lon="6.16543">
        <ele>248.19999694824</ele>
        <time>2017-03-22T15:25:53Z</time>
      </trkpt>
      <trkpt lat="43.44765" lon="6.16538">
        <ele>248.19999694824</ele>
        <time>2017-03-22T15:25:55Z</time>
      </trkpt>
      <trkpt lat="43.44764" lon="6.16534">
        <ele>248.19999694824</ele>
        <time>2017-03-22T15:25:57Z</time>
      </trkpt>
      <trkpt lat="43.44764" lon="6.16526">
        <ele>248.80000305176</ele>
        <time>2017-03-22T15:26:01Z</time>
      </trkpt>
      <trkpt lat="43.44763" lon="6.16514">
        <ele>248.80000305176</ele>
        <time>2017-03-22T15:26:06Z</time>
      </trkpt>
      <trkpt lat="43.44771" lon="6.16482">
        <ele>248.80000305176</ele>
        <time>2017-03-22T15:26:16Z</time>
      </trkpt>
      <trkpt lat="43.44772" lon="6.1647">
        <ele>248.60000610352</ele>
        <time>2017-03-22T15:26:19Z</time>
      </trkpt>
      <trkpt lat="43.44774" lon="6.16444">
        <ele>248.19999694824</ele>
        <time>2017-03-22T15:26:26Z</time>
      </trkpt>
      <trkpt lat="43.44776" lon="6.16405">
        <ele>250</ele>
        <time>2017-03-22T15:26:39Z</time>
      </trkpt>
      <trkpt lat="43.44781" lon="6.16383">
        <ele>250.19999694824</ele>
        <time>2017-03-22T15:26:46Z</time>
      </trkpt>
      <trkpt lat="43.44787" lon="6.1636">
        <ele>250.60000610352</ele>
        <time>2017-03-22T15:26:53Z</time>
      </trkpt>
      <trkpt lat="43.44789" lon="6.16351">
        <ele>251</ele>
        <time>2017-03-22T15:26:56Z</time>
      </trkpt>
      <trkpt lat="43.44791" lon="6.16338">
        <ele>251.60000610352</ele>
        <time>2017-03-22T15:27:00Z</time>
      </trkpt>
      <trkpt lat="43.44791" lon="6.16332">
        <ele>252</ele>
        <time>2017-03-22T15:27:02Z</time>
      </trkpt>
      <trkpt lat="43.44791" lon="6.16321">
        <ele>252.60000610352</ele>
        <time>2017-03-22T15:27:06Z</time>
      </trkpt>
      <trkpt lat="43.4479" lon="6.16313">
        <ele>253</ele>
        <time>2017-03-22T15:27:10Z</time>
      </trkpt>
      <trkpt lat="43.44788" lon="6.16304">
        <ele>254.60000610352</ele>
        <time>2017-03-22T15:27:16Z</time>
      </trkpt>
      <trkpt lat="43.44787" lon="6.16299">
        <ele>255.39999389648</ele>
        <time>2017-03-22T15:27:19Z</time>
      </trkpt>
      <trkpt lat="43.44785" lon="6.16293">
        <ele>256.39999389648</ele>
        <time>2017-03-22T15:27:23Z</time>
      </trkpt>
      <trkpt lat="43.44784" lon="6.16291">
        <ele>256.60000610352</ele>
        <time>2017-03-22T15:27:24Z</time>
      </trkpt>
      <trkpt lat="43.44784" lon="6.16287">
        <ele>256.79998779297</ele>
        <time>2017-03-22T15:27:26Z</time>
      </trkpt>
      <trkpt lat="43.44783" lon="6.16269">
        <ele>258.20001220703</ele>
        <time>2017-03-22T15:27:36Z</time>
      </trkpt>
      <trkpt lat="43.44782" lon="6.16261">
        <ele>258.79998779297</ele>
        <time>2017-03-22T15:27:41Z</time>
      </trkpt>
      <trkpt lat="43.44781" lon="6.16253">
        <ele>259.39999389648</ele>
        <time>2017-03-22T15:27:46Z</time>
      </trkpt>
      <trkpt lat="43.44781" lon="6.1625">
        <ele>259.79998779297</ele>
        <time>2017-03-22T15:27:48Z</time>
      </trkpt>
      <trkpt lat="43.4478" lon="6.16239">
        <ele>260.79998779297</ele>
        <time>2017-03-22T15:27:55Z</time>
      </trkpt>
      <trkpt lat="43.44775" lon="6.16222">
        <ele>262.39999389648</ele>
        <time>2017-03-22T15:28:06Z</time>
      </trkpt>
      <trkpt lat="43.44775" lon="6.16217">
        <ele>263</ele>
        <time>2017-03-22T15:28:09Z</time>
      </trkpt>
      <trkpt lat="43.44774" lon="6.16209">
        <ele>264</ele>
        <time>2017-03-22T15:28:15Z</time>
      </trkpt>
      <trkpt lat="43.44773" lon="6.16199">
        <ele>265</ele>
        <time>2017-03-22T15:28:21Z</time>
      </trkpt>
      <trkpt lat="43.44774" lon="6.16192">
        <ele>265.39999389648</ele>
        <time>2017-03-22T15:28:26Z</time>
      </trkpt>
      <trkpt lat="43.44774" lon="6.16187">
        <ele>266.20001220703</ele>
        <time>2017-03-22T15:28:30Z</time>
      </trkpt>
      <trkpt lat="43.44775" lon="6.1618">
        <ele>267</ele>
        <time>2017-03-22T15:28:36Z</time>
      </trkpt>
      <trkpt lat="43.44777" lon="6.16171">
        <ele>267.39999389648</ele>
        <time>2017-03-22T15:28:42Z</time>
      </trkpt>
      <trkpt lat="43.4478" lon="6.16165">
        <ele>268</ele>
        <time>2017-03-22T15:28:46Z</time>
      </trkpt>
      <trkpt lat="43.44781" lon="6.1616">
        <ele>268.39999389648</ele>
        <time>2017-03-22T15:28:50Z</time>
      </trkpt>
      <trkpt lat="43.44779" lon="6.16151">
        <ele>270</ele>
        <time>2017-03-22T15:28:56Z</time>
      </trkpt>
      <trkpt lat="43.44779" lon="6.16148">
        <ele>270.39999389648</ele>
        <time>2017-03-22T15:28:58Z</time>
      </trkpt>
      <trkpt lat="43.4478" lon="6.16147">
        <ele>270.79998779297</ele>
        <time>2017-03-22T15:28:59Z</time>
      </trkpt>
      <trkpt lat="43.44779" lon="6.16148">
        <ele>271.39999389648</ele>
        <time>2017-03-22T15:29:06Z</time>
      </trkpt>
      <trkpt lat="43.44779" lon="6.16147">
        <ele>271.60000610352</ele>
        <time>2017-03-22T15:29:10Z</time>
      </trkpt>
      <trkpt lat="43.44779" lon="6.16146">
        <ele>271.79998779297</ele>
        <time>2017-03-22T15:29:13Z</time>
      </trkpt>
      <trkpt lat="43.44779" lon="6.16143">
        <ele>271.79998779297</ele>
        <time>2017-03-22T15:29:16Z</time>
      </trkpt>
      <trkpt lat="43.44778" lon="6.16143">
        <ele>272</ele>
        <time>2017-03-22T15:29:19Z</time>
      </trkpt>
      <trkpt lat="43.44778" lon="6.16143">
        <ele>272</ele>
        <time>2017-03-22T15:29:22Z</time>
      </trkpt>
      <trkpt lat="43.44778" lon="6.16142">
        <ele>271.60000610352</ele>
        <time>2017-03-22T15:29:26Z</time>
      </trkpt>
      <trkpt lat="43.44778" lon="6.16142">
        <ele>271.79998779297</ele>
        <time>2017-03-22T15:29:34Z</time>
      </trkpt>
      <trkpt lat="43.44778" lon="6.16142">
        <ele>272</ele>
        <time>2017-03-22T15:29:36Z</time>
      </trkpt>
      <trkpt lat="43.44778" lon="6.16141">
        <ele>272</ele>
        <time>2017-03-22T15:29:39Z</time>
      </trkpt>
      <trkpt lat="43.44779" lon="6.16133">
        <ele>272.79998779297</ele>
        <time>2017-03-22T15:29:43Z</time>
      </trkpt>
      <trkpt lat="43.4478" lon="6.16127">
        <ele>273.60000610352</ele>
        <time>2017-03-22T15:29:46Z</time>
      </trkpt>
      <trkpt lat="43.44781" lon="6.16121">
        <ele>274</ele>
        <time>2017-03-22T15:29:49Z</time>
      </trkpt>
      <trkpt lat="43.44786" lon="6.16111">
        <ele>274.60000610352</ele>
        <time>2017-03-22T15:29:56Z</time>
      </trkpt>
      <trkpt lat="43.44788" lon="6.16092">
        <ele>274.79998779297</ele>
        <time>2017-03-22T15:30:05Z</time>
      </trkpt>
      <trkpt lat="43.44788" lon="6.16083">
        <ele>275</ele>
        <time>2017-03-22T15:30:08Z</time>
      </trkpt>
      <trkpt lat="43.44788" lon="6.16071">
        <ele>274.79998779297</ele>
        <time>2017-03-22T15:30:12Z</time>
      </trkpt>
      <trkpt lat="43.4479" lon="6.16062">
        <ele>274.39999389648</ele>
        <time>2017-03-22T15:30:14Z</time>
      </trkpt>
      <trkpt lat="43.4479" lon="6.16057">
        <ele>274.39999389648</ele>
        <time>2017-03-22T15:30:15Z</time>
      </trkpt>
      <trkpt lat="43.4479" lon="6.16051">
        <ele>274.39999389648</ele>
        <time>2017-03-22T15:30:16Z</time>
      </trkpt>
      <trkpt lat="43.44788" lon="6.16046">
        <ele>274.20001220703</ele>
        <time>2017-03-22T15:30:17Z</time>
      </trkpt>
      <trkpt lat="43.44781" lon="6.16021">
        <ele>273</ele>
        <time>2017-03-22T15:30:22Z</time>
      </trkpt>
      <trkpt lat="43.44779" lon="6.16009">
        <ele>272.79998779297</ele>
        <time>2017-03-22T15:30:24Z</time>
      </trkpt>
      <trkpt lat="43.44778" lon="6.16003">
        <ele>272.60000610352</ele>
        <time>2017-03-22T15:30:25Z</time>
      </trkpt>
      <trkpt lat="43.44775" lon="6.15977">
        <ele>272</ele>
        <time>2017-03-22T15:30:29Z</time>
      </trkpt>
      <trkpt lat="43.44774" lon="6.1597">
        <ele>271.79998779297</ele>
        <time>2017-03-22T15:30:30Z</time>
      </trkpt>
      <trkpt lat="43.44772" lon="6.15963">
        <ele>271.60000610352</ele>
        <time>2017-03-22T15:30:31Z</time>
      </trkpt>
      <trkpt lat="43.44769" lon="6.1595">
        <ele>271.60000610352</ele>
        <time>2017-03-22T15:30:33Z</time>
      </trkpt>
      <trkpt lat="43.44768" lon="6.15938">
        <ele>271.60000610352</ele>
        <time>2017-03-22T15:30:35Z</time>
      </trkpt>
      <trkpt lat="43.44768" lon="6.15933">
        <ele>271.79998779297</ele>
        <time>2017-03-22T15:30:36Z</time>
      </trkpt>
      <trkpt lat="43.44765" lon="6.15918">
        <ele>272.39999389648</ele>
        <time>2017-03-22T15:30:40Z</time>
      </trkpt>
      <trkpt lat="43.44765" lon="6.15911">
        <ele>273.20001220703</ele>
        <time>2017-03-22T15:30:42Z</time>
      </trkpt>
      <trkpt lat="43.44766" lon="6.15905">
        <ele>273.79998779297</ele>
        <time>2017-03-22T15:30:44Z</time>
      </trkpt>
      <trkpt lat="43.44768" lon="6.159">
        <ele>274.20001220703</ele>
        <time>2017-03-22T15:30:46Z</time>
      </trkpt>
      <trkpt lat="43.4477" lon="6.15892">
        <ele>275</ele>
        <time>2017-03-22T15:30:50Z</time>
      </trkpt>
      <trkpt lat="43.44772" lon="6.15886">
        <ele>275.79998779297</ele>
        <time>2017-03-22T15:30:53Z</time>
      </trkpt>
      <trkpt lat="43.44772" lon="6.15885">
        <ele>276</ele>
        <time>2017-03-22T15:30:54Z</time>
      </trkpt>
      <trkpt lat="43.44773" lon="6.15882">
        <ele>276.39999389648</ele>
        <time>2017-03-22T15:30:56Z</time>
      </trkpt>
      <trkpt lat="43.44776" lon="6.15876">
        <ele>277.79998779297</ele>
        <time>2017-03-22T15:31:01Z</time>
      </trkpt>
      <trkpt lat="43.44779" lon="6.15867">
        <ele>279</ele>
        <time>2017-03-22T15:31:07Z</time>
      </trkpt>
      <trkpt lat="43.44784" lon="6.15852">
        <ele>279.39999389648</ele>
        <time>2017-03-22T15:31:16Z</time>
      </trkpt>
      <trkpt lat="43.44787" lon="6.15841">
        <ele>280</ele>
        <time>2017-03-22T15:31:22Z</time>
      </trkpt>
      <trkpt lat="43.4479" lon="6.15832">
        <ele>279.79998779297</ele>
        <time>2017-03-22T15:31:25Z</time>
      </trkpt>
      <trkpt lat="43.44791" lon="6.15828">
        <ele>279.60000610352</ele>
        <time>2017-03-22T15:31:26Z</time>
      </trkpt>
      <trkpt lat="43.44801" lon="6.15813">
        <ele>278.60000610352</ele>
        <time>2017-03-22T15:31:32Z</time>
      </trkpt>
      <trkpt lat="43.44807" lon="6.15811">
        <ele>277.79998779297</ele>
        <time>2017-03-22T15:31:34Z</time>
      </trkpt>
      <trkpt lat="43.44812" lon="6.15812">
        <ele>276.20001220703</ele>
        <time>2017-03-22T15:31:36Z</time>
      </trkpt>
      <trkpt lat="43.44819" lon="6.15813">
        <ele>275</ele>
        <time>2017-03-22T15:31:38Z</time>
      </trkpt>
      <trkpt lat="43.44826" lon="6.15809">
        <ele>273.60000610352</ele>
        <time>2017-03-22T15:31:40Z</time>
      </trkpt>
      <trkpt lat="43.44833" lon="6.15805">
        <ele>272.60000610352</ele>
        <time>2017-03-22T15:31:42Z</time>
      </trkpt>
      <trkpt lat="43.44839" lon="6.15803">
        <ele>272</ele>
        <time>2017-03-22T15:31:44Z</time>
      </trkpt>
      <trkpt lat="43.44842" lon="6.158">
        <ele>271.39999389648</ele>
        <time>2017-03-22T15:31:45Z</time>
      </trkpt>
      <trkpt lat="43.44844" lon="6.15797">
        <ele>270.60000610352</ele>
        <time>2017-03-22T15:31:46Z</time>
      </trkpt>
      <trkpt lat="43.44844" lon="6.15794">
        <ele>269.79998779297</ele>
        <time>2017-03-22T15:31:47Z</time>
      </trkpt>
      <trkpt lat="43.44843" lon="6.15787">
        <ele>269</ele>
        <time>2017-03-22T15:31:50Z</time>
      </trkpt>
      <trkpt lat="43.44841" lon="6.15782">
        <ele>269.79998779297</ele>
        <time>2017-03-22T15:31:53Z</time>
      </trkpt>
      <trkpt lat="43.4484" lon="6.15778">
        <ele>270.39999389648</ele>
        <time>2017-03-22T15:31:55Z</time>
      </trkpt>
      <trkpt lat="43.44839" lon="6.15775">
        <ele>270.79998779297</ele>
        <time>2017-03-22T15:31:57Z</time>
      </trkpt>
      <trkpt lat="43.44839" lon="6.15769">
        <ele>271.60000610352</ele>
        <time>2017-03-22T15:32:00Z</time>
      </trkpt>
      <trkpt lat="43.44839" lon="6.15765">
        <ele>272</ele>
        <time>2017-03-22T15:32:02Z</time>
      </trkpt>
      <trkpt lat="43.44843" lon="6.15755">
        <ele>273.20001220703</ele>
        <time>2017-03-22T15:32:08Z</time>
      </trkpt>
      <trkpt lat="43.44849" lon="6.15742">
        <ele>273.20001220703</ele>
        <time>2017-03-22T15:32:16Z</time>
      </trkpt>
      <trkpt lat="43.44851" lon="6.15739">
        <ele>273.20001220703</ele>
        <time>2017-03-22T15:32:18Z</time>
      </trkpt>
      <trkpt lat="43.44865" lon="6.15716">
        <ele>272.20001220703</ele>
        <time>2017-03-22T15:32:25Z</time>
      </trkpt>
      <trkpt lat="43.44867" lon="6.15712">
        <ele>272.20001220703</ele>
        <time>2017-03-22T15:32:26Z</time>
      </trkpt>
      <trkpt lat="43.44867" lon="6.15708">
        <ele>272.20001220703</ele>
        <time>2017-03-22T15:32:27Z</time>
      </trkpt>
      <trkpt lat="43.44869" lon="6.15691">
        <ele>273.20001220703</ele>
        <time>2017-03-22T15:32:34Z</time>
      </trkpt>
      <trkpt lat="43.4487" lon="6.15685">
        <ele>273.60000610352</ele>
        <time>2017-03-22T15:32:36Z</time>
      </trkpt>
      <trkpt lat="43.44878" lon="6.15658">
        <ele>274.20001220703</ele>
        <time>2017-03-22T15:32:46Z</time>
      </trkpt>
      <trkpt lat="43.4488" lon="6.15653">
        <ele>274.39999389648</ele>
        <time>2017-03-22T15:32:48Z</time>
      </trkpt>
      <trkpt lat="43.44881" lon="6.15636">
        <ele>275.60000610352</ele>
        <time>2017-03-22T15:32:55Z</time>
      </trkpt>
      <trkpt lat="43.44882" lon="6.15613">
        <ele>277.39999389648</ele>
        <time>2017-03-22T15:33:04Z</time>
      </trkpt>
      <trkpt lat="43.44883" lon="6.15608">
        <ele>277.79998779297</ele>
        <time>2017-03-22T15:33:06Z</time>
      </trkpt>
      <trkpt lat="43.44883" lon="6.15594">
        <ele>279</ele>
        <time>2017-03-22T15:33:12Z</time>
      </trkpt>
      <trkpt lat="43.44883" lon="6.15586">
        <ele>279.60000610352</ele>
        <time>2017-03-22T15:33:16Z</time>
      </trkpt>
      <trkpt lat="43.44884" lon="6.15579">
        <ele>280</ele>
        <time>2017-03-22T15:33:19Z</time>
      </trkpt>
      <trkpt lat="43.44888" lon="6.15567">
        <ele>280.79998779297</ele>
        <time>2017-03-22T15:33:26Z</time>
      </trkpt>
      <trkpt lat="43.44889" lon="6.15564">
        <ele>281.20001220703</ele>
        <time>2017-03-22T15:33:28Z</time>
      </trkpt>
      <trkpt lat="43.44892" lon="6.15557">
        <ele>282.20001220703</ele>
        <time>2017-03-22T15:33:34Z</time>
      </trkpt>
      <trkpt lat="43.44891" lon="6.15553">
        <ele>282.60000610352</ele>
        <time>2017-03-22T15:33:36Z</time>
      </trkpt>
      <trkpt lat="43.4489" lon="6.15544">
        <ele>283.39999389648</ele>
        <time>2017-03-22T15:33:42Z</time>
      </trkpt>
      <trkpt lat="43.44889" lon="6.15538">
        <ele>283.79998779297</ele>
        <time>2017-03-22T15:33:46Z</time>
      </trkpt>
      <trkpt lat="43.44889" lon="6.15528">
        <ele>284.39999389648</ele>
        <time>2017-03-22T15:33:52Z</time>
      </trkpt>
      <trkpt lat="43.44889" lon="6.15523">
        <ele>285</ele>
        <time>2017-03-22T15:33:56Z</time>
      </trkpt>
      <trkpt lat="43.44889" lon="6.15519">
        <ele>285.60000610352</ele>
        <time>2017-03-22T15:33:59Z</time>
      </trkpt>
      <trkpt lat="43.4489" lon="6.15509">
        <ele>286</ele>
        <time>2017-03-22T15:34:06Z</time>
      </trkpt>
      <trkpt lat="43.44891" lon="6.15498">
        <ele>286.79998779297</ele>
        <time>2017-03-22T15:34:13Z</time>
      </trkpt>
      <trkpt lat="43.4489" lon="6.1549">
        <ele>286.60000610352</ele>
        <time>2017-03-22T15:34:18Z</time>
      </trkpt>
      <trkpt lat="43.44894" lon="6.15486">
        <ele>286.79998779297</ele>
        <time>2017-03-22T15:34:21Z</time>
      </trkpt>
      <trkpt lat="43.44898" lon="6.15482">
        <ele>287.79998779297</ele>
        <time>2017-03-22T15:34:26Z</time>
      </trkpt>
      <trkpt lat="43.449" lon="6.1548">
        <ele>287.79998779297</ele>
        <time>2017-03-22T15:34:29Z</time>
      </trkpt>
      <trkpt lat="43.449" lon="6.15478">
        <ele>288</ele>
        <time>2017-03-22T15:34:36Z</time>
      </trkpt>
      <trkpt lat="43.449" lon="6.15478">
        <ele>288.60000610352</ele>
        <time>2017-03-22T15:34:43Z</time>
      </trkpt>
      <trkpt lat="43.449" lon="6.15476">
        <ele>287.60000610352</ele>
        <time>2017-03-22T15:36:46Z</time>
      </trkpt>
      <trkpt lat="43.449" lon="6.15475">
        <ele>287.60000610352</ele>
        <time>2017-03-22T15:36:56Z</time>
      </trkpt>
      <trkpt lat="43.44902" lon="6.15474">
        <ele>287.39999389648</ele>
        <time>2017-03-22T15:37:06Z</time>
      </trkpt>
      <trkpt lat="43.44901" lon="6.15473">
        <ele>287</ele>
        <time>2017-03-22T15:37:15Z</time>
      </trkpt>
      <trkpt lat="43.449" lon="6.15472">
        <ele>286.79998779297</ele>
        <time>2017-03-22T15:37:16Z</time>
      </trkpt>
      <trkpt lat="43.44899" lon="6.1547">
        <ele>286.60000610352</ele>
        <time>2017-03-22T15:37:18Z</time>
      </trkpt>
      <trkpt lat="43.44886" lon="6.15447">
        <ele>286</ele>
        <time>2017-03-22T15:37:26Z</time>
      </trkpt>
      <trkpt lat="43.44884" lon="6.15442">
        <ele>285.60000610352</ele>
        <time>2017-03-22T15:37:27Z</time>
      </trkpt>
      <trkpt lat="43.44882" lon="6.15436">
        <ele>285.20001220703</ele>
        <time>2017-03-22T15:37:28Z</time>
      </trkpt>
      <trkpt lat="43.4487" lon="6.15404">
        <ele>284.39999389648</ele>
        <time>2017-03-22T15:37:33Z</time>
      </trkpt>
      <trkpt lat="43.4486" lon="6.15383">
        <ele>284</ele>
        <time>2017-03-22T15:37:36Z</time>
      </trkpt>
      <trkpt lat="43.44854" lon="6.15368">
        <ele>283</ele>
        <time>2017-03-22T15:37:38Z</time>
      </trkpt>
      <trkpt lat="43.44846" lon="6.15343">
        <ele>282</ele>
        <time>2017-03-22T15:37:41Z</time>
      </trkpt>
      <trkpt lat="43.44839" lon="6.15316">
        <ele>280.79998779297</ele>
        <time>2017-03-22T15:37:44Z</time>
      </trkpt>
      <trkpt lat="43.44833" lon="6.15288">
        <ele>279.60000610352</ele>
        <time>2017-03-22T15:37:47Z</time>
      </trkpt>
      <trkpt lat="43.44811" lon="6.15227">
        <ele>277</ele>
        <time>2017-03-22T15:37:54Z</time>
      </trkpt>
      <trkpt lat="43.44805" lon="6.1521">
        <ele>276.79998779297</ele>
        <time>2017-03-22T15:37:56Z</time>
      </trkpt>
      <trkpt lat="43.44796" lon="6.15184">
        <ele>276</ele>
        <time>2017-03-22T15:37:59Z</time>
      </trkpt>
      <trkpt lat="43.44778" lon="6.15148">
        <ele>274.79998779297</ele>
        <time>2017-03-22T15:38:04Z</time>
      </trkpt>
      <trkpt lat="43.4477" lon="6.15133">
        <ele>274.39999389648</ele>
        <time>2017-03-22T15:38:06Z</time>
      </trkpt>
      <trkpt lat="43.44755" lon="6.15102">
        <ele>273.39999389648</ele>
        <time>2017-03-22T15:38:10Z</time>
      </trkpt>
      <trkpt lat="43.44736" lon="6.15065">
        <ele>272.60000610352</ele>
        <time>2017-03-22T15:38:15Z</time>
      </trkpt>
      <trkpt lat="43.44731" lon="6.15058">
        <ele>272.39999389648</ele>
        <time>2017-03-22T15:38:16Z</time>
      </trkpt>
      <trkpt lat="43.44714" lon="6.15031">
        <ele>271.60000610352</ele>
        <time>2017-03-22T15:38:20Z</time>
      </trkpt>
      <trkpt lat="43.44707" lon="6.15016">
        <ele>271.60000610352</ele>
        <time>2017-03-22T15:38:22Z</time>
      </trkpt>
      <trkpt lat="43.44691" lon="6.14992">
        <ele>272</ele>
        <time>2017-03-22T15:38:26Z</time>
      </trkpt>
      <trkpt lat="43.44665" lon="6.14948">
        <ele>273.20001220703</ele>
        <time>2017-03-22T15:38:34Z</time>
      </trkpt>
      <trkpt lat="43.44659" lon="6.1494">
        <ele>273</ele>
        <time>2017-03-22T15:38:36Z</time>
      </trkpt>
      <trkpt lat="43.44646" lon="6.14933">
        <ele>273.39999389648</ele>
        <time>2017-03-22T15:38:40Z</time>
      </trkpt>
      <trkpt lat="43.44635" lon="6.14934">
        <ele>274.39999389648</ele>
        <time>2017-03-22T15:38:43Z</time>
      </trkpt>
      <trkpt lat="43.44627" lon="6.14939">
        <ele>275</ele>
        <time>2017-03-22T15:38:46Z</time>
      </trkpt>
      <trkpt lat="43.44619" lon="6.14945">
        <ele>275.60000610352</ele>
        <time>2017-03-22T15:38:49Z</time>
      </trkpt>
      <trkpt lat="43.44599" lon="6.14964">
        <ele>276.39999389648</ele>
        <time>2017-03-22T15:38:56Z</time>
      </trkpt>
      <trkpt lat="43.44568" lon="6.1498">
        <ele>276.79998779297</ele>
        <time>2017-03-22T15:39:06Z</time>
      </trkpt>
      <trkpt lat="43.4455" lon="6.14965">
        <ele>277.79998779297</ele>
        <time>2017-03-22T15:39:15Z</time>
      </trkpt>
      <trkpt lat="43.44549" lon="6.14964">
        <ele>278</ele>
        <time>2017-03-22T15:39:16Z</time>
      </trkpt>
      <trkpt lat="43.44546" lon="6.14958">
        <ele>278.79998779297</ele>
        <time>2017-03-22T15:39:19Z</time>
      </trkpt>
      <trkpt lat="43.4454" lon="6.14942">
        <ele>280</ele>
        <time>2017-03-22T15:39:26Z</time>
      </trkpt>
      <trkpt lat="43.44537" lon="6.14928">
        <ele>281</ele>
        <time>2017-03-22T15:39:33Z</time>
      </trkpt>
      <trkpt lat="43.44535" lon="6.14922">
        <ele>282</ele>
        <time>2017-03-22T15:39:36Z</time>
      </trkpt>
      <trkpt lat="43.44535" lon="6.1492">
        <ele>282.20001220703</ele>
        <time>2017-03-22T15:39:37Z</time>
      </trkpt>
      <trkpt lat="43.44535" lon="6.14907">
        <ele>283.20001220703</ele>
        <time>2017-03-22T15:39:44Z</time>
      </trkpt>
      <trkpt lat="43.44534" lon="6.14903">
        <ele>283.39999389648</ele>
        <time>2017-03-22T15:39:46Z</time>
      </trkpt>
      <trkpt lat="43.44529" lon="6.14891">
        <ele>284.39999389648</ele>
        <time>2017-03-22T15:39:53Z</time>
      </trkpt>
      <trkpt lat="43.44527" lon="6.14888">
        <ele>285.20001220703</ele>
        <time>2017-03-22T15:39:56Z</time>
      </trkpt>
      <trkpt lat="43.44523" lon="6.14886">
        <ele>285.79998779297</ele>
        <time>2017-03-22T15:40:01Z</time>
      </trkpt>
      <trkpt lat="43.44518" lon="6.14886">
        <ele>286.60000610352</ele>
        <time>2017-03-22T15:40:06Z</time>
      </trkpt>
      <trkpt lat="43.44512" lon="6.14888">
        <ele>288.20001220703</ele>
        <time>2017-03-22T15:40:13Z</time>
      </trkpt>
      <trkpt lat="43.44508" lon="6.1489">
        <ele>288.79998779297</ele>
        <time>2017-03-22T15:40:18Z</time>
      </trkpt>
      <trkpt lat="43.44501" lon="6.14892">
        <ele>289.79998779297</ele>
        <time>2017-03-22T15:40:23Z</time>
      </trkpt>
      <trkpt lat="43.44498" lon="6.14893">
        <ele>290.20001220703</ele>
        <time>2017-03-22T15:40:26Z</time>
      </trkpt>
      <trkpt lat="43.44493" lon="6.14898">
        <ele>290.79998779297</ele>
        <time>2017-03-22T15:40:32Z</time>
      </trkpt>
      <trkpt lat="43.44488" lon="6.14903">
        <ele>291.20001220703</ele>
        <time>2017-03-22T15:40:36Z</time>
      </trkpt>
      <trkpt lat="43.44485" lon="6.14905">
        <ele>291.39999389648</ele>
        <time>2017-03-22T15:40:39Z</time>
      </trkpt>
      <trkpt lat="43.4448" lon="6.14907">
        <ele>291.39999389648</ele>
        <time>2017-03-22T15:40:45Z</time>
      </trkpt>
      <trkpt lat="43.44479" lon="6.14908">
        <ele>291.39999389648</ele>
        <time>2017-03-22T15:40:46Z</time>
      </trkpt>
      <trkpt lat="43.44479" lon="6.14911">
        <ele>291.39999389648</ele>
        <time>2017-03-22T15:40:51Z</time>
      </trkpt>
      <trkpt lat="43.44479" lon="6.14911">
        <ele>291.60000610352</ele>
        <time>2017-03-22T15:40:54Z</time>
      </trkpt>
      <trkpt lat="43.44479" lon="6.1491">
        <ele>291.60000610352</ele>
        <time>2017-03-22T15:40:56Z</time>
      </trkpt>
      <trkpt lat="43.44479" lon="6.1491">
        <ele>291.79998779297</ele>
        <time>2017-03-22T15:40:59Z</time>
      </trkpt>
      <trkpt lat="43.44479" lon="6.1491">
        <ele>292</ele>
        <time>2017-03-22T15:41:02Z</time>
      </trkpt>
      <trkpt lat="43.44479" lon="6.14911">
        <ele>292</ele>
        <time>2017-03-22T15:41:16Z</time>
      </trkpt>
      <trkpt lat="43.44479" lon="6.14911">
        <ele>292</ele>
        <time>2017-03-22T15:41:19Z</time>
      </trkpt>
      <trkpt lat="43.44479" lon="6.14911">
        <ele>292</ele>
        <time>2017-03-22T15:41:26Z</time>
      </trkpt>
      <trkpt lat="43.44479" lon="6.14911">
        <ele>291.60000610352</ele>
        <time>2017-03-22T15:41:36Z</time>
      </trkpt>
      <trkpt lat="43.44479" lon="6.14911">
        <ele>291.20001220703</ele>
        <time>2017-03-22T15:41:53Z</time>
      </trkpt>
      <trkpt lat="43.44478" lon="6.14911">
        <ele>291.20001220703</ele>
        <time>2017-03-22T15:42:06Z</time>
      </trkpt>
      <trkpt lat="43.44476" lon="6.14911">
        <ele>291.20001220703</ele>
        <time>2017-03-22T15:42:08Z</time>
      </trkpt>
      <trkpt lat="43.44473" lon="6.14916">
        <ele>290.39999389648</ele>
        <time>2017-03-22T15:42:12Z</time>
      </trkpt>
      <trkpt lat="43.44467" lon="6.14925">
        <ele>289.39999389648</ele>
        <time>2017-03-22T15:42:16Z</time>
      </trkpt>
      <trkpt lat="43.44458" lon="6.14933">
        <ele>289</ele>
        <time>2017-03-22T15:42:19Z</time>
      </trkpt>
      <trkpt lat="43.44445" lon="6.14944">
        <ele>288</ele>
        <time>2017-03-22T15:42:22Z</time>
      </trkpt>
      <trkpt lat="43.44436" lon="6.14952">
        <ele>286.79998779297</ele>
        <time>2017-03-22T15:42:24Z</time>
      </trkpt>
      <trkpt lat="43.44427" lon="6.1496">
        <ele>285.79998779297</ele>
        <time>2017-03-22T15:42:26Z</time>
      </trkpt>
      <trkpt lat="43.44422" lon="6.14965">
        <ele>285.39999389648</ele>
        <time>2017-03-22T15:42:27Z</time>
      </trkpt>
      <trkpt lat="43.44407" lon="6.14978">
        <ele>284.20001220703</ele>
        <time>2017-03-22T15:42:30Z</time>
      </trkpt>
      <trkpt lat="43.44396" lon="6.14987">
        <ele>282.39999389648</ele>
        <time>2017-03-22T15:42:32Z</time>
      </trkpt>
      <trkpt lat="43.4439" lon="6.14992">
        <ele>281.20001220703</ele>
        <time>2017-03-22T15:42:33Z</time>
      </trkpt>
      <trkpt lat="43.44384" lon="6.14997">
        <ele>280</ele>
        <time>2017-03-22T15:42:34Z</time>
      </trkpt>
      <trkpt lat="43.44373" lon="6.15007">
        <ele>278.20001220703</ele>
        <time>2017-03-22T15:42:36Z</time>
      </trkpt>
      <trkpt lat="43.44364" lon="6.15017">
        <ele>276.60000610352</ele>
        <time>2017-03-22T15:42:38Z</time>
      </trkpt>
      <trkpt lat="43.44356" lon="6.15025">
        <ele>275.39999389648</ele>
        <time>2017-03-22T15:42:40Z</time>
      </trkpt>
      <trkpt lat="43.4435" lon="6.15028">
        <ele>274.60000610352</ele>
        <time>2017-03-22T15:42:42Z</time>
      </trkpt>
      <trkpt lat="43.44347" lon="6.15027">
        <ele>274.20001220703</ele>
        <time>2017-03-22T15:42:43Z</time>
      </trkpt>
      <trkpt lat="43.44345" lon="6.15025">
        <ele>274.20001220703</ele>
        <time>2017-03-22T15:42:44Z</time>
      </trkpt>
      <trkpt lat="43.44344" lon="6.15021">
        <ele>274.20001220703</ele>
        <time>2017-03-22T15:42:46Z</time>
      </trkpt>
      <trkpt lat="43.44344" lon="6.15016">
        <ele>274.60000610352</ele>
        <time>2017-03-22T15:42:48Z</time>
      </trkpt>
      <trkpt lat="43.44345" lon="6.15007">
        <ele>275</ele>
        <time>2017-03-22T15:42:52Z</time>
      </trkpt>
      <trkpt lat="43.44347" lon="6.15002">
        <ele>275</ele>
        <time>2017-03-22T15:42:55Z</time>
      </trkpt>
      <trkpt lat="43.44351" lon="6.14991">
        <ele>275.20001220703</ele>
        <time>2017-03-22T15:43:00Z</time>
      </trkpt>
      <trkpt lat="43.44356" lon="6.14977">
        <ele>275.60000610352</ele>
        <time>2017-03-22T15:43:06Z</time>
      </trkpt>
      <trkpt lat="43.4436" lon="6.14966">
        <ele>276</ele>
        <time>2017-03-22T15:43:11Z</time>
      </trkpt>
      <trkpt lat="43.44362" lon="6.14958">
        <ele>276.39999389648</ele>
        <time>2017-03-22T15:43:14Z</time>
      </trkpt>
      <trkpt lat="43.44363" lon="6.14952">
        <ele>276.39999389648</ele>
        <time>2017-03-22T15:43:16Z</time>
      </trkpt>
      <trkpt lat="43.44365" lon="6.14931">
        <ele>277.20001220703</ele>
        <time>2017-03-22T15:43:23Z</time>
      </trkpt>
      <trkpt lat="43.44364" lon="6.14923">
        <ele>277.60000610352</ele>
        <time>2017-03-22T15:43:26Z</time>
      </trkpt>
      <trkpt lat="43.44361" lon="6.14912">
        <ele>278</ele>
        <time>2017-03-22T15:43:30Z</time>
      </trkpt>
      <trkpt lat="43.44361" lon="6.14901">
        <ele>278.60000610352</ele>
        <time>2017-03-22T15:43:34Z</time>
      </trkpt>
      <trkpt lat="43.44358" lon="6.14883">
        <ele>279.60000610352</ele>
        <time>2017-03-22T15:43:41Z</time>
      </trkpt>
      <trkpt lat="43.44356" lon="6.1487">
        <ele>280</ele>
        <time>2017-03-22T15:43:46Z</time>
      </trkpt>
      <trkpt lat="43.4435" lon="6.14843">
        <ele>280.79998779297</ele>
        <time>2017-03-22T15:43:56Z</time>
      </trkpt>
      <trkpt lat="43.44345" lon="6.14814">
        <ele>281.20001220703</ele>
        <time>2017-03-22T15:44:06Z</time>
      </trkpt>
      <trkpt lat="43.44344" lon="6.14797">
        <ele>281.20001220703</ele>
        <time>2017-03-22T15:44:12Z</time>
      </trkpt>
      <trkpt lat="43.44342" lon="6.14784">
        <ele>281.39999389648</ele>
        <time>2017-03-22T15:44:16Z</time>
      </trkpt>
      <trkpt lat="43.44338" lon="6.14772">
        <ele>281.60000610352</ele>
        <time>2017-03-22T15:44:20Z</time>
      </trkpt>
      <trkpt lat="43.44334" lon="6.14764">
        <ele>281.60000610352</ele>
        <time>2017-03-22T15:44:23Z</time>
      </trkpt>
      <trkpt lat="43.44322" lon="6.14744">
        <ele>282.79998779297</ele>
        <time>2017-03-22T15:44:32Z</time>
      </trkpt>
      <trkpt lat="43.44311" lon="6.14726">
        <ele>283.79998779297</ele>
        <time>2017-03-22T15:44:40Z</time>
      </trkpt>
      <trkpt lat="43.44305" lon="6.14712">
        <ele>284.20001220703</ele>
        <time>2017-03-22T15:44:46Z</time>
      </trkpt>
      <trkpt lat="43.44301" lon="6.147">
        <ele>284.79998779297</ele>
        <time>2017-03-22T15:44:51Z</time>
      </trkpt>
      <trkpt lat="43.44296" lon="6.14687">
        <ele>285.79998779297</ele>
        <time>2017-03-22T15:44:56Z</time>
      </trkpt>
      <trkpt lat="43.44293" lon="6.14681">
        <ele>285.79998779297</ele>
        <time>2017-03-22T15:44:59Z</time>
      </trkpt>
      <trkpt lat="43.44281" lon="6.14654">
        <ele>287</ele>
        <time>2017-03-22T15:45:10Z</time>
      </trkpt>
      <trkpt lat="43.44273" lon="6.14641">
        <ele>287.39999389648</ele>
        <time>2017-03-22T15:45:16Z</time>
      </trkpt>
      <trkpt lat="43.44263" lon="6.1462">
        <ele>288</ele>
        <time>2017-03-22T15:45:24Z</time>
      </trkpt>
      <trkpt lat="43.44261" lon="6.14614">
        <ele>288.60000610352</ele>
        <time>2017-03-22T15:45:26Z</time>
      </trkpt>
      <trkpt lat="43.44257" lon="6.146">
        <ele>289.20001220703</ele>
        <time>2017-03-22T15:45:32Z</time>
      </trkpt>
      <trkpt lat="43.44252" lon="6.14589">
        <ele>289.60000610352</ele>
        <time>2017-03-22T15:45:36Z</time>
      </trkpt>
      <trkpt lat="43.44248" lon="6.14573">
        <ele>290.20001220703</ele>
        <time>2017-03-22T15:45:42Z</time>
      </trkpt>
      <trkpt lat="43.44247" lon="6.14563">
        <ele>290.79998779297</ele>
        <time>2017-03-22T15:45:46Z</time>
      </trkpt>
      <trkpt lat="43.44247" lon="6.14558">
        <ele>291.39999389648</ele>
        <time>2017-03-22T15:45:48Z</time>
      </trkpt>
      <trkpt lat="43.44241" lon="6.14537">
        <ele>292</ele>
        <time>2017-03-22T15:45:56Z</time>
      </trkpt>
      <trkpt lat="43.44238" lon="6.14532">
        <ele>292.39999389648</ele>
        <time>2017-03-22T15:45:58Z</time>
      </trkpt>
      <trkpt lat="43.4423" lon="6.14517">
        <ele>293.39999389648</ele>
        <time>2017-03-22T15:46:06Z</time>
      </trkpt>
      <trkpt lat="43.44225" lon="6.14508">
        <ele>294.79998779297</ele>
        <time>2017-03-22T15:46:11Z</time>
      </trkpt>
      <trkpt lat="43.44221" lon="6.14502">
        <ele>295.79998779297</ele>
        <time>2017-03-22T15:46:14Z</time>
      </trkpt>
      <trkpt lat="43.4422" lon="6.145">
        <ele>296.20001220703</ele>
        <time>2017-03-22T15:46:15Z</time>
      </trkpt>
      <trkpt lat="43.44212" lon="6.14478">
        <ele>296.79998779297</ele>
        <time>2017-03-22T15:46:26Z</time>
      </trkpt>
      <trkpt lat="43.44212" lon="6.14477">
        <ele>297</ele>
        <time>2017-03-22T15:46:27Z</time>
      </trkpt>
      <trkpt lat="43.4421" lon="6.14471">
        <ele>298.20001220703</ele>
        <time>2017-03-22T15:46:31Z</time>
      </trkpt>
      <trkpt lat="43.44206" lon="6.14463">
        <ele>299.20001220703</ele>
        <time>2017-03-22T15:46:36Z</time>
      </trkpt>
      <trkpt lat="43.44205" lon="6.14461">
        <ele>299.20001220703</ele>
        <time>2017-03-22T15:46:37Z</time>
      </trkpt>
      <trkpt lat="43.44201" lon="6.14452">
        <ele>300.20001220703</ele>
        <time>2017-03-22T15:46:44Z</time>
      </trkpt>
      <trkpt lat="43.44201" lon="6.14448">
        <ele>300.39999389648</ele>
        <time>2017-03-22T15:46:46Z</time>
      </trkpt>
      <trkpt lat="43.44199" lon="6.14441">
        <ele>301.39999389648</ele>
        <time>2017-03-22T15:46:50Z</time>
      </trkpt>
      <trkpt lat="43.44197" lon="6.14432">
        <ele>301.79998779297</ele>
        <time>2017-03-22T15:46:56Z</time>
      </trkpt>
      <trkpt lat="43.44193" lon="6.14421">
        <ele>302.39999389648</ele>
        <time>2017-03-22T15:47:03Z</time>
      </trkpt>
      <trkpt lat="43.44191" lon="6.14418">
        <ele>302.60000610352</ele>
        <time>2017-03-22T15:47:06Z</time>
      </trkpt>
      <trkpt lat="43.44189" lon="6.1441">
        <ele>303.39999389648</ele>
        <time>2017-03-22T15:47:11Z</time>
      </trkpt>
      <trkpt lat="43.44186" lon="6.14402">
        <ele>303.79998779297</ele>
        <time>2017-03-22T15:47:16Z</time>
      </trkpt>
      <trkpt lat="43.44185" lon="6.14398">
        <ele>303.60000610352</ele>
        <time>2017-03-22T15:47:18Z</time>
      </trkpt>
      <trkpt lat="43.44179" lon="6.14388">
        <ele>304.39999389648</ele>
        <time>2017-03-22T15:47:26Z</time>
      </trkpt>
      <trkpt lat="43.44178" lon="6.14384">
        <ele>305.39999389648</ele>
        <time>2017-03-22T15:47:33Z</time>
      </trkpt>
      <trkpt lat="43.44178" lon="6.14384">
        <ele>305.39999389648</ele>
        <time>2017-03-22T15:47:35Z</time>
      </trkpt>
      <trkpt lat="43.44178" lon="6.14384">
        <ele>305.39999389648</ele>
        <time>2017-03-22T15:47:36Z</time>
      </trkpt>
      <trkpt lat="43.44178" lon="6.14384">
        <ele>305.20001220703</ele>
        <time>2017-03-22T15:47:43Z</time>
      </trkpt>
      <trkpt lat="43.44178" lon="6.14384">
        <ele>305.20001220703</ele>
        <time>2017-03-22T15:47:46Z</time>
      </trkpt>
      <trkpt lat="43.44179" lon="6.14384">
        <ele>305.39999389648</ele>
        <time>2017-03-22T15:47:49Z</time>
      </trkpt>
      <trkpt lat="43.44178" lon="6.14385">
        <ele>305.60000610352</ele>
        <time>2017-03-22T15:48:01Z</time>
      </trkpt>
      <trkpt lat="43.44178" lon="6.14387">
        <ele>305.39999389648</ele>
        <time>2017-03-22T15:48:06Z</time>
      </trkpt>
      <trkpt lat="43.44178" lon="6.1439">
        <ele>305.20001220703</ele>
        <time>2017-03-22T15:48:16Z</time>
      </trkpt>
      <trkpt lat="43.44178" lon="6.14389">
        <ele>305</ele>
        <time>2017-03-22T15:48:26Z</time>
      </trkpt>
      <trkpt lat="43.44179" lon="6.14389">
        <ele>305</ele>
        <time>2017-03-22T15:48:30Z</time>
      </trkpt>
      <trkpt lat="43.44179" lon="6.14388">
        <ele>304.79998779297</ele>
        <time>2017-03-22T15:48:34Z</time>
      </trkpt>
      <trkpt lat="43.44178" lon="6.14385">
        <ele>304.79998779297</ele>
        <time>2017-03-22T15:48:36Z</time>
      </trkpt>
      <trkpt lat="43.44176" lon="6.14378">
        <ele>305.39999389648</ele>
        <time>2017-03-22T15:48:39Z</time>
      </trkpt>
      <trkpt lat="43.44171" lon="6.14367">
        <ele>306</ele>
        <time>2017-03-22T15:48:44Z</time>
      </trkpt>
      <trkpt lat="43.4417" lon="6.14363">
        <ele>306</ele>
        <time>2017-03-22T15:48:46Z</time>
      </trkpt>
      <trkpt lat="43.44167" lon="6.14354">
        <ele>306.60000610352</ele>
        <time>2017-03-22T15:48:52Z</time>
      </trkpt>
      <trkpt lat="43.44165" lon="6.14349">
        <ele>307.39999389648</ele>
        <time>2017-03-22T15:49:06Z</time>
      </trkpt>
      <trkpt lat="43.44163" lon="6.14344">
        <ele>307.60000610352</ele>
        <time>2017-03-22T15:49:10Z</time>
      </trkpt>
      <trkpt lat="43.44162" lon="6.1434">
        <ele>307.39999389648</ele>
        <time>2017-03-22T15:49:12Z</time>
      </trkpt>
      <trkpt lat="43.44158" lon="6.14333">
        <ele>307.60000610352</ele>
        <time>2017-03-22T15:49:16Z</time>
      </trkpt>
      <trkpt lat="43.44155" lon="6.14325">
        <ele>308.60000610352</ele>
        <time>2017-03-22T15:49:20Z</time>
      </trkpt>
      <trkpt lat="43.44151" lon="6.14304">
        <ele>309.60000610352</ele>
        <time>2017-03-22T15:49:31Z</time>
      </trkpt>
      <trkpt lat="43.44148" lon="6.14289">
        <ele>310.79998779297</ele>
        <time>2017-03-22T15:49:39Z</time>
      </trkpt>
      <trkpt lat="43.44148" lon="6.14253">
        <ele>312.39999389648</ele>
        <time>2017-03-22T15:49:56Z</time>
      </trkpt>
      <trkpt lat="43.44149" lon="6.14239">
        <ele>313</ele>
        <time>2017-03-22T15:50:03Z</time>
      </trkpt>
      <trkpt lat="43.44149" lon="6.14232">
        <ele>313.20001220703</ele>
        <time>2017-03-22T15:50:06Z</time>
      </trkpt>
      <trkpt lat="43.44154" lon="6.14209">
        <ele>314</ele>
        <time>2017-03-22T15:50:17Z</time>
      </trkpt>
      <trkpt lat="43.44157" lon="6.1419">
        <ele>315</ele>
        <time>2017-03-22T15:50:26Z</time>
      </trkpt>
      <trkpt lat="43.4416" lon="6.14169">
        <ele>316.39999389648</ele>
        <time>2017-03-22T15:50:36Z</time>
      </trkpt>
      <trkpt lat="43.4416" lon="6.1415">
        <ele>317.20001220703</ele>
        <time>2017-03-22T15:50:46Z</time>
      </trkpt>
      <trkpt lat="43.4416" lon="6.14144">
        <ele>317.39999389648</ele>
        <time>2017-03-22T15:50:52Z</time>
      </trkpt>
      <trkpt lat="43.4416" lon="6.14144">
        <ele>317.60000610352</ele>
        <time>2017-03-22T15:50:56Z</time>
      </trkpt>
      <trkpt lat="43.4416" lon="6.14145">
        <ele>317.79998779297</ele>
        <time>2017-03-22T15:51:05Z</time>
      </trkpt>
      <trkpt lat="43.4416" lon="6.14145">
        <ele>317.39999389648</ele>
        <time>2017-03-22T15:51:16Z</time>
      </trkpt>
      <trkpt lat="43.4416" lon="6.14144">
        <ele>317.39999389648</ele>
        <time>2017-03-22T15:52:16Z</time>
      </trkpt>
      <trkpt lat="43.4416" lon="6.14144">
        <ele>317.39999389648</ele>
        <time>2017-03-22T15:52:26Z</time>
      </trkpt>
      <trkpt lat="43.4416" lon="6.14143">
        <ele>317.39999389648</ele>
        <time>2017-03-22T15:52:30Z</time>
      </trkpt>
      <trkpt lat="43.4416" lon="6.14138">
        <ele>316.79998779297</ele>
        <time>2017-03-22T15:52:33Z</time>
      </trkpt>
      <trkpt lat="43.4416" lon="6.14131">
        <ele>317</ele>
        <time>2017-03-22T15:52:36Z</time>
      </trkpt>
      <trkpt lat="43.44159" lon="6.14122">
        <ele>316.39999389648</ele>
        <time>2017-03-22T15:52:39Z</time>
      </trkpt>
      <trkpt lat="43.44159" lon="6.14108">
        <ele>316</ele>
        <time>2017-03-22T15:52:43Z</time>
      </trkpt>
      <trkpt lat="43.44159" lon="6.14096">
        <ele>315.39999389648</ele>
        <time>2017-03-22T15:52:46Z</time>
      </trkpt>
      <trkpt lat="43.44159" lon="6.14086">
        <ele>315</ele>
        <time>2017-03-22T15:52:48Z</time>
      </trkpt>
      <trkpt lat="43.44159" lon="6.1407">
        <ele>313.79998779297</ele>
        <time>2017-03-22T15:52:51Z</time>
      </trkpt>
      <trkpt lat="43.44158" lon="6.14042">
        <ele>312.79998779297</ele>
        <time>2017-03-22T15:52:56Z</time>
      </trkpt>
      <trkpt lat="43.44157" lon="6.14026">
        <ele>311.60000610352</ele>
        <time>2017-03-22T15:52:59Z</time>
      </trkpt>
      <trkpt lat="43.44154" lon="6.14002">
        <ele>310.39999389648</ele>
        <time>2017-03-22T15:53:04Z</time>
      </trkpt>
      <trkpt lat="43.44153" lon="6.13992">
        <ele>310.20001220703</ele>
        <time>2017-03-22T15:53:06Z</time>
      </trkpt>
      <trkpt lat="43.44152" lon="6.1396">
        <ele>309.39999389648</ele>
        <time>2017-03-22T15:53:11Z</time>
      </trkpt>
      <trkpt lat="43.44152" lon="6.13937">
        <ele>308.20001220703</ele>
        <time>2017-03-22T15:53:14Z</time>
      </trkpt>
      <trkpt lat="43.44153" lon="6.13922">
        <ele>307.60000610352</ele>
        <time>2017-03-22T15:53:16Z</time>
      </trkpt>
      <trkpt lat="43.44153" lon="6.13908">
        <ele>307</ele>
        <time>2017-03-22T15:53:18Z</time>
      </trkpt>
      <trkpt lat="43.44154" lon="6.13876">
        <ele>305.79998779297</ele>
        <time>2017-03-22T15:53:22Z</time>
      </trkpt>
      <trkpt lat="43.44153" lon="6.13848">
        <ele>304.60000610352</ele>
        <time>2017-03-22T15:53:25Z</time>
      </trkpt>
      <trkpt lat="43.44153" lon="6.13838">
        <ele>304.20001220703</ele>
        <time>2017-03-22T15:53:26Z</time>
      </trkpt>
      <trkpt lat="43.44152" lon="6.13818">
        <ele>303.60000610352</ele>
        <time>2017-03-22T15:53:28Z</time>
      </trkpt>
      <trkpt lat="43.44151" lon="6.13796">
        <ele>302.20001220703</ele>
        <time>2017-03-22T15:53:30Z</time>
      </trkpt>
      <trkpt lat="43.44151" lon="6.13775">
        <ele>300.39999389648</ele>
        <time>2017-03-22T15:53:32Z</time>
      </trkpt>
      <trkpt lat="43.44152" lon="6.13752">
        <ele>299.39999389648</ele>
        <time>2017-03-22T15:53:34Z</time>
      </trkpt>
      <trkpt lat="43.44154" lon="6.1373">
        <ele>298</ele>
        <time>2017-03-22T15:53:36Z</time>
      </trkpt>
      <trkpt lat="43.44157" lon="6.13707">
        <ele>296.20001220703</ele>
        <time>2017-03-22T15:53:38Z</time>
      </trkpt>
      <trkpt lat="43.44158" lon="6.13685">
        <ele>294.60000610352</ele>
        <time>2017-03-22T15:53:40Z</time>
      </trkpt>
      <trkpt lat="43.44162" lon="6.13618">
        <ele>293.20001220703</ele>
        <time>2017-03-22T15:53:46Z</time>
      </trkpt>
      <trkpt lat="43.44166" lon="6.13581">
        <ele>292.20001220703</ele>
        <time>2017-03-22T15:53:49Z</time>
      </trkpt>
      <trkpt lat="43.44164" lon="6.13545">
        <ele>290.39999389648</ele>
        <time>2017-03-22T15:53:52Z</time>
      </trkpt>
      <trkpt lat="43.44164" lon="6.13534">
        <ele>289.79998779297</ele>
        <time>2017-03-22T15:53:53Z</time>
      </trkpt>
      <trkpt lat="43.44164" lon="6.13522">
        <ele>289.20001220703</ele>
        <time>2017-03-22T15:53:54Z</time>
      </trkpt>
      <trkpt lat="43.44167" lon="6.13488">
        <ele>287.79998779297</ele>
        <time>2017-03-22T15:53:57Z</time>
      </trkpt>
      <trkpt lat="43.44167" lon="6.13454">
        <ele>286.79998779297</ele>
        <time>2017-03-22T15:54:00Z</time>
      </trkpt>
      <trkpt lat="43.44165" lon="6.13433">
        <ele>285.60000610352</ele>
        <time>2017-03-22T15:54:02Z</time>
      </trkpt>
      <trkpt lat="43.44159" lon="6.13379">
        <ele>282.60000610352</ele>
        <time>2017-03-22T15:54:07Z</time>
      </trkpt>
      <trkpt lat="43.44155" lon="6.13359">
        <ele>281.20001220703</ele>
        <time>2017-03-22T15:54:09Z</time>
      </trkpt>
      <trkpt lat="43.44146" lon="6.13284">
        <ele>278.79998779297</ele>
        <time>2017-03-22T15:54:16Z</time>
      </trkpt>
      <trkpt lat="43.44141" lon="6.13253">
        <ele>276</ele>
        <time>2017-03-22T15:54:19Z</time>
      </trkpt>
      <trkpt lat="43.44142" lon="6.13231">
        <ele>274.20001220703</ele>
        <time>2017-03-22T15:54:21Z</time>
      </trkpt>
      <trkpt lat="43.44143" lon="6.13209">
        <ele>272.79998779297</ele>
        <time>2017-03-22T15:54:23Z</time>
      </trkpt>
      <trkpt lat="43.4414" lon="6.13188">
        <ele>271</ele>
        <time>2017-03-22T15:54:25Z</time>
      </trkpt>
      <trkpt lat="43.44133" lon="6.13158">
        <ele>269.79998779297</ele>
        <time>2017-03-22T15:54:28Z</time>
      </trkpt>
      <trkpt lat="43.4413" lon="6.13148">
        <ele>269.60000610352</ele>
        <time>2017-03-22T15:54:29Z</time>
      </trkpt>
      <trkpt lat="43.4412" lon="6.13132">
        <ele>269</ele>
        <time>2017-03-22T15:54:31Z</time>
      </trkpt>
      <trkpt lat="43.44103" lon="6.13115">
        <ele>268.60000610352</ele>
        <time>2017-03-22T15:54:34Z</time>
      </trkpt>
      <trkpt lat="43.44091" lon="6.13108">
        <ele>268</ele>
        <time>2017-03-22T15:54:36Z</time>
      </trkpt>
      <trkpt lat="43.44077" lon="6.13108">
        <ele>267.60000610352</ele>
        <time>2017-03-22T15:54:38Z</time>
      </trkpt>
      <trkpt lat="43.44062" lon="6.13111">
        <ele>266.39999389648</ele>
        <time>2017-03-22T15:54:40Z</time>
      </trkpt>
      <trkpt lat="43.44048" lon="6.13114">
        <ele>265.20001220703</ele>
        <time>2017-03-22T15:54:42Z</time>
      </trkpt>
      <trkpt lat="43.44035" lon="6.13115">
        <ele>264.20001220703</ele>
        <time>2017-03-22T15:54:44Z</time>
      </trkpt>
      <trkpt lat="43.44029" lon="6.13114">
        <ele>263.79998779297</ele>
        <time>2017-03-22T15:54:45Z</time>
      </trkpt>
      <trkpt lat="43.44023" lon="6.13111">
        <ele>263.39999389648</ele>
        <time>2017-03-22T15:54:46Z</time>
      </trkpt>
      <trkpt lat="43.44016" lon="6.13109">
        <ele>262.79998779297</ele>
        <time>2017-03-22T15:54:47Z</time>
      </trkpt>
      <trkpt lat="43.4401" lon="6.13107">
        <ele>262.20001220703</ele>
        <time>2017-03-22T15:54:48Z</time>
      </trkpt>
      <trkpt lat="43.43996" lon="6.13105">
        <ele>261.60000610352</ele>
        <time>2017-03-22T15:54:50Z</time>
      </trkpt>
      <trkpt lat="43.43984" lon="6.13102">
        <ele>261.20001220703</ele>
        <time>2017-03-22T15:54:52Z</time>
      </trkpt>
      <trkpt lat="43.43961" lon="6.13092">
        <ele>260.79998779297</ele>
        <time>2017-03-22T15:54:56Z</time>
      </trkpt>
      <trkpt lat="43.4395" lon="6.13092">
        <ele>260.60000610352</ele>
        <time>2017-03-22T15:54:58Z</time>
      </trkpt>
      <trkpt lat="43.43945" lon="6.13095">
        <ele>260.20001220703</ele>
        <time>2017-03-22T15:54:59Z</time>
      </trkpt>
      <trkpt lat="43.43939" lon="6.13099">
        <ele>259.60000610352</ele>
        <time>2017-03-22T15:55:00Z</time>
      </trkpt>
      <trkpt lat="43.43934" lon="6.13103">
        <ele>258.60000610352</ele>
        <time>2017-03-22T15:55:01Z</time>
      </trkpt>
      <trkpt lat="43.43929" lon="6.13105">
        <ele>257.60000610352</ele>
        <time>2017-03-22T15:55:02Z</time>
      </trkpt>
      <trkpt lat="43.43924" lon="6.13106">
        <ele>257</ele>
        <time>2017-03-22T15:55:03Z</time>
      </trkpt>
      <trkpt lat="43.4392" lon="6.13106">
        <ele>257</ele>
        <time>2017-03-22T15:55:04Z</time>
      </trkpt>
      <trkpt lat="43.43911" lon="6.13102">
        <ele>256.60000610352</ele>
        <time>2017-03-22T15:55:06Z</time>
      </trkpt>
      <trkpt lat="43.43908" lon="6.13099">
        <ele>256.20001220703</ele>
        <time>2017-03-22T15:55:07Z</time>
      </trkpt>
      <trkpt lat="43.43904" lon="6.13096">
        <ele>255.80000305176</ele>
        <time>2017-03-22T15:55:08Z</time>
      </trkpt>
      <trkpt lat="43.439" lon="6.13095">
        <ele>255.19999694824</ele>
        <time>2017-03-22T15:55:09Z</time>
      </trkpt>
      <trkpt lat="43.43898" lon="6.13096">
        <ele>254.19999694824</ele>
        <time>2017-03-22T15:55:10Z</time>
      </trkpt>
      <trkpt lat="43.43888" lon="6.13106">
        <ele>253.60000610352</ele>
        <time>2017-03-22T15:55:16Z</time>
      </trkpt>
      <trkpt lat="43.43885" lon="6.13114">
        <ele>253.80000305176</ele>
        <time>2017-03-22T15:55:19Z</time>
      </trkpt>
      <trkpt lat="43.4388" lon="6.1313">
        <ele>254.19999694824</ele>
        <time>2017-03-22T15:55:25Z</time>
      </trkpt>
      <trkpt lat="43.43867" lon="6.13159">
        <ele>254.80000305176</ele>
        <time>2017-03-22T15:55:36Z</time>
      </trkpt>
      <trkpt lat="43.43864" lon="6.13176">
        <ele>254.80000305176</ele>
        <time>2017-03-22T15:55:42Z</time>
      </trkpt>
      <trkpt lat="43.43863" lon="6.13183">
        <ele>254.80000305176</ele>
        <time>2017-03-22T15:55:45Z</time>
      </trkpt>
      <trkpt lat="43.43863" lon="6.13185">
        <ele>254.80000305176</ele>
        <time>2017-03-22T15:55:46Z</time>
      </trkpt>
      <trkpt lat="43.43864" lon="6.13218">
        <ele>253.39999389648</ele>
        <time>2017-03-22T15:55:56Z</time>
      </trkpt>
      <trkpt lat="43.43863" lon="6.13226">
        <ele>253.19999694824</ele>
        <time>2017-03-22T15:55:58Z</time>
      </trkpt>
      <trkpt lat="43.4386" lon="6.1326">
        <ele>252</ele>
        <time>2017-03-22T15:56:04Z</time>
      </trkpt>
      <trkpt lat="43.43859" lon="6.13275">
        <ele>251.60000610352</ele>
        <time>2017-03-22T15:56:06Z</time>
      </trkpt>
      <trkpt lat="43.43858" lon="6.13291">
        <ele>250.80000305176</ele>
        <time>2017-03-22T15:56:08Z</time>
      </trkpt>
      <trkpt lat="43.4386" lon="6.13318">
        <ele>249.39999389648</ele>
        <time>2017-03-22T15:56:11Z</time>
      </trkpt>
      <trkpt lat="43.4386" lon="6.13336">
        <ele>248.60000610352</ele>
        <time>2017-03-22T15:56:13Z</time>
      </trkpt>
      <trkpt lat="43.4386" lon="6.13344">
        <ele>248.19999694824</ele>
        <time>2017-03-22T15:56:14Z</time>
      </trkpt>
      <trkpt lat="43.43858" lon="6.13362">
        <ele>247.60000610352</ele>
        <time>2017-03-22T15:56:16Z</time>
      </trkpt>
      <trkpt lat="43.43855" lon="6.1338">
        <ele>247</ele>
        <time>2017-03-22T15:56:18Z</time>
      </trkpt>
      <trkpt lat="43.43847" lon="6.13407">
        <ele>245.60000610352</ele>
        <time>2017-03-22T15:56:21Z</time>
      </trkpt>
      <trkpt lat="43.43841" lon="6.13435">
        <ele>244</ele>
        <time>2017-03-22T15:56:24Z</time>
      </trkpt>
      <trkpt lat="43.43839" lon="6.13454">
        <ele>243</ele>
        <time>2017-03-22T15:56:26Z</time>
      </trkpt>
      <trkpt lat="43.43839" lon="6.13464">
        <ele>242.80000305176</ele>
        <time>2017-03-22T15:56:27Z</time>
      </trkpt>
      <trkpt lat="43.43835" lon="6.13516">
        <ele>241.80000305176</ele>
        <time>2017-03-22T15:56:32Z</time>
      </trkpt>
      <trkpt lat="43.43831" lon="6.13539">
        <ele>240</ele>
        <time>2017-03-22T15:56:34Z</time>
      </trkpt>
      <trkpt lat="43.43829" lon="6.13551">
        <ele>238.80000305176</ele>
        <time>2017-03-22T15:56:35Z</time>
      </trkpt>
      <trkpt lat="43.43826" lon="6.13561">
        <ele>238</ele>
        <time>2017-03-22T15:56:36Z</time>
      </trkpt>
      <trkpt lat="43.43823" lon="6.1357">
        <ele>237.39999389648</ele>
        <time>2017-03-22T15:56:37Z</time>
      </trkpt>
      <trkpt lat="43.43818" lon="6.13578">
        <ele>237</ele>
        <time>2017-03-22T15:56:38Z</time>
      </trkpt>
      <trkpt lat="43.43804" lon="6.136">
        <ele>236.60000610352</ele>
        <time>2017-03-22T15:56:41Z</time>
      </trkpt>
      <trkpt lat="43.438" lon="6.13608">
        <ele>236.19999694824</ele>
        <time>2017-03-22T15:56:42Z</time>
      </trkpt>
      <trkpt lat="43.43798" lon="6.13617">
        <ele>235.80000305176</ele>
        <time>2017-03-22T15:56:43Z</time>
      </trkpt>
      <trkpt lat="43.43792" lon="6.13643">
        <ele>234.80000305176</ele>
        <time>2017-03-22T15:56:46Z</time>
      </trkpt>
      <trkpt lat="43.43777" lon="6.13701">
        <ele>234</ele>
        <time>2017-03-22T15:56:53Z</time>
      </trkpt>
      <trkpt lat="43.43772" lon="6.13716">
        <ele>233.60000610352</ele>
        <time>2017-03-22T15:56:55Z</time>
      </trkpt>
      <trkpt lat="43.43769" lon="6.13724">
        <ele>233.39999389648</ele>
        <time>2017-03-22T15:56:56Z</time>
      </trkpt>
      <trkpt lat="43.43761" lon="6.1374">
        <ele>233</ele>
        <time>2017-03-22T15:56:58Z</time>
      </trkpt>
      <trkpt lat="43.43752" lon="6.13755">
        <ele>231.80000305176</ele>
        <time>2017-03-22T15:57:00Z</time>
      </trkpt>
      <trkpt lat="43.43742" lon="6.13768">
        <ele>231.19999694824</ele>
        <time>2017-03-22T15:57:02Z</time>
      </trkpt>
      <trkpt lat="43.43737" lon="6.13776">
        <ele>230.60000610352</ele>
        <time>2017-03-22T15:57:03Z</time>
      </trkpt>
      <trkpt lat="43.43726" lon="6.13796">
        <ele>229.80000305176</ele>
        <time>2017-03-22T15:57:06Z</time>
      </trkpt>
      <trkpt lat="43.43715" lon="6.13816">
        <ele>230.19999694824</ele>
        <time>2017-03-22T15:57:10Z</time>
      </trkpt>
      <trkpt lat="43.43709" lon="6.13825">
        <ele>230.39999389648</ele>
        <time>2017-03-22T15:57:12Z</time>
      </trkpt>
      <trkpt lat="43.43703" lon="6.13832">
        <ele>230.60000610352</ele>
        <time>2017-03-22T15:57:14Z</time>
      </trkpt>
      <trkpt lat="43.43697" lon="6.13839">
        <ele>230.60000610352</ele>
        <time>2017-03-22T15:57:16Z</time>
      </trkpt>
      <trkpt lat="43.43689" lon="6.13849">
        <ele>231</ele>
        <time>2017-03-22T15:57:20Z</time>
      </trkpt>
      <trkpt lat="43.43685" lon="6.13854">
        <ele>231.39999389648</ele>
        <time>2017-03-22T15:57:23Z</time>
      </trkpt>
      <trkpt lat="43.43681" lon="6.1386">
        <ele>231.39999389648</ele>
        <time>2017-03-22T15:57:26Z</time>
      </trkpt>
      <trkpt lat="43.4367" lon="6.13877">
        <ele>230.80000305176</ele>
        <time>2017-03-22T15:57:36Z</time>
      </trkpt>
      <trkpt lat="43.43666" lon="6.1388">
        <ele>230.60000610352</ele>
        <time>2017-03-22T15:57:42Z</time>
      </trkpt>
      <trkpt lat="43.4366" lon="6.13888">
        <ele>230.19999694824</ele>
        <time>2017-03-22T15:57:46Z</time>
      </trkpt>
      <trkpt lat="43.43652" lon="6.139">
        <ele>229.60000610352</ele>
        <time>2017-03-22T15:57:50Z</time>
      </trkpt>
      <trkpt lat="43.43642" lon="6.13916">
        <ele>228.19999694824</ele>
        <time>2017-03-22T15:57:54Z</time>
      </trkpt>
      <trkpt lat="43.43636" lon="6.13927">
        <ele>227</ele>
        <time>2017-03-22T15:57:56Z</time>
      </trkpt>
      <trkpt lat="43.43626" lon="6.13943">
        <ele>225.60000610352</ele>
        <time>2017-03-22T15:57:59Z</time>
      </trkpt>
      <trkpt lat="43.43616" lon="6.13962">
        <ele>224.60000610352</ele>
        <time>2017-03-22T15:58:02Z</time>
      </trkpt>
      <trkpt lat="43.43608" lon="6.13977">
        <ele>223.60000610352</ele>
        <time>2017-03-22T15:58:04Z</time>
      </trkpt>
      <trkpt lat="43.43601" lon="6.13993">
        <ele>222.60000610352</ele>
        <time>2017-03-22T15:58:06Z</time>
      </trkpt>
      <trkpt lat="43.43597" lon="6.14001">
        <ele>222.19999694824</ele>
        <time>2017-03-22T15:58:07Z</time>
      </trkpt>
      <trkpt lat="43.43585" lon="6.14024">
        <ele>221</ele>
        <time>2017-03-22T15:58:10Z</time>
      </trkpt>
      <trkpt lat="43.43576" lon="6.14041">
        <ele>220.19999694824</ele>
        <time>2017-03-22T15:58:12Z</time>
      </trkpt>
      <trkpt lat="43.43572" lon="6.14048">
        <ele>219.60000610352</ele>
        <time>2017-03-22T15:58:13Z</time>
      </trkpt>
      <trkpt lat="43.43567" lon="6.14055">
        <ele>219.19999694824</ele>
        <time>2017-03-22T15:58:14Z</time>
      </trkpt>
      <trkpt lat="43.43557" lon="6.14068">
        <ele>218.39999389648</ele>
        <time>2017-03-22T15:58:16Z</time>
      </trkpt>
      <trkpt lat="43.43537" lon="6.14094">
        <ele>217.80000305176</ele>
        <time>2017-03-22T15:58:21Z</time>
      </trkpt>
      <trkpt lat="43.43528" lon="6.14113">
        <ele>217.60000610352</ele>
        <time>2017-03-22T15:58:24Z</time>
      </trkpt>
      <trkpt lat="43.4352" lon="6.14126">
        <ele>217.19999694824</ele>
        <time>2017-03-22T15:58:26Z</time>
      </trkpt>
      <trkpt lat="43.4351" lon="6.14137">
        <ele>216.39999389648</ele>
        <time>2017-03-22T15:58:28Z</time>
      </trkpt>
      <trkpt lat="43.43501" lon="6.14146">
        <ele>214.80000305176</ele>
        <time>2017-03-22T15:58:30Z</time>
      </trkpt>
      <trkpt lat="43.43493" lon="6.14152">
        <ele>213</ele>
        <time>2017-03-22T15:58:32Z</time>
      </trkpt>
      <trkpt lat="43.43489" lon="6.14154">
        <ele>211.80000305176</ele>
        <time>2017-03-22T15:58:33Z</time>
      </trkpt>
      <trkpt lat="43.43483" lon="6.14163">
        <ele>210.19999694824</ele>
        <time>2017-03-22T15:58:35Z</time>
      </trkpt>
      <trkpt lat="43.43483" lon="6.1417">
        <ele>209.60000610352</ele>
        <time>2017-03-22T15:58:36Z</time>
      </trkpt>
      <trkpt lat="43.43484" lon="6.14176">
        <ele>209</ele>
        <time>2017-03-22T15:58:37Z</time>
      </trkpt>
      <trkpt lat="43.43484" lon="6.14188">
        <ele>207.80000305176</ele>
        <time>2017-03-22T15:58:39Z</time>
      </trkpt>
      <trkpt lat="43.43483" lon="6.142">
        <ele>206.80000305176</ele>
        <time>2017-03-22T15:58:42Z</time>
      </trkpt>
      <trkpt lat="43.43483" lon="6.14206">
        <ele>206.19999694824</ele>
        <time>2017-03-22T15:58:44Z</time>
      </trkpt>
      <trkpt lat="43.43477" lon="6.14208">
        <ele>205.60000610352</ele>
        <time>2017-03-22T15:58:46Z</time>
      </trkpt>
      <trkpt lat="43.43473" lon="6.14208">
        <ele>205.19999694824</ele>
        <time>2017-03-22T15:58:47Z</time>
      </trkpt>
      <trkpt lat="43.43463" lon="6.14208">
        <ele>204.39999389648</ele>
        <time>2017-03-22T15:58:49Z</time>
      </trkpt>
      <trkpt lat="43.43453" lon="6.14207">
        <ele>204</ele>
        <time>2017-03-22T15:58:51Z</time>
      </trkpt>
      <trkpt lat="43.43443" lon="6.14208">
        <ele>203.39999389648</ele>
        <time>2017-03-22T15:58:54Z</time>
      </trkpt>
      <trkpt lat="43.4344" lon="6.14208">
        <ele>203.19999694824</ele>
        <time>2017-03-22T15:58:56Z</time>
      </trkpt>
      <trkpt lat="43.43439" lon="6.14208">
        <ele>203.39999389648</ele>
        <time>2017-03-22T15:59:01Z</time>
      </trkpt>
      <trkpt lat="43.43429" lon="6.14208">
        <ele>203</ele>
        <time>2017-03-22T15:59:06Z</time>
      </trkpt>
      <trkpt lat="43.43422" lon="6.14208">
        <ele>202.80000305176</ele>
        <time>2017-03-22T15:59:10Z</time>
      </trkpt>
      <trkpt lat="43.43421" lon="6.14205">
        <ele>202.80000305176</ele>
        <time>2017-03-22T15:59:13Z</time>
      </trkpt>
      <trkpt lat="43.43419" lon="6.14196">
        <ele>202.80000305176</ele>
        <time>2017-03-22T15:59:16Z</time>
      </trkpt>
      <trkpt lat="43.43418" lon="6.14189">
        <ele>203</ele>
        <time>2017-03-22T15:59:18Z</time>
      </trkpt>
      <trkpt lat="43.43422" lon="6.14176">
        <ele>203.39999389648</ele>
        <time>2017-03-22T15:59:26Z</time>
      </trkpt>
      <trkpt lat="43.43422" lon="6.14176">
        <ele>203.80000305176</ele>
        <time>2017-03-22T15:59:36Z</time>
      </trkpt>
      <trkpt lat="43.43424" lon="6.14175">
        <ele>203.60000610352</ele>
        <time>2017-03-22T15:59:44Z</time>
      </trkpt>
      <trkpt lat="43.43424" lon="6.14175">
        <ele>203.60000610352</ele>
        <time>2017-03-22T15:59:46Z</time>
      </trkpt>
      <trkpt lat="43.43424" lon="6.14174">
        <ele>203.60000610352</ele>
        <time>2017-03-22T15:59:56Z</time>
      </trkpt>
      <trkpt lat="43.43423" lon="6.14174">
        <ele>203.60000610352</ele>
        <time>2017-03-22T15:59:57Z</time>
      </trkpt>
      <trkpt lat="43.43422" lon="6.14172">
        <ele>203.60000610352</ele>
        <time>2017-03-22T15:59:59Z</time>
      </trkpt>
      <trkpt lat="43.4342" lon="6.14171">
        <ele>203.80000305176</ele>
        <time>2017-03-22T16:00:00Z</time>
      </trkpt>
      <trkpt lat="43.43409" lon="6.14159">
        <ele>203.80000305176</ele>
        <time>2017-03-22T16:00:06Z</time>
      </trkpt>
      <trkpt lat="43.43389" lon="6.14132">
        <ele>204</ele>
        <time>2017-03-22T16:00:16Z</time>
      </trkpt>
      <trkpt lat="43.43373" lon="6.14096">
        <ele>204.19999694824</ele>
        <time>2017-03-22T16:00:26Z</time>
      </trkpt>
      <trkpt lat="43.43372" lon="6.14092">
        <ele>204.39999389648</ele>
        <time>2017-03-22T16:00:27Z</time>
      </trkpt>
      <trkpt lat="43.43367" lon="6.14073">
        <ele>204.80000305176</ele>
        <time>2017-03-22T16:00:32Z</time>
      </trkpt>
      <trkpt lat="43.43363" lon="6.14057">
        <ele>205.19999694824</ele>
        <time>2017-03-22T16:00:36Z</time>
      </trkpt>
      <trkpt lat="43.43359" lon="6.14021">
        <ele>204.80000305176</ele>
        <time>2017-03-22T16:00:43Z</time>
      </trkpt>
      <trkpt lat="43.43361" lon="6.14002">
        <ele>204.60000610352</ele>
        <time>2017-03-22T16:00:46Z</time>
      </trkpt>
      <trkpt lat="43.43362" lon="6.13971">
        <ele>203.19999694824</ele>
        <time>2017-03-22T16:00:50Z</time>
      </trkpt>
      <trkpt lat="43.43361" lon="6.13952">
        <ele>201.80000305176</ele>
        <time>2017-03-22T16:00:52Z</time>
      </trkpt>
      <trkpt lat="43.43359" lon="6.13924">
        <ele>200.60000610352</ele>
        <time>2017-03-22T16:00:55Z</time>
      </trkpt>
      <trkpt lat="43.43358" lon="6.13914">
        <ele>200.39999389648</ele>
        <time>2017-03-22T16:00:56Z</time>
      </trkpt>
      <trkpt lat="43.43353" lon="6.13886">
        <ele>199.80000305176</ele>
        <time>2017-03-22T16:00:59Z</time>
      </trkpt>
      <trkpt lat="43.43349" lon="6.13878">
        <ele>199.39999389648</ele>
        <time>2017-03-22T16:01:00Z</time>
      </trkpt>
      <trkpt lat="43.43346" lon="6.1387">
        <ele>199.19999694824</ele>
        <time>2017-03-22T16:01:01Z</time>
      </trkpt>
      <trkpt lat="43.43338" lon="6.13856">
        <ele>198.39999389648</ele>
        <time>2017-03-22T16:01:03Z</time>
      </trkpt>
      <trkpt lat="43.43333" lon="6.13849">
        <ele>198.19999694824</ele>
        <time>2017-03-22T16:01:04Z</time>
      </trkpt>
      <trkpt lat="43.43315" lon="6.13821">
        <ele>197</ele>
        <time>2017-03-22T16:01:08Z</time>
      </trkpt>
      <trkpt lat="43.43298" lon="6.13793">
        <ele>195.80000305176</ele>
        <time>2017-03-22T16:01:12Z</time>
      </trkpt>
      <trkpt lat="43.43279" lon="6.13766">
        <ele>194.80000305176</ele>
        <time>2017-03-22T16:01:16Z</time>
      </trkpt>
      <trkpt lat="43.43275" lon="6.1376">
        <ele>194.39999389648</ele>
        <time>2017-03-22T16:01:17Z</time>
      </trkpt>
      <trkpt lat="43.4323" lon="6.1369">
        <ele>192</ele>
        <time>2017-03-22T16:01:27Z</time>
      </trkpt>
      <trkpt lat="43.43207" lon="6.13654">
        <ele>190.80000305176</ele>
        <time>2017-03-22T16:01:32Z</time>
      </trkpt>
      <trkpt lat="43.43188" lon="6.13626">
        <ele>190.19999694824</ele>
        <time>2017-03-22T16:01:36Z</time>
      </trkpt>
      <trkpt lat="43.43179" lon="6.13613">
        <ele>189.80000305176</ele>
        <time>2017-03-22T16:01:38Z</time>
      </trkpt>
      <trkpt lat="43.43148" lon="6.13566">
        <ele>189.19999694824</ele>
        <time>2017-03-22T16:01:46Z</time>
      </trkpt>
      <trkpt lat="43.43134" lon="6.13543">
        <ele>188.80000305176</ele>
        <time>2017-03-22T16:01:50Z</time>
      </trkpt>
      <trkpt lat="43.43131" lon="6.13537">
        <ele>188.60000610352</ele>
        <time>2017-03-22T16:01:51Z</time>
      </trkpt>
      <trkpt lat="43.43124" lon="6.13516">
        <ele>188.19999694824</ele>
        <time>2017-03-22T16:01:54Z</time>
      </trkpt>
      <trkpt lat="43.43122" lon="6.13501">
        <ele>188.19999694824</ele>
        <time>2017-03-22T16:01:56Z</time>
      </trkpt>
      <trkpt lat="43.43122" lon="6.13478">
        <ele>187.39999389648</ele>
        <time>2017-03-22T16:01:59Z</time>
      </trkpt>
      <trkpt lat="43.43127" lon="6.13422">
        <ele>186.19999694824</ele>
        <time>2017-03-22T16:02:06Z</time>
      </trkpt>
      <trkpt lat="43.43131" lon="6.13382">
        <ele>185</ele>
        <time>2017-03-22T16:02:11Z</time>
      </trkpt>
      <trkpt lat="43.43136" lon="6.13343">
        <ele>184.19999694824</ele>
        <time>2017-03-22T16:02:16Z</time>
      </trkpt>
      <trkpt lat="43.43137" lon="6.13336">
        <ele>184</ele>
        <time>2017-03-22T16:02:17Z</time>
      </trkpt>
      <trkpt lat="43.43139" lon="6.13292">
        <ele>183.60000610352</ele>
        <time>2017-03-22T16:02:26Z</time>
      </trkpt>
      <trkpt lat="43.43139" lon="6.13284">
        <ele>183.80000305176</ele>
        <time>2017-03-22T16:02:28Z</time>
      </trkpt>
      <trkpt lat="43.43132" lon="6.13258">
        <ele>183.39999389648</ele>
        <time>2017-03-22T16:02:33Z</time>
      </trkpt>
      <trkpt lat="43.43129" lon="6.13238">
        <ele>183</ele>
        <time>2017-03-22T16:02:36Z</time>
      </trkpt>
      <trkpt lat="43.43128" lon="6.13232">
        <ele>183</ele>
        <time>2017-03-22T16:02:37Z</time>
      </trkpt>
      <trkpt lat="43.43104" lon="6.13137">
        <ele>183.39999389648</ele>
        <time>2017-03-22T16:02:53Z</time>
      </trkpt>
      <trkpt lat="43.431" lon="6.1312">
        <ele>183.39999389648</ele>
        <time>2017-03-22T16:02:56Z</time>
      </trkpt>
      <trkpt lat="43.43096" lon="6.13102">
        <ele>183.60000610352</ele>
        <time>2017-03-22T16:02:59Z</time>
      </trkpt>
      <trkpt lat="43.43084" lon="6.13058">
        <ele>183.80000305176</ele>
        <time>2017-03-22T16:03:06Z</time>
      </trkpt>
      <trkpt lat="43.43068" lon="6.12994">
        <ele>183.39999389648</ele>
        <time>2017-03-22T16:03:16Z</time>
      </trkpt>
      <trkpt lat="43.43056" lon="6.12944">
        <ele>184</ele>
        <time>2017-03-22T16:03:24Z</time>
      </trkpt>
      <trkpt lat="43.43053" lon="6.12931">
        <ele>184</ele>
        <time>2017-03-22T16:03:26Z</time>
      </trkpt>
      <trkpt lat="43.43042" lon="6.12893">
        <ele>183.80000305176</ele>
        <time>2017-03-22T16:03:32Z</time>
      </trkpt>
      <trkpt lat="43.43035" lon="6.12866">
        <ele>184.19999694824</ele>
        <time>2017-03-22T16:03:36Z</time>
      </trkpt>
      <trkpt lat="43.43024" lon="6.1281">
        <ele>184.19999694824</ele>
        <time>2017-03-22T16:03:44Z</time>
      </trkpt>
      <trkpt lat="43.43022" lon="6.12788">
        <ele>184</ele>
        <time>2017-03-22T16:03:47Z</time>
      </trkpt>
      <trkpt lat="43.43024" lon="6.12725">
        <ele>183.80000305176</ele>
        <time>2017-03-22T16:03:56Z</time>
      </trkpt>
      <trkpt lat="43.43026" lon="6.12682">
        <ele>184.19999694824</ele>
        <time>2017-03-22T16:04:02Z</time>
      </trkpt>
      <trkpt lat="43.43027" lon="6.12655">
        <ele>184</ele>
        <time>2017-03-22T16:04:06Z</time>
      </trkpt>
      <trkpt lat="43.43028" lon="6.12616">
        <ele>184.39999389648</ele>
        <time>2017-03-22T16:04:12Z</time>
      </trkpt>
      <trkpt lat="43.43027" lon="6.12588">
        <ele>184.80000305176</ele>
        <time>2017-03-22T16:04:16Z</time>
      </trkpt>
      <trkpt lat="43.43025" lon="6.12561">
        <ele>185</ele>
        <time>2017-03-22T16:04:20Z</time>
      </trkpt>
      <trkpt lat="43.43018" lon="6.12522">
        <ele>185.19999694824</ele>
        <time>2017-03-22T16:04:26Z</time>
      </trkpt>
      <trkpt lat="43.43007" lon="6.12458">
        <ele>186.60000610352</ele>
        <time>2017-03-22T16:04:36Z</time>
      </trkpt>
      <trkpt lat="43.43003" lon="6.12445">
        <ele>187.19999694824</ele>
        <time>2017-03-22T16:04:38Z</time>
      </trkpt>
      <trkpt lat="43.42986" lon="6.12389">
        <ele>188.80000305176</ele>
        <time>2017-03-22T16:04:48Z</time>
      </trkpt>
      <trkpt lat="43.42983" lon="6.12372">
        <ele>189.39999389648</ele>
        <time>2017-03-22T16:04:51Z</time>
      </trkpt>
      <trkpt lat="43.42979" lon="6.12347">
        <ele>189.39999389648</ele>
        <time>2017-03-22T16:04:55Z</time>
      </trkpt>
      <trkpt lat="43.42974" lon="6.12335">
        <ele>189.39999389648</ele>
        <time>2017-03-22T16:04:57Z</time>
      </trkpt>
      <trkpt lat="43.42967" lon="6.12326">
        <ele>189.39999389648</ele>
        <time>2017-03-22T16:04:59Z</time>
      </trkpt>
      <trkpt lat="43.42958" lon="6.12321">
        <ele>189.19999694824</ele>
        <time>2017-03-22T16:05:01Z</time>
      </trkpt>
      <trkpt lat="43.42931" lon="6.12321">
        <ele>188.60000610352</ele>
        <time>2017-03-22T16:05:06Z</time>
      </trkpt>
      <trkpt lat="43.42914" lon="6.12325">
        <ele>188.19999694824</ele>
        <time>2017-03-22T16:05:09Z</time>
      </trkpt>
      <trkpt lat="43.42902" lon="6.1233">
        <ele>188.19999694824</ele>
        <time>2017-03-22T16:05:11Z</time>
      </trkpt>
      <trkpt lat="43.42892" lon="6.12337">
        <ele>188.19999694824</ele>
        <time>2017-03-22T16:05:13Z</time>
      </trkpt>
      <trkpt lat="43.42883" lon="6.12345">
        <ele>188.19999694824</ele>
        <time>2017-03-22T16:05:15Z</time>
      </trkpt>
      <trkpt lat="43.42878" lon="6.12349">
        <ele>188.19999694824</ele>
        <time>2017-03-22T16:05:16Z</time>
      </trkpt>
      <trkpt lat="43.42838" lon="6.12408">
        <ele>187.39999389648</ele>
        <time>2017-03-22T16:05:26Z</time>
      </trkpt>
      <trkpt lat="43.42833" lon="6.12414">
        <ele>187.19999694824</ele>
        <time>2017-03-22T16:05:27Z</time>
      </trkpt>
      <trkpt lat="43.42797" lon="6.12458">
        <ele>186.60000610352</ele>
        <time>2017-03-22T16:05:35Z</time>
      </trkpt>
      <trkpt lat="43.42786" lon="6.12466">
        <ele>186.39999389648</ele>
        <time>2017-03-22T16:05:37Z</time>
      </trkpt>
      <trkpt lat="43.42776" lon="6.12471">
        <ele>186.19999694824</ele>
        <time>2017-03-22T16:05:39Z</time>
      </trkpt>
      <trkpt lat="43.4276" lon="6.12477">
        <ele>186.19999694824</ele>
        <time>2017-03-22T16:05:42Z</time>
      </trkpt>
      <trkpt lat="43.42741" lon="6.1248">
        <ele>186.60000610352</ele>
        <time>2017-03-22T16:05:46Z</time>
      </trkpt>
      <trkpt lat="43.42727" lon="6.12481">
        <ele>186.80000305176</ele>
        <time>2017-03-22T16:05:49Z</time>
      </trkpt>
      <trkpt lat="43.42705" lon="6.12481">
        <ele>187.19999694824</ele>
        <time>2017-03-22T16:05:54Z</time>
      </trkpt>
      <trkpt lat="43.427" lon="6.12481">
        <ele>187.19999694824</ele>
        <time>2017-03-22T16:05:55Z</time>
      </trkpt>
      <trkpt lat="43.42696" lon="6.12481">
        <ele>187.39999389648</ele>
        <time>2017-03-22T16:05:56Z</time>
      </trkpt>
      <trkpt lat="43.42682" lon="6.1248">
        <ele>187.80000305176</ele>
        <time>2017-03-22T16:05:59Z</time>
      </trkpt>
      <trkpt lat="43.42677" lon="6.12478">
        <ele>187.80000305176</ele>
        <time>2017-03-22T16:06:00Z</time>
      </trkpt>
      <trkpt lat="43.42662" lon="6.12473">
        <ele>188.19999694824</ele>
        <time>2017-03-22T16:06:03Z</time>
      </trkpt>
      <trkpt lat="43.42648" lon="6.12464">
        <ele>188.60000610352</ele>
        <time>2017-03-22T16:06:06Z</time>
      </trkpt>
      <trkpt lat="43.42622" lon="6.12433">
        <ele>188.60000610352</ele>
        <time>2017-03-22T16:06:13Z</time>
      </trkpt>
      <trkpt lat="43.42611" lon="6.12418">
        <ele>188.60000610352</ele>
        <time>2017-03-22T16:06:16Z</time>
      </trkpt>
      <trkpt lat="43.42589" lon="6.12385">
        <ele>188</ele>
        <time>2017-03-22T16:06:22Z</time>
      </trkpt>
      <trkpt lat="43.42575" lon="6.12361">
        <ele>188.39999389648</ele>
        <time>2017-03-22T16:06:26Z</time>
      </trkpt>
      <trkpt lat="43.42569" lon="6.12348">
        <ele>188.39999389648</ele>
        <time>2017-03-22T16:06:28Z</time>
      </trkpt>
      <trkpt lat="43.42551" lon="6.12311">
        <ele>188</ele>
        <time>2017-03-22T16:06:34Z</time>
      </trkpt>
      <trkpt lat="43.42529" lon="6.12255">
        <ele>187.39999389648</ele>
        <time>2017-03-22T16:06:43Z</time>
      </trkpt>
      <trkpt lat="43.42521" lon="6.12237">
        <ele>187.39999389648</ele>
        <time>2017-03-22T16:06:46Z</time>
      </trkpt>
      <trkpt lat="43.42497" lon="6.12183">
        <ele>187.60000610352</ele>
        <time>2017-03-22T16:06:56Z</time>
      </trkpt>
      <trkpt lat="43.42465" lon="6.12134">
        <ele>187.80000305176</ele>
        <time>2017-03-22T16:07:06Z</time>
      </trkpt>
      <trkpt lat="43.42433" lon="6.12093">
        <ele>188.19999694824</ele>
        <time>2017-03-22T16:07:15Z</time>
      </trkpt>
      <trkpt lat="43.42405" lon="6.12038">
        <ele>188.60000610352</ele>
        <time>2017-03-22T16:07:26Z</time>
      </trkpt>
      <trkpt lat="43.424" lon="6.12022">
        <ele>188.60000610352</ele>
        <time>2017-03-22T16:07:29Z</time>
      </trkpt>
      <trkpt lat="43.42391" lon="6.11983">
        <ele>189</ele>
        <time>2017-03-22T16:07:36Z</time>
      </trkpt>
      <trkpt lat="43.42387" lon="6.11967">
        <ele>189.19999694824</ele>
        <time>2017-03-22T16:07:39Z</time>
      </trkpt>
      <trkpt lat="43.42379" lon="6.1193">
        <ele>190</ele>
        <time>2017-03-22T16:07:46Z</time>
      </trkpt>
      <trkpt lat="43.42371" lon="6.11899">
        <ele>190.39999389648</ele>
        <time>2017-03-22T16:07:52Z</time>
      </trkpt>
      <trkpt lat="43.42365" lon="6.11879">
        <ele>191</ele>
        <time>2017-03-22T16:07:56Z</time>
      </trkpt>
      <trkpt lat="43.42358" lon="6.11858">
        <ele>191.39999389648</ele>
        <time>2017-03-22T16:08:00Z</time>
      </trkpt>
      <trkpt lat="43.42348" lon="6.11828">
        <ele>192.19999694824</ele>
        <time>2017-03-22T16:08:06Z</time>
      </trkpt>
      <trkpt lat="43.42322" lon="6.11779">
        <ele>191.80000305176</ele>
        <time>2017-03-22T16:08:16Z</time>
      </trkpt>
      <trkpt lat="43.42305" lon="6.11757">
        <ele>191</ele>
        <time>2017-03-22T16:08:21Z</time>
      </trkpt>
      <trkpt lat="43.42288" lon="6.11736">
        <ele>191</ele>
        <time>2017-03-22T16:08:26Z</time>
      </trkpt>
      <trkpt lat="43.42253" lon="6.1169">
        <ele>191</ele>
        <time>2017-03-22T16:08:36Z</time>
      </trkpt>
      <trkpt lat="43.42222" lon="6.11643">
        <ele>191</ele>
        <time>2017-03-22T16:08:46Z</time>
      </trkpt>
      <trkpt lat="43.42208" lon="6.11618">
        <ele>190.60000610352</ele>
        <time>2017-03-22T16:08:51Z</time>
      </trkpt>
      <trkpt lat="43.42193" lon="6.11592">
        <ele>191.19999694824</ele>
        <time>2017-03-22T16:08:56Z</time>
      </trkpt>
      <trkpt lat="43.42162" lon="6.1154">
        <ele>191.39999389648</ele>
        <time>2017-03-22T16:09:06Z</time>
      </trkpt>
      <trkpt lat="43.42133" lon="6.1149">
        <ele>191.60000610352</ele>
        <time>2017-03-22T16:09:16Z</time>
      </trkpt>
      <trkpt lat="43.42121" lon="6.11469">
        <ele>191.39999389648</ele>
        <time>2017-03-22T16:09:20Z</time>
      </trkpt>
      <trkpt lat="43.42112" lon="6.11453">
        <ele>191.39999389648</ele>
        <time>2017-03-22T16:09:23Z</time>
      </trkpt>
      <trkpt lat="43.42104" lon="6.11439">
        <ele>191</ele>
        <time>2017-03-22T16:09:26Z</time>
      </trkpt>
      <trkpt lat="43.42048" lon="6.11341">
        <ele>190.80000305176</ele>
        <time>2017-03-22T16:09:46Z</time>
      </trkpt>
      <trkpt lat="43.42018" lon="6.11295">
        <ele>190.60000610352</ele>
        <time>2017-03-22T16:09:56Z</time>
      </trkpt>
      <trkpt lat="43.42006" lon="6.11277">
        <ele>190.19999694824</ele>
        <time>2017-03-22T16:10:00Z</time>
      </trkpt>
      <trkpt lat="43.41987" lon="6.11253">
        <ele>189.60000610352</ele>
        <time>2017-03-22T16:10:06Z</time>
      </trkpt>
      <trkpt lat="43.41956" lon="6.11208">
        <ele>190</ele>
        <time>2017-03-22T16:10:16Z</time>
      </trkpt>
      <trkpt lat="43.4193" lon="6.11154">
        <ele>190</ele>
        <time>2017-03-22T16:10:26Z</time>
      </trkpt>
      <trkpt lat="43.4192" lon="6.11094">
        <ele>191</ele>
        <time>2017-03-22T16:10:36Z</time>
      </trkpt>
      <trkpt lat="43.41925" lon="6.11045">
        <ele>191.19999694824</ele>
        <time>2017-03-22T16:10:44Z</time>
      </trkpt>
      <trkpt lat="43.41926" lon="6.11033">
        <ele>191.39999389648</ele>
        <time>2017-03-22T16:10:46Z</time>
      </trkpt>
      <trkpt lat="43.41928" lon="6.10989">
        <ele>192.39999389648</ele>
        <time>2017-03-22T16:10:54Z</time>
      </trkpt>
      <trkpt lat="43.41927" lon="6.10979">
        <ele>192.60000610352</ele>
        <time>2017-03-22T16:10:56Z</time>
      </trkpt>
      <trkpt lat="43.41915" lon="6.10926">
        <ele>193</ele>
        <time>2017-03-22T16:11:06Z</time>
      </trkpt>
      <trkpt lat="43.41906" lon="6.10874">
        <ele>192.39999389648</ele>
        <time>2017-03-22T16:11:15Z</time>
      </trkpt>
      <trkpt lat="43.41906" lon="6.10867">
        <ele>192.39999389648</ele>
        <time>2017-03-22T16:11:16Z</time>
      </trkpt>
      <trkpt lat="43.41913" lon="6.10807">
        <ele>192.60000610352</ele>
        <time>2017-03-22T16:11:26Z</time>
      </trkpt>
      <trkpt lat="43.41921" lon="6.10749">
        <ele>192.60000610352</ele>
        <time>2017-03-22T16:11:36Z</time>
      </trkpt>
      <trkpt lat="43.41938" lon="6.10697">
        <ele>193</ele>
        <time>2017-03-22T16:11:46Z</time>
      </trkpt>
      <trkpt lat="43.41944" lon="6.10681">
        <ele>193.39999389648</ele>
        <time>2017-03-22T16:11:49Z</time>
      </trkpt>
      <trkpt lat="43.41957" lon="6.10642">
        <ele>193</ele>
        <time>2017-03-22T16:11:56Z</time>
      </trkpt>
      <trkpt lat="43.41975" lon="6.10585">
        <ele>193.80000305176</ele>
        <time>2017-03-22T16:12:06Z</time>
      </trkpt>
      <trkpt lat="43.41987" lon="6.10548">
        <ele>194.39999389648</ele>
        <time>2017-03-22T16:12:13Z</time>
      </trkpt>
      <trkpt lat="43.41991" lon="6.10532">
        <ele>194.39999389648</ele>
        <time>2017-03-22T16:12:16Z</time>
      </trkpt>
      <trkpt lat="43.41993" lon="6.1051">
        <ele>194.80000305176</ele>
        <time>2017-03-22T16:12:20Z</time>
      </trkpt>
      <trkpt lat="43.41995" lon="6.10476">
        <ele>195.19999694824</ele>
        <time>2017-03-22T16:12:26Z</time>
      </trkpt>
      <trkpt lat="43.41998" lon="6.10419">
        <ele>195.19999694824</ele>
        <time>2017-03-22T16:12:36Z</time>
      </trkpt>
      <trkpt lat="43.42006" lon="6.10363">
        <ele>195.39999389648</ele>
        <time>2017-03-22T16:12:46Z</time>
      </trkpt>
      <trkpt lat="43.42014" lon="6.10307">
        <ele>195.80000305176</ele>
        <time>2017-03-22T16:12:56Z</time>
      </trkpt>
      <trkpt lat="43.42021" lon="6.10258">
        <ele>196.39999389648</ele>
        <time>2017-03-22T16:13:05Z</time>
      </trkpt>
      <trkpt lat="43.42021" lon="6.10253">
        <ele>196.60000610352</ele>
        <time>2017-03-22T16:13:06Z</time>
      </trkpt>
      <trkpt lat="43.42027" lon="6.10198">
        <ele>197.60000610352</ele>
        <time>2017-03-22T16:13:16Z</time>
      </trkpt>
      <trkpt lat="43.42033" lon="6.10145">
        <ele>198</ele>
        <time>2017-03-22T16:13:26Z</time>
      </trkpt>
      <trkpt lat="43.42042" lon="6.10088">
        <ele>198.39999389648</ele>
        <time>2017-03-22T16:13:36Z</time>
      </trkpt>
      <trkpt lat="43.42051" lon="6.10033">
        <ele>198.80000305176</ele>
        <time>2017-03-22T16:13:46Z</time>
      </trkpt>
      <trkpt lat="43.42062" lon="6.09978">
        <ele>199</ele>
        <time>2017-03-22T16:13:56Z</time>
      </trkpt>
      <trkpt lat="43.42068" lon="6.09953">
        <ele>199.19999694824</ele>
        <time>2017-03-22T16:14:01Z</time>
      </trkpt>
      <trkpt lat="43.42075" lon="6.09928">
        <ele>198.80000305176</ele>
        <time>2017-03-22T16:14:06Z</time>
      </trkpt>
      <trkpt lat="43.42094" lon="6.09879">
        <ele>198.39999389648</ele>
        <time>2017-03-22T16:14:15Z</time>
      </trkpt>
      <trkpt lat="43.42095" lon="6.09873">
        <ele>198.39999389648</ele>
        <time>2017-03-22T16:14:16Z</time>
      </trkpt>
      <trkpt lat="43.42096" lon="6.09854">
        <ele>198.19999694824</ele>
        <time>2017-03-22T16:14:19Z</time>
      </trkpt>
      <trkpt lat="43.42097" lon="6.09827">
        <ele>198</ele>
        <time>2017-03-22T16:14:23Z</time>
      </trkpt>
      <trkpt lat="43.42096" lon="6.09808">
        <ele>198</ele>
        <time>2017-03-22T16:14:26Z</time>
      </trkpt>
      <trkpt lat="43.42085" lon="6.09748">
        <ele>198</ele>
        <time>2017-03-22T16:14:36Z</time>
      </trkpt>
      <trkpt lat="43.42083" lon="6.09742">
        <ele>198</ele>
        <time>2017-03-22T16:14:37Z</time>
      </trkpt>
      <trkpt lat="43.42056" lon="6.09697">
        <ele>198</ele>
        <time>2017-03-22T16:14:46Z</time>
      </trkpt>
      <trkpt lat="43.42017" lon="6.09671">
        <ele>198</ele>
        <time>2017-03-22T16:14:55Z</time>
      </trkpt>
      <trkpt lat="43.42012" lon="6.09669">
        <ele>197.80000305176</ele>
        <time>2017-03-22T16:14:56Z</time>
      </trkpt>
      <trkpt lat="43.41996" lon="6.09665">
        <ele>197.60000610352</ele>
        <time>2017-03-22T16:14:59Z</time>
      </trkpt>
      <trkpt lat="43.41981" lon="6.09663">
        <ele>197.19999694824</ele>
        <time>2017-03-22T16:15:02Z</time>
      </trkpt>
      <trkpt lat="43.41957" lon="6.0966">
        <ele>196.60000610352</ele>
        <time>2017-03-22T16:15:06Z</time>
      </trkpt>
      <trkpt lat="43.41908" lon="6.09656">
        <ele>197</ele>
        <time>2017-03-22T16:15:16Z</time>
      </trkpt>
      <trkpt lat="43.41893" lon="6.09655">
        <ele>197.19999694824</ele>
        <time>2017-03-22T16:15:19Z</time>
      </trkpt>
      <trkpt lat="43.41861" lon="6.09651">
        <ele>198</ele>
        <time>2017-03-22T16:15:26Z</time>
      </trkpt>
      <trkpt lat="43.41833" lon="6.09641">
        <ele>197.80000305176</ele>
        <time>2017-03-22T16:15:32Z</time>
      </trkpt>
      <trkpt lat="43.41825" lon="6.09633">
        <ele>197.60000610352</ele>
        <time>2017-03-22T16:15:34Z</time>
      </trkpt>
      <trkpt lat="43.41817" lon="6.09623">
        <ele>197.39999389648</ele>
        <time>2017-03-22T16:15:36Z</time>
      </trkpt>
      <trkpt lat="43.4179" lon="6.09567">
        <ele>197.19999694824</ele>
        <time>2017-03-22T16:15:46Z</time>
      </trkpt>
      <trkpt lat="43.41767" lon="6.09508">
        <ele>196.80000305176</ele>
        <time>2017-03-22T16:15:56Z</time>
      </trkpt>
      <trkpt lat="43.41764" lon="6.09496">
        <ele>197</ele>
        <time>2017-03-22T16:15:58Z</time>
      </trkpt>
      <trkpt lat="43.41752" lon="6.09443">
        <ele>197</ele>
        <time>2017-03-22T16:16:06Z</time>
      </trkpt>
      <trkpt lat="43.41737" lon="6.0938">
        <ele>196.80000305176</ele>
        <time>2017-03-22T16:16:16Z</time>
      </trkpt>
      <trkpt lat="43.41729" lon="6.09318">
        <ele>196.80000305176</ele>
        <time>2017-03-22T16:16:26Z</time>
      </trkpt>
      <trkpt lat="43.41724" lon="6.09192">
        <ele>197.19999694824</ele>
        <time>2017-03-22T16:16:46Z</time>
      </trkpt>
      <trkpt lat="43.41724" lon="6.0913">
        <ele>197.19999694824</ele>
        <time>2017-03-22T16:16:56Z</time>
      </trkpt>
      <trkpt lat="43.41725" lon="6.0907">
        <ele>197.60000610352</ele>
        <time>2017-03-22T16:17:06Z</time>
      </trkpt>
      <trkpt lat="43.4173" lon="6.09008">
        <ele>197.39999389648</ele>
        <time>2017-03-22T16:17:16Z</time>
      </trkpt>
      <trkpt lat="43.41739" lon="6.08945">
        <ele>197.60000610352</ele>
        <time>2017-03-22T16:17:26Z</time>
      </trkpt>
      <trkpt lat="43.41738" lon="6.08889">
        <ele>197.80000305176</ele>
        <time>2017-03-22T16:17:35Z</time>
      </trkpt>
      <trkpt lat="43.41727" lon="6.0886">
        <ele>197.80000305176</ele>
        <time>2017-03-22T16:17:40Z</time>
      </trkpt>
      <trkpt lat="43.4171" lon="6.08829">
        <ele>197.39999389648</ele>
        <time>2017-03-22T16:17:46Z</time>
      </trkpt>
      <trkpt lat="43.41681" lon="6.08779">
        <ele>197.80000305176</ele>
        <time>2017-03-22T16:17:56Z</time>
      </trkpt>
      <trkpt lat="43.4167" lon="6.08757">
        <ele>198.19999694824</ele>
        <time>2017-03-22T16:18:01Z</time>
      </trkpt>
      <trkpt lat="43.41658" lon="6.08737">
        <ele>198</ele>
        <time>2017-03-22T16:18:06Z</time>
      </trkpt>
      <trkpt lat="43.41644" lon="6.08711">
        <ele>198</ele>
        <time>2017-03-22T16:18:12Z</time>
      </trkpt>
      <trkpt lat="43.41634" lon="6.08692">
        <ele>198.19999694824</ele>
        <time>2017-03-22T16:18:16Z</time>
      </trkpt>
      <trkpt lat="43.41632" lon="6.08687">
        <ele>198.19999694824</ele>
        <time>2017-03-22T16:18:17Z</time>
      </trkpt>
      <trkpt lat="43.41613" lon="6.08638">
        <ele>198</ele>
        <time>2017-03-22T16:18:26Z</time>
      </trkpt>
      <trkpt lat="43.41605" lon="6.08587">
        <ele>198.60000610352</ele>
        <time>2017-03-22T16:18:35Z</time>
      </trkpt>
      <trkpt lat="43.41604" lon="6.08582">
        <ele>198.80000305176</ele>
        <time>2017-03-22T16:18:36Z</time>
      </trkpt>
      <trkpt lat="43.41597" lon="6.08537">
        <ele>199</ele>
        <time>2017-03-22T16:18:43Z</time>
      </trkpt>
      <trkpt lat="43.41594" lon="6.08517">
        <ele>199</ele>
        <time>2017-03-22T16:18:46Z</time>
      </trkpt>
      <trkpt lat="43.41584" lon="6.08451">
        <ele>199.19999694824</ele>
        <time>2017-03-22T16:18:56Z</time>
      </trkpt>
      <trkpt lat="43.41572" lon="6.08386">
        <ele>199</ele>
        <time>2017-03-22T16:19:06Z</time>
      </trkpt>
      <trkpt lat="43.41558" lon="6.08321">
        <ele>198.80000305176</ele>
        <time>2017-03-22T16:19:16Z</time>
      </trkpt>
      <trkpt lat="43.41545" lon="6.08257">
        <ele>198.60000610352</ele>
        <time>2017-03-22T16:19:26Z</time>
      </trkpt>
      <trkpt lat="43.41521" lon="6.08204">
        <ele>199.19999694824</ele>
        <time>2017-03-22T16:19:36Z</time>
      </trkpt>
      <trkpt lat="43.41513" lon="6.08184">
        <ele>199.80000305176</ele>
        <time>2017-03-22T16:19:40Z</time>
      </trkpt>
      <trkpt lat="43.41506" lon="6.0817">
        <ele>200.19999694824</ele>
        <time>2017-03-22T16:19:43Z</time>
      </trkpt>
      <trkpt lat="43.41497" lon="6.08156">
        <ele>200.19999694824</ele>
        <time>2017-03-22T16:19:46Z</time>
      </trkpt>
      <trkpt lat="43.41471" lon="6.08111">
        <ele>199.39999389648</ele>
        <time>2017-03-22T16:19:55Z</time>
      </trkpt>
      <trkpt lat="43.41468" lon="6.08107">
        <ele>199.39999389648</ele>
        <time>2017-03-22T16:19:56Z</time>
      </trkpt>
      <trkpt lat="43.4144" lon="6.08059">
        <ele>199.60000610352</ele>
        <time>2017-03-22T16:20:06Z</time>
      </trkpt>
      <trkpt lat="43.41411" lon="6.08011">
        <ele>199.39999389648</ele>
        <time>2017-03-22T16:20:16Z</time>
      </trkpt>
      <trkpt lat="43.41385" lon="6.0797">
        <ele>199.19999694824</ele>
        <time>2017-03-22T16:20:25Z</time>
      </trkpt>
      <trkpt lat="43.41383" lon="6.07966">
        <ele>199.19999694824</ele>
        <time>2017-03-22T16:20:26Z</time>
      </trkpt>
      <trkpt lat="43.41349" lon="6.07929">
        <ele>200.19999694824</ele>
        <time>2017-03-22T16:20:36Z</time>
      </trkpt>
      <trkpt lat="43.4133" lon="6.07882">
        <ele>200.60000610352</ele>
        <time>2017-03-22T16:20:46Z</time>
      </trkpt>
      <trkpt lat="43.41321" lon="6.0785">
        <ele>200.39999389648</ele>
        <time>2017-03-22T16:20:52Z</time>
      </trkpt>
      <trkpt lat="43.41315" lon="6.07826">
        <ele>200</ele>
        <time>2017-03-22T16:20:56Z</time>
      </trkpt>
      <trkpt lat="43.41312" lon="6.07814">
        <ele>199.80000305176</ele>
        <time>2017-03-22T16:20:58Z</time>
      </trkpt>
      <trkpt lat="43.41299" lon="6.07768">
        <ele>199.80000305176</ele>
        <time>2017-03-22T16:21:06Z</time>
      </trkpt>
      <trkpt lat="43.41294" lon="6.07739">
        <ele>200</ele>
        <time>2017-03-22T16:21:11Z</time>
      </trkpt>
      <trkpt lat="43.41293" lon="6.07722">
        <ele>200.39999389648</ele>
        <time>2017-03-22T16:21:14Z</time>
      </trkpt>
      <trkpt lat="43.41296" lon="6.07692">
        <ele>200.80000305176</ele>
        <time>2017-03-22T16:21:19Z</time>
      </trkpt>
      <trkpt lat="43.41305" lon="6.07651">
        <ele>201.19999694824</ele>
        <time>2017-03-22T16:21:26Z</time>
      </trkpt>
      <trkpt lat="43.41338" lon="6.07543">
        <ele>202</ele>
        <time>2017-03-22T16:21:45Z</time>
      </trkpt>
      <trkpt lat="43.41347" lon="6.07502">
        <ele>202.39999389648</ele>
        <time>2017-03-22T16:21:52Z</time>
      </trkpt>
      <trkpt lat="43.41351" lon="6.07478">
        <ele>202.39999389648</ele>
        <time>2017-03-22T16:21:56Z</time>
      </trkpt>
      <trkpt lat="43.41373" lon="6.07365">
        <ele>204</ele>
        <time>2017-03-22T16:22:16Z</time>
      </trkpt>
      <trkpt lat="43.41378" lon="6.07336">
        <ele>204.39999389648</ele>
        <time>2017-03-22T16:22:22Z</time>
      </trkpt>
      <trkpt lat="43.41385" lon="6.07319">
        <ele>205</ele>
        <time>2017-03-22T16:22:26Z</time>
      </trkpt>
      <trkpt lat="43.41399" lon="6.07273">
        <ele>205.39999389648</ele>
        <time>2017-03-22T16:22:36Z</time>
      </trkpt>
      <trkpt lat="43.41412" lon="6.07232">
        <ele>205.60000610352</ele>
        <time>2017-03-22T16:22:44Z</time>
      </trkpt>
      <trkpt lat="43.41429" lon="6.0718">
        <ele>206.19999694824</ele>
        <time>2017-03-22T16:22:54Z</time>
      </trkpt>
      <trkpt lat="43.41433" lon="6.07169">
        <ele>206.19999694824</ele>
        <time>2017-03-22T16:22:56Z</time>
      </trkpt>
      <trkpt lat="43.41451" lon="6.07114">
        <ele>206.39999389648</ele>
        <time>2017-03-22T16:23:06Z</time>
      </trkpt>
      <trkpt lat="43.41461" lon="6.07087">
        <ele>206.60000610352</ele>
        <time>2017-03-22T16:23:11Z</time>
      </trkpt>
      <trkpt lat="43.41465" lon="6.07081">
        <ele>206.80000305176</ele>
        <time>2017-03-22T16:23:13Z</time>
      </trkpt>
      <trkpt lat="43.4148" lon="6.07078">
        <ele>208</ele>
        <time>2017-03-22T16:23:26Z</time>
      </trkpt>
      <trkpt lat="43.4148" lon="6.07078">
        <ele>208.19999694824</ele>
        <time>2017-03-22T16:24:27Z</time>
      </trkpt>
    </trkseg>
  </trk>
</gpx>